<?xml version="1.0" encoding="UTF-8" ?>
<gpx version="1.1" creator="CartoExploreur 3 3.20" xmlns:xsi="http://www.w3.org/2001/XMLSchema-instance" xmlns="http://www.topografix.com/GPX/1/1" xsi:schemaLocation="http://www.topografix.com/GPX/1/1 http://www.topografix.com/GPX/1/1/gpx.xsd">
    <metadata>
        <time>2012-09-01T09:12:42Z</time>
        <bounds maxlat="45.505874343" maxlon="6.999876201" minlat="45.481326012" minlon="6.946292203" />
    </metadata>
    <trk>
        <name>grde sassiere+ descente 04-AOU-12</name>
        <trkseg>
            <trkpt lat="45.486455737" lon="6.968191769">
                <ele>2180.000000</ele>
                <time>2012-08-04T05:10:12Z</time>
            </trkpt>
            <trkpt lat="45.486459592" lon="6.968200654">
                <ele>2180.000000</ele>
                <time>2012-08-04T05:10:13Z</time>
            </trkpt>
            <trkpt lat="45.486470321" lon="6.968241474">
                <ele>2179.000000</ele>
                <time>2012-08-04T05:10:28Z</time>
            </trkpt>
            <trkpt lat="45.486458251" lon="6.968225632">
                <ele>2179.000000</ele>
                <time>2012-08-04T05:10:39Z</time>
            </trkpt>
            <trkpt lat="45.486444002" lon="6.968250694">
                <ele>2179.000000</ele>
                <time>2012-08-04T05:10:49Z</time>
            </trkpt>
            <trkpt lat="45.486625219" lon="6.968264692">
                <ele>2183.000000</ele>
                <time>2012-08-04T05:10:54Z</time>
            </trkpt>
            <trkpt lat="45.486618681" lon="6.968260752">
                <ele>2186.000000</ele>
                <time>2012-08-04T05:10:55Z</time>
            </trkpt>
            <trkpt lat="45.486614071" lon="6.968254549">
                <ele>2190.000000</ele>
                <time>2012-08-04T05:10:56Z</time>
            </trkpt>
            <trkpt lat="45.486609126" lon="6.968245832">
                <ele>2193.000000</ele>
                <time>2012-08-04T05:10:57Z</time>
            </trkpt>
            <trkpt lat="45.486609545" lon="6.968237031">
                <ele>2196.000000</ele>
                <time>2012-08-04T05:10:58Z</time>
            </trkpt>
            <trkpt lat="45.486610886" lon="6.968230996">
                <ele>2199.000000</ele>
                <time>2012-08-04T05:10:59Z</time>
            </trkpt>
            <trkpt lat="45.486607198" lon="6.968219681">
                <ele>2205.000000</ele>
                <time>2012-08-04T05:11:01Z</time>
            </trkpt>
            <trkpt lat="45.486603258" lon="6.968205515">
                <ele>2210.000000</ele>
                <time>2012-08-04T05:11:03Z</time>
            </trkpt>
            <trkpt lat="45.486602588" lon="6.968204593">
                <ele>2216.000000</ele>
                <time>2012-08-04T05:11:05Z</time>
            </trkpt>
            <trkpt lat="45.486601749" lon="6.968203420">
                <ele>2220.000000</ele>
                <time>2012-08-04T05:11:07Z</time>
            </trkpt>
            <trkpt lat="45.486598648" lon="6.968198810">
                <ele>2225.000000</ele>
                <time>2012-08-04T05:11:08Z</time>
            </trkpt>
            <trkpt lat="45.486599235" lon="6.968201324">
                <ele>2225.000000</ele>
                <time>2012-08-04T05:11:09Z</time>
            </trkpt>
            <trkpt lat="45.486601163" lon="6.968195289">
                <ele>2229.000000</ele>
                <time>2012-08-04T05:11:11Z</time>
            </trkpt>
            <trkpt lat="45.486605689" lon="6.968200319">
                <ele>2233.000000</ele>
                <time>2012-08-04T05:11:13Z</time>
            </trkpt>
            <trkpt lat="45.486605940" lon="6.968203085">
                <ele>2237.000000</ele>
                <time>2012-08-04T05:11:15Z</time>
            </trkpt>
            <trkpt lat="45.486606443" lon="6.968207527">
                <ele>2240.000000</ele>
                <time>2012-08-04T05:11:17Z</time>
            </trkpt>
            <trkpt lat="45.486603007" lon="6.968200151">
                <ele>2244.000000</ele>
                <time>2012-08-04T05:11:19Z</time>
            </trkpt>
            <trkpt lat="45.486596636" lon="6.968192272">
                <ele>2248.000000</ele>
                <time>2012-08-04T05:11:22Z</time>
            </trkpt>
            <trkpt lat="45.486600157" lon="6.968205683">
                <ele>2252.000000</ele>
                <time>2012-08-04T05:11:25Z</time>
            </trkpt>
            <trkpt lat="45.486600324" lon="6.968204090">
                <ele>2255.000000</ele>
                <time>2012-08-04T05:11:28Z</time>
            </trkpt>
            <trkpt lat="45.486598983" lon="6.968196966">
                <ele>2259.000000</ele>
                <time>2012-08-04T05:11:32Z</time>
            </trkpt>
            <trkpt lat="45.486610550" lon="6.968168551">
                <ele>2263.000000</ele>
                <time>2012-08-04T05:11:35Z</time>
            </trkpt>
            <trkpt lat="45.486614238" lon="6.968168384">
                <ele>2263.000000</ele>
                <time>2012-08-04T05:11:36Z</time>
            </trkpt>
            <trkpt lat="45.486616502" lon="6.968155224">
                <ele>2266.000000</ele>
                <time>2012-08-04T05:11:41Z</time>
            </trkpt>
            <trkpt lat="45.486610550" lon="6.968171401">
                <ele>2269.000000</ele>
                <time>2012-08-04T05:11:49Z</time>
            </trkpt>
            <trkpt lat="45.486607114" lon="6.968177520">
                <ele>2272.000000</ele>
                <time>2012-08-04T05:11:54Z</time>
            </trkpt>
            <trkpt lat="45.486612478" lon="6.968170311">
                <ele>2272.000000</ele>
                <time>2012-08-04T05:11:55Z</time>
            </trkpt>
            <trkpt lat="45.486615328" lon="6.968173413">
                <ele>2275.000000</ele>
                <time>2012-08-04T05:12:01Z</time>
            </trkpt>
            <trkpt lat="45.486637540" lon="6.968177101">
                <ele>2278.000000</ele>
                <time>2012-08-04T05:12:12Z</time>
            </trkpt>
            <trkpt lat="45.486633517" lon="6.968188500">
                <ele>2282.000000</ele>
                <time>2012-08-04T05:12:24Z</time>
            </trkpt>
            <trkpt lat="45.486645754" lon="6.968185734">
                <ele>2285.000000</ele>
                <time>2012-08-04T05:12:37Z</time>
            </trkpt>
            <trkpt lat="45.486643910" lon="6.968188500">
                <ele>2287.000000</ele>
                <time>2012-08-04T05:12:50Z</time>
            </trkpt>
            <trkpt lat="45.486639300" lon="6.968174670">
                <ele>2286.000000</ele>
                <time>2012-08-04T05:13:10Z</time>
            </trkpt>
            <trkpt lat="45.486626811" lon="6.968193781">
                <ele>2286.000000</ele>
                <time>2012-08-04T05:13:33Z</time>
            </trkpt>
            <trkpt lat="45.486613568" lon="6.968207946">
                <ele>2286.000000</ele>
                <time>2012-08-04T05:14:01Z</time>
            </trkpt>
            <trkpt lat="45.486603593" lon="6.968228733">
                <ele>2286.000000</ele>
                <time>2012-08-04T05:14:21Z</time>
            </trkpt>
            <trkpt lat="45.486604767" lon="6.968219681">
                <ele>2286.000000</ele>
                <time>2012-08-04T05:14:51Z</time>
            </trkpt>
            <trkpt lat="45.486608790" lon="6.968202246">
                <ele>2286.000000</ele>
                <time>2012-08-04T05:15:19Z</time>
            </trkpt>
            <trkpt lat="45.486611892" lon="6.968184896">
                <ele>2286.000000</ele>
                <time>2012-08-04T05:15:39Z</time>
            </trkpt>
            <trkpt lat="45.486621615" lon="6.968171820">
                <ele>2286.000000</ele>
                <time>2012-08-04T05:15:51Z</time>
            </trkpt>
            <trkpt lat="45.486642653" lon="6.968142483">
                <ele>2286.000000</ele>
                <time>2012-08-04T05:16:22Z</time>
            </trkpt>
            <trkpt lat="45.486646593" lon="6.968146758">
                <ele>2286.000000</ele>
                <time>2012-08-04T05:16:48Z</time>
            </trkpt>
            <trkpt lat="45.486635948" lon="6.968140807">
                <ele>2286.000000</ele>
                <time>2012-08-04T05:17:08Z</time>
            </trkpt>
            <trkpt lat="45.486632511" lon="6.968143992">
                <ele>2286.000000</ele>
                <time>2012-08-04T05:17:33Z</time>
            </trkpt>
            <trkpt lat="45.486673582" lon="6.968156900">
                <ele>2286.000000</ele>
                <time>2012-08-04T05:17:44Z</time>
            </trkpt>
            <trkpt lat="45.486692525" lon="6.968166288">
                <ele>2288.000000</ele>
                <time>2012-08-04T05:17:58Z</time>
            </trkpt>
            <trkpt lat="45.486696633" lon="6.968137370">
                <ele>2288.000000</ele>
                <time>2012-08-04T05:18:09Z</time>
            </trkpt>
            <trkpt lat="45.486693196" lon="6.968135359">
                <ele>2288.000000</ele>
                <time>2012-08-04T05:18:10Z</time>
            </trkpt>
            <trkpt lat="45.486648604" lon="6.967945928">
                <ele>2288.000000</ele>
                <time>2012-08-04T05:18:23Z</time>
            </trkpt>
            <trkpt lat="45.486690598" lon="6.967941821">
                <ele>2289.000000</ele>
                <time>2012-08-04T05:18:27Z</time>
            </trkpt>
            <trkpt lat="45.486884806" lon="6.968185315">
                <ele>2290.000000</ele>
                <time>2012-08-04T05:18:44Z</time>
            </trkpt>
            <trkpt lat="45.486946078" lon="6.968548335">
                <ele>2292.000000</ele>
                <time>2012-08-04T05:19:02Z</time>
            </trkpt>
            <trkpt lat="45.486995447" lon="6.968747573">
                <ele>2293.000000</ele>
                <time>2012-08-04T05:19:13Z</time>
            </trkpt>
            <trkpt lat="45.487031154" lon="6.968808426">
                <ele>2294.000000</ele>
                <time>2012-08-04T05:19:17Z</time>
            </trkpt>
            <trkpt lat="45.487069963" lon="6.968951086">
                <ele>2295.000000</ele>
                <time>2012-08-04T05:19:25Z</time>
            </trkpt>
            <trkpt lat="45.487121176" lon="6.969060050">
                <ele>2296.000000</ele>
                <time>2012-08-04T05:19:32Z</time>
            </trkpt>
            <trkpt lat="45.487302393" lon="6.969078490">
                <ele>2297.000000</ele>
                <time>2012-08-04T05:19:49Z</time>
            </trkpt>
            <trkpt lat="45.487468354" lon="6.968751513">
                <ele>2297.000000</ele>
                <time>2012-08-04T05:20:02Z</time>
            </trkpt>
            <trkpt lat="45.487490650" lon="6.968477257">
                <ele>2297.000000</ele>
                <time>2012-08-04T05:20:16Z</time>
            </trkpt>
            <trkpt lat="45.487504313" lon="6.968422355">
                <ele>2298.000000</ele>
                <time>2012-08-04T05:20:20Z</time>
            </trkpt>
            <trkpt lat="45.487508839" lon="6.968081966">
                <ele>2300.000000</ele>
                <time>2012-08-04T05:20:41Z</time>
            </trkpt>
            <trkpt lat="45.487489980" lon="6.967799161">
                <ele>2302.000000</ele>
                <time>2012-08-04T05:20:57Z</time>
            </trkpt>
            <trkpt lat="45.487453015" lon="6.967506884">
                <ele>2302.000000</ele>
                <time>2012-08-04T05:21:10Z</time>
            </trkpt>
            <trkpt lat="45.487345643" lon="6.967232293">
                <ele>2303.000000</ele>
                <time>2012-08-04T05:21:25Z</time>
            </trkpt>
            <trkpt lat="45.487295268" lon="6.967075886">
                <ele>2303.000000</ele>
                <time>2012-08-04T05:21:39Z</time>
            </trkpt>
            <trkpt lat="45.487295101" lon="6.967064487">
                <ele>2304.000000</ele>
                <time>2012-08-04T05:21:56Z</time>
            </trkpt>
            <trkpt lat="45.487320749" lon="6.967006484">
                <ele>2303.000000</ele>
                <time>2012-08-04T05:22:12Z</time>
            </trkpt>
            <trkpt lat="45.487349834" lon="6.966984607">
                <ele>2307.000000</ele>
                <time>2012-08-04T05:22:17Z</time>
            </trkpt>
            <trkpt lat="45.487386715" lon="6.966942279">
                <ele>2308.000000</ele>
                <time>2012-08-04T05:22:33Z</time>
            </trkpt>
            <trkpt lat="45.487403814" lon="6.966921827">
                <ele>2306.000000</ele>
                <time>2012-08-04T05:22:38Z</time>
            </trkpt>
            <trkpt lat="45.487484448" lon="6.966876816">
                <ele>2309.000000</ele>
                <time>2012-08-04T05:22:53Z</time>
            </trkpt>
            <trkpt lat="45.487563992" lon="6.966841025">
                <ele>2311.000000</ele>
                <time>2012-08-04T05:23:11Z</time>
            </trkpt>
            <trkpt lat="45.487637334" lon="6.966798697">
                <ele>2314.000000</ele>
                <time>2012-08-04T05:23:27Z</time>
            </trkpt>
            <trkpt lat="45.487705562" lon="6.966759050">
                <ele>2316.000000</ele>
                <time>2012-08-04T05:23:42Z</time>
            </trkpt>
            <trkpt lat="45.487764403" lon="6.966702640">
                <ele>2318.000000</ele>
                <time>2012-08-04T05:23:58Z</time>
            </trkpt>
            <trkpt lat="45.487815617" lon="6.966648744">
                <ele>2321.000000</ele>
                <time>2012-08-04T05:24:14Z</time>
            </trkpt>
            <trkpt lat="45.487881750" lon="6.966616809">
                <ele>2323.000000</ele>
                <time>2012-08-04T05:24:30Z</time>
            </trkpt>
            <trkpt lat="45.487908572" lon="6.966576576">
                <ele>2325.000000</ele>
                <time>2012-08-04T05:24:41Z</time>
            </trkpt>
            <trkpt lat="45.487950565" lon="6.966472138">
                <ele>2327.000000</ele>
                <time>2012-08-04T05:25:00Z</time>
            </trkpt>
            <trkpt lat="45.487987781" lon="6.966435173">
                <ele>2328.000000</ele>
                <time>2012-08-04T05:25:13Z</time>
            </trkpt>
            <trkpt lat="45.488020890" lon="6.966393935">
                <ele>2330.000000</ele>
                <time>2012-08-04T05:25:27Z</time>
            </trkpt>
            <trkpt lat="45.488054669" lon="6.966372058">
                <ele>2332.000000</ele>
                <time>2012-08-04T05:25:39Z</time>
            </trkpt>
            <trkpt lat="45.488089789" lon="6.966337273">
                <ele>2334.000000</ele>
                <time>2012-08-04T05:25:56Z</time>
            </trkpt>
            <trkpt lat="45.488118455" lon="6.966289747">
                <ele>2337.000000</ele>
                <time>2012-08-04T05:26:11Z</time>
            </trkpt>
            <trkpt lat="45.488146953" lon="6.966242138">
                <ele>2340.000000</ele>
                <time>2012-08-04T05:26:30Z</time>
            </trkpt>
            <trkpt lat="45.488204705" lon="6.966217747">
                <ele>2341.000000</ele>
                <time>2012-08-04T05:26:45Z</time>
            </trkpt>
            <trkpt lat="45.488251895" lon="6.966192685">
                <ele>2343.000000</ele>
                <time>2012-08-04T05:27:01Z</time>
            </trkpt>
            <trkpt lat="45.488274191" lon="6.966170054">
                <ele>2345.000000</ele>
                <time>2012-08-04T05:27:13Z</time>
            </trkpt>
            <trkpt lat="45.488302102" lon="6.966115320">
                <ele>2347.000000</ele>
                <time>2012-08-04T05:27:29Z</time>
            </trkpt>
            <trkpt lat="45.488357507" lon="6.966089169">
                <ele>2349.000000</ele>
                <time>2012-08-04T05:27:47Z</time>
            </trkpt>
            <trkpt lat="45.488399919" lon="6.966047594">
                <ele>2351.000000</ele>
                <time>2012-08-04T05:28:00Z</time>
            </trkpt>
            <trkpt lat="45.488410648" lon="6.965976683">
                <ele>2352.000000</ele>
                <time>2012-08-04T05:28:12Z</time>
            </trkpt>
            <trkpt lat="45.488442499" lon="6.965908036">
                <ele>2355.000000</ele>
                <time>2012-08-04T05:28:28Z</time>
            </trkpt>
            <trkpt lat="45.488477955" lon="6.965901833">
                <ele>2357.000000</ele>
                <time>2012-08-04T05:28:45Z</time>
            </trkpt>
            <trkpt lat="45.488528665" lon="6.965883728">
                <ele>2359.000000</ele>
                <time>2012-08-04T05:29:00Z</time>
            </trkpt>
            <trkpt lat="45.488555152" lon="6.965853134">
                <ele>2361.000000</ele>
                <time>2012-08-04T05:29:14Z</time>
            </trkpt>
            <trkpt lat="45.488602845" lon="6.965876855">
                <ele>2363.000000</ele>
                <time>2012-08-04T05:29:28Z</time>
            </trkpt>
            <trkpt lat="45.488638217" lon="6.965864869">
                <ele>2366.000000</ele>
                <time>2012-08-04T05:29:46Z</time>
            </trkpt>
            <trkpt lat="45.488708625" lon="6.965844585">
                <ele>2367.000000</ele>
                <time>2012-08-04T05:30:02Z</time>
            </trkpt>
            <trkpt lat="45.488772998" lon="6.965808459">
                <ele>2370.000000</ele>
                <time>2012-08-04T05:30:21Z</time>
            </trkpt>
            <trkpt lat="45.488784900" lon="6.965816086">
                <ele>2372.000000</ele>
                <time>2012-08-04T05:30:33Z</time>
            </trkpt>
            <trkpt lat="45.488803089" lon="6.965819104">
                <ele>2372.000000</ele>
                <time>2012-08-04T05:30:49Z</time>
            </trkpt>
            <trkpt lat="45.488807950" lon="6.965815164">
                <ele>2371.000000</ele>
                <time>2012-08-04T05:31:19Z</time>
            </trkpt>
            <trkpt lat="45.488807531" lon="6.965823714">
                <ele>2371.000000</ele>
                <time>2012-08-04T05:31:51Z</time>
            </trkpt>
            <trkpt lat="45.488806944" lon="6.965830168">
                <ele>2371.000000</ele>
                <time>2012-08-04T05:32:13Z</time>
            </trkpt>
            <trkpt lat="45.488807028" lon="6.965838634">
                <ele>2371.000000</ele>
                <time>2012-08-04T05:32:42Z</time>
            </trkpt>
            <trkpt lat="45.488807783" lon="6.965840980">
                <ele>2371.000000</ele>
                <time>2012-08-04T05:33:08Z</time>
            </trkpt>
            <trkpt lat="45.488807699" lon="6.965841651">
                <ele>2371.000000</ele>
                <time>2012-08-04T05:33:38Z</time>
            </trkpt>
            <trkpt lat="45.488807028" lon="6.965840980">
                <ele>2371.000000</ele>
                <time>2012-08-04T05:34:11Z</time>
            </trkpt>
            <trkpt lat="45.488806106" lon="6.965846764">
                <ele>2371.000000</ele>
                <time>2012-08-04T05:34:37Z</time>
            </trkpt>
            <trkpt lat="45.488802837" lon="6.965851290">
                <ele>2371.000000</ele>
                <time>2012-08-04T05:35:02Z</time>
            </trkpt>
            <trkpt lat="45.488803005" lon="6.965845842">
                <ele>2371.000000</ele>
                <time>2012-08-04T05:35:22Z</time>
            </trkpt>
            <trkpt lat="45.488804011" lon="6.965834862">
                <ele>2371.000000</ele>
                <time>2012-08-04T05:35:52Z</time>
            </trkpt>
            <trkpt lat="45.488808202" lon="6.965825474">
                <ele>2371.000000</ele>
                <time>2012-08-04T05:36:31Z</time>
            </trkpt>
            <trkpt lat="45.488810381" lon="6.965829832">
                <ele>2371.000000</ele>
                <time>2012-08-04T05:37:04Z</time>
            </trkpt>
            <trkpt lat="45.488811806" lon="6.965835700">
                <ele>2371.000000</ele>
                <time>2012-08-04T05:37:41Z</time>
            </trkpt>
            <trkpt lat="45.488809543" lon="6.965835532">
                <ele>2371.000000</ele>
                <time>2012-08-04T05:38:11Z</time>
            </trkpt>
            <trkpt lat="45.488801329" lon="6.965825641">
                <ele>2371.000000</ele>
                <time>2012-08-04T05:38:30Z</time>
            </trkpt>
            <trkpt lat="45.488806525" lon="6.965831174">
                <ele>2372.000000</ele>
                <time>2012-08-04T05:38:43Z</time>
            </trkpt>
            <trkpt lat="45.488833012" lon="6.965785241">
                <ele>2372.000000</ele>
                <time>2012-08-04T05:38:53Z</time>
            </trkpt>
            <trkpt lat="45.488876933" lon="6.965746181">
                <ele>2375.000000</ele>
                <time>2012-08-04T05:39:09Z</time>
            </trkpt>
            <trkpt lat="45.488910042" lon="6.965675522">
                <ele>2377.000000</ele>
                <time>2012-08-04T05:39:26Z</time>
            </trkpt>
            <trkpt lat="45.488914317" lon="6.965621375">
                <ele>2378.000000</ele>
                <time>2012-08-04T05:39:40Z</time>
            </trkpt>
            <trkpt lat="45.488938792" lon="6.965584243">
                <ele>2380.000000</ele>
                <time>2012-08-04T05:39:51Z</time>
            </trkpt>
            <trkpt lat="45.488961674" lon="6.965523725">
                <ele>2382.000000</ele>
                <time>2012-08-04T05:40:06Z</time>
            </trkpt>
            <trkpt lat="45.489005428" lon="6.965511404">
                <ele>2384.000000</ele>
                <time>2012-08-04T05:40:21Z</time>
            </trkpt>
            <trkpt lat="45.489021521" lon="6.965507967">
                <ele>2386.000000</ele>
                <time>2012-08-04T05:40:35Z</time>
            </trkpt>
            <trkpt lat="45.489052534" lon="6.965466728">
                <ele>2388.000000</ele>
                <time>2012-08-04T05:40:49Z</time>
            </trkpt>
            <trkpt lat="45.489098467" lon="6.965445355">
                <ele>2389.000000</ele>
                <time>2012-08-04T05:41:02Z</time>
            </trkpt>
            <trkpt lat="45.489143059" lon="6.965466309">
                <ele>2391.000000</ele>
                <time>2012-08-04T05:41:14Z</time>
            </trkpt>
            <trkpt lat="45.489167701" lon="6.965459772">
                <ele>2392.000000</ele>
                <time>2012-08-04T05:41:26Z</time>
            </trkpt>
            <trkpt lat="45.489191590" lon="6.965478798">
                <ele>2394.000000</ele>
                <time>2012-08-04T05:41:39Z</time>
            </trkpt>
            <trkpt lat="45.489232326" lon="6.965468656">
                <ele>2396.000000</ele>
                <time>2012-08-04T05:41:52Z</time>
            </trkpt>
            <trkpt lat="45.489275493" lon="6.965474775">
                <ele>2398.000000</ele>
                <time>2012-08-04T05:42:05Z</time>
            </trkpt>
            <trkpt lat="45.489306254" lon="6.965453150">
                <ele>2400.000000</ele>
                <time>2012-08-04T05:42:18Z</time>
            </trkpt>
            <trkpt lat="45.489341710" lon="6.965460358">
                <ele>2401.000000</ele>
                <time>2012-08-04T05:42:31Z</time>
            </trkpt>
            <trkpt lat="45.489368364" lon="6.965417611">
                <ele>2403.000000</ele>
                <time>2012-08-04T05:42:45Z</time>
            </trkpt>
            <trkpt lat="45.489409435" lon="6.965376874">
                <ele>2404.000000</ele>
                <time>2012-08-04T05:42:57Z</time>
            </trkpt>
            <trkpt lat="45.489427792" lon="6.965382155">
                <ele>2405.000000</ele>
                <time>2012-08-04T05:43:08Z</time>
            </trkpt>
            <trkpt lat="45.489434414" lon="6.965395901">
                <ele>2406.000000</ele>
                <time>2012-08-04T05:43:24Z</time>
            </trkpt>
            <trkpt lat="45.489480263" lon="6.965427250">
                <ele>2407.000000</ele>
                <time>2012-08-04T05:43:38Z</time>
            </trkpt>
            <trkpt lat="45.489494847" lon="6.965444181">
                <ele>2408.000000</ele>
                <time>2012-08-04T05:43:51Z</time>
            </trkpt>
            <trkpt lat="45.489521753" lon="6.965516182">
                <ele>2411.000000</ele>
                <time>2012-08-04T05:44:05Z</time>
            </trkpt>
            <trkpt lat="45.489570536" lon="6.965582650">
                <ele>2412.000000</ele>
                <time>2012-08-04T05:44:19Z</time>
            </trkpt>
            <trkpt lat="45.489611104" lon="6.965639479">
                <ele>2414.000000</ele>
                <time>2012-08-04T05:44:34Z</time>
            </trkpt>
            <trkpt lat="45.489630215" lon="6.965620369">
                <ele>2415.000000</ele>
                <time>2012-08-04T05:44:44Z</time>
            </trkpt>
            <trkpt lat="45.489654941" lon="6.965592708">
                <ele>2417.000000</ele>
                <time>2012-08-04T05:44:58Z</time>
            </trkpt>
            <trkpt lat="45.489687547" lon="6.965568820">
                <ele>2418.000000</ele>
                <time>2012-08-04T05:45:08Z</time>
            </trkpt>
            <trkpt lat="45.489712274" lon="6.965539986">
                <ele>2420.000000</ele>
                <time>2012-08-04T05:45:22Z</time>
            </trkpt>
            <trkpt lat="45.489736833" lon="6.965504782">
                <ele>2422.000000</ele>
                <time>2012-08-04T05:45:34Z</time>
            </trkpt>
            <trkpt lat="45.489753513" lon="6.965456000">
                <ele>2423.000000</ele>
                <time>2012-08-04T05:45:45Z</time>
            </trkpt>
            <trkpt lat="45.489787208" lon="6.965424232">
                <ele>2424.000000</ele>
                <time>2012-08-04T05:45:55Z</time>
            </trkpt>
            <trkpt lat="45.489813024" lon="6.965488102">
                <ele>2426.000000</ele>
                <time>2012-08-04T05:46:09Z</time>
            </trkpt>
            <trkpt lat="45.489872033" lon="6.965560773">
                <ele>2427.000000</ele>
                <time>2012-08-04T05:46:24Z</time>
            </trkpt>
            <trkpt lat="45.489916122" lon="6.965595726">
                <ele>2429.000000</ele>
                <time>2012-08-04T05:46:37Z</time>
            </trkpt>
            <trkpt lat="45.489925174" lon="6.965530347">
                <ele>2430.000000</ele>
                <time>2012-08-04T05:46:50Z</time>
            </trkpt>
            <trkpt lat="45.489932802" lon="6.965454826">
                <ele>2431.000000</ele>
                <time>2012-08-04T05:47:03Z</time>
            </trkpt>
            <trkpt lat="45.489930790" lon="6.965390537">
                <ele>2432.000000</ele>
                <time>2012-08-04T05:47:14Z</time>
            </trkpt>
            <trkpt lat="45.489931041" lon="6.965317195">
                <ele>2434.000000</ele>
                <time>2012-08-04T05:47:27Z</time>
            </trkpt>
            <trkpt lat="45.489928359" lon="6.965225162">
                <ele>2435.000000</ele>
                <time>2012-08-04T05:47:41Z</time>
            </trkpt>
            <trkpt lat="45.489927437" lon="6.965144193">
                <ele>2437.000000</ele>
                <time>2012-08-04T05:47:56Z</time>
            </trkpt>
            <trkpt lat="45.489922157" lon="6.965099601">
                <ele>2439.000000</ele>
                <time>2012-08-04T05:48:07Z</time>
            </trkpt>
            <trkpt lat="45.489909332" lon="6.965013351">
                <ele>2439.000000</ele>
                <time>2012-08-04T05:48:19Z</time>
            </trkpt>
            <trkpt lat="45.489917211" lon="6.964975716">
                <ele>2442.000000</ele>
                <time>2012-08-04T05:48:34Z</time>
            </trkpt>
            <trkpt lat="45.489943949" lon="6.964865830">
                <ele>2443.000000</ele>
                <time>2012-08-04T05:48:47Z</time>
            </trkpt>
            <trkpt lat="45.489955852" lon="6.964820735">
                <ele>2444.000000</ele>
                <time>2012-08-04T05:48:57Z</time>
            </trkpt>
            <trkpt lat="45.489976890" lon="6.964747477">
                <ele>2446.000000</ele>
                <time>2012-08-04T05:49:09Z</time>
            </trkpt>
            <trkpt lat="45.489999019" lon="6.964679500">
                <ele>2448.000000</ele>
                <time>2012-08-04T05:49:22Z</time>
            </trkpt>
            <trkpt lat="45.490008825" lon="6.964590903">
                <ele>2449.000000</ele>
                <time>2012-08-04T05:49:36Z</time>
            </trkpt>
            <trkpt lat="45.490008909" lon="6.964520412">
                <ele>2451.000000</ele>
                <time>2012-08-04T05:49:47Z</time>
            </trkpt>
            <trkpt lat="45.490014777" lon="6.964477580">
                <ele>2452.000000</ele>
                <time>2012-08-04T05:49:58Z</time>
            </trkpt>
            <trkpt lat="45.490035899" lon="6.964389235">
                <ele>2453.000000</ele>
                <time>2012-08-04T05:50:11Z</time>
            </trkpt>
            <trkpt lat="45.490063811" lon="6.964307092">
                <ele>2455.000000</ele>
                <time>2012-08-04T05:50:27Z</time>
            </trkpt>
            <trkpt lat="45.490084095" lon="6.964247161">
                <ele>2457.000000</ele>
                <time>2012-08-04T05:50:40Z</time>
            </trkpt>
            <trkpt lat="45.490077641" lon="6.964204246">
                <ele>2459.000000</ele>
                <time>2012-08-04T05:50:51Z</time>
            </trkpt>
            <trkpt lat="45.490050064" lon="6.964142891">
                <ele>2460.000000</ele>
                <time>2012-08-04T05:51:01Z</time>
            </trkpt>
            <trkpt lat="45.490052830" lon="6.964090671">
                <ele>2461.000000</ele>
                <time>2012-08-04T05:51:12Z</time>
            </trkpt>
            <trkpt lat="45.490023829" lon="6.964000650">
                <ele>2463.000000</ele>
                <time>2012-08-04T05:51:26Z</time>
            </trkpt>
            <trkpt lat="45.490007484" lon="6.963908365">
                <ele>2464.000000</ele>
                <time>2012-08-04T05:51:43Z</time>
            </trkpt>
            <trkpt lat="45.490011927" lon="6.963887159">
                <ele>2465.000000</ele>
                <time>2012-08-04T05:51:56Z</time>
            </trkpt>
            <trkpt lat="45.489997175" lon="6.963793365">
                <ele>2466.000000</ele>
                <time>2012-08-04T05:52:10Z</time>
            </trkpt>
            <trkpt lat="45.489994995" lon="6.963688172">
                <ele>2468.000000</ele>
                <time>2012-08-04T05:52:24Z</time>
            </trkpt>
            <trkpt lat="45.490016788" lon="6.963608209">
                <ele>2469.000000</ele>
                <time>2012-08-04T05:52:36Z</time>
            </trkpt>
            <trkpt lat="45.490023829" lon="6.963520451">
                <ele>2471.000000</ele>
                <time>2012-08-04T05:52:49Z</time>
            </trkpt>
            <trkpt lat="45.490033133" lon="6.963435877">
                <ele>2472.000000</ele>
                <time>2012-08-04T05:53:01Z</time>
            </trkpt>
            <trkpt lat="45.490040593" lon="6.963376366">
                <ele>2473.000000</ele>
                <time>2012-08-04T05:53:13Z</time>
            </trkpt>
            <trkpt lat="45.490102368" lon="6.963280477">
                <ele>2475.000000</ele>
                <time>2012-08-04T05:53:28Z</time>
            </trkpt>
            <trkpt lat="45.490133548" lon="6.963131782">
                <ele>2476.000000</ele>
                <time>2012-08-04T05:53:43Z</time>
            </trkpt>
            <trkpt lat="45.490114857" lon="6.963007813">
                <ele>2477.000000</ele>
                <time>2012-08-04T05:53:57Z</time>
            </trkpt>
            <trkpt lat="45.490108402" lon="6.962910667">
                <ele>2479.000000</ele>
                <time>2012-08-04T05:54:11Z</time>
            </trkpt>
            <trkpt lat="45.490106558" lon="6.962833721">
                <ele>2480.000000</ele>
                <time>2012-08-04T05:54:24Z</time>
            </trkpt>
            <trkpt lat="45.490100356" lon="6.962725343">
                <ele>2482.000000</ele>
                <time>2012-08-04T05:54:37Z</time>
            </trkpt>
            <trkpt lat="45.490109660" lon="6.962632723">
                <ele>2484.000000</ele>
                <time>2012-08-04T05:54:49Z</time>
            </trkpt>
            <trkpt lat="45.490116114" lon="6.962500457">
                <ele>2485.000000</ele>
                <time>2012-08-04T05:55:02Z</time>
            </trkpt>
            <trkpt lat="45.490149725" lon="6.962387301">
                <ele>2487.000000</ele>
                <time>2012-08-04T05:55:17Z</time>
            </trkpt>
            <trkpt lat="45.490150899" lon="6.962284120">
                <ele>2488.000000</ele>
                <time>2012-08-04T05:55:32Z</time>
            </trkpt>
            <trkpt lat="45.490150480" lon="6.962189404">
                <ele>2490.000000</ele>
                <time>2012-08-04T05:55:45Z</time>
            </trkpt>
            <trkpt lat="45.490150061" lon="6.962083373">
                <ele>2491.000000</ele>
                <time>2012-08-04T05:55:58Z</time>
            </trkpt>
            <trkpt lat="45.490159616" lon="6.961958315">
                <ele>2493.000000</ele>
                <time>2012-08-04T05:56:12Z</time>
            </trkpt>
            <trkpt lat="45.490183337" lon="6.961858906">
                <ele>2495.000000</ele>
                <time>2012-08-04T05:56:26Z</time>
            </trkpt>
            <trkpt lat="45.490221977" lon="6.961773327">
                <ele>2497.000000</ele>
                <time>2012-08-04T05:56:40Z</time>
            </trkpt>
            <trkpt lat="45.490266569" lon="6.961670229">
                <ele>2498.000000</ele>
                <time>2012-08-04T05:56:54Z</time>
            </trkpt>
            <trkpt lat="45.490289703" lon="6.961552715">
                <ele>2500.000000</ele>
                <time>2012-08-04T05:57:07Z</time>
            </trkpt>
            <trkpt lat="45.490328260" lon="6.961477194">
                <ele>2501.000000</ele>
                <time>2012-08-04T05:57:20Z</time>
            </trkpt>
            <trkpt lat="45.490406547" lon="6.961448444">
                <ele>2503.000000</ele>
                <time>2012-08-04T05:57:33Z</time>
            </trkpt>
            <trkpt lat="45.490493383" lon="6.961407373">
                <ele>2504.000000</ele>
                <time>2012-08-04T05:57:47Z</time>
            </trkpt>
            <trkpt lat="45.490573263" lon="6.961365966">
                <ele>2505.000000</ele>
                <time>2012-08-04T05:58:01Z</time>
            </trkpt>
            <trkpt lat="45.490647107" lon="6.961290361">
                <ele>2507.000000</ele>
                <time>2012-08-04T05:58:15Z</time>
            </trkpt>
            <trkpt lat="45.490685748" lon="6.961196903">
                <ele>2508.000000</ele>
                <time>2012-08-04T05:58:28Z</time>
            </trkpt>
            <trkpt lat="45.490739057" lon="6.961194472">
                <ele>2511.000000</ele>
                <time>2012-08-04T05:58:41Z</time>
            </trkpt>
            <trkpt lat="45.490804184" lon="6.961192461">
                <ele>2512.000000</ele>
                <time>2012-08-04T05:58:55Z</time>
            </trkpt>
            <trkpt lat="45.490838885" lon="6.961188940">
                <ele>2514.000000</ele>
                <time>2012-08-04T05:59:07Z</time>
            </trkpt>
            <trkpt lat="45.490902420" lon="6.961154072">
                <ele>2515.000000</ele>
                <time>2012-08-04T05:59:20Z</time>
            </trkpt>
            <trkpt lat="45.490933182" lon="6.961163208">
                <ele>2516.000000</ele>
                <time>2012-08-04T05:59:26Z</time>
            </trkpt>
            <trkpt lat="45.491019767" lon="6.961148707">
                <ele>2517.000000</ele>
                <time>2012-08-04T05:59:40Z</time>
            </trkpt>
            <trkpt lat="45.491097886" lon="6.961137727">
                <ele>2519.000000</ele>
                <time>2012-08-04T05:59:53Z</time>
            </trkpt>
            <trkpt lat="45.491167205" lon="6.961143427">
                <ele>2521.000000</ele>
                <time>2012-08-04T06:00:06Z</time>
            </trkpt>
            <trkpt lat="45.491219424" lon="6.961202100">
                <ele>2523.000000</ele>
                <time>2012-08-04T06:00:21Z</time>
            </trkpt>
            <trkpt lat="45.491280360" lon="6.961253397">
                <ele>2524.000000</ele>
                <time>2012-08-04T06:00:32Z</time>
            </trkpt>
            <trkpt lat="45.491363173" lon="6.961320536">
                <ele>2525.000000</ele>
                <time>2012-08-04T06:00:47Z</time>
            </trkpt>
            <trkpt lat="45.491424780" lon="6.961369487">
                <ele>2526.000000</ele>
                <time>2012-08-04T06:01:01Z</time>
            </trkpt>
            <trkpt lat="45.491468282" lon="6.961396644">
                <ele>2528.000000</ele>
                <time>2012-08-04T06:01:16Z</time>
            </trkpt>
            <trkpt lat="45.491492925" lon="6.961444588">
                <ele>2529.000000</ele>
                <time>2012-08-04T06:01:28Z</time>
            </trkpt>
            <trkpt lat="45.491513377" lon="6.961526228">
                <ele>2531.000000</ele>
                <time>2012-08-04T06:01:42Z</time>
            </trkpt>
            <trkpt lat="45.491564591" lon="6.961588673">
                <ele>2533.000000</ele>
                <time>2012-08-04T06:01:54Z</time>
            </trkpt>
            <trkpt lat="45.491568362" lon="6.961634774">
                <ele>2534.000000</ele>
                <time>2012-08-04T06:02:07Z</time>
            </trkpt>
            <trkpt lat="45.491630808" lon="6.961679533">
                <ele>2536.000000</ele>
                <time>2012-08-04T06:02:22Z</time>
            </trkpt>
            <trkpt lat="45.491685038" lon="6.961669978">
                <ele>2538.000000</ele>
                <time>2012-08-04T06:02:38Z</time>
            </trkpt>
            <trkpt lat="45.491702724" lon="6.961702164">
                <ele>2540.000000</ele>
                <time>2012-08-04T06:02:51Z</time>
            </trkpt>
            <trkpt lat="45.491734408" lon="6.961772824">
                <ele>2542.000000</ele>
                <time>2012-08-04T06:03:06Z</time>
            </trkpt>
            <trkpt lat="45.491756033" lon="6.961803418">
                <ele>2543.000000</ele>
                <time>2012-08-04T06:03:20Z</time>
            </trkpt>
            <trkpt lat="45.491801128" lon="6.961784726">
                <ele>2545.000000</ele>
                <time>2012-08-04T06:03:33Z</time>
            </trkpt>
            <trkpt lat="45.491814120" lon="6.961809285">
                <ele>2546.000000</ele>
                <time>2012-08-04T06:03:44Z</time>
            </trkpt>
            <trkpt lat="45.491840104" lon="6.961801490">
                <ele>2547.000000</ele>
                <time>2012-08-04T06:03:54Z</time>
            </trkpt>
            <trkpt lat="45.491862400" lon="6.961741056">
                <ele>2549.000000</ele>
                <time>2012-08-04T06:04:06Z</time>
            </trkpt>
            <trkpt lat="45.491880421" lon="6.961714821">
                <ele>2550.000000</ele>
                <time>2012-08-04T06:04:17Z</time>
            </trkpt>
            <trkpt lat="45.491901543" lon="6.961635444">
                <ele>2551.000000</ele>
                <time>2012-08-04T06:04:31Z</time>
            </trkpt>
            <trkpt lat="45.491936915" lon="6.961622871">
                <ele>2553.000000</ele>
                <time>2012-08-04T06:04:44Z</time>
            </trkpt>
            <trkpt lat="45.491961641" lon="6.961576939">
                <ele>2554.000000</ele>
                <time>2012-08-04T06:04:55Z</time>
            </trkpt>
            <trkpt lat="45.491988966" lon="6.961538717">
                <ele>2555.000000</ele>
                <time>2012-08-04T06:05:09Z</time>
            </trkpt>
            <trkpt lat="45.492026014" lon="6.961480295">
                <ele>2557.000000</ele>
                <time>2012-08-04T06:05:24Z</time>
            </trkpt>
            <trkpt lat="45.492061470" lon="6.961403014">
                <ele>2559.000000</ele>
                <time>2012-08-04T06:05:40Z</time>
            </trkpt>
            <trkpt lat="45.492095500" lon="6.961338893">
                <ele>2560.000000</ele>
                <time>2012-08-04T06:05:54Z</time>
            </trkpt>
            <trkpt lat="45.492122406" lon="6.961303689">
                <ele>2562.000000</ele>
                <time>2012-08-04T06:06:08Z</time>
            </trkpt>
            <trkpt lat="45.492143109" lon="6.961279465">
                <ele>2563.000000</ele>
                <time>2012-08-04T06:06:21Z</time>
            </trkpt>
            <trkpt lat="45.492163226" lon="6.961263120">
                <ele>2563.000000</ele>
                <time>2012-08-04T06:06:41Z</time>
            </trkpt>
            <trkpt lat="45.492213015" lon="6.961242417">
                <ele>2564.000000</ele>
                <time>2012-08-04T06:06:57Z</time>
            </trkpt>
            <trkpt lat="45.492280489" lon="6.961244596">
                <ele>2565.000000</ele>
                <time>2012-08-04T06:07:10Z</time>
            </trkpt>
            <trkpt lat="45.492326254" lon="6.961237723">
                <ele>2566.000000</ele>
                <time>2012-08-04T06:07:23Z</time>
            </trkpt>
            <trkpt lat="45.492360536" lon="6.961203022">
                <ele>2567.000000</ele>
                <time>2012-08-04T06:07:35Z</time>
            </trkpt>
            <trkpt lat="45.492374115" lon="6.961151306">
                <ele>2569.000000</ele>
                <time>2012-08-04T06:07:50Z</time>
            </trkpt>
            <trkpt lat="45.492407223" lon="6.961084334">
                <ele>2570.000000</ele>
                <time>2012-08-04T06:08:02Z</time>
            </trkpt>
            <trkpt lat="45.492434884" lon="6.961039156">
                <ele>2571.000000</ele>
                <time>2012-08-04T06:08:15Z</time>
            </trkpt>
            <trkpt lat="45.492463550" lon="6.961034127">
                <ele>2573.000000</ele>
                <time>2012-08-04T06:08:30Z</time>
            </trkpt>
            <trkpt lat="45.492492886" lon="6.961082071">
                <ele>2575.000000</ele>
                <time>2012-08-04T06:08:43Z</time>
            </trkpt>
            <trkpt lat="45.492525408" lon="6.961088777">
                <ele>2576.000000</ele>
                <time>2012-08-04T06:08:55Z</time>
            </trkpt>
            <trkpt lat="45.492551057" lon="6.961084418">
                <ele>2577.000000</ele>
                <time>2012-08-04T06:09:06Z</time>
            </trkpt>
            <trkpt lat="45.492583327" lon="6.961053740">
                <ele>2579.000000</ele>
                <time>2012-08-04T06:09:17Z</time>
            </trkpt>
            <trkpt lat="45.492638983" lon="6.960995402">
                <ele>2580.000000</ele>
                <time>2012-08-04T06:09:31Z</time>
            </trkpt>
            <trkpt lat="45.492731770" lon="6.960995318">
                <ele>2582.000000</ele>
                <time>2012-08-04T06:09:45Z</time>
            </trkpt>
            <trkpt lat="45.492761359" lon="6.961023314">
                <ele>2583.000000</ele>
                <time>2012-08-04T06:09:59Z</time>
            </trkpt>
            <trkpt lat="45.492809638" lon="6.960981069">
                <ele>2584.000000</ele>
                <time>2012-08-04T06:10:17Z</time>
            </trkpt>
            <trkpt lat="45.492881052" lon="6.960918875">
                <ele>2585.000000</ele>
                <time>2012-08-04T06:10:33Z</time>
            </trkpt>
            <trkpt lat="45.492927739" lon="6.960876128">
                <ele>2586.000000</ele>
                <time>2012-08-04T06:10:48Z</time>
            </trkpt>
            <trkpt lat="45.493005524" lon="6.960850060">
                <ele>2587.000000</ele>
                <time>2012-08-04T06:11:00Z</time>
            </trkpt>
            <trkpt lat="45.493082721" lon="6.960814772">
                <ele>2588.000000</ele>
                <time>2012-08-04T06:11:13Z</time>
            </trkpt>
            <trkpt lat="45.493135778" lon="6.960760290">
                <ele>2589.000000</ele>
                <time>2012-08-04T06:11:25Z</time>
            </trkpt>
            <trkpt lat="45.493192188" lon="6.960685356">
                <ele>2591.000000</ele>
                <time>2012-08-04T06:11:37Z</time>
            </trkpt>
            <trkpt lat="45.493256813" lon="6.960593239">
                <ele>2592.000000</ele>
                <time>2012-08-04T06:11:50Z</time>
            </trkpt>
            <trkpt lat="45.493287910" lon="6.960515538">
                <ele>2593.000000</ele>
                <time>2012-08-04T06:11:58Z</time>
            </trkpt>
            <trkpt lat="45.493358150" lon="6.960422918">
                <ele>2594.000000</ele>
                <time>2012-08-04T06:12:11Z</time>
            </trkpt>
            <trkpt lat="45.493416237" lon="6.960341195">
                <ele>2595.000000</ele>
                <time>2012-08-04T06:12:24Z</time>
            </trkpt>
            <trkpt lat="45.493490500" lon="6.960294424">
                <ele>2597.000000</ele>
                <time>2012-08-04T06:12:37Z</time>
            </trkpt>
            <trkpt lat="45.493572978" lon="6.960193338">
                <ele>2598.000000</ele>
                <time>2012-08-04T06:12:51Z</time>
            </trkpt>
            <trkpt lat="45.493579432" lon="6.960187638">
                <ele>2599.000000</ele>
                <time>2012-08-04T06:12:52Z</time>
            </trkpt>
            <trkpt lat="45.493659396" lon="6.960124774">
                <ele>2600.000000</ele>
                <time>2012-08-04T06:13:05Z</time>
            </trkpt>
            <trkpt lat="45.493715387" lon="6.960039698">
                <ele>2600.000000</ele>
                <time>2012-08-04T06:13:15Z</time>
            </trkpt>
            <trkpt lat="45.493834242" lon="6.959937438">
                <ele>2602.000000</ele>
                <time>2012-08-04T06:13:32Z</time>
            </trkpt>
            <trkpt lat="45.493883025" lon="6.959912209">
                <ele>2603.000000</ele>
                <time>2012-08-04T06:13:38Z</time>
            </trkpt>
            <trkpt lat="45.493997270" lon="6.959925536">
                <ele>2604.000000</ele>
                <time>2012-08-04T06:13:52Z</time>
            </trkpt>
            <trkpt lat="45.494056614" lon="6.959883291">
                <ele>2605.000000</ele>
                <time>2012-08-04T06:14:05Z</time>
            </trkpt>
            <trkpt lat="45.494102128" lon="6.959838364">
                <ele>2607.000000</ele>
                <time>2012-08-04T06:14:18Z</time>
            </trkpt>
            <trkpt lat="45.494099781" lon="6.959841214">
                <ele>2607.000000</ele>
                <time>2012-08-04T06:14:48Z</time>
            </trkpt>
            <trkpt lat="45.494100200" lon="6.959830988">
                <ele>2607.000000</ele>
                <time>2012-08-04T06:15:20Z</time>
            </trkpt>
            <trkpt lat="45.494103301" lon="6.959833754">
                <ele>2607.000000</ele>
                <time>2012-08-04T06:15:42Z</time>
            </trkpt>
            <trkpt lat="45.494100871" lon="6.959833000">
                <ele>2607.000000</ele>
                <time>2012-08-04T06:16:07Z</time>
            </trkpt>
            <trkpt lat="45.494105900" lon="6.959835598">
                <ele>2607.000000</ele>
                <time>2012-08-04T06:16:34Z</time>
            </trkpt>
            <trkpt lat="45.494106067" lon="6.959827384">
                <ele>2608.000000</ele>
                <time>2012-08-04T06:17:04Z</time>
            </trkpt>
            <trkpt lat="45.494108666" lon="6.959828641">
                <ele>2608.000000</ele>
                <time>2012-08-04T06:17:27Z</time>
            </trkpt>
            <trkpt lat="45.494129369" lon="6.959779188">
                <ele>2608.000000</ele>
                <time>2012-08-04T06:17:43Z</time>
            </trkpt>
            <trkpt lat="45.494206902" lon="6.959723951">
                <ele>2609.000000</ele>
                <time>2012-08-04T06:17:56Z</time>
            </trkpt>
            <trkpt lat="45.494273957" lon="6.959683802">
                <ele>2610.000000</ele>
                <time>2012-08-04T06:18:08Z</time>
            </trkpt>
            <trkpt lat="45.494336151" lon="6.959642563">
                <ele>2612.000000</ele>
                <time>2012-08-04T06:18:21Z</time>
            </trkpt>
            <trkpt lat="45.494406307" lon="6.959580956">
                <ele>2613.000000</ele>
                <time>2012-08-04T06:18:34Z</time>
            </trkpt>
            <trkpt lat="45.494493144" lon="6.959501328">
                <ele>2615.000000</ele>
                <time>2012-08-04T06:18:48Z</time>
            </trkpt>
            <trkpt lat="45.494552320" lon="6.959391106">
                <ele>2616.000000</ele>
                <time>2012-08-04T06:19:01Z</time>
            </trkpt>
            <trkpt lat="45.494627338" lon="6.959305862">
                <ele>2617.000000</ele>
                <time>2012-08-04T06:19:15Z</time>
            </trkpt>
            <trkpt lat="45.494692465" lon="6.959250877">
                <ele>2618.000000</ele>
                <time>2012-08-04T06:19:27Z</time>
            </trkpt>
            <trkpt lat="45.494768321" lon="6.959194886">
                <ele>2620.000000</ele>
                <time>2012-08-04T06:19:40Z</time>
            </trkpt>
            <trkpt lat="45.494816937" lon="6.959143253">
                <ele>2621.000000</ele>
                <time>2012-08-04T06:19:53Z</time>
            </trkpt>
            <trkpt lat="45.494910562" lon="6.959085837">
                <ele>2622.000000</ele>
                <time>2012-08-04T06:20:07Z</time>
            </trkpt>
            <trkpt lat="45.494998405" lon="6.959031019">
                <ele>2624.000000</ele>
                <time>2012-08-04T06:20:22Z</time>
            </trkpt>
            <trkpt lat="45.495070405" lon="6.958976872">
                <ele>2626.000000</ele>
                <time>2012-08-04T06:20:35Z</time>
            </trkpt>
            <trkpt lat="45.495077949" lon="6.958975699">
                <ele>2626.000000</ele>
                <time>2012-08-04T06:20:36Z</time>
            </trkpt>
            <trkpt lat="45.495170318" lon="6.958969412">
                <ele>2627.000000</ele>
                <time>2012-08-04T06:20:49Z</time>
            </trkpt>
            <trkpt lat="45.495280120" lon="6.959067313">
                <ele>2627.000000</ele>
                <time>2012-08-04T06:21:05Z</time>
            </trkpt>
            <trkpt lat="45.495347343" lon="6.959126322">
                <ele>2628.000000</ele>
                <time>2012-08-04T06:21:19Z</time>
            </trkpt>
            <trkpt lat="45.495408196" lon="6.959145768">
                <ele>2630.000000</ele>
                <time>2012-08-04T06:21:33Z</time>
            </trkpt>
            <trkpt lat="45.495473323" lon="6.959169237">
                <ele>2632.000000</ele>
                <time>2012-08-04T06:21:46Z</time>
            </trkpt>
            <trkpt lat="45.495535685" lon="6.959168064">
                <ele>2634.000000</ele>
                <time>2012-08-04T06:22:00Z</time>
            </trkpt>
            <trkpt lat="45.495577427" lon="6.959179295">
                <ele>2635.000000</ele>
                <time>2012-08-04T06:22:11Z</time>
            </trkpt>
            <trkpt lat="45.495596453" lon="6.959201759">
                <ele>2637.000000</ele>
                <time>2012-08-04T06:22:24Z</time>
            </trkpt>
            <trkpt lat="45.495628724" lon="6.959224977">
                <ele>2638.000000</ele>
                <time>2012-08-04T06:22:35Z</time>
            </trkpt>
            <trkpt lat="45.495659988" lon="6.959210476">
                <ele>2639.000000</ele>
                <time>2012-08-04T06:22:48Z</time>
            </trkpt>
            <trkpt lat="45.495684044" lon="6.959228162">
                <ele>2641.000000</ele>
                <time>2012-08-04T06:23:00Z</time>
            </trkpt>
            <trkpt lat="45.495712543" lon="6.959237382">
                <ele>2643.000000</ele>
                <time>2012-08-04T06:23:12Z</time>
            </trkpt>
            <trkpt lat="45.495724194" lon="6.959278537">
                <ele>2645.000000</ele>
                <time>2012-08-04T06:23:26Z</time>
            </trkpt>
            <trkpt lat="45.495735006" lon="6.959317597">
                <ele>2646.000000</ele>
                <time>2012-08-04T06:23:40Z</time>
            </trkpt>
            <trkpt lat="45.495761409" lon="6.959337965">
                <ele>2648.000000</ele>
                <time>2012-08-04T06:23:52Z</time>
            </trkpt>
            <trkpt lat="45.495786136" lon="6.959354142">
                <ele>2649.000000</ele>
                <time>2012-08-04T06:24:07Z</time>
            </trkpt>
            <trkpt lat="45.495808013" lon="6.959380628">
                <ele>2650.000000</ele>
                <time>2012-08-04T06:24:20Z</time>
            </trkpt>
            <trkpt lat="45.495841876" lon="6.959402086">
                <ele>2652.000000</ele>
                <time>2012-08-04T06:24:37Z</time>
            </trkpt>
            <trkpt lat="45.495869368" lon="6.959424717">
                <ele>2654.000000</ele>
                <time>2012-08-04T06:24:51Z</time>
            </trkpt>
            <trkpt lat="45.495899627" lon="6.959429411">
                <ele>2656.000000</ele>
                <time>2012-08-04T06:25:05Z</time>
            </trkpt>
            <trkpt lat="45.495929550" lon="6.959430249">
                <ele>2657.000000</ele>
                <time>2012-08-04T06:25:17Z</time>
            </trkpt>
            <trkpt lat="45.495963581" lon="6.959408792">
                <ele>2659.000000</ele>
                <time>2012-08-04T06:25:32Z</time>
            </trkpt>
            <trkpt lat="45.495997192" lon="6.959405187">
                <ele>2660.000000</ele>
                <time>2012-08-04T06:25:43Z</time>
            </trkpt>
            <trkpt lat="45.496013369" lon="6.959448773">
                <ele>2662.000000</ele>
                <time>2012-08-04T06:25:56Z</time>
            </trkpt>
            <trkpt lat="45.496010771" lon="6.959505100">
                <ele>2664.000000</ele>
                <time>2012-08-04T06:26:12Z</time>
            </trkpt>
            <trkpt lat="45.496007418" lon="6.959549356">
                <ele>2665.000000</ele>
                <time>2012-08-04T06:26:28Z</time>
            </trkpt>
            <trkpt lat="45.496030888" lon="6.959567377">
                <ele>2668.000000</ele>
                <time>2012-08-04T06:26:41Z</time>
            </trkpt>
            <trkpt lat="45.496063158" lon="6.959573915">
                <ele>2669.000000</ele>
                <time>2012-08-04T06:26:54Z</time>
            </trkpt>
            <trkpt lat="45.496086963" lon="6.959580453">
                <ele>2671.000000</ele>
                <time>2012-08-04T06:27:10Z</time>
            </trkpt>
            <trkpt lat="45.496115377" lon="6.959588416">
                <ele>2673.000000</ele>
                <time>2012-08-04T06:27:22Z</time>
            </trkpt>
            <trkpt lat="45.496148486" lon="6.959615406">
                <ele>2674.000000</ele>
                <time>2012-08-04T06:27:35Z</time>
            </trkpt>
            <trkpt lat="45.496169776" lon="6.959608616">
                <ele>2675.000000</ele>
                <time>2012-08-04T06:27:47Z</time>
            </trkpt>
            <trkpt lat="45.496197604" lon="6.959586991">
                <ele>2676.000000</ele>
                <time>2012-08-04T06:27:58Z</time>
            </trkpt>
            <trkpt lat="45.496210931" lon="6.959596882">
                <ele>2678.000000</ele>
                <time>2012-08-04T06:28:11Z</time>
            </trkpt>
            <trkpt lat="45.496223923" lon="6.959606605">
                <ele>2680.000000</ele>
                <time>2012-08-04T06:28:27Z</time>
            </trkpt>
            <trkpt lat="45.496262480" lon="6.959591936">
                <ele>2681.000000</ele>
                <time>2012-08-04T06:28:39Z</time>
            </trkpt>
            <trkpt lat="45.496294331" lon="6.959595038">
                <ele>2683.000000</ele>
                <time>2012-08-04T06:28:54Z</time>
            </trkpt>
            <trkpt lat="45.496310508" lon="6.959606856">
                <ele>2685.000000</ele>
                <time>2012-08-04T06:29:09Z</time>
            </trkpt>
            <trkpt lat="45.496322494" lon="6.959621441">
                <ele>2686.000000</ele>
                <time>2012-08-04T06:29:22Z</time>
            </trkpt>
            <trkpt lat="45.496320901" lon="6.959645329">
                <ele>2688.000000</ele>
                <time>2012-08-04T06:29:38Z</time>
            </trkpt>
            <trkpt lat="45.496320063" lon="6.959655555">
                <ele>2689.000000</ele>
                <time>2012-08-04T06:29:53Z</time>
            </trkpt>
            <trkpt lat="45.496331547" lon="6.959683886">
                <ele>2690.000000</ele>
                <time>2012-08-04T06:30:06Z</time>
            </trkpt>
            <trkpt lat="45.496346299" lon="6.959701823">
                <ele>2692.000000</ele>
                <time>2012-08-04T06:30:22Z</time>
            </trkpt>
            <trkpt lat="45.496360464" lon="6.959693525">
                <ele>2693.000000</ele>
                <time>2012-08-04T06:30:36Z</time>
            </trkpt>
            <trkpt lat="45.496388795" lon="6.959698554">
                <ele>2694.000000</ele>
                <time>2012-08-04T06:30:53Z</time>
            </trkpt>
            <trkpt lat="45.496374797" lon="6.959731076">
                <ele>2696.000000</ele>
                <time>2012-08-04T06:31:05Z</time>
            </trkpt>
            <trkpt lat="45.496367589" lon="6.959735434">
                <ele>2696.000000</ele>
                <time>2012-08-04T06:31:35Z</time>
            </trkpt>
            <trkpt lat="45.496335234" lon="6.959769130">
                <ele>2697.000000</ele>
                <time>2012-08-04T06:31:51Z</time>
            </trkpt>
            <trkpt lat="45.496349400" lon="6.959784972">
                <ele>2699.000000</ele>
                <time>2012-08-04T06:32:07Z</time>
            </trkpt>
            <trkpt lat="45.496364990" lon="6.959817158">
                <ele>2699.000000</ele>
                <time>2012-08-04T06:32:20Z</time>
            </trkpt>
            <trkpt lat="45.496348645" lon="6.959849847">
                <ele>2700.000000</ele>
                <time>2012-08-04T06:32:33Z</time>
            </trkpt>
            <trkpt lat="45.496345628" lon="6.959904497">
                <ele>2702.000000</ele>
                <time>2012-08-04T06:32:47Z</time>
            </trkpt>
            <trkpt lat="45.496336492" lon="6.959909527">
                <ele>2703.000000</ele>
                <time>2012-08-04T06:32:59Z</time>
            </trkpt>
            <trkpt lat="45.496306652" lon="6.959954537">
                <ele>2704.000000</ele>
                <time>2012-08-04T06:33:12Z</time>
            </trkpt>
            <trkpt lat="45.496277148" lon="6.960006673">
                <ele>2705.000000</ele>
                <time>2012-08-04T06:33:23Z</time>
            </trkpt>
            <trkpt lat="45.496258289" lon="6.960047828">
                <ele>2707.000000</ele>
                <time>2012-08-04T06:33:38Z</time>
            </trkpt>
            <trkpt lat="45.496261306" lon="6.960121756">
                <ele>2708.000000</ele>
                <time>2012-08-04T06:33:50Z</time>
            </trkpt>
            <trkpt lat="45.496242111" lon="6.960157463">
                <ele>2711.000000</ele>
                <time>2012-08-04T06:34:07Z</time>
            </trkpt>
            <trkpt lat="45.496225851" lon="6.960218567">
                <ele>2712.000000</ele>
                <time>2012-08-04T06:34:22Z</time>
            </trkpt>
            <trkpt lat="45.496210176" lon="6.960292077">
                <ele>2713.000000</ele>
                <time>2012-08-04T06:34:35Z</time>
            </trkpt>
            <trkpt lat="45.496202046" lon="6.960371789">
                <ele>2714.000000</ele>
                <time>2012-08-04T06:34:49Z</time>
            </trkpt>
            <trkpt lat="45.496190395" lon="6.960461307">
                <ele>2715.000000</ele>
                <time>2012-08-04T06:35:06Z</time>
            </trkpt>
            <trkpt lat="45.496187881" lon="6.960510425">
                <ele>2718.000000</ele>
                <time>2012-08-04T06:35:22Z</time>
            </trkpt>
            <trkpt lat="45.496186372" lon="6.960552419">
                <ele>2719.000000</ele>
                <time>2012-08-04T06:35:32Z</time>
            </trkpt>
            <trkpt lat="45.496182432" lon="6.960602626">
                <ele>2720.000000</ele>
                <time>2012-08-04T06:35:44Z</time>
            </trkpt>
            <trkpt lat="45.496152006" lon="6.960657528">
                <ele>2722.000000</ele>
                <time>2012-08-04T06:35:59Z</time>
            </trkpt>
            <trkpt lat="45.496146558" lon="6.960693151">
                <ele>2723.000000</ele>
                <time>2012-08-04T06:36:12Z</time>
            </trkpt>
            <trkpt lat="45.496139433" lon="6.960744113">
                <ele>2725.000000</ele>
                <time>2012-08-04T06:36:23Z</time>
            </trkpt>
            <trkpt lat="45.496132895" lon="6.960784681">
                <ele>2726.000000</ele>
                <time>2012-08-04T06:36:34Z</time>
            </trkpt>
            <trkpt lat="45.496132979" lon="6.960830698">
                <ele>2727.000000</ele>
                <time>2012-08-04T06:36:45Z</time>
            </trkpt>
            <trkpt lat="45.496124513" lon="6.960886521">
                <ele>2728.000000</ele>
                <time>2012-08-04T06:36:55Z</time>
            </trkpt>
            <trkpt lat="45.496111270" lon="6.960933209">
                <ele>2730.000000</ele>
                <time>2012-08-04T06:37:08Z</time>
            </trkpt>
            <trkpt lat="45.496103223" lon="6.960980566">
                <ele>2731.000000</ele>
                <time>2012-08-04T06:37:20Z</time>
            </trkpt>
            <trkpt lat="45.496115796" lon="6.961048376">
                <ele>2734.000000</ele>
                <time>2012-08-04T06:37:36Z</time>
            </trkpt>
            <trkpt lat="45.496117473" lon="6.961084753">
                <ele>2735.000000</ele>
                <time>2012-08-04T06:37:49Z</time>
            </trkpt>
            <trkpt lat="45.496108253" lon="6.961152228">
                <ele>2736.000000</ele>
                <time>2012-08-04T06:38:00Z</time>
            </trkpt>
            <trkpt lat="45.496105654" lon="6.961196065">
                <ele>2738.000000</ele>
                <time>2012-08-04T06:38:16Z</time>
            </trkpt>
            <trkpt lat="45.496083358" lon="6.961253313">
                <ele>2739.000000</ele>
                <time>2012-08-04T06:38:27Z</time>
            </trkpt>
            <trkpt lat="45.496080341" lon="6.961281560">
                <ele>2741.000000</ele>
                <time>2012-08-04T06:38:39Z</time>
            </trkpt>
            <trkpt lat="45.496071875" lon="6.961302264">
                <ele>2742.000000</ele>
                <time>2012-08-04T06:38:58Z</time>
            </trkpt>
            <trkpt lat="45.496066343" lon="6.961379545">
                <ele>2744.000000</ele>
                <time>2012-08-04T06:39:15Z</time>
            </trkpt>
            <trkpt lat="45.496066343" lon="6.961398572">
                <ele>2745.000000</ele>
                <time>2012-08-04T06:39:28Z</time>
            </trkpt>
            <trkpt lat="45.496048657" lon="6.961451294">
                <ele>2746.000000</ele>
                <time>2012-08-04T06:39:37Z</time>
            </trkpt>
            <trkpt lat="45.496032313" lon="6.961503345">
                <ele>2747.000000</ele>
                <time>2012-08-04T06:39:48Z</time>
            </trkpt>
            <trkpt lat="45.496048406" lon="6.961548021">
                <ele>2748.000000</ele>
                <time>2012-08-04T06:39:58Z</time>
            </trkpt>
            <trkpt lat="45.496085957" lon="6.961557996">
                <ele>2750.000000</ele>
                <time>2012-08-04T06:40:09Z</time>
            </trkpt>
            <trkpt lat="45.496090148" lon="6.961589092">
                <ele>2751.000000</ele>
                <time>2012-08-04T06:40:21Z</time>
            </trkpt>
            <trkpt lat="45.496113868" lon="6.961608706">
                <ele>2752.000000</ele>
                <time>2012-08-04T06:40:33Z</time>
            </trkpt>
            <trkpt lat="45.496129794" lon="6.961631421">
                <ele>2754.000000</ele>
                <time>2012-08-04T06:40:44Z</time>
            </trkpt>
            <trkpt lat="45.496130046" lon="6.961671319">
                <ele>2755.000000</ele>
                <time>2012-08-04T06:40:55Z</time>
            </trkpt>
            <trkpt lat="45.496138092" lon="6.961714318">
                <ele>2757.000000</ele>
                <time>2012-08-04T06:41:07Z</time>
            </trkpt>
            <trkpt lat="45.496098446" lon="6.961776260">
                <ele>2759.000000</ele>
                <time>2012-08-04T06:41:21Z</time>
            </trkpt>
            <trkpt lat="45.496087130" lon="6.961815488">
                <ele>2760.000000</ele>
                <time>2012-08-04T06:41:33Z</time>
            </trkpt>
            <trkpt lat="45.496119568" lon="6.961839041">
                <ele>2761.000000</ele>
                <time>2012-08-04T06:41:47Z</time>
            </trkpt>
            <trkpt lat="45.496148905" lon="6.961845076">
                <ele>2763.000000</ele>
                <time>2012-08-04T06:42:03Z</time>
            </trkpt>
            <trkpt lat="45.496229455" lon="6.961834095">
                <ele>2765.000000</ele>
                <time>2012-08-04T06:42:16Z</time>
            </trkpt>
            <trkpt lat="45.496271113" lon="6.961859912">
                <ele>2767.000000</ele>
                <time>2012-08-04T06:42:29Z</time>
            </trkpt>
            <trkpt lat="45.496297516" lon="6.961865863">
                <ele>2769.000000</ele>
                <time>2012-08-04T06:42:40Z</time>
            </trkpt>
            <trkpt lat="45.496326769" lon="6.961864857">
                <ele>2770.000000</ele>
                <time>2012-08-04T06:42:54Z</time>
            </trkpt>
            <trkpt lat="45.496336073" lon="6.961890422">
                <ele>2772.000000</ele>
                <time>2012-08-04T06:43:07Z</time>
            </trkpt>
            <trkpt lat="45.496330876" lon="6.961923279">
                <ele>2773.000000</ele>
                <time>2012-08-04T06:43:21Z</time>
            </trkpt>
            <trkpt lat="45.496334564" lon="6.961951861">
                <ele>2774.000000</ele>
                <time>2012-08-04T06:43:36Z</time>
            </trkpt>
            <trkpt lat="45.496331211" lon="6.961996453">
                <ele>2776.000000</ele>
                <time>2012-08-04T06:43:51Z</time>
            </trkpt>
            <trkpt lat="45.496308077" lon="6.962068789">
                <ele>2777.000000</ele>
                <time>2012-08-04T06:44:02Z</time>
            </trkpt>
            <trkpt lat="45.496311597" lon="6.962118577">
                <ele>2779.000000</ele>
                <time>2012-08-04T06:44:14Z</time>
            </trkpt>
            <trkpt lat="45.496337917" lon="6.962139113">
                <ele>2781.000000</ele>
                <time>2012-08-04T06:44:32Z</time>
            </trkpt>
            <trkpt lat="45.496391477" lon="6.962154619">
                <ele>2783.000000</ele>
                <time>2012-08-04T06:44:44Z</time>
            </trkpt>
            <trkpt lat="45.496392651" lon="6.962192757">
                <ele>2784.000000</ele>
                <time>2012-08-04T06:44:56Z</time>
            </trkpt>
            <trkpt lat="45.496383849" lon="6.962238438">
                <ele>2785.000000</ele>
                <time>2012-08-04T06:45:09Z</time>
            </trkpt>
            <trkpt lat="45.496386532" lon="6.962280767">
                <ele>2787.000000</ele>
                <time>2012-08-04T06:45:23Z</time>
            </trkpt>
            <trkpt lat="45.496355183" lon="6.962346649">
                <ele>2788.000000</ele>
                <time>2012-08-04T06:45:36Z</time>
            </trkpt>
            <trkpt lat="45.496369433" lon="6.962372800">
                <ele>2790.000000</ele>
                <time>2012-08-04T06:45:51Z</time>
            </trkpt>
            <trkpt lat="45.496403463" lon="6.962393671">
                <ele>2792.000000</ele>
                <time>2012-08-04T06:46:06Z</time>
            </trkpt>
            <trkpt lat="45.496421233" lon="6.962429881">
                <ele>2795.000000</ele>
                <time>2012-08-04T06:46:22Z</time>
            </trkpt>
            <trkpt lat="45.496471860" lon="6.962471204">
                <ele>2796.000000</ele>
                <time>2012-08-04T06:46:37Z</time>
            </trkpt>
            <trkpt lat="45.496468171" lon="6.962514538">
                <ele>2798.000000</ele>
                <time>2012-08-04T06:46:49Z</time>
            </trkpt>
            <trkpt lat="45.496442858" lon="6.962565752">
                <ele>2799.000000</ele>
                <time>2012-08-04T06:47:00Z</time>
            </trkpt>
            <trkpt lat="45.496468674" lon="6.962601207">
                <ele>2801.000000</ele>
                <time>2012-08-04T06:47:12Z</time>
            </trkpt>
            <trkpt lat="45.496508572" lon="6.962642781">
                <ele>2802.000000</ele>
                <time>2012-08-04T06:47:25Z</time>
            </trkpt>
            <trkpt lat="45.496478146" lon="6.962701539">
                <ele>2803.000000</ele>
                <time>2012-08-04T06:47:38Z</time>
            </trkpt>
            <trkpt lat="45.496472530" lon="6.962756943">
                <ele>2805.000000</ele>
                <time>2012-08-04T06:47:52Z</time>
            </trkpt>
            <trkpt lat="45.496482672" lon="6.962840427">
                <ele>2808.000000</ele>
                <time>2012-08-04T06:48:07Z</time>
            </trkpt>
            <trkpt lat="45.496479655" lon="6.962894909">
                <ele>2809.000000</ele>
                <time>2012-08-04T06:48:20Z</time>
            </trkpt>
            <trkpt lat="45.496451827" lon="6.962937657">
                <ele>2810.000000</ele>
                <time>2012-08-04T06:48:32Z</time>
            </trkpt>
            <trkpt lat="45.496463142" lon="6.962973448">
                <ele>2812.000000</ele>
                <time>2012-08-04T06:48:45Z</time>
            </trkpt>
            <trkpt lat="45.496444199" lon="6.963023068">
                <ele>2813.000000</ele>
                <time>2012-08-04T06:49:02Z</time>
            </trkpt>
            <trkpt lat="45.496414946" lon="6.963091465">
                <ele>2815.000000</ele>
                <time>2012-08-04T06:49:15Z</time>
            </trkpt>
            <trkpt lat="45.496378401" lon="6.963166231">
                <ele>2816.000000</ele>
                <time>2012-08-04T06:49:27Z</time>
            </trkpt>
            <trkpt lat="45.496344287" lon="6.963215014">
                <ele>2819.000000</ele>
                <time>2012-08-04T06:49:42Z</time>
            </trkpt>
            <trkpt lat="45.496303383" lon="6.963262539">
                <ele>2821.000000</ele>
                <time>2012-08-04T06:49:55Z</time>
            </trkpt>
            <trkpt lat="45.496251918" lon="6.963301767">
                <ele>2822.000000</ele>
                <time>2012-08-04T06:50:07Z</time>
            </trkpt>
            <trkpt lat="45.496216463" lon="6.963367062">
                <ele>2824.000000</ele>
                <time>2012-08-04T06:50:22Z</time>
            </trkpt>
            <trkpt lat="45.496191736" lon="6.963435626">
                <ele>2826.000000</ele>
                <time>2012-08-04T06:50:37Z</time>
            </trkpt>
            <trkpt lat="45.496169608" lon="6.963479715">
                <ele>2827.000000</ele>
                <time>2012-08-04T06:50:47Z</time>
            </trkpt>
            <trkpt lat="45.496144714" lon="6.963520534">
                <ele>2828.000000</ele>
                <time>2012-08-04T06:50:58Z</time>
            </trkpt>
            <trkpt lat="45.496158795" lon="6.963572586">
                <ele>2829.000000</ele>
                <time>2012-08-04T06:51:10Z</time>
            </trkpt>
            <trkpt lat="45.496164244" lon="6.963652717">
                <ele>2832.000000</ele>
                <time>2012-08-04T06:51:32Z</time>
            </trkpt>
            <trkpt lat="45.496152006" lon="6.963729328">
                <ele>2834.000000</ele>
                <time>2012-08-04T06:51:45Z</time>
            </trkpt>
            <trkpt lat="45.496120742" lon="6.963801915">
                <ele>2835.000000</ele>
                <time>2012-08-04T06:51:56Z</time>
            </trkpt>
            <trkpt lat="45.496077826" lon="6.963863019">
                <ele>2836.000000</ele>
                <time>2012-08-04T06:52:08Z</time>
            </trkpt>
            <trkpt lat="45.496065421" lon="6.963890511">
                <ele>2837.000000</ele>
                <time>2012-08-04T06:52:21Z</time>
            </trkpt>
            <trkpt lat="45.496032648" lon="6.963952789">
                <ele>2839.000000</ele>
                <time>2012-08-04T06:52:32Z</time>
            </trkpt>
            <trkpt lat="45.496019069" lon="6.964037195">
                <ele>2842.000000</ele>
                <time>2012-08-04T06:52:51Z</time>
            </trkpt>
            <trkpt lat="45.496009430" lon="6.964077596">
                <ele>2843.000000</ele>
                <time>2012-08-04T06:53:03Z</time>
            </trkpt>
            <trkpt lat="45.496002305" lon="6.964107268">
                <ele>2843.000000</ele>
                <time>2012-08-04T06:53:13Z</time>
            </trkpt>
            <trkpt lat="45.496005323" lon="6.964104669">
                <ele>2843.000000</ele>
                <time>2012-08-04T06:53:40Z</time>
            </trkpt>
            <trkpt lat="45.496003395" lon="6.964116069">
                <ele>2844.000000</ele>
                <time>2012-08-04T06:54:17Z</time>
            </trkpt>
            <trkpt lat="45.496003060" lon="6.964109782">
                <ele>2844.000000</ele>
                <time>2012-08-04T06:54:57Z</time>
            </trkpt>
            <trkpt lat="45.495998869" lon="6.964110453">
                <ele>2844.000000</ele>
                <time>2012-08-04T06:55:33Z</time>
            </trkpt>
            <trkpt lat="45.495998785" lon="6.964126714">
                <ele>2844.000000</ele>
                <time>2012-08-04T06:56:12Z</time>
            </trkpt>
            <trkpt lat="45.496000629" lon="6.964115649">
                <ele>2845.000000</ele>
                <time>2012-08-04T06:56:52Z</time>
            </trkpt>
            <trkpt lat="45.496013789" lon="6.964124115">
                <ele>2845.000000</ele>
                <time>2012-08-04T06:57:25Z</time>
            </trkpt>
            <trkpt lat="45.495994845" lon="6.964123864">
                <ele>2845.000000</ele>
                <time>2012-08-04T06:57:58Z</time>
            </trkpt>
            <trkpt lat="45.496004149" lon="6.964117829">
                <ele>2845.000000</ele>
                <time>2012-08-04T06:58:31Z</time>
            </trkpt>
            <trkpt lat="45.496013369" lon="6.964112297">
                <ele>2845.000000</ele>
                <time>2012-08-04T06:59:12Z</time>
            </trkpt>
            <trkpt lat="45.496010520" lon="6.964116488">
                <ele>2844.000000</ele>
                <time>2012-08-04T06:59:52Z</time>
            </trkpt>
            <trkpt lat="45.496014124" lon="6.964125540">
                <ele>2845.000000</ele>
                <time>2012-08-04T07:00:32Z</time>
            </trkpt>
            <trkpt lat="45.496009179" lon="6.964118332">
                <ele>2845.000000</ele>
                <time>2012-08-04T07:01:13Z</time>
            </trkpt>
            <trkpt lat="45.496012615" lon="6.964119673">
                <ele>2845.000000</ele>
                <time>2012-08-04T07:01:48Z</time>
            </trkpt>
            <trkpt lat="45.496008424" lon="6.964107184">
                <ele>2845.000000</ele>
                <time>2012-08-04T07:02:05Z</time>
            </trkpt>
            <trkpt lat="45.496026529" lon="6.964140041">
                <ele>2845.000000</ele>
                <time>2012-08-04T07:02:16Z</time>
            </trkpt>
            <trkpt lat="45.496035582" lon="6.964211036">
                <ele>2846.000000</ele>
                <time>2012-08-04T07:02:26Z</time>
            </trkpt>
            <trkpt lat="45.496028122" lon="6.964283707">
                <ele>2847.000000</ele>
                <time>2012-08-04T07:02:38Z</time>
            </trkpt>
            <trkpt lat="45.495993588" lon="6.964408681">
                <ele>2849.000000</ele>
                <time>2012-08-04T07:02:52Z</time>
            </trkpt>
            <trkpt lat="45.495954193" lon="6.964524435">
                <ele>2850.000000</ele>
                <time>2012-08-04T07:03:06Z</time>
            </trkpt>
            <trkpt lat="45.495931311" lon="6.964625772">
                <ele>2852.000000</ele>
                <time>2012-08-04T07:03:19Z</time>
            </trkpt>
            <trkpt lat="45.495912703" lon="6.964705232">
                <ele>2853.000000</ele>
                <time>2012-08-04T07:03:33Z</time>
            </trkpt>
            <trkpt lat="45.495927120" lon="6.964778742">
                <ele>2855.000000</ele>
                <time>2012-08-04T07:03:46Z</time>
            </trkpt>
            <trkpt lat="45.495927371" lon="6.964858035">
                <ele>2856.000000</ele>
                <time>2012-08-04T07:03:59Z</time>
            </trkpt>
            <trkpt lat="45.495936172" lon="6.964922408">
                <ele>2858.000000</ele>
                <time>2012-08-04T07:04:12Z</time>
            </trkpt>
            <trkpt lat="45.495940531" lon="6.965018967">
                <ele>2860.000000</ele>
                <time>2012-08-04T07:04:26Z</time>
            </trkpt>
            <trkpt lat="45.495945308" lon="6.965113431">
                <ele>2862.000000</ele>
                <time>2012-08-04T07:04:40Z</time>
            </trkpt>
            <trkpt lat="45.495942626" lon="6.965219462">
                <ele>2863.000000</ele>
                <time>2012-08-04T07:04:53Z</time>
            </trkpt>
            <trkpt lat="45.495947320" lon="6.965237400">
                <ele>2864.000000</ele>
                <time>2012-08-04T07:05:13Z</time>
            </trkpt>
            <trkpt lat="45.495950924" lon="6.965315770">
                <ele>2866.000000</ele>
                <time>2012-08-04T07:05:24Z</time>
            </trkpt>
            <trkpt lat="45.495948494" lon="6.965381568">
                <ele>2867.000000</ele>
                <time>2012-08-04T07:05:38Z</time>
            </trkpt>
            <trkpt lat="45.495953271" lon="6.965432195">
                <ele>2869.000000</ele>
                <time>2012-08-04T07:05:51Z</time>
            </trkpt>
            <trkpt lat="45.495963329" lon="6.965480307">
                <ele>2871.000000</ele>
                <time>2012-08-04T07:06:03Z</time>
            </trkpt>
            <trkpt lat="45.495996606" lon="6.965478296">
                <ele>2873.000000</ele>
                <time>2012-08-04T07:06:15Z</time>
            </trkpt>
            <trkpt lat="45.496048657" lon="6.965439571">
                <ele>2874.000000</ele>
                <time>2012-08-04T07:06:30Z</time>
            </trkpt>
            <trkpt lat="45.496070702" lon="6.965463962">
                <ele>2876.000000</ele>
                <time>2012-08-04T07:06:42Z</time>
            </trkpt>
            <trkpt lat="45.496106408" lon="6.965439571">
                <ele>2877.000000</ele>
                <time>2012-08-04T07:06:54Z</time>
            </trkpt>
            <trkpt lat="45.496147899" lon="6.965421969">
                <ele>2879.000000</ele>
                <time>2012-08-04T07:07:06Z</time>
            </trkpt>
            <trkpt lat="45.496199867" lon="6.965372851">
                <ele>2881.000000</ele>
                <time>2012-08-04T07:07:20Z</time>
            </trkpt>
            <trkpt lat="45.496258624" lon="6.965349717">
                <ele>2883.000000</ele>
                <time>2012-08-04T07:07:35Z</time>
            </trkpt>
            <trkpt lat="45.496278992" lon="6.965406127">
                <ele>2885.000000</ele>
                <time>2012-08-04T07:07:47Z</time>
            </trkpt>
            <trkpt lat="45.496296929" lon="6.965457508">
                <ele>2887.000000</ele>
                <time>2012-08-04T07:08:00Z</time>
            </trkpt>
            <trkpt lat="45.496359877" lon="6.965426831">
                <ele>2889.000000</ele>
                <time>2012-08-04T07:08:14Z</time>
            </trkpt>
            <trkpt lat="45.496413019" lon="6.965426160">
                <ele>2891.000000</ele>
                <time>2012-08-04T07:08:28Z</time>
            </trkpt>
            <trkpt lat="45.496418802" lon="6.965455329">
                <ele>2892.000000</ele>
                <time>2012-08-04T07:08:40Z</time>
            </trkpt>
            <trkpt lat="45.496410923" lon="6.965496568">
                <ele>2894.000000</ele>
                <time>2012-08-04T07:08:54Z</time>
            </trkpt>
            <trkpt lat="45.496394494" lon="6.965605365">
                <ele>2897.000000</ele>
                <time>2012-08-04T07:09:16Z</time>
            </trkpt>
            <trkpt lat="45.496445708" lon="6.965608550">
                <ele>2898.000000</ele>
                <time>2012-08-04T07:09:28Z</time>
            </trkpt>
            <trkpt lat="45.496492479" lon="6.965581393">
                <ele>2899.000000</ele>
                <time>2012-08-04T07:09:40Z</time>
            </trkpt>
            <trkpt lat="45.496542854" lon="6.965560271">
                <ele>2901.000000</ele>
                <time>2012-08-04T07:09:56Z</time>
            </trkpt>
            <trkpt lat="45.496579064" lon="6.965549709">
                <ele>2903.000000</ele>
                <time>2012-08-04T07:10:07Z</time>
            </trkpt>
            <trkpt lat="45.496595325" lon="6.965562031">
                <ele>2904.000000</ele>
                <time>2012-08-04T07:10:17Z</time>
            </trkpt>
            <trkpt lat="45.496648299" lon="6.965571083">
                <ele>2906.000000</ele>
                <time>2012-08-04T07:10:30Z</time>
            </trkpt>
            <trkpt lat="45.496641761" lon="6.965622800">
                <ele>2907.000000</ele>
                <time>2012-08-04T07:10:42Z</time>
            </trkpt>
            <trkpt lat="45.496676043" lon="6.965632606">
                <ele>2908.000000</ele>
                <time>2012-08-04T07:10:52Z</time>
            </trkpt>
            <trkpt lat="45.496671852" lon="6.965684406">
                <ele>2910.000000</ele>
                <time>2012-08-04T07:11:06Z</time>
            </trkpt>
            <trkpt lat="45.496661458" lon="6.965726567">
                <ele>2911.000000</ele>
                <time>2012-08-04T07:11:20Z</time>
            </trkpt>
            <trkpt lat="45.496694148" lon="6.965758000">
                <ele>2913.000000</ele>
                <time>2012-08-04T07:11:33Z</time>
            </trkpt>
            <trkpt lat="45.496753575" lon="6.965742577">
                <ele>2915.000000</ele>
                <time>2012-08-04T07:11:47Z</time>
            </trkpt>
            <trkpt lat="45.496748881" lon="6.965809967">
                <ele>2917.000000</ele>
                <time>2012-08-04T07:12:01Z</time>
            </trkpt>
            <trkpt lat="45.496760197" lon="6.965852631">
                <ele>2918.000000</ele>
                <time>2012-08-04T07:12:13Z</time>
            </trkpt>
            <trkpt lat="45.496740416" lon="6.965940893">
                <ele>2920.000000</ele>
                <time>2012-08-04T07:12:27Z</time>
            </trkpt>
            <trkpt lat="45.496724406" lon="6.966017419">
                <ele>2922.000000</ele>
                <time>2012-08-04T07:12:40Z</time>
            </trkpt>
            <trkpt lat="45.496716946" lon="6.966073494">
                <ele>2923.000000</ele>
                <time>2012-08-04T07:12:53Z</time>
            </trkpt>
            <trkpt lat="45.496722646" lon="6.966144992">
                <ele>2924.000000</ele>
                <time>2012-08-04T07:13:06Z</time>
            </trkpt>
            <trkpt lat="45.496717114" lon="6.966202995">
                <ele>2926.000000</ele>
                <time>2012-08-04T07:13:17Z</time>
            </trkpt>
            <trkpt lat="45.496711582" lon="6.966293938">
                <ele>2928.000000</ele>
                <time>2012-08-04T07:13:34Z</time>
            </trkpt>
            <trkpt lat="45.496707307" lon="6.966376249">
                <ele>2930.000000</ele>
                <time>2012-08-04T07:13:50Z</time>
            </trkpt>
            <trkpt lat="45.496695489" lon="6.966452524">
                <ele>2932.000000</ele>
                <time>2012-08-04T07:14:03Z</time>
            </trkpt>
            <trkpt lat="45.496689035" lon="6.966483453">
                <ele>2933.000000</ele>
                <time>2012-08-04T07:14:16Z</time>
            </trkpt>
            <trkpt lat="45.496679731" lon="6.966539109">
                <ele>2936.000000</ele>
                <time>2012-08-04T07:14:33Z</time>
            </trkpt>
            <trkpt lat="45.496726083" lon="6.966586635">
                <ele>2938.000000</ele>
                <time>2012-08-04T07:14:51Z</time>
            </trkpt>
            <trkpt lat="45.496728681" lon="6.966631562">
                <ele>2940.000000</ele>
                <time>2012-08-04T07:15:04Z</time>
            </trkpt>
            <trkpt lat="45.496717533" lon="6.966699036">
                <ele>2941.000000</ele>
                <time>2012-08-04T07:15:18Z</time>
            </trkpt>
            <trkpt lat="45.496703200" lon="6.966805821">
                <ele>2943.000000</ele>
                <time>2012-08-04T07:15:35Z</time>
            </trkpt>
            <trkpt lat="45.496693561" lon="6.966859717">
                <ele>2945.000000</ele>
                <time>2012-08-04T07:15:51Z</time>
            </trkpt>
            <trkpt lat="45.496715773" lon="6.966946637">
                <ele>2947.000000</ele>
                <time>2012-08-04T07:16:08Z</time>
            </trkpt>
            <trkpt lat="45.496742511" lon="6.966978824">
                <ele>2948.000000</ele>
                <time>2012-08-04T07:16:23Z</time>
            </trkpt>
            <trkpt lat="45.496767154" lon="6.966999108">
                <ele>2950.000000</ele>
                <time>2012-08-04T07:16:36Z</time>
            </trkpt>
            <trkpt lat="45.496824486" lon="6.967008915">
                <ele>2952.000000</ele>
                <time>2012-08-04T07:16:51Z</time>
            </trkpt>
            <trkpt lat="45.496837478" lon="6.967022493">
                <ele>2954.000000</ele>
                <time>2012-08-04T07:17:06Z</time>
            </trkpt>
            <trkpt lat="45.496888440" lon="6.967053758">
                <ele>2955.000000</ele>
                <time>2012-08-04T07:17:20Z</time>
            </trkpt>
            <trkpt lat="45.496986760" lon="6.967111928">
                <ele>2957.000000</ele>
                <time>2012-08-04T07:17:34Z</time>
            </trkpt>
            <trkpt lat="45.497049457" lon="6.967181414">
                <ele>2958.000000</ele>
                <time>2012-08-04T07:17:47Z</time>
            </trkpt>
            <trkpt lat="45.497073093" lon="6.967200441">
                <ele>2960.000000</ele>
                <time>2012-08-04T07:18:01Z</time>
            </trkpt>
            <trkpt lat="45.497083487" lon="6.967220558">
                <ele>2960.000000</ele>
                <time>2012-08-04T07:18:13Z</time>
            </trkpt>
            <trkpt lat="45.497193877" lon="6.967369085">
                <ele>2961.000000</ele>
                <time>2012-08-04T07:18:31Z</time>
            </trkpt>
            <trkpt lat="45.497274092" lon="6.967434715">
                <ele>2962.000000</ele>
                <time>2012-08-04T07:18:45Z</time>
            </trkpt>
            <trkpt lat="45.497325808" lon="6.967514092">
                <ele>2964.000000</ele>
                <time>2012-08-04T07:18:57Z</time>
            </trkpt>
            <trkpt lat="45.497385990" lon="6.967613921">
                <ele>2965.000000</ele>
                <time>2012-08-04T07:19:11Z</time>
            </trkpt>
            <trkpt lat="45.497422284" lon="6.967615429">
                <ele>2965.000000</ele>
                <time>2012-08-04T07:19:25Z</time>
            </trkpt>
            <trkpt lat="45.497498894" lon="6.967627080">
                <ele>2964.000000</ele>
                <time>2012-08-04T07:19:40Z</time>
            </trkpt>
            <trkpt lat="45.497543653" lon="6.967641832">
                <ele>2964.000000</ele>
                <time>2012-08-04T07:19:46Z</time>
            </trkpt>
            <trkpt lat="45.497651948" lon="6.967733782">
                <ele>2963.000000</ele>
                <time>2012-08-04T07:20:01Z</time>
            </trkpt>
            <trkpt lat="45.497699808" lon="6.967814583">
                <ele>2963.000000</ele>
                <time>2012-08-04T07:20:14Z</time>
            </trkpt>
            <trkpt lat="45.497798882" lon="6.967898989">
                <ele>2964.000000</ele>
                <time>2012-08-04T07:20:30Z</time>
            </trkpt>
            <trkpt lat="45.497878175" lon="6.967969732">
                <ele>2965.000000</ele>
                <time>2012-08-04T07:20:43Z</time>
            </trkpt>
            <trkpt lat="45.497943470" lon="6.968034105">
                <ele>2966.000000</ele>
                <time>2012-08-04T07:20:56Z</time>
            </trkpt>
            <trkpt lat="45.497981524" lon="6.968097305">
                <ele>2967.000000</ele>
                <time>2012-08-04T07:21:10Z</time>
            </trkpt>
            <trkpt lat="45.498027625" lon="6.968157152">
                <ele>2969.000000</ele>
                <time>2012-08-04T07:21:23Z</time>
            </trkpt>
            <trkpt lat="45.498061236" lon="6.968218423">
                <ele>2970.000000</ele>
                <time>2012-08-04T07:21:35Z</time>
            </trkpt>
            <trkpt lat="45.498105157" lon="6.968259243">
                <ele>2971.000000</ele>
                <time>2012-08-04T07:21:49Z</time>
            </trkpt>
            <trkpt lat="45.498155030" lon="6.968303416">
                <ele>2973.000000</ele>
                <time>2012-08-04T07:22:00Z</time>
            </trkpt>
            <trkpt lat="45.498174392" lon="6.968334261">
                <ele>2974.000000</ele>
                <time>2012-08-04T07:22:13Z</time>
            </trkpt>
            <trkpt lat="45.498197358" lon="6.968390420">
                <ele>2976.000000</ele>
                <time>2012-08-04T07:22:25Z</time>
            </trkpt>
            <trkpt lat="45.498255529" lon="6.968438029">
                <ele>2977.000000</ele>
                <time>2012-08-04T07:22:37Z</time>
            </trkpt>
            <trkpt lat="45.498288302" lon="6.968467115">
                <ele>2978.000000</ele>
                <time>2012-08-04T07:22:50Z</time>
            </trkpt>
            <trkpt lat="45.498349071" lon="6.968528470">
                <ele>2980.000000</ele>
                <time>2012-08-04T07:23:04Z</time>
            </trkpt>
            <trkpt lat="45.498393746" lon="6.968604159">
                <ele>2981.000000</ele>
                <time>2012-08-04T07:23:21Z</time>
            </trkpt>
            <trkpt lat="45.498415204" lon="6.968656043">
                <ele>2984.000000</ele>
                <time>2012-08-04T07:23:36Z</time>
            </trkpt>
            <trkpt lat="45.498472284" lon="6.968737682">
                <ele>2984.000000</ele>
                <time>2012-08-04T07:23:49Z</time>
            </trkpt>
            <trkpt lat="45.498508997" lon="6.968778167">
                <ele>2986.000000</ele>
                <time>2012-08-04T07:24:00Z</time>
            </trkpt>
            <trkpt lat="45.498545207" lon="6.968824351">
                <ele>2987.000000</ele>
                <time>2012-08-04T07:24:13Z</time>
            </trkpt>
            <trkpt lat="45.498565659" lon="6.968848826">
                <ele>2989.000000</ele>
                <time>2012-08-04T07:24:28Z</time>
            </trkpt>
            <trkpt lat="45.498603461" lon="6.968896100">
                <ele>2990.000000</ele>
                <time>2012-08-04T07:24:39Z</time>
            </trkpt>
            <trkpt lat="45.498621399" lon="6.968923006">
                <ele>2992.000000</ele>
                <time>2012-08-04T07:24:52Z</time>
            </trkpt>
            <trkpt lat="45.498633217" lon="6.968960054">
                <ele>2993.000000</ele>
                <time>2012-08-04T07:25:03Z</time>
            </trkpt>
            <trkpt lat="45.498694740" lon="6.969105480">
                <ele>2994.000000</ele>
                <time>2012-08-04T07:25:18Z</time>
            </trkpt>
            <trkpt lat="45.498729944" lon="6.969206063">
                <ele>2995.000000</ele>
                <time>2012-08-04T07:25:33Z</time>
            </trkpt>
            <trkpt lat="45.498759113" lon="6.969277980">
                <ele>2996.000000</ele>
                <time>2012-08-04T07:25:45Z</time>
            </trkpt>
            <trkpt lat="45.498769758" lon="6.969323410">
                <ele>2997.000000</ele>
                <time>2012-08-04T07:25:57Z</time>
            </trkpt>
            <trkpt lat="45.498769423" lon="6.969353752">
                <ele>2998.000000</ele>
                <time>2012-08-04T07:26:09Z</time>
            </trkpt>
            <trkpt lat="45.498778392" lon="6.969391303">
                <ele>2999.000000</ele>
                <time>2012-08-04T07:26:20Z</time>
            </trkpt>
            <trkpt lat="45.498786019" lon="6.969429357">
                <ele>3001.000000</ele>
                <time>2012-08-04T07:26:33Z</time>
            </trkpt>
            <trkpt lat="45.498772273" lon="6.969459364">
                <ele>3002.000000</ele>
                <time>2012-08-04T07:26:44Z</time>
            </trkpt>
            <trkpt lat="45.498791719" lon="6.969519127">
                <ele>3004.000000</ele>
                <time>2012-08-04T07:26:59Z</time>
            </trkpt>
            <trkpt lat="45.498796664" lon="6.969555169">
                <ele>3006.000000</ele>
                <time>2012-08-04T07:27:12Z</time>
            </trkpt>
            <trkpt lat="45.498813009" lon="6.969598001">
                <ele>3007.000000</ele>
                <time>2012-08-04T07:27:23Z</time>
            </trkpt>
            <trkpt lat="45.498817870" lon="6.969617950">
                <ele>3008.000000</ele>
                <time>2012-08-04T07:27:35Z</time>
            </trkpt>
            <trkpt lat="45.498847459" lon="6.969653238">
                <ele>3009.000000</ele>
                <time>2012-08-04T07:27:48Z</time>
            </trkpt>
            <trkpt lat="45.498861205" lon="6.969687520">
                <ele>3010.000000</ele>
                <time>2012-08-04T07:28:00Z</time>
            </trkpt>
            <trkpt lat="45.498868246" lon="6.969701853">
                <ele>3011.000000</ele>
                <time>2012-08-04T07:28:13Z</time>
            </trkpt>
            <trkpt lat="45.498880232" lon="6.969736386">
                <ele>3012.000000</ele>
                <time>2012-08-04T07:28:26Z</time>
            </trkpt>
            <trkpt lat="45.498910155" lon="6.969809979">
                <ele>3014.000000</ele>
                <time>2012-08-04T07:28:40Z</time>
            </trkpt>
            <trkpt lat="45.498921135" lon="6.969821881">
                <ele>3015.000000</ele>
                <time>2012-08-04T07:28:52Z</time>
            </trkpt>
            <trkpt lat="45.498891631" lon="6.969828084">
                <ele>3016.000000</ele>
                <time>2012-08-04T07:29:02Z</time>
            </trkpt>
            <trkpt lat="45.498886770" lon="6.969849793">
                <ele>3018.000000</ele>
                <time>2012-08-04T07:29:16Z</time>
            </trkpt>
            <trkpt lat="45.498887692" lon="6.969870916">
                <ele>3020.000000</ele>
                <time>2012-08-04T07:29:29Z</time>
            </trkpt>
            <trkpt lat="45.498895319" lon="6.969891954">
                <ele>3023.000000</ele>
                <time>2012-08-04T07:29:43Z</time>
            </trkpt>
            <trkpt lat="45.498899845" lon="6.969918692">
                <ele>3023.000000</ele>
                <time>2012-08-04T07:29:57Z</time>
            </trkpt>
            <trkpt lat="45.498897750" lon="6.969972085">
                <ele>3024.000000</ele>
                <time>2012-08-04T07:30:07Z</time>
            </trkpt>
            <trkpt lat="45.498903953" lon="6.970003769">
                <ele>3026.000000</ele>
                <time>2012-08-04T07:30:23Z</time>
            </trkpt>
            <trkpt lat="45.498889284" lon="6.970015252">
                <ele>3027.000000</ele>
                <time>2012-08-04T07:30:35Z</time>
            </trkpt>
            <trkpt lat="45.498883585" lon="6.970046768">
                <ele>3028.000000</ele>
                <time>2012-08-04T07:30:46Z</time>
            </trkpt>
            <trkpt lat="45.498882327" lon="6.970084319">
                <ele>3030.000000</ele>
                <time>2012-08-04T07:30:59Z</time>
            </trkpt>
            <trkpt lat="45.498906886" lon="6.970123630">
                <ele>3031.000000</ele>
                <time>2012-08-04T07:31:12Z</time>
            </trkpt>
            <trkpt lat="45.498905964" lon="6.970162103">
                <ele>3033.000000</ele>
                <time>2012-08-04T07:31:27Z</time>
            </trkpt>
            <trkpt lat="45.498871682" lon="6.970206527">
                <ele>3034.000000</ele>
                <time>2012-08-04T07:31:39Z</time>
            </trkpt>
            <trkpt lat="45.498860702" lon="6.970300572">
                <ele>3036.000000</ele>
                <time>2012-08-04T07:31:53Z</time>
            </trkpt>
            <trkpt lat="45.498881992" lon="6.970325382">
                <ele>3037.000000</ele>
                <time>2012-08-04T07:32:07Z</time>
            </trkpt>
            <trkpt lat="45.498903450" lon="6.970342901">
                <ele>3039.000000</ele>
                <time>2012-08-04T07:32:22Z</time>
            </trkpt>
            <trkpt lat="45.498933038" lon="6.970340302">
                <ele>3041.000000</ele>
                <time>2012-08-04T07:32:34Z</time>
            </trkpt>
            <trkpt lat="45.498970505" lon="6.970350947">
                <ele>3041.000000</ele>
                <time>2012-08-04T07:32:46Z</time>
            </trkpt>
            <trkpt lat="45.498986095" lon="6.970369136">
                <ele>3042.000000</ele>
                <time>2012-08-04T07:32:56Z</time>
            </trkpt>
            <trkpt lat="45.499017779" lon="6.970387911">
                <ele>3044.000000</ele>
                <time>2012-08-04T07:33:10Z</time>
            </trkpt>
            <trkpt lat="45.499038650" lon="6.970401322">
                <ele>3045.000000</ele>
                <time>2012-08-04T07:33:24Z</time>
            </trkpt>
            <trkpt lat="45.499046361" lon="6.970436275">
                <ele>3047.000000</ele>
                <time>2012-08-04T07:33:35Z</time>
            </trkpt>
            <trkpt lat="45.499045188" lon="6.970467707">
                <ele>3049.000000</ele>
                <time>2012-08-04T07:33:50Z</time>
            </trkpt>
            <trkpt lat="45.499042002" lon="6.970506348">
                <ele>3051.000000</ele>
                <time>2012-08-04T07:34:03Z</time>
            </trkpt>
            <trkpt lat="45.499053318" lon="6.970518250">
                <ele>3052.000000</ele>
                <time>2012-08-04T07:34:14Z</time>
            </trkpt>
            <trkpt lat="45.499072010" lon="6.970519507">
                <ele>3053.000000</ele>
                <time>2012-08-04T07:34:27Z</time>
            </trkpt>
            <trkpt lat="45.499094892" lon="6.970534092">
                <ele>3055.000000</ele>
                <time>2012-08-04T07:34:39Z</time>
            </trkpt>
            <trkpt lat="45.499127917" lon="6.970536606">
                <ele>3056.000000</ele>
                <time>2012-08-04T07:34:52Z</time>
            </trkpt>
            <trkpt lat="45.499144094" lon="6.970555214">
                <ele>3057.000000</ele>
                <time>2012-08-04T07:35:03Z</time>
            </trkpt>
            <trkpt lat="45.499156583" lon="6.970586730">
                <ele>3058.000000</ele>
                <time>2012-08-04T07:35:15Z</time>
            </trkpt>
            <trkpt lat="45.499160858" lon="6.970626628">
                <ele>3059.000000</ele>
                <time>2012-08-04T07:35:26Z</time>
            </trkpt>
            <trkpt lat="45.499165049" lon="6.970644733">
                <ele>3060.000000</ele>
                <time>2012-08-04T07:35:38Z</time>
            </trkpt>
            <trkpt lat="45.499188099" lon="6.970671639">
                <ele>3061.000000</ele>
                <time>2012-08-04T07:35:49Z</time>
            </trkpt>
            <trkpt lat="45.499202265" lon="6.970711118">
                <ele>3063.000000</ele>
                <time>2012-08-04T07:36:03Z</time>
            </trkpt>
            <trkpt lat="45.499208467" lon="6.970754452">
                <ele>3064.000000</ele>
                <time>2012-08-04T07:36:13Z</time>
            </trkpt>
            <trkpt lat="45.499213664" lon="6.970781442">
                <ele>3066.000000</ele>
                <time>2012-08-04T07:36:23Z</time>
            </trkpt>
            <trkpt lat="45.499230344" lon="6.970827123">
                <ele>3068.000000</ele>
                <time>2012-08-04T07:36:36Z</time>
            </trkpt>
            <trkpt lat="45.499242665" lon="6.970855370">
                <ele>3069.000000</ele>
                <time>2012-08-04T07:36:50Z</time>
            </trkpt>
            <trkpt lat="45.499244844" lon="6.970878839">
                <ele>3071.000000</ele>
                <time>2012-08-04T07:37:01Z</time>
            </trkpt>
            <trkpt lat="45.499243168" lon="6.970924186">
                <ele>3072.000000</ele>
                <time>2012-08-04T07:37:11Z</time>
            </trkpt>
            <trkpt lat="45.499251466" lon="6.970973052">
                <ele>3074.000000</ele>
                <time>2012-08-04T07:37:24Z</time>
            </trkpt>
            <trkpt lat="45.499274433" lon="6.971018147">
                <ele>3075.000000</ele>
                <time>2012-08-04T07:37:37Z</time>
            </trkpt>
            <trkpt lat="45.499281725" lon="6.971054524">
                <ele>3077.000000</ele>
                <time>2012-08-04T07:37:49Z</time>
            </trkpt>
            <trkpt lat="45.499313409" lon="6.971089141">
                <ele>3078.000000</ele>
                <time>2012-08-04T07:38:00Z</time>
            </trkpt>
            <trkpt lat="45.499336207" lon="6.971114874">
                <ele>3080.000000</ele>
                <time>2012-08-04T07:38:14Z</time>
            </trkpt>
            <trkpt lat="45.499358084" lon="6.971151251">
                <ele>3081.000000</ele>
                <time>2012-08-04T07:38:25Z</time>
            </trkpt>
            <trkpt lat="45.499386499" lon="6.971190311">
                <ele>3082.000000</ele>
                <time>2012-08-04T07:38:38Z</time>
            </trkpt>
            <trkpt lat="45.499408711" lon="6.971218558">
                <ele>3084.000000</ele>
                <time>2012-08-04T07:38:50Z</time>
            </trkpt>
            <trkpt lat="45.499428743" lon="6.971273795">
                <ele>3086.000000</ele>
                <time>2012-08-04T07:39:05Z</time>
            </trkpt>
            <trkpt lat="45.499470821" lon="6.971334564">
                <ele>3088.000000</ele>
                <time>2012-08-04T07:39:20Z</time>
            </trkpt>
            <trkpt lat="45.499518346" lon="6.971400697">
                <ele>3090.000000</ele>
                <time>2012-08-04T07:39:32Z</time>
            </trkpt>
            <trkpt lat="45.499562770" lon="6.971468590">
                <ele>3091.000000</ele>
                <time>2012-08-04T07:39:48Z</time>
            </trkpt>
            <trkpt lat="45.499581378" lon="6.971555008">
                <ele>3093.000000</ele>
                <time>2012-08-04T07:40:04Z</time>
            </trkpt>
            <trkpt lat="45.499607362" lon="6.971611669">
                <ele>3095.000000</ele>
                <time>2012-08-04T07:40:16Z</time>
            </trkpt>
            <trkpt lat="45.499631921" lon="6.971670091">
                <ele>3096.000000</ele>
                <time>2012-08-04T07:40:28Z</time>
            </trkpt>
            <trkpt lat="45.499675674" lon="6.971729016">
                <ele>3097.000000</ele>
                <time>2012-08-04T07:40:41Z</time>
            </trkpt>
            <trkpt lat="45.499721272" lon="6.971827503">
                <ele>3098.000000</ele>
                <time>2012-08-04T07:40:57Z</time>
            </trkpt>
            <trkpt lat="45.499771899" lon="6.971912496">
                <ele>3100.000000</ele>
                <time>2012-08-04T07:41:13Z</time>
            </trkpt>
            <trkpt lat="45.499775838" lon="6.971914926">
                <ele>3101.000000</ele>
                <time>2012-08-04T07:41:28Z</time>
            </trkpt>
            <trkpt lat="45.499776760" lon="6.971913166">
                <ele>3101.000000</ele>
                <time>2012-08-04T07:41:53Z</time>
            </trkpt>
            <trkpt lat="45.499797547" lon="6.971985670">
                <ele>3102.000000</ele>
                <time>2012-08-04T07:42:05Z</time>
            </trkpt>
            <trkpt lat="45.499838367" lon="6.972056832">
                <ele>3103.000000</ele>
                <time>2012-08-04T07:42:17Z</time>
            </trkpt>
            <trkpt lat="45.499858987" lon="6.972137131">
                <ele>3104.000000</ele>
                <time>2012-08-04T07:42:30Z</time>
            </trkpt>
            <trkpt lat="45.499898130" lon="6.972217262">
                <ele>3106.000000</ele>
                <time>2012-08-04T07:42:44Z</time>
            </trkpt>
            <trkpt lat="45.499932915" lon="6.972259507">
                <ele>3107.000000</ele>
                <time>2012-08-04T07:42:56Z</time>
            </trkpt>
            <trkpt lat="45.499965102" lon="6.972310804">
                <ele>3109.000000</ele>
                <time>2012-08-04T07:43:10Z</time>
            </trkpt>
            <trkpt lat="45.499985972" lon="6.972383056">
                <ele>3110.000000</ele>
                <time>2012-08-04T07:43:24Z</time>
            </trkpt>
            <trkpt lat="45.500031905" lon="6.972437203">
                <ele>3112.000000</ele>
                <time>2012-08-04T07:43:38Z</time>
            </trkpt>
            <trkpt lat="45.500062332" lon="6.972477687">
                <ele>3113.000000</ele>
                <time>2012-08-04T07:43:49Z</time>
            </trkpt>
            <trkpt lat="45.500099799" lon="6.972524794">
                <ele>3114.000000</ele>
                <time>2012-08-04T07:44:00Z</time>
            </trkpt>
            <trkpt lat="45.500114383" lon="6.972579611">
                <ele>3116.000000</ele>
                <time>2012-08-04T07:44:12Z</time>
            </trkpt>
            <trkpt lat="45.500171548" lon="6.972641721">
                <ele>3118.000000</ele>
                <time>2012-08-04T07:44:26Z</time>
            </trkpt>
            <trkpt lat="45.500251343" lon="6.972717410">
                <ele>3119.000000</ele>
                <time>2012-08-04T07:44:39Z</time>
            </trkpt>
            <trkpt lat="45.500290822" lon="6.972773401">
                <ele>3121.000000</ele>
                <time>2012-08-04T07:44:51Z</time>
            </trkpt>
            <trkpt lat="45.500368858" lon="6.972815730">
                <ele>3121.000000</ele>
                <time>2012-08-04T07:45:03Z</time>
            </trkpt>
            <trkpt lat="45.500486791" lon="6.972903404">
                <ele>3123.000000</ele>
                <time>2012-08-04T07:45:16Z</time>
            </trkpt>
            <trkpt lat="45.500534568" lon="6.972943889">
                <ele>3123.000000</ele>
                <time>2012-08-04T07:45:22Z</time>
            </trkpt>
            <trkpt lat="45.500652753" lon="6.973052602">
                <ele>3125.000000</ele>
                <time>2012-08-04T07:45:38Z</time>
            </trkpt>
            <trkpt lat="45.500681167" lon="6.973083951">
                <ele>3125.000000</ele>
                <time>2012-08-04T07:45:42Z</time>
            </trkpt>
            <trkpt lat="45.500697345" lon="6.973116640">
                <ele>3125.000000</ele>
                <time>2012-08-04T07:45:45Z</time>
            </trkpt>
            <trkpt lat="45.500751240" lon="6.973165087">
                <ele>3125.000000</ele>
                <time>2012-08-04T07:45:52Z</time>
            </trkpt>
            <trkpt lat="45.500850482" lon="6.973293163">
                <ele>3127.000000</ele>
                <time>2012-08-04T07:46:09Z</time>
            </trkpt>
            <trkpt lat="45.500853499" lon="6.973271789">
                <ele>3128.000000</ele>
                <time>2012-08-04T07:46:30Z</time>
            </trkpt>
            <trkpt lat="45.500853919" lon="6.973273465">
                <ele>3128.000000</ele>
                <time>2012-08-04T07:46:31Z</time>
            </trkpt>
            <trkpt lat="45.501045361" lon="6.973462896">
                <ele>3128.000000</ele>
                <time>2012-08-04T07:46:52Z</time>
            </trkpt>
            <trkpt lat="45.501248119" lon="6.973685101">
                <ele>3128.000000</ele>
                <time>2012-08-04T07:47:15Z</time>
            </trkpt>
            <trkpt lat="45.501390947" lon="6.973882746">
                <ele>3127.000000</ele>
                <time>2012-08-04T07:47:34Z</time>
            </trkpt>
            <trkpt lat="45.501532769" lon="6.974127330">
                <ele>3127.000000</ele>
                <time>2012-08-04T07:47:55Z</time>
            </trkpt>
            <trkpt lat="45.501618264" lon="6.974378452">
                <ele>3126.000000</ele>
                <time>2012-08-04T07:48:15Z</time>
            </trkpt>
            <trkpt lat="45.501680626" lon="6.974580707">
                <ele>3123.000000</ele>
                <time>2012-08-04T07:48:34Z</time>
            </trkpt>
            <trkpt lat="45.501748603" lon="6.974768881">
                <ele>3120.000000</ele>
                <time>2012-08-04T07:48:53Z</time>
            </trkpt>
            <trkpt lat="45.501822028" lon="6.974960826">
                <ele>3118.000000</ele>
                <time>2012-08-04T07:49:13Z</time>
            </trkpt>
            <trkpt lat="45.501869805" lon="6.975166602">
                <ele>3115.000000</ele>
                <time>2012-08-04T07:49:29Z</time>
            </trkpt>
            <trkpt lat="45.501934513" lon="6.975475727">
                <ele>3113.000000</ele>
                <time>2012-08-04T07:49:51Z</time>
            </trkpt>
            <trkpt lat="45.501976423" lon="6.975598438">
                <ele>3112.000000</ele>
                <time>2012-08-04T07:50:01Z</time>
            </trkpt>
            <trkpt lat="45.502026714" lon="6.975678485">
                <ele>3112.000000</ele>
                <time>2012-08-04T07:50:18Z</time>
            </trkpt>
            <trkpt lat="45.502048591" lon="6.975729028">
                <ele>3112.000000</ele>
                <time>2012-08-04T07:50:49Z</time>
            </trkpt>
            <trkpt lat="45.502125789" lon="6.975908736">
                <ele>3113.000000</ele>
                <time>2012-08-04T07:51:06Z</time>
            </trkpt>
            <trkpt lat="45.502206925" lon="6.976041421">
                <ele>3115.000000</ele>
                <time>2012-08-04T07:51:20Z</time>
            </trkpt>
            <trkpt lat="45.502297031" lon="6.976209814">
                <ele>3116.000000</ele>
                <time>2012-08-04T07:51:36Z</time>
            </trkpt>
            <trkpt lat="45.502392082" lon="6.976365717">
                <ele>3116.000000</ele>
                <time>2012-08-04T07:51:52Z</time>
            </trkpt>
            <trkpt lat="45.502458215" lon="6.976461858">
                <ele>3117.000000</ele>
                <time>2012-08-04T07:52:06Z</time>
            </trkpt>
            <trkpt lat="45.502462825" lon="6.976522710">
                <ele>3119.000000</ele>
                <time>2012-08-04T07:52:19Z</time>
            </trkpt>
            <trkpt lat="45.502475314" lon="6.976573002">
                <ele>3121.000000</ele>
                <time>2012-08-04T07:52:33Z</time>
            </trkpt>
            <trkpt lat="45.502508255" lon="6.976613319">
                <ele>3122.000000</ele>
                <time>2012-08-04T07:52:45Z</time>
            </trkpt>
            <trkpt lat="45.502540022" lon="6.976687834">
                <ele>3123.000000</ele>
                <time>2012-08-04T07:52:57Z</time>
            </trkpt>
            <trkpt lat="45.502582518" lon="6.976772659">
                <ele>3125.000000</ele>
                <time>2012-08-04T07:53:10Z</time>
            </trkpt>
            <trkpt lat="45.502644461" lon="6.976805935">
                <ele>3126.000000</ele>
                <time>2012-08-04T07:53:23Z</time>
            </trkpt>
            <trkpt lat="45.502698608" lon="6.976863686">
                <ele>3128.000000</ele>
                <time>2012-08-04T07:53:35Z</time>
            </trkpt>
            <trkpt lat="45.502757700" lon="6.976946415">
                <ele>3129.000000</ele>
                <time>2012-08-04T07:53:50Z</time>
            </trkpt>
            <trkpt lat="45.502835652" lon="6.976997796">
                <ele>3131.000000</ele>
                <time>2012-08-04T07:54:05Z</time>
            </trkpt>
            <trkpt lat="45.502897594" lon="6.977082202">
                <ele>3133.000000</ele>
                <time>2012-08-04T07:54:19Z</time>
            </trkpt>
            <trkpt lat="45.502940929" lon="6.977130231">
                <ele>3134.000000</ele>
                <time>2012-08-04T07:54:32Z</time>
            </trkpt>
            <trkpt lat="45.502955681" lon="6.977209691">
                <ele>3135.000000</ele>
                <time>2012-08-04T07:54:46Z</time>
            </trkpt>
            <trkpt lat="45.502972696" lon="6.977251684">
                <ele>3137.000000</ele>
                <time>2012-08-04T07:54:59Z</time>
            </trkpt>
            <trkpt lat="45.502978060" lon="6.977326116">
                <ele>3139.000000</ele>
                <time>2012-08-04T07:55:11Z</time>
            </trkpt>
            <trkpt lat="45.502985772" lon="6.977406247">
                <ele>3141.000000</ele>
                <time>2012-08-04T07:55:25Z</time>
            </trkpt>
            <trkpt lat="45.503010163" lon="6.977437176">
                <ele>3142.000000</ele>
                <time>2012-08-04T07:55:37Z</time>
            </trkpt>
            <trkpt lat="45.503042350" lon="6.977448743">
                <ele>3142.000000</ele>
                <time>2012-08-04T07:55:47Z</time>
            </trkpt>
            <trkpt lat="45.503059952" lon="6.977518313">
                <ele>3144.000000</ele>
                <time>2012-08-04T07:56:01Z</time>
            </trkpt>
            <trkpt lat="45.503070429" lon="6.977537172">
                <ele>3145.000000</ele>
                <time>2012-08-04T07:56:16Z</time>
            </trkpt>
            <trkpt lat="45.503064478" lon="6.977580422">
                <ele>3146.000000</ele>
                <time>2012-08-04T07:56:29Z</time>
            </trkpt>
            <trkpt lat="45.503074117" lon="6.977630463">
                <ele>3148.000000</ele>
                <time>2012-08-04T07:56:43Z</time>
            </trkpt>
            <trkpt lat="45.503115859" lon="6.977655776">
                <ele>3149.000000</ele>
                <time>2012-08-04T07:56:58Z</time>
            </trkpt>
            <trkpt lat="45.503150644" lon="6.977647143">
                <ele>3151.000000</ele>
                <time>2012-08-04T07:57:11Z</time>
            </trkpt>
            <trkpt lat="45.503181405" lon="6.977642700">
                <ele>3153.000000</ele>
                <time>2012-08-04T07:57:24Z</time>
            </trkpt>
            <trkpt lat="45.503184926" lon="6.977673294">
                <ele>3154.000000</ele>
                <time>2012-08-04T07:57:38Z</time>
            </trkpt>
            <trkpt lat="45.503211413" lon="6.977678994">
                <ele>3155.000000</ele>
                <time>2012-08-04T07:57:49Z</time>
            </trkpt>
            <trkpt lat="45.503230188" lon="6.977674551">
                <ele>3157.000000</ele>
                <time>2012-08-04T07:58:01Z</time>
            </trkpt>
            <trkpt lat="45.503245108" lon="6.977716126">
                <ele>3158.000000</ele>
                <time>2012-08-04T07:58:15Z</time>
            </trkpt>
            <trkpt lat="45.503283413" lon="6.977733728">
                <ele>3160.000000</ele>
                <time>2012-08-04T07:58:28Z</time>
            </trkpt>
            <trkpt lat="45.503290202" lon="6.977778738">
                <ele>3161.000000</ele>
                <time>2012-08-04T07:58:40Z</time>
            </trkpt>
            <trkpt lat="45.503317276" lon="6.977793574">
                <ele>3163.000000</ele>
                <time>2012-08-04T07:58:51Z</time>
            </trkpt>
            <trkpt lat="45.503321048" lon="6.977871777">
                <ele>3164.000000</ele>
                <time>2012-08-04T07:59:05Z</time>
            </trkpt>
            <trkpt lat="45.503340997" lon="6.977943527">
                <ele>3166.000000</ele>
                <time>2012-08-04T07:59:24Z</time>
            </trkpt>
            <trkpt lat="45.503366645" lon="6.977974875">
                <ele>3167.000000</ele>
                <time>2012-08-04T07:59:38Z</time>
            </trkpt>
            <trkpt lat="45.503380140" lon="6.978014773">
                <ele>3169.000000</ele>
                <time>2012-08-04T07:59:54Z</time>
            </trkpt>
            <trkpt lat="45.503434707" lon="6.978134550">
                <ele>3171.000000</ele>
                <time>2012-08-04T08:00:15Z</time>
            </trkpt>
            <trkpt lat="45.503453733" lon="6.978172017">
                <ele>3172.000000</ele>
                <time>2012-08-04T08:00:26Z</time>
            </trkpt>
            <trkpt lat="45.503484327" lon="6.978210323">
                <ele>3173.000000</ele>
                <time>2012-08-04T08:00:37Z</time>
            </trkpt>
            <trkpt lat="45.503507378" lon="6.978220800">
                <ele>3175.000000</ele>
                <time>2012-08-04T08:00:48Z</time>
            </trkpt>
            <trkpt lat="45.503521459" lon="6.978210406">
                <ele>3176.000000</ele>
                <time>2012-08-04T08:01:01Z</time>
            </trkpt>
            <trkpt lat="45.503528751" lon="6.978193978">
                <ele>3177.000000</ele>
                <time>2012-08-04T08:01:14Z</time>
            </trkpt>
            <trkpt lat="45.503524309" lon="6.978180734">
                <ele>3179.000000</ele>
                <time>2012-08-04T08:01:27Z</time>
            </trkpt>
            <trkpt lat="45.503520286" lon="6.978169084">
                <ele>3179.000000</ele>
                <time>2012-08-04T08:01:31Z</time>
            </trkpt>
            <trkpt lat="45.503527997" lon="6.978139831">
                <ele>3180.000000</ele>
                <time>2012-08-04T08:01:44Z</time>
            </trkpt>
            <trkpt lat="45.503567308" lon="6.978069926">
                <ele>3181.000000</ele>
                <time>2012-08-04T08:01:59Z</time>
            </trkpt>
            <trkpt lat="45.503591197" lon="6.978053832">
                <ele>3183.000000</ele>
                <time>2012-08-04T08:02:14Z</time>
            </trkpt>
            <trkpt lat="45.503639476" lon="6.978043942">
                <ele>3185.000000</ele>
                <time>2012-08-04T08:02:27Z</time>
            </trkpt>
            <trkpt lat="45.503657665" lon="6.978064896">
                <ele>3187.000000</ele>
                <time>2012-08-04T08:02:39Z</time>
            </trkpt>
            <trkpt lat="45.503670908" lon="6.978073530">
                <ele>3188.000000</ele>
                <time>2012-08-04T08:02:50Z</time>
            </trkpt>
            <trkpt lat="45.503657749" lon="6.978130778">
                <ele>3190.000000</ele>
                <time>2012-08-04T08:03:05Z</time>
            </trkpt>
            <trkpt lat="45.503668310" lon="6.978164306">
                <ele>3191.000000</ele>
                <time>2012-08-04T08:03:19Z</time>
            </trkpt>
            <trkpt lat="45.503687756" lon="6.978216944">
                <ele>3192.000000</ele>
                <time>2012-08-04T08:03:31Z</time>
            </trkpt>
            <trkpt lat="45.503704855" lon="6.978239575">
                <ele>3194.000000</ele>
                <time>2012-08-04T08:03:44Z</time>
            </trkpt>
            <trkpt lat="45.503733018" lon="6.978243934">
                <ele>3195.000000</ele>
                <time>2012-08-04T08:03:57Z</time>
            </trkpt>
            <trkpt lat="45.503771575" lon="6.978265224">
                <ele>3197.000000</ele>
                <time>2012-08-04T08:04:08Z</time>
            </trkpt>
            <trkpt lat="45.503779370" lon="6.978300009">
                <ele>3197.000000</ele>
                <time>2012-08-04T08:04:19Z</time>
            </trkpt>
            <trkpt lat="45.503799403" lon="6.978324233">
                <ele>3199.000000</ele>
                <time>2012-08-04T08:04:33Z</time>
            </trkpt>
            <trkpt lat="45.503857657" lon="6.978314342">
                <ele>3200.000000</ele>
                <time>2012-08-04T08:04:47Z</time>
            </trkpt>
            <trkpt lat="45.503870985" lon="6.978321550">
                <ele>3202.000000</ele>
                <time>2012-08-04T08:05:01Z</time>
            </trkpt>
            <trkpt lat="45.503892526" lon="6.978320628">
                <ele>3203.000000</ele>
                <time>2012-08-04T08:05:14Z</time>
            </trkpt>
            <trkpt lat="45.503916833" lon="6.978318952">
                <ele>3205.000000</ele>
                <time>2012-08-04T08:05:29Z</time>
            </trkpt>
            <trkpt lat="45.503923539" lon="6.978338566">
                <ele>3207.000000</ele>
                <time>2012-08-04T08:05:44Z</time>
            </trkpt>
            <trkpt lat="45.503943656" lon="6.978351390">
                <ele>3208.000000</ele>
                <time>2012-08-04T08:05:54Z</time>
            </trkpt>
            <trkpt lat="45.503960419" lon="6.978393383">
                <ele>3209.000000</ele>
                <time>2012-08-04T08:06:06Z</time>
            </trkpt>
            <trkpt lat="45.503952540" lon="6.978430683">
                <ele>3210.000000</ele>
                <time>2012-08-04T08:06:18Z</time>
            </trkpt>
            <trkpt lat="45.503963018" lon="6.978456080">
                <ele>3211.000000</ele>
                <time>2012-08-04T08:06:28Z</time>
            </trkpt>
            <trkpt lat="45.503963018" lon="6.978474939">
                <ele>3212.000000</ele>
                <time>2012-08-04T08:06:40Z</time>
            </trkpt>
            <trkpt lat="45.503963856" lon="6.978489691">
                <ele>3213.000000</ele>
                <time>2012-08-04T08:06:53Z</time>
            </trkpt>
            <trkpt lat="45.503959330" lon="6.978512490">
                <ele>3215.000000</ele>
                <time>2012-08-04T08:07:05Z</time>
            </trkpt>
            <trkpt lat="45.503987493" lon="6.978522967">
                <ele>3216.000000</ele>
                <time>2012-08-04T08:07:17Z</time>
            </trkpt>
            <trkpt lat="45.504014734" lon="6.978544509">
                <ele>3217.000000</ele>
                <time>2012-08-04T08:07:30Z</time>
            </trkpt>
            <trkpt lat="45.504025044" lon="6.978572924">
                <ele>3218.000000</ele>
                <time>2012-08-04T08:07:43Z</time>
            </trkpt>
            <trkpt lat="45.504063014" lon="6.978617432">
                <ele>3220.000000</ele>
                <time>2012-08-04T08:07:56Z</time>
            </trkpt>
            <trkpt lat="45.504084639" lon="6.978636710">
                <ele>3220.000000</ele>
                <time>2012-08-04T08:08:06Z</time>
            </trkpt>
            <trkpt lat="45.504123950" lon="6.978670908">
                <ele>3222.000000</ele>
                <time>2012-08-04T08:08:19Z</time>
            </trkpt>
            <trkpt lat="45.504158484" lon="6.978712231">
                <ele>3222.000000</ele>
                <time>2012-08-04T08:08:31Z</time>
            </trkpt>
            <trkpt lat="45.504192431" lon="6.978738718">
                <ele>3224.000000</ele>
                <time>2012-08-04T08:08:42Z</time>
            </trkpt>
            <trkpt lat="45.504227718" lon="6.978731593">
                <ele>3225.000000</ele>
                <time>2012-08-04T08:08:53Z</time>
            </trkpt>
            <trkpt lat="45.504264431" lon="6.978752883">
                <ele>3226.000000</ele>
                <time>2012-08-04T08:09:03Z</time>
            </trkpt>
            <trkpt lat="45.504295444" lon="6.978761014">
                <ele>3227.000000</ele>
                <time>2012-08-04T08:09:16Z</time>
            </trkpt>
            <trkpt lat="45.504333582" lon="6.978777274">
                <ele>3228.000000</ele>
                <time>2012-08-04T08:09:30Z</time>
            </trkpt>
            <trkpt lat="45.504351351" lon="6.978787081">
                <ele>3230.000000</ele>
                <time>2012-08-04T08:09:46Z</time>
            </trkpt>
            <trkpt lat="45.504401727" lon="6.978808287">
                <ele>3231.000000</ele>
                <time>2012-08-04T08:10:02Z</time>
            </trkpt>
            <trkpt lat="45.504432740" lon="6.978810299">
                <ele>3232.000000</ele>
                <time>2012-08-04T08:10:13Z</time>
            </trkpt>
            <trkpt lat="45.504455371" lon="6.978819352">
                <ele>3234.000000</ele>
                <time>2012-08-04T08:10:27Z</time>
            </trkpt>
            <trkpt lat="45.504485546" lon="6.978846341">
                <ele>3236.000000</ele>
                <time>2012-08-04T08:10:42Z</time>
            </trkpt>
            <trkpt lat="45.504488982" lon="6.978873080">
                <ele>3237.000000</ele>
                <time>2012-08-04T08:10:56Z</time>
            </trkpt>
            <trkpt lat="45.504532233" lon="6.978886826">
                <ele>3238.000000</ele>
                <time>2012-08-04T08:11:10Z</time>
            </trkpt>
            <trkpt lat="45.504598450" lon="6.978881126">
                <ele>3240.000000</ele>
                <time>2012-08-04T08:11:24Z</time>
            </trkpt>
            <trkpt lat="45.504636588" lon="6.978877857">
                <ele>3240.000000</ele>
                <time>2012-08-04T08:11:32Z</time>
            </trkpt>
            <trkpt lat="45.504672797" lon="6.978867631">
                <ele>3241.000000</ele>
                <time>2012-08-04T08:11:43Z</time>
            </trkpt>
            <trkpt lat="45.504740439" lon="6.978859166">
                <ele>3241.000000</ele>
                <time>2012-08-04T08:11:55Z</time>
            </trkpt>
            <trkpt lat="45.504761562" lon="6.978846677">
                <ele>3242.000000</ele>
                <time>2012-08-04T08:12:05Z</time>
            </trkpt>
            <trkpt lat="45.504814619" lon="6.978810048">
                <ele>3242.000000</ele>
                <time>2012-08-04T08:12:19Z</time>
            </trkpt>
            <trkpt lat="45.504838508" lon="6.978805857">
                <ele>3243.000000</ele>
                <time>2012-08-04T08:12:32Z</time>
            </trkpt>
            <trkpt lat="45.504833395" lon="6.978833098">
                <ele>3243.000000</ele>
                <time>2012-08-04T08:12:44Z</time>
            </trkpt>
            <trkpt lat="45.504847979" lon="6.978837624">
                <ele>3244.000000</ele>
                <time>2012-08-04T08:12:57Z</time>
            </trkpt>
            <trkpt lat="45.504893577" lon="6.978840558">
                <ele>3245.000000</ele>
                <time>2012-08-04T08:13:11Z</time>
            </trkpt>
            <trkpt lat="45.504938001" lon="6.978817843">
                <ele>3246.000000</ele>
                <time>2012-08-04T08:13:23Z</time>
            </trkpt>
            <trkpt lat="45.504967421" lon="6.978801833">
                <ele>3247.000000</ele>
                <time>2012-08-04T08:13:34Z</time>
            </trkpt>
            <trkpt lat="45.504988208" lon="6.978778113">
                <ele>3248.000000</ele>
                <time>2012-08-04T08:13:52Z</time>
            </trkpt>
            <trkpt lat="45.505003128" lon="6.978761768">
                <ele>3250.000000</ele>
                <time>2012-08-04T08:14:07Z</time>
            </trkpt>
            <trkpt lat="45.505029112" lon="6.978743076">
                <ele>3251.000000</ele>
                <time>2012-08-04T08:14:23Z</time>
            </trkpt>
            <trkpt lat="45.505043780" lon="6.978745088">
                <ele>3251.000000</ele>
                <time>2012-08-04T08:14:46Z</time>
            </trkpt>
            <trkpt lat="45.505057024" lon="6.978770820">
                <ele>3251.000000</ele>
                <time>2012-08-04T08:14:59Z</time>
            </trkpt>
            <trkpt lat="45.505061718" lon="6.978771742">
                <ele>3252.000000</ele>
                <time>2012-08-04T08:15:25Z</time>
            </trkpt>
            <trkpt lat="45.505061718" lon="6.978772245">
                <ele>3251.000000</ele>
                <time>2012-08-04T08:15:57Z</time>
            </trkpt>
            <trkpt lat="45.505059622" lon="6.978773586">
                <ele>3251.000000</ele>
                <time>2012-08-04T08:16:31Z</time>
            </trkpt>
            <trkpt lat="45.505059622" lon="6.978772748">
                <ele>3251.000000</ele>
                <time>2012-08-04T08:17:05Z</time>
            </trkpt>
            <trkpt lat="45.505061047" lon="6.978776604">
                <ele>3251.000000</ele>
                <time>2012-08-04T08:17:46Z</time>
            </trkpt>
            <trkpt lat="45.505057862" lon="6.978771072">
                <ele>3252.000000</ele>
                <time>2012-08-04T08:18:34Z</time>
            </trkpt>
            <trkpt lat="45.505060125" lon="6.978771240">
                <ele>3252.000000</ele>
                <time>2012-08-04T08:19:10Z</time>
            </trkpt>
            <trkpt lat="45.505062724" lon="6.978770737">
                <ele>3252.000000</ele>
                <time>2012-08-04T08:19:40Z</time>
            </trkpt>
            <trkpt lat="45.505061131" lon="6.978779202">
                <ele>3252.000000</ele>
                <time>2012-08-04T08:20:24Z</time>
            </trkpt>
            <trkpt lat="45.505059874" lon="6.978775682">
                <ele>3252.000000</ele>
                <time>2012-08-04T08:21:09Z</time>
            </trkpt>
            <trkpt lat="45.505063729" lon="6.978771994">
                <ele>3252.000000</ele>
                <time>2012-08-04T08:21:52Z</time>
            </trkpt>
            <trkpt lat="45.505064484" lon="6.978769395">
                <ele>3252.000000</ele>
                <time>2012-08-04T08:22:50Z</time>
            </trkpt>
            <trkpt lat="45.505062807" lon="6.978771323">
                <ele>3252.000000</ele>
                <time>2012-08-04T08:23:36Z</time>
            </trkpt>
            <trkpt lat="45.505063562" lon="6.978766294">
                <ele>3252.000000</ele>
                <time>2012-08-04T08:24:00Z</time>
            </trkpt>
            <trkpt lat="45.505060041" lon="6.978762690">
                <ele>3254.000000</ele>
                <time>2012-08-04T08:24:21Z</time>
            </trkpt>
            <trkpt lat="45.505045541" lon="6.978803678">
                <ele>3255.000000</ele>
                <time>2012-08-04T08:24:31Z</time>
            </trkpt>
            <trkpt lat="45.505026765" lon="6.978863524">
                <ele>3256.000000</ele>
                <time>2012-08-04T08:24:44Z</time>
            </trkpt>
            <trkpt lat="45.505014528" lon="6.978950864">
                <ele>3257.000000</ele>
                <time>2012-08-04T08:24:58Z</time>
            </trkpt>
            <trkpt lat="45.505028106" lon="6.979020685">
                <ele>3259.000000</ele>
                <time>2012-08-04T08:25:13Z</time>
            </trkpt>
            <trkpt lat="45.504980832" lon="6.979037281">
                <ele>3261.000000</ele>
                <time>2012-08-04T08:25:27Z</time>
            </trkpt>
            <trkpt lat="45.504965493" lon="6.979075335">
                <ele>3262.000000</ele>
                <time>2012-08-04T08:25:41Z</time>
            </trkpt>
            <trkpt lat="45.504975049" lon="6.979107186">
                <ele>3264.000000</ele>
                <time>2012-08-04T08:25:51Z</time>
            </trkpt>
            <trkpt lat="45.504976977" lon="6.979168207">
                <ele>3266.000000</ele>
                <time>2012-08-04T08:26:06Z</time>
            </trkpt>
            <trkpt lat="45.504957531" lon="6.979169212">
                <ele>3267.000000</ele>
                <time>2012-08-04T08:26:20Z</time>
            </trkpt>
            <trkpt lat="45.504928194" lon="6.979180193">
                <ele>3269.000000</ele>
                <time>2012-08-04T08:26:37Z</time>
            </trkpt>
            <trkpt lat="45.504934480" lon="6.979270885">
                <ele>3271.000000</ele>
                <time>2012-08-04T08:26:55Z</time>
            </trkpt>
            <trkpt lat="45.504939258" lon="6.979381694">
                <ele>3273.000000</ele>
                <time>2012-08-04T08:27:15Z</time>
            </trkpt>
            <trkpt lat="45.504946383" lon="6.979441624">
                <ele>3274.000000</ele>
                <time>2012-08-04T08:27:29Z</time>
            </trkpt>
            <trkpt lat="45.504948981" lon="6.979515133">
                <ele>3276.000000</ele>
                <time>2012-08-04T08:27:42Z</time>
            </trkpt>
            <trkpt lat="45.504960464" lon="6.979560647">
                <ele>3278.000000</ele>
                <time>2012-08-04T08:27:55Z</time>
            </trkpt>
            <trkpt lat="45.504972953" lon="6.979646729">
                <ele>3280.000000</ele>
                <time>2012-08-04T08:28:11Z</time>
            </trkpt>
            <trkpt lat="45.504970942" lon="6.979669360">
                <ele>3282.000000</ele>
                <time>2012-08-04T08:28:25Z</time>
            </trkpt>
            <trkpt lat="45.504985861" lon="6.979701798">
                <ele>3283.000000</ele>
                <time>2012-08-04T08:28:30Z</time>
            </trkpt>
            <trkpt lat="45.505002793" lon="6.979747731">
                <ele>3283.000000</ele>
                <time>2012-08-04T08:28:34Z</time>
            </trkpt>
            <trkpt lat="45.505029364" lon="6.979853427">
                <ele>3284.000000</ele>
                <time>2012-08-04T08:28:46Z</time>
            </trkpt>
            <trkpt lat="45.505057024" lon="6.979931714">
                <ele>3286.000000</ele>
                <time>2012-08-04T08:29:01Z</time>
            </trkpt>
            <trkpt lat="45.505068004" lon="6.980010001">
                <ele>3287.000000</ele>
                <time>2012-08-04T08:29:14Z</time>
            </trkpt>
            <trkpt lat="45.505102789" lon="6.980112595">
                <ele>3288.000000</ele>
                <time>2012-08-04T08:29:28Z</time>
            </trkpt>
            <trkpt lat="45.505147213" lon="6.980266068">
                <ele>3290.000000</ele>
                <time>2012-08-04T08:29:44Z</time>
            </trkpt>
            <trkpt lat="45.505156517" lon="6.980354497">
                <ele>3292.000000</ele>
                <time>2012-08-04T08:29:58Z</time>
            </trkpt>
            <trkpt lat="45.505194236" lon="6.980496570">
                <ele>3292.000000</ele>
                <time>2012-08-04T08:30:13Z</time>
            </trkpt>
            <trkpt lat="45.505239749" lon="6.980594723">
                <ele>3292.000000</ele>
                <time>2012-08-04T08:30:25Z</time>
            </trkpt>
            <trkpt lat="45.505248718" lon="6.980705196">
                <ele>3292.000000</ele>
                <time>2012-08-04T08:30:37Z</time>
            </trkpt>
            <trkpt lat="45.505247964" lon="6.980768228">
                <ele>3292.000000</ele>
                <time>2012-08-04T08:30:48Z</time>
            </trkpt>
            <trkpt lat="45.505249388" lon="6.980834445">
                <ele>3294.000000</ele>
                <time>2012-08-04T08:31:01Z</time>
            </trkpt>
            <trkpt lat="45.505250227" lon="6.980919270">
                <ele>3295.000000</ele>
                <time>2012-08-04T08:31:12Z</time>
            </trkpt>
            <trkpt lat="45.505254250" lon="6.980988672">
                <ele>3295.000000</ele>
                <time>2012-08-04T08:31:18Z</time>
            </trkpt>
            <trkpt lat="45.505250813" lon="6.981073581">
                <ele>3297.000000</ele>
                <time>2012-08-04T08:31:31Z</time>
            </trkpt>
            <trkpt lat="45.505245030" lon="6.981178857">
                <ele>3298.000000</ele>
                <time>2012-08-04T08:31:43Z</time>
            </trkpt>
            <trkpt lat="45.505249975" lon="6.981290588">
                <ele>3299.000000</ele>
                <time>2012-08-04T08:31:55Z</time>
            </trkpt>
            <trkpt lat="45.505241174" lon="6.981345322">
                <ele>3300.000000</ele>
                <time>2012-08-04T08:32:10Z</time>
            </trkpt>
            <trkpt lat="45.505241342" lon="6.981424447">
                <ele>3301.000000</ele>
                <time>2012-08-04T08:32:22Z</time>
            </trkpt>
            <trkpt lat="45.505257351" lon="6.981509607">
                <ele>3301.000000</ele>
                <time>2012-08-04T08:32:33Z</time>
            </trkpt>
            <trkpt lat="45.505291130" lon="6.981605496">
                <ele>3303.000000</ele>
                <time>2012-08-04T08:32:47Z</time>
            </trkpt>
            <trkpt lat="45.505270427" lon="6.981654530">
                <ele>3303.000000</ele>
                <time>2012-08-04T08:32:59Z</time>
            </trkpt>
            <trkpt lat="45.505280821" lon="6.981754694">
                <ele>3305.000000</ele>
                <time>2012-08-04T08:33:11Z</time>
            </trkpt>
            <trkpt lat="45.505336812" lon="6.981847482">
                <ele>3305.000000</ele>
                <time>2012-08-04T08:33:23Z</time>
            </trkpt>
            <trkpt lat="45.505340081" lon="6.981936917">
                <ele>3307.000000</ele>
                <time>2012-08-04T08:33:35Z</time>
            </trkpt>
            <trkpt lat="45.505367154" lon="6.981995841">
                <ele>3308.000000</ele>
                <time>2012-08-04T08:33:46Z</time>
            </trkpt>
            <trkpt lat="45.505378973" lon="6.982054179">
                <ele>3309.000000</ele>
                <time>2012-08-04T08:33:57Z</time>
            </trkpt>
            <trkpt lat="45.505375871" lon="6.982110506">
                <ele>3311.000000</ele>
                <time>2012-08-04T08:34:10Z</time>
            </trkpt>
            <trkpt lat="45.505377967" lon="6.982162725">
                <ele>3312.000000</ele>
                <time>2012-08-04T08:34:22Z</time>
            </trkpt>
            <trkpt lat="45.505391462" lon="6.982211089">
                <ele>3314.000000</ele>
                <time>2012-08-04T08:34:35Z</time>
            </trkpt>
            <trkpt lat="45.505406549" lon="6.982305218">
                <ele>3315.000000</ele>
                <time>2012-08-04T08:34:47Z</time>
            </trkpt>
            <trkpt lat="45.505387019" lon="6.982360790">
                <ele>3316.000000</ele>
                <time>2012-08-04T08:34:59Z</time>
            </trkpt>
            <trkpt lat="45.505395066" lon="6.982460031">
                <ele>3318.000000</ele>
                <time>2012-08-04T08:35:13Z</time>
            </trkpt>
            <trkpt lat="45.505423816" lon="6.982554579">
                <ele>3320.000000</ele>
                <time>2012-08-04T08:35:28Z</time>
            </trkpt>
            <trkpt lat="45.505446112" lon="6.982644182">
                <ele>3321.000000</ele>
                <time>2012-08-04T08:35:41Z</time>
            </trkpt>
            <trkpt lat="45.505461786" lon="6.982707633">
                <ele>3323.000000</ele>
                <time>2012-08-04T08:35:53Z</time>
            </trkpt>
            <trkpt lat="45.505468156" lon="6.982778544">
                <ele>3324.000000</ele>
                <time>2012-08-04T08:36:06Z</time>
            </trkpt>
            <trkpt lat="45.505470922" lon="6.982844677">
                <ele>3326.000000</ele>
                <time>2012-08-04T08:36:18Z</time>
            </trkpt>
            <trkpt lat="45.505486093" lon="6.982933441">
                <ele>3327.000000</ele>
                <time>2012-08-04T08:36:30Z</time>
            </trkpt>
            <trkpt lat="45.505499672" lon="6.983023128">
                <ele>3328.000000</ele>
                <time>2012-08-04T08:36:43Z</time>
            </trkpt>
            <trkpt lat="45.505525824" lon="6.983116670">
                <ele>3329.000000</ele>
                <time>2012-08-04T08:36:56Z</time>
            </trkpt>
            <trkpt lat="45.505566979" lon="6.983265029">
                <ele>3330.000000</ele>
                <time>2012-08-04T08:37:09Z</time>
            </trkpt>
            <trkpt lat="45.505605871" lon="6.983407102">
                <ele>3330.000000</ele>
                <time>2012-08-04T08:37:23Z</time>
            </trkpt>
            <trkpt lat="45.505654151" lon="6.983623104">
                <ele>3330.000000</ele>
                <time>2012-08-04T08:37:40Z</time>
            </trkpt>
            <trkpt lat="45.505664377" lon="6.983802561">
                <ele>3331.000000</ele>
                <time>2012-08-04T08:37:55Z</time>
            </trkpt>
            <trkpt lat="45.505658006" lon="6.983959386">
                <ele>3333.000000</ele>
                <time>2012-08-04T08:38:09Z</time>
            </trkpt>
            <trkpt lat="45.505672591" lon="6.984066591">
                <ele>3334.000000</ele>
                <time>2012-08-04T08:38:23Z</time>
            </trkpt>
            <trkpt lat="45.505675189" lon="6.984177399">
                <ele>3335.000000</ele>
                <time>2012-08-04T08:38:32Z</time>
            </trkpt>
            <trkpt lat="45.505676027" lon="6.984262308">
                <ele>3335.000000</ele>
                <time>2012-08-04T08:38:39Z</time>
            </trkpt>
            <trkpt lat="45.505656917" lon="6.984424666">
                <ele>3336.000000</ele>
                <time>2012-08-04T08:38:55Z</time>
            </trkpt>
            <trkpt lat="45.505656246" lon="6.984650558">
                <ele>3336.000000</ele>
                <time>2012-08-04T08:39:12Z</time>
            </trkpt>
            <trkpt lat="45.505638476" lon="6.984785758">
                <ele>3336.000000</ele>
                <time>2012-08-04T08:39:23Z</time>
            </trkpt>
            <trkpt lat="45.505601261" lon="6.984975776">
                <ele>3336.000000</ele>
                <time>2012-08-04T08:39:38Z</time>
            </trkpt>
            <trkpt lat="45.505604949" lon="6.985014500">
                <ele>3336.000000</ele>
                <time>2012-08-04T08:39:41Z</time>
            </trkpt>
            <trkpt lat="45.505596064" lon="6.985069402">
                <ele>3336.000000</ele>
                <time>2012-08-04T08:39:45Z</time>
            </trkpt>
            <trkpt lat="45.505593298" lon="6.985110724">
                <ele>3336.000000</ele>
                <time>2012-08-04T08:39:48Z</time>
            </trkpt>
            <trkpt lat="45.505551975" lon="6.985316668">
                <ele>3336.000000</ele>
                <time>2012-08-04T08:40:05Z</time>
            </trkpt>
            <trkpt lat="45.505530015" lon="6.985490676">
                <ele>3337.000000</ele>
                <time>2012-08-04T08:40:20Z</time>
            </trkpt>
            <trkpt lat="45.505465725" lon="6.985607771">
                <ele>3337.000000</ele>
                <time>2012-08-04T08:40:34Z</time>
            </trkpt>
            <trkpt lat="45.505440999" lon="6.985757891">
                <ele>3338.000000</ele>
                <time>2012-08-04T08:40:47Z</time>
            </trkpt>
            <trkpt lat="45.505451644" lon="6.985834669">
                <ele>3338.000000</ele>
                <time>2012-08-04T08:40:54Z</time>
            </trkpt>
            <trkpt lat="45.505458014" lon="6.986009767">
                <ele>3337.000000</ele>
                <time>2012-08-04T08:41:08Z</time>
            </trkpt>
            <trkpt lat="45.505492883" lon="6.986177154">
                <ele>3336.000000</ele>
                <time>2012-08-04T08:41:26Z</time>
            </trkpt>
            <trkpt lat="45.505522387" lon="6.986295674">
                <ele>3334.000000</ele>
                <time>2012-08-04T08:41:39Z</time>
            </trkpt>
            <trkpt lat="45.505520962" lon="6.986451996">
                <ele>3333.000000</ele>
                <time>2012-08-04T08:41:51Z</time>
            </trkpt>
            <trkpt lat="45.505475448" lon="6.986616030">
                <ele>3333.000000</ele>
                <time>2012-08-04T08:42:07Z</time>
            </trkpt>
            <trkpt lat="45.505471090" lon="6.986642433">
                <ele>3334.000000</ele>
                <time>2012-08-04T08:42:09Z</time>
            </trkpt>
            <trkpt lat="45.505458685" lon="6.986796996">
                <ele>3336.000000</ele>
                <time>2012-08-04T08:42:22Z</time>
            </trkpt>
            <trkpt lat="45.505462121" lon="6.986832367">
                <ele>3336.000000</ele>
                <time>2012-08-04T08:42:25Z</time>
            </trkpt>
            <trkpt lat="45.505438317" lon="6.986985086">
                <ele>3337.000000</ele>
                <time>2012-08-04T08:42:39Z</time>
            </trkpt>
            <trkpt lat="45.505403783" lon="6.987125566">
                <ele>3339.000000</ele>
                <time>2012-08-04T08:42:53Z</time>
            </trkpt>
            <trkpt lat="45.505376961" lon="6.987260599">
                <ele>3340.000000</ele>
                <time>2012-08-04T08:43:06Z</time>
            </trkpt>
            <trkpt lat="45.505340416" lon="6.987375934">
                <ele>3340.000000</ele>
                <time>2012-08-04T08:43:19Z</time>
            </trkpt>
            <trkpt lat="45.505326670" lon="6.987495292">
                <ele>3341.000000</ele>
                <time>2012-08-04T08:43:32Z</time>
            </trkpt>
            <trkpt lat="45.505328346" lon="6.987634851">
                <ele>3343.000000</ele>
                <time>2012-08-04T08:43:46Z</time>
            </trkpt>
            <trkpt lat="45.505309403" lon="6.987776086">
                <ele>3344.000000</ele>
                <time>2012-08-04T08:44:00Z</time>
            </trkpt>
            <trkpt lat="45.505276462" lon="6.987899384">
                <ele>3346.000000</ele>
                <time>2012-08-04T08:44:14Z</time>
            </trkpt>
            <trkpt lat="45.505284425" lon="6.988036847">
                <ele>3347.000000</ele>
                <time>2012-08-04T08:44:28Z</time>
            </trkpt>
            <trkpt lat="45.505281994" lon="6.988172885">
                <ele>3348.000000</ele>
                <time>2012-08-04T08:44:43Z</time>
            </trkpt>
            <trkpt lat="45.505272690" lon="6.988278162">
                <ele>3348.000000</ele>
                <time>2012-08-04T08:44:57Z</time>
            </trkpt>
            <trkpt lat="45.505264811" lon="6.988411685">
                <ele>3349.000000</ele>
                <time>2012-08-04T08:45:12Z</time>
            </trkpt>
            <trkpt lat="45.505261207" lon="6.988554597">
                <ele>3350.000000</ele>
                <time>2012-08-04T08:45:25Z</time>
            </trkpt>
            <trkpt lat="45.505270176" lon="6.988668758">
                <ele>3351.000000</ele>
                <time>2012-08-04T08:45:39Z</time>
            </trkpt>
            <trkpt lat="45.505275708" lon="6.988761797">
                <ele>3353.000000</ele>
                <time>2012-08-04T08:45:50Z</time>
            </trkpt>
            <trkpt lat="45.505284425" lon="6.988884844">
                <ele>3354.000000</ele>
                <time>2012-08-04T08:46:03Z</time>
            </trkpt>
            <trkpt lat="45.505294064" lon="6.989031360">
                <ele>3356.000000</ele>
                <time>2012-08-04T08:46:16Z</time>
            </trkpt>
            <trkpt lat="45.505313342" lon="6.989169493">
                <ele>3357.000000</ele>
                <time>2012-08-04T08:46:29Z</time>
            </trkpt>
            <trkpt lat="45.505311331" lon="6.989193382">
                <ele>3357.000000</ele>
                <time>2012-08-04T08:46:31Z</time>
            </trkpt>
            <trkpt lat="45.505294232" lon="6.989297150">
                <ele>3358.000000</ele>
                <time>2012-08-04T08:46:41Z</time>
            </trkpt>
            <trkpt lat="45.505299009" lon="6.989360517">
                <ele>3358.000000</ele>
                <time>2012-08-04T08:46:46Z</time>
            </trkpt>
            <trkpt lat="45.505337231" lon="6.989497896">
                <ele>3358.000000</ele>
                <time>2012-08-04T08:46:59Z</time>
            </trkpt>
            <trkpt lat="45.505332369" lon="6.989612645">
                <ele>3358.000000</ele>
                <time>2012-08-04T08:47:11Z</time>
            </trkpt>
            <trkpt lat="45.505320719" lon="6.989728147">
                <ele>3359.000000</ele>
                <time>2012-08-04T08:47:24Z</time>
            </trkpt>
            <trkpt lat="45.505325412" lon="6.989823282">
                <ele>3360.000000</ele>
                <time>2012-08-04T08:47:36Z</time>
            </trkpt>
            <trkpt lat="45.505347205" lon="6.989899138">
                <ele>3361.000000</ele>
                <time>2012-08-04T08:47:48Z</time>
            </trkpt>
            <trkpt lat="45.505344775" lon="6.989932582">
                <ele>3363.000000</ele>
                <time>2012-08-04T08:47:58Z</time>
            </trkpt>
            <trkpt lat="45.505341925" lon="6.989984466">
                <ele>3364.000000</ele>
                <time>2012-08-04T08:48:10Z</time>
            </trkpt>
            <trkpt lat="45.505351815" lon="6.990055796">
                <ele>3366.000000</ele>
                <time>2012-08-04T08:48:22Z</time>
            </trkpt>
            <trkpt lat="45.505329184" lon="6.990075828">
                <ele>3367.000000</ele>
                <time>2012-08-04T08:48:36Z</time>
            </trkpt>
            <trkpt lat="45.505329352" lon="6.990129221">
                <ele>3369.000000</ele>
                <time>2012-08-04T08:48:49Z</time>
            </trkpt>
            <trkpt lat="45.505318874" lon="6.990157133">
                <ele>3370.000000</ele>
                <time>2012-08-04T08:49:01Z</time>
            </trkpt>
            <trkpt lat="45.505328011" lon="6.990209939">
                <ele>3372.000000</ele>
                <time>2012-08-04T08:49:15Z</time>
            </trkpt>
            <trkpt lat="45.505363634" lon="6.990292585">
                <ele>3373.000000</ele>
                <time>2012-08-04T08:49:27Z</time>
            </trkpt>
            <trkpt lat="45.505349971" lon="6.990322927">
                <ele>3375.000000</ele>
                <time>2012-08-04T08:49:42Z</time>
            </trkpt>
            <trkpt lat="45.505340332" lon="6.990336673">
                <ele>3376.000000</ele>
                <time>2012-08-04T08:49:54Z</time>
            </trkpt>
            <trkpt lat="45.505330442" lon="6.990352515">
                <ele>3378.000000</ele>
                <time>2012-08-04T08:50:06Z</time>
            </trkpt>
            <trkpt lat="45.505326921" lon="6.990383528">
                <ele>3380.000000</ele>
                <time>2012-08-04T08:50:19Z</time>
            </trkpt>
            <trkpt lat="45.505323401" lon="6.990420828">
                <ele>3381.000000</ele>
                <time>2012-08-04T08:50:32Z</time>
            </trkpt>
            <trkpt lat="45.505320467" lon="6.990457373">
                <ele>3383.000000</ele>
                <time>2012-08-04T08:50:45Z</time>
            </trkpt>
            <trkpt lat="45.505317282" lon="6.990516633">
                <ele>3384.000000</ele>
                <time>2012-08-04T08:51:00Z</time>
            </trkpt>
            <trkpt lat="45.505314851" lon="6.990650157">
                <ele>3386.000000</ele>
                <time>2012-08-04T08:51:16Z</time>
            </trkpt>
            <trkpt lat="45.505326670" lon="6.990789129">
                <ele>3387.000000</ele>
                <time>2012-08-04T08:51:32Z</time>
            </trkpt>
            <trkpt lat="45.505329268" lon="6.990803545">
                <ele>3387.000000</ele>
                <time>2012-08-04T08:51:33Z</time>
            </trkpt>
            <trkpt lat="45.505326083" lon="6.990931118">
                <ele>3388.000000</ele>
                <time>2012-08-04T08:51:45Z</time>
            </trkpt>
            <trkpt lat="45.505330777" lon="6.990970178">
                <ele>3390.000000</ele>
                <time>2012-08-04T08:51:58Z</time>
            </trkpt>
            <trkpt lat="45.505335303" lon="6.991054332">
                <ele>3391.000000</ele>
                <time>2012-08-04T08:52:10Z</time>
            </trkpt>
            <trkpt lat="45.505353324" lon="6.991238985">
                <ele>3392.000000</ele>
                <time>2012-08-04T08:52:22Z</time>
            </trkpt>
            <trkpt lat="45.505368915" lon="6.991331186">
                <ele>3393.000000</ele>
                <time>2012-08-04T08:52:35Z</time>
            </trkpt>
            <trkpt lat="45.505357431" lon="6.991404612">
                <ele>3395.000000</ele>
                <time>2012-08-04T08:52:48Z</time>
            </trkpt>
            <trkpt lat="45.505356006" lon="6.991437553">
                <ele>3397.000000</ele>
                <time>2012-08-04T08:52:59Z</time>
            </trkpt>
            <trkpt lat="45.505363969" lon="6.991458759">
                <ele>3398.000000</ele>
                <time>2012-08-04T08:53:12Z</time>
            </trkpt>
            <trkpt lat="45.505376961" lon="6.991485832">
                <ele>3400.000000</ele>
                <time>2012-08-04T08:53:25Z</time>
            </trkpt>
            <trkpt lat="45.505384169" lon="6.991516761">
                <ele>3402.000000</ele>
                <time>2012-08-04T08:53:35Z</time>
            </trkpt>
            <trkpt lat="45.505385762" lon="6.991554564">
                <ele>3403.000000</ele>
                <time>2012-08-04T08:53:49Z</time>
            </trkpt>
            <trkpt lat="45.505383164" lon="6.991644502">
                <ele>3404.000000</ele>
                <time>2012-08-04T08:54:03Z</time>
            </trkpt>
            <trkpt lat="45.505380230" lon="6.991843488">
                <ele>3406.000000</ele>
                <time>2012-08-04T08:54:21Z</time>
            </trkpt>
            <trkpt lat="45.505380398" lon="6.991924792">
                <ele>3408.000000</ele>
                <time>2012-08-04T08:54:45Z</time>
            </trkpt>
            <trkpt lat="45.505380314" lon="6.991970474">
                <ele>3409.000000</ele>
                <time>2012-08-04T08:54:58Z</time>
            </trkpt>
            <trkpt lat="45.505393809" lon="6.992010288">
                <ele>3411.000000</ele>
                <time>2012-08-04T08:55:12Z</time>
            </trkpt>
            <trkpt lat="45.505401855" lon="6.992054796">
                <ele>3414.000000</ele>
                <time>2012-08-04T08:55:27Z</time>
            </trkpt>
            <trkpt lat="45.505409734" lon="6.992080696">
                <ele>3415.000000</ele>
                <time>2012-08-04T08:55:37Z</time>
            </trkpt>
            <trkpt lat="45.505420128" lon="6.992115145">
                <ele>3416.000000</ele>
                <time>2012-08-04T08:55:48Z</time>
            </trkpt>
            <trkpt lat="45.505435383" lon="6.992161917">
                <ele>3417.000000</ele>
                <time>2012-08-04T08:56:01Z</time>
            </trkpt>
            <trkpt lat="45.505452901" lon="6.992200725">
                <ele>3419.000000</ele>
                <time>2012-08-04T08:56:14Z</time>
            </trkpt>
            <trkpt lat="45.505462457" lon="6.992239701">
                <ele>3420.000000</ele>
                <time>2012-08-04T08:56:27Z</time>
            </trkpt>
            <trkpt lat="45.505468994" lon="6.992270798">
                <ele>3421.000000</ele>
                <time>2012-08-04T08:56:39Z</time>
            </trkpt>
            <trkpt lat="45.505467234" lon="6.992294183">
                <ele>3422.000000</ele>
                <time>2012-08-04T08:56:48Z</time>
            </trkpt>
            <trkpt lat="45.505459439" lon="6.992316227">
                <ele>3423.000000</ele>
                <time>2012-08-04T08:57:01Z</time>
            </trkpt>
            <trkpt lat="45.505447872" lon="6.992344474">
                <ele>3425.000000</ele>
                <time>2012-08-04T08:57:12Z</time>
            </trkpt>
            <trkpt lat="45.505449297" lon="6.992383786">
                <ele>3426.000000</ele>
                <time>2012-08-04T08:57:27Z</time>
            </trkpt>
            <trkpt lat="45.505452063" lon="6.992404489">
                <ele>3427.000000</ele>
                <time>2012-08-04T08:57:38Z</time>
            </trkpt>
            <trkpt lat="45.505454075" lon="6.992442040">
                <ele>3428.000000</ele>
                <time>2012-08-04T08:57:52Z</time>
            </trkpt>
            <trkpt lat="45.505454577" lon="6.992473388">
                <ele>3430.000000</ele>
                <time>2012-08-04T08:58:05Z</time>
            </trkpt>
            <trkpt lat="45.505465893" lon="6.992547484">
                <ele>3431.000000</ele>
                <time>2012-08-04T08:58:16Z</time>
            </trkpt>
            <trkpt lat="45.505444435" lon="6.992579503">
                <ele>3433.000000</ele>
                <time>2012-08-04T08:58:30Z</time>
            </trkpt>
            <trkpt lat="45.505430354" lon="6.992617976">
                <ele>3434.000000</ele>
                <time>2012-08-04T08:58:42Z</time>
            </trkpt>
            <trkpt lat="45.505440831" lon="6.992659802">
                <ele>3436.000000</ele>
                <time>2012-08-04T08:58:56Z</time>
            </trkpt>
            <trkpt lat="45.505467653" lon="6.992703723">
                <ele>3437.000000</ele>
                <time>2012-08-04T08:59:12Z</time>
            </trkpt>
            <trkpt lat="45.505483327" lon="6.992770862">
                <ele>3439.000000</ele>
                <time>2012-08-04T08:59:24Z</time>
            </trkpt>
            <trkpt lat="45.505504366" lon="6.992810089">
                <ele>3441.000000</ele>
                <time>2012-08-04T08:59:35Z</time>
            </trkpt>
            <trkpt lat="45.505481735" lon="6.992837749">
                <ele>3443.000000</ele>
                <time>2012-08-04T08:59:49Z</time>
            </trkpt>
            <trkpt lat="45.505474443" lon="6.992858536">
                <ele>3444.000000</ele>
                <time>2012-08-04T09:00:01Z</time>
            </trkpt>
            <trkpt lat="45.505499337" lon="6.992901703">
                <ele>3446.000000</ele>
                <time>2012-08-04T09:00:16Z</time>
            </trkpt>
            <trkpt lat="45.505497325" lon="6.992934141">
                <ele>3447.000000</ele>
                <time>2012-08-04T09:00:31Z</time>
            </trkpt>
            <trkpt lat="45.505492883" lon="6.992970100">
                <ele>3448.000000</ele>
                <time>2012-08-04T09:00:43Z</time>
            </trkpt>
            <trkpt lat="45.505490871" lon="6.993001280">
                <ele>3450.000000</ele>
                <time>2012-08-04T09:00:57Z</time>
            </trkpt>
            <trkpt lat="45.505473269" lon="6.993020224">
                <ele>3451.000000</ele>
                <time>2012-08-04T09:01:10Z</time>
            </trkpt>
            <trkpt lat="45.505474610" lon="6.993060960">
                <ele>3453.000000</ele>
                <time>2012-08-04T09:01:23Z</time>
            </trkpt>
            <trkpt lat="45.505501768" lon="6.993093984">
                <ele>3455.000000</ele>
                <time>2012-08-04T09:01:37Z</time>
            </trkpt>
            <trkpt lat="45.505522387" lon="6.993137905">
                <ele>3457.000000</ele>
                <time>2012-08-04T09:01:49Z</time>
            </trkpt>
            <trkpt lat="45.505536972" lon="6.993169170">
                <ele>3458.000000</ele>
                <time>2012-08-04T09:02:00Z</time>
            </trkpt>
            <trkpt lat="45.505548539" lon="6.993182749">
                <ele>3458.000000</ele>
                <time>2012-08-04T09:02:09Z</time>
            </trkpt>
            <trkpt lat="45.505566644" lon="6.993215019">
                <ele>3459.000000</ele>
                <time>2012-08-04T09:02:22Z</time>
            </trkpt>
            <trkpt lat="45.505612996" lon="6.993262125">
                <ele>3461.000000</ele>
                <time>2012-08-04T09:02:36Z</time>
            </trkpt>
            <trkpt lat="45.505645098" lon="6.993306465">
                <ele>3462.000000</ele>
                <time>2012-08-04T09:02:51Z</time>
            </trkpt>
            <trkpt lat="45.505657168" lon="6.993333539">
                <ele>3464.000000</ele>
                <time>2012-08-04T09:03:03Z</time>
            </trkpt>
            <trkpt lat="45.505675357" lon="6.993372934">
                <ele>3466.000000</ele>
                <time>2012-08-04T09:03:15Z</time>
            </trkpt>
            <trkpt lat="45.505701676" lon="6.993411072">
                <ele>3468.000000</ele>
                <time>2012-08-04T09:03:26Z</time>
            </trkpt>
            <trkpt lat="45.505697737" lon="6.993431356">
                <ele>3470.000000</ele>
                <time>2012-08-04T09:03:38Z</time>
            </trkpt>
            <trkpt lat="45.505694300" lon="6.993441666">
                <ele>3470.000000</ele>
                <time>2012-08-04T09:03:48Z</time>
            </trkpt>
            <trkpt lat="45.505690696" lon="6.993472092">
                <ele>3472.000000</ele>
                <time>2012-08-04T09:03:59Z</time>
            </trkpt>
            <trkpt lat="45.505712237" lon="6.993506793">
                <ele>3474.000000</ele>
                <time>2012-08-04T09:04:10Z</time>
            </trkpt>
            <trkpt lat="45.505712405" lon="6.993529759">
                <ele>3476.000000</ele>
                <time>2012-08-04T09:04:24Z</time>
            </trkpt>
            <trkpt lat="45.505715674" lon="6.993570663">
                <ele>3477.000000</ele>
                <time>2012-08-04T09:04:36Z</time>
            </trkpt>
            <trkpt lat="45.505720116" lon="6.993623972">
                <ele>3478.000000</ele>
                <time>2012-08-04T09:04:48Z</time>
            </trkpt>
            <trkpt lat="45.505727576" lon="6.993658338">
                <ele>3479.000000</ele>
                <time>2012-08-04T09:05:03Z</time>
            </trkpt>
            <trkpt lat="45.505713997" lon="6.993667977">
                <ele>3480.000000</ele>
                <time>2012-08-04T09:05:13Z</time>
            </trkpt>
            <trkpt lat="45.505703436" lon="6.993705276">
                <ele>3482.000000</ele>
                <time>2012-08-04T09:05:24Z</time>
            </trkpt>
            <trkpt lat="45.505708298" lon="6.993789934">
                <ele>3483.000000</ele>
                <time>2012-08-04T09:05:38Z</time>
            </trkpt>
            <trkpt lat="45.505715841" lon="6.993893366">
                <ele>3483.000000</ele>
                <time>2012-08-04T09:05:51Z</time>
            </trkpt>
            <trkpt lat="45.505691869" lon="6.993956231">
                <ele>3484.000000</ele>
                <time>2012-08-04T09:06:05Z</time>
            </trkpt>
            <trkpt lat="45.505698575" lon="6.994070644">
                <ele>3484.000000</ele>
                <time>2012-08-04T09:06:20Z</time>
            </trkpt>
            <trkpt lat="45.505695473" lon="6.994158486">
                <ele>3487.000000</ele>
                <time>2012-08-04T09:06:37Z</time>
            </trkpt>
            <trkpt lat="45.505715003" lon="6.994235683">
                <ele>3489.000000</ele>
                <time>2012-08-04T09:06:50Z</time>
            </trkpt>
            <trkpt lat="45.505718021" lon="6.994305588">
                <ele>3491.000000</ele>
                <time>2012-08-04T09:07:02Z</time>
            </trkpt>
            <trkpt lat="45.505715255" lon="6.994334171">
                <ele>3492.000000</ele>
                <time>2012-08-04T09:07:15Z</time>
            </trkpt>
            <trkpt lat="45.505715087" lon="6.994350767">
                <ele>3494.000000</ele>
                <time>2012-08-04T09:07:28Z</time>
            </trkpt>
            <trkpt lat="45.505700419" lon="6.994378679">
                <ele>3495.000000</ele>
                <time>2012-08-04T09:07:43Z</time>
            </trkpt>
            <trkpt lat="45.505699078" lon="6.994413463">
                <ele>3496.000000</ele>
                <time>2012-08-04T09:07:53Z</time>
            </trkpt>
            <trkpt lat="45.505704777" lon="6.994448919">
                <ele>3497.000000</ele>
                <time>2012-08-04T09:08:05Z</time>
            </trkpt>
            <trkpt lat="45.505702933" lon="6.994495019">
                <ele>3499.000000</ele>
                <time>2012-08-04T09:08:18Z</time>
            </trkpt>
            <trkpt lat="45.505722547" lon="6.994546400">
                <ele>3501.000000</ele>
                <time>2012-08-04T09:08:32Z</time>
            </trkpt>
            <trkpt lat="45.505744340" lon="6.994616473">
                <ele>3503.000000</ele>
                <time>2012-08-04T09:08:46Z</time>
            </trkpt>
            <trkpt lat="45.505732438" lon="6.994660310">
                <ele>3504.000000</ele>
                <time>2012-08-04T09:08:57Z</time>
            </trkpt>
            <trkpt lat="45.505720954" lon="6.994635081">
                <ele>3505.000000</ele>
                <time>2012-08-04T09:09:12Z</time>
            </trkpt>
            <trkpt lat="45.505721038" lon="6.994661233">
                <ele>3506.000000</ele>
                <time>2012-08-04T09:09:23Z</time>
            </trkpt>
            <trkpt lat="45.505703101" lon="6.994670285">
                <ele>3507.000000</ele>
                <time>2012-08-04T09:09:34Z</time>
            </trkpt>
            <trkpt lat="45.505690109" lon="6.994686630">
                <ele>3508.000000</ele>
                <time>2012-08-04T09:09:47Z</time>
            </trkpt>
            <trkpt lat="45.505675189" lon="6.994723510">
                <ele>3510.000000</ele>
                <time>2012-08-04T09:10:00Z</time>
            </trkpt>
            <trkpt lat="45.505679129" lon="6.994772712">
                <ele>3511.000000</ele>
                <time>2012-08-04T09:10:15Z</time>
            </trkpt>
            <trkpt lat="45.505702850" lon="6.994823506">
                <ele>3513.000000</ele>
                <time>2012-08-04T09:10:26Z</time>
            </trkpt>
            <trkpt lat="45.505700251" lon="6.994848568">
                <ele>3514.000000</ele>
                <time>2012-08-04T09:10:38Z</time>
            </trkpt>
            <trkpt lat="45.505694635" lon="6.994852591">
                <ele>3515.000000</ele>
                <time>2012-08-04T09:10:58Z</time>
            </trkpt>
            <trkpt lat="45.505689355" lon="6.994873546">
                <ele>3516.000000</ele>
                <time>2012-08-04T09:11:22Z</time>
            </trkpt>
            <trkpt lat="45.505690863" lon="6.994883688">
                <ele>3518.000000</ele>
                <time>2012-08-04T09:11:43Z</time>
            </trkpt>
            <trkpt lat="45.505669154" lon="6.994993324">
                <ele>3518.000000</ele>
                <time>2012-08-04T09:11:55Z</time>
            </trkpt>
            <trkpt lat="45.505663706" lon="6.995112849">
                <ele>3519.000000</ele>
                <time>2012-08-04T09:12:07Z</time>
            </trkpt>
            <trkpt lat="45.505631436" lon="6.995215528">
                <ele>3520.000000</ele>
                <time>2012-08-04T09:12:20Z</time>
            </trkpt>
            <trkpt lat="45.505597070" lon="6.995273363">
                <ele>3521.000000</ele>
                <time>2012-08-04T09:12:34Z</time>
            </trkpt>
            <trkpt lat="45.505576367" lon="6.995336143">
                <ele>3522.000000</ele>
                <time>2012-08-04T09:12:46Z</time>
            </trkpt>
            <trkpt lat="45.505569410" lon="6.995393811">
                <ele>3524.000000</ele>
                <time>2012-08-04T09:12:59Z</time>
            </trkpt>
            <trkpt lat="45.505557256" lon="6.995433625">
                <ele>3525.000000</ele>
                <time>2012-08-04T09:13:11Z</time>
            </trkpt>
            <trkpt lat="45.505539905" lon="6.995511074">
                <ele>3526.000000</ele>
                <time>2012-08-04T09:13:26Z</time>
            </trkpt>
            <trkpt lat="45.505511239" lon="6.995583577">
                <ele>3527.000000</ele>
                <time>2012-08-04T09:13:38Z</time>
            </trkpt>
            <trkpt lat="45.505478634" lon="6.995695056">
                <ele>3529.000000</ele>
                <time>2012-08-04T09:13:52Z</time>
            </trkpt>
            <trkpt lat="45.505455919" lon="6.995770074">
                <ele>3530.000000</ele>
                <time>2012-08-04T09:14:05Z</time>
            </trkpt>
            <trkpt lat="45.505484668" lon="6.995844673">
                <ele>3532.000000</ele>
                <time>2012-08-04T09:14:19Z</time>
            </trkpt>
            <trkpt lat="45.505510233" lon="6.995898904">
                <ele>3532.000000</ele>
                <time>2012-08-04T09:14:32Z</time>
            </trkpt>
            <trkpt lat="45.505525908" lon="6.995939640">
                <ele>3534.000000</ele>
                <time>2012-08-04T09:14:43Z</time>
            </trkpt>
            <trkpt lat="45.505536301" lon="6.995963529">
                <ele>3536.000000</ele>
                <time>2012-08-04T09:14:54Z</time>
            </trkpt>
            <trkpt lat="45.505548371" lon="6.995997978">
                <ele>3537.000000</ele>
                <time>2012-08-04T09:15:05Z</time>
            </trkpt>
            <trkpt lat="45.505546192" lon="6.996031087">
                <ele>3538.000000</ele>
                <time>2012-08-04T09:15:18Z</time>
            </trkpt>
            <trkpt lat="45.505526159" lon="6.996034272">
                <ele>3540.000000</ele>
                <time>2012-08-04T09:15:31Z</time>
            </trkpt>
            <trkpt lat="45.505520627" lon="6.996052964">
                <ele>3541.000000</ele>
                <time>2012-08-04T09:15:47Z</time>
            </trkpt>
            <trkpt lat="45.505501768" lon="6.996057490">
                <ele>3542.000000</ele>
                <time>2012-08-04T09:16:00Z</time>
            </trkpt>
            <trkpt lat="45.505474778" lon="6.996074170">
                <ele>3544.000000</ele>
                <time>2012-08-04T09:16:14Z</time>
            </trkpt>
            <trkpt lat="45.505458768" lon="6.996090598">
                <ele>3545.000000</ele>
                <time>2012-08-04T09:16:27Z</time>
            </trkpt>
            <trkpt lat="45.505432617" lon="6.996101076">
                <ele>3547.000000</ele>
                <time>2012-08-04T09:16:39Z</time>
            </trkpt>
            <trkpt lat="45.505434377" lon="6.996124378">
                <ele>3549.000000</ele>
                <time>2012-08-04T09:16:50Z</time>
            </trkpt>
            <trkpt lat="45.505459858" lon="6.996180201">
                <ele>3550.000000</ele>
                <time>2012-08-04T09:17:03Z</time>
            </trkpt>
            <trkpt lat="45.505483663" lon="6.996215405">
                <ele>3551.000000</ele>
                <time>2012-08-04T09:17:16Z</time>
            </trkpt>
            <trkpt lat="45.505480645" lon="6.996240299">
                <ele>3553.000000</ele>
                <time>2012-08-04T09:17:29Z</time>
            </trkpt>
            <trkpt lat="45.505440161" lon="6.996241724">
                <ele>3554.000000</ele>
                <time>2012-08-04T09:17:46Z</time>
            </trkpt>
            <trkpt lat="45.505426750" lon="6.996254548">
                <ele>3556.000000</ele>
                <time>2012-08-04T09:18:01Z</time>
            </trkpt>
            <trkpt lat="45.505441166" lon="6.996305343">
                <ele>3558.000000</ele>
                <time>2012-08-04T09:18:14Z</time>
            </trkpt>
            <trkpt lat="45.505467486" lon="6.996366615">
                <ele>3558.000000</ele>
                <time>2012-08-04T09:18:25Z</time>
            </trkpt>
            <trkpt lat="45.505479472" lon="6.996396873">
                <ele>3560.000000</ele>
                <time>2012-08-04T09:18:38Z</time>
            </trkpt>
            <trkpt lat="45.505461367" lon="6.996398382">
                <ele>3561.000000</ele>
                <time>2012-08-04T09:18:49Z</time>
            </trkpt>
            <trkpt lat="45.505437059" lon="6.996395029">
                <ele>3562.000000</ele>
                <time>2012-08-04T09:19:01Z</time>
            </trkpt>
            <trkpt lat="45.505408812" lon="6.996423863">
                <ele>3564.000000</ele>
                <time>2012-08-04T09:19:15Z</time>
            </trkpt>
            <trkpt lat="45.505407304" lon="6.996446578">
                <ele>3565.000000</ele>
                <time>2012-08-04T09:19:27Z</time>
            </trkpt>
            <trkpt lat="45.505414344" lon="6.996482369">
                <ele>3566.000000</ele>
                <time>2012-08-04T09:19:37Z</time>
            </trkpt>
            <trkpt lat="45.505442675" lon="6.996544227">
                <ele>3568.000000</ele>
                <time>2012-08-04T09:19:49Z</time>
            </trkpt>
            <trkpt lat="45.505458266" lon="6.996579599">
                <ele>3569.000000</ele>
                <time>2012-08-04T09:20:03Z</time>
            </trkpt>
            <trkpt lat="45.505464552" lon="6.996625531">
                <ele>3570.000000</ele>
                <time>2012-08-04T09:20:16Z</time>
            </trkpt>
            <trkpt lat="45.505462373" lon="6.996662160">
                <ele>3571.000000</ele>
                <time>2012-08-04T09:20:30Z</time>
            </trkpt>
            <trkpt lat="45.505429348" lon="6.996659562">
                <ele>3573.000000</ele>
                <time>2012-08-04T09:20:43Z</time>
            </trkpt>
            <trkpt lat="45.505434293" lon="6.996680265">
                <ele>3574.000000</ele>
                <time>2012-08-04T09:20:57Z</time>
            </trkpt>
            <trkpt lat="45.505427420" lon="6.996697867">
                <ele>3575.000000</ele>
                <time>2012-08-04T09:21:17Z</time>
            </trkpt>
            <trkpt lat="45.505418284" lon="6.996709434">
                <ele>3576.000000</ele>
                <time>2012-08-04T09:21:29Z</time>
            </trkpt>
            <trkpt lat="45.505418954" lon="6.996742962">
                <ele>3578.000000</ele>
                <time>2012-08-04T09:21:42Z</time>
            </trkpt>
            <trkpt lat="45.505403280" lon="6.996766850">
                <ele>3580.000000</ele>
                <time>2012-08-04T09:21:56Z</time>
            </trkpt>
            <trkpt lat="45.505405460" lon="6.996799037">
                <ele>3581.000000</ele>
                <time>2012-08-04T09:22:08Z</time>
            </trkpt>
            <trkpt lat="45.505441837" lon="6.996865505">
                <ele>3582.000000</ele>
                <time>2012-08-04T09:22:21Z</time>
            </trkpt>
            <trkpt lat="45.505447034" lon="6.996885035">
                <ele>3584.000000</ele>
                <time>2012-08-04T09:22:35Z</time>
            </trkpt>
            <trkpt lat="45.505453320" lon="6.996927951">
                <ele>3585.000000</ele>
                <time>2012-08-04T09:22:47Z</time>
            </trkpt>
            <trkpt lat="45.505465474" lon="6.996970866">
                <ele>3587.000000</ele>
                <time>2012-08-04T09:23:00Z</time>
            </trkpt>
            <trkpt lat="45.505478634" lon="6.997008584">
                <ele>3588.000000</ele>
                <time>2012-08-04T09:23:12Z</time>
            </trkpt>
            <trkpt lat="45.505483411" lon="6.997049572">
                <ele>3590.000000</ele>
                <time>2012-08-04T09:23:26Z</time>
            </trkpt>
            <trkpt lat="45.505495062" lon="6.997075137">
                <ele>3591.000000</ele>
                <time>2012-08-04T09:23:39Z</time>
            </trkpt>
            <trkpt lat="45.505516855" lon="6.997109503">
                <ele>3594.000000</ele>
                <time>2012-08-04T09:23:54Z</time>
            </trkpt>
            <trkpt lat="45.505514508" lon="6.997144371">
                <ele>3595.000000</ele>
                <time>2012-08-04T09:24:06Z</time>
            </trkpt>
            <trkpt lat="45.505493218" lon="6.997161303">
                <ele>3596.000000</ele>
                <time>2012-08-04T09:24:18Z</time>
            </trkpt>
            <trkpt lat="45.505478215" lon="6.997159878">
                <ele>3597.000000</ele>
                <time>2012-08-04T09:24:30Z</time>
            </trkpt>
            <trkpt lat="45.505476203" lon="6.997162728">
                <ele>3597.000000</ele>
                <time>2012-08-04T09:25:02Z</time>
            </trkpt>
            <trkpt lat="45.505475029" lon="6.997165745">
                <ele>3597.000000</ele>
                <time>2012-08-04T09:25:36Z</time>
            </trkpt>
            <trkpt lat="45.505465223" lon="6.997212851">
                <ele>3598.000000</ele>
                <time>2012-08-04T09:25:48Z</time>
            </trkpt>
            <trkpt lat="45.505431192" lon="6.997218467">
                <ele>3600.000000</ele>
                <time>2012-08-04T09:26:01Z</time>
            </trkpt>
            <trkpt lat="45.505409231" lon="6.997233890">
                <ele>3601.000000</ele>
                <time>2012-08-04T09:26:15Z</time>
            </trkpt>
            <trkpt lat="45.505412249" lon="6.997257024">
                <ele>3603.000000</ele>
                <time>2012-08-04T09:26:27Z</time>
            </trkpt>
            <trkpt lat="45.505417362" lon="6.997280661">
                <ele>3603.000000</ele>
                <time>2012-08-04T09:26:38Z</time>
            </trkpt>
            <trkpt lat="45.505429264" lon="6.997313015">
                <ele>3604.000000</ele>
                <time>2012-08-04T09:26:49Z</time>
            </trkpt>
            <trkpt lat="45.505458601" lon="6.997377053">
                <ele>3606.000000</ele>
                <time>2012-08-04T09:27:06Z</time>
            </trkpt>
            <trkpt lat="45.505453404" lon="6.997380070">
                <ele>3607.000000</ele>
                <time>2012-08-04T09:27:17Z</time>
            </trkpt>
            <trkpt lat="45.505456589" lon="6.997379400">
                <ele>3607.000000</ele>
                <time>2012-08-04T09:27:53Z</time>
            </trkpt>
            <trkpt lat="45.505459104" lon="6.997378059">
                <ele>3608.000000</ele>
                <time>2012-08-04T09:28:27Z</time>
            </trkpt>
            <trkpt lat="45.505459607" lon="6.997382417">
                <ele>3608.000000</ele>
                <time>2012-08-04T09:29:06Z</time>
            </trkpt>
            <trkpt lat="45.505461367" lon="6.997377472">
                <ele>3607.000000</ele>
                <time>2012-08-04T09:29:37Z</time>
            </trkpt>
            <trkpt lat="45.505461115" lon="6.997377556">
                <ele>3607.000000</ele>
                <time>2012-08-04T09:30:01Z</time>
            </trkpt>
            <trkpt lat="45.505460026" lon="6.997381747">
                <ele>3607.000000</ele>
                <time>2012-08-04T09:30:34Z</time>
            </trkpt>
            <trkpt lat="45.505459439" lon="6.997383256">
                <ele>3608.000000</ele>
                <time>2012-08-04T09:31:06Z</time>
            </trkpt>
            <trkpt lat="45.505461954" lon="6.997375377">
                <ele>3608.000000</ele>
                <time>2012-08-04T09:31:22Z</time>
            </trkpt>
            <trkpt lat="45.505482908" lon="6.997405970">
                <ele>3608.000000</ele>
                <time>2012-08-04T09:31:39Z</time>
            </trkpt>
            <trkpt lat="45.505502354" lon="6.997452658">
                <ele>3609.000000</ele>
                <time>2012-08-04T09:31:53Z</time>
            </trkpt>
            <trkpt lat="45.505474107" lon="6.997469673">
                <ele>3611.000000</ele>
                <time>2012-08-04T09:32:06Z</time>
            </trkpt>
            <trkpt lat="45.505449213" lon="6.997479564">
                <ele>3613.000000</ele>
                <time>2012-08-04T09:32:17Z</time>
            </trkpt>
            <trkpt lat="45.505446363" lon="6.997499596">
                <ele>3614.000000</ele>
                <time>2012-08-04T09:32:30Z</time>
            </trkpt>
            <trkpt lat="45.505438820" lon="6.997538069">
                <ele>3616.000000</ele>
                <time>2012-08-04T09:32:42Z</time>
            </trkpt>
            <trkpt lat="45.505397162" lon="6.997542260">
                <ele>3617.000000</ele>
                <time>2012-08-04T09:32:54Z</time>
            </trkpt>
            <trkpt lat="45.505389115" lon="6.997564724">
                <ele>3618.000000</ele>
                <time>2012-08-04T09:33:05Z</time>
            </trkpt>
            <trkpt lat="45.505404286" lon="6.997616608">
                <ele>3620.000000</ele>
                <time>2012-08-04T09:33:19Z</time>
            </trkpt>
            <trkpt lat="45.505425744" lon="6.997654410">
                <ele>3621.000000</ele>
                <time>2012-08-04T09:33:33Z</time>
            </trkpt>
            <trkpt lat="45.505437227" lon="6.997692213">
                <ele>3623.000000</ele>
                <time>2012-08-04T09:33:47Z</time>
            </trkpt>
            <trkpt lat="45.505442256" lon="6.997718867">
                <ele>3624.000000</ele>
                <time>2012-08-04T09:34:01Z</time>
            </trkpt>
            <trkpt lat="45.505445106" lon="6.997740744">
                <ele>3625.000000</ele>
                <time>2012-08-04T09:34:15Z</time>
            </trkpt>
            <trkpt lat="45.505453069" lon="6.997774439">
                <ele>3626.000000</ele>
                <time>2012-08-04T09:34:25Z</time>
            </trkpt>
            <trkpt lat="45.505434629" lon="6.997803105">
                <ele>3627.000000</ele>
                <time>2012-08-04T09:34:38Z</time>
            </trkpt>
            <trkpt lat="45.505421385" lon="6.997815426">
                <ele>3629.000000</ele>
                <time>2012-08-04T09:34:49Z</time>
            </trkpt>
            <trkpt lat="45.505391294" lon="6.997821042">
                <ele>3630.000000</ele>
                <time>2012-08-04T09:35:01Z</time>
            </trkpt>
            <trkpt lat="45.505378470" lon="6.997836381">
                <ele>3632.000000</ele>
                <time>2012-08-04T09:35:11Z</time>
            </trkpt>
            <trkpt lat="45.505386936" lon="6.997872591">
                <ele>3633.000000</ele>
                <time>2012-08-04T09:35:24Z</time>
            </trkpt>
            <trkpt lat="45.505408058" lon="6.997927995">
                <ele>3634.000000</ele>
                <time>2012-08-04T09:35:37Z</time>
            </trkpt>
            <trkpt lat="45.505415183" lon="6.997954398">
                <ele>3635.000000</ele>
                <time>2012-08-04T09:35:49Z</time>
            </trkpt>
            <trkpt lat="45.505403699" lon="6.997964121">
                <ele>3637.000000</ele>
                <time>2012-08-04T09:36:02Z</time>
            </trkpt>
            <trkpt lat="45.505379979" lon="6.997970492">
                <ele>3639.000000</ele>
                <time>2012-08-04T09:36:14Z</time>
            </trkpt>
            <trkpt lat="45.505369334" lon="6.997997062">
                <ele>3640.000000</ele>
                <time>2012-08-04T09:36:27Z</time>
            </trkpt>
            <trkpt lat="45.505350139" lon="6.998007875">
                <ele>3642.000000</ele>
                <time>2012-08-04T09:36:39Z</time>
            </trkpt>
            <trkpt lat="45.505325915" lon="6.998008210">
                <ele>3643.000000</ele>
                <time>2012-08-04T09:36:52Z</time>
            </trkpt>
            <trkpt lat="45.505318623" lon="6.998025728">
                <ele>3644.000000</ele>
                <time>2012-08-04T09:37:04Z</time>
            </trkpt>
            <trkpt lat="45.505316779" lon="6.998041570">
                <ele>3645.000000</ele>
                <time>2012-08-04T09:37:18Z</time>
            </trkpt>
            <trkpt lat="45.505293896" lon="6.998050874">
                <ele>3646.000000</ele>
                <time>2012-08-04T09:37:31Z</time>
            </trkpt>
            <trkpt lat="45.505278390" lon="6.998059088">
                <ele>3647.000000</ele>
                <time>2012-08-04T09:37:41Z</time>
            </trkpt>
            <trkpt lat="45.505250981" lon="6.998078283">
                <ele>3648.000000</ele>
                <time>2012-08-04T09:37:54Z</time>
            </trkpt>
            <trkpt lat="45.505236061" lon="6.998099992">
                <ele>3650.000000</ele>
                <time>2012-08-04T09:38:06Z</time>
            </trkpt>
            <trkpt lat="45.505226338" lon="6.998121534">
                <ele>3651.000000</ele>
                <time>2012-08-04T09:38:17Z</time>
            </trkpt>
            <trkpt lat="45.505200354" lon="6.998141231">
                <ele>3653.000000</ele>
                <time>2012-08-04T09:38:29Z</time>
            </trkpt>
            <trkpt lat="45.505180405" lon="6.998157659">
                <ele>3654.000000</ele>
                <time>2012-08-04T09:38:39Z</time>
            </trkpt>
            <trkpt lat="45.505204042" lon="6.998200826">
                <ele>3655.000000</ele>
                <time>2012-08-04T09:38:53Z</time>
            </trkpt>
            <trkpt lat="45.505209072" lon="6.998219350">
                <ele>3656.000000</ele>
                <time>2012-08-04T09:39:06Z</time>
            </trkpt>
            <trkpt lat="45.505227260" lon="6.998247765">
                <ele>3657.000000</ele>
                <time>2012-08-04T09:39:17Z</time>
            </trkpt>
            <trkpt lat="45.505219633" lon="6.998259332">
                <ele>3658.000000</ele>
                <time>2012-08-04T09:39:32Z</time>
            </trkpt>
            <trkpt lat="45.505220303" lon="6.998285400">
                <ele>3660.000000</ele>
                <time>2012-08-04T09:39:45Z</time>
            </trkpt>
            <trkpt lat="45.505228853" lon="6.998327896">
                <ele>3662.000000</ele>
                <time>2012-08-04T09:39:58Z</time>
            </trkpt>
            <trkpt lat="45.505243354" lon="6.998362932">
                <ele>3663.000000</ele>
                <time>2012-08-04T09:40:11Z</time>
            </trkpt>
            <trkpt lat="45.505251819" lon="6.998402663">
                <ele>3665.000000</ele>
                <time>2012-08-04T09:40:26Z</time>
            </trkpt>
            <trkpt lat="45.505224829" lon="6.998407775">
                <ele>3666.000000</ele>
                <time>2012-08-04T09:40:38Z</time>
            </trkpt>
            <trkpt lat="45.505210999" lon="6.998416325">
                <ele>3667.000000</ele>
                <time>2012-08-04T09:40:50Z</time>
            </trkpt>
            <trkpt lat="45.505212005" lon="6.998448176">
                <ele>3668.000000</ele>
                <time>2012-08-04T09:41:00Z</time>
            </trkpt>
            <trkpt lat="45.505197002" lon="6.998465778">
                <ele>3669.000000</ele>
                <time>2012-08-04T09:41:12Z</time>
            </trkpt>
            <trkpt lat="45.505184596" lon="6.998478686">
                <ele>3671.000000</ele>
                <time>2012-08-04T09:41:24Z</time>
            </trkpt>
            <trkpt lat="45.505166911" lon="6.998499390">
                <ele>3672.000000</ele>
                <time>2012-08-04T09:41:34Z</time>
            </trkpt>
            <trkpt lat="45.505154170" lon="6.998520680">
                <ele>3674.000000</ele>
                <time>2012-08-04T09:41:46Z</time>
            </trkpt>
            <trkpt lat="45.505134640" lon="6.998537276">
                <ele>3676.000000</ele>
                <time>2012-08-04T09:41:59Z</time>
            </trkpt>
            <trkpt lat="45.505112009" lon="6.998557141">
                <ele>3677.000000</ele>
                <time>2012-08-04T09:42:12Z</time>
            </trkpt>
            <trkpt lat="45.505111590" lon="6.998587735">
                <ele>3679.000000</ele>
                <time>2012-08-04T09:42:25Z</time>
            </trkpt>
            <trkpt lat="45.505103543" lon="6.998619335">
                <ele>3681.000000</ele>
                <time>2012-08-04T09:42:38Z</time>
            </trkpt>
            <trkpt lat="45.505086528" lon="6.998641631">
                <ele>3681.000000</ele>
                <time>2012-08-04T09:42:50Z</time>
            </trkpt>
            <trkpt lat="45.505062556" lon="6.998659317">
                <ele>3682.000000</ele>
                <time>2012-08-04T09:43:01Z</time>
            </trkpt>
            <trkpt lat="45.505067669" lon="6.998696951">
                <ele>3683.000000</ele>
                <time>2012-08-04T09:43:15Z</time>
            </trkpt>
            <trkpt lat="45.505079571" lon="6.998724947">
                <ele>3684.000000</ele>
                <time>2012-08-04T09:43:27Z</time>
            </trkpt>
            <trkpt lat="45.505087953" lon="6.998757468">
                <ele>3686.000000</ele>
                <time>2012-08-04T09:43:40Z</time>
            </trkpt>
            <trkpt lat="45.505108740" lon="6.998785799">
                <ele>3688.000000</ele>
                <time>2012-08-04T09:43:57Z</time>
            </trkpt>
            <trkpt lat="45.505118296" lon="6.998823937">
                <ele>3689.000000</ele>
                <time>2012-08-04T09:44:12Z</time>
            </trkpt>
            <trkpt lat="45.505086612" lon="6.998846903">
                <ele>3691.000000</ele>
                <time>2012-08-04T09:44:27Z</time>
            </trkpt>
            <trkpt lat="45.505104298" lon="6.998885209">
                <ele>3693.000000</ele>
                <time>2012-08-04T09:44:42Z</time>
            </trkpt>
            <trkpt lat="45.505122151" lon="6.998914378">
                <ele>3694.000000</ele>
                <time>2012-08-04T09:44:55Z</time>
            </trkpt>
            <trkpt lat="45.505141513" lon="6.998940613">
                <ele>3695.000000</ele>
                <time>2012-08-04T09:45:12Z</time>
            </trkpt>
            <trkpt lat="45.505137490" lon="6.998970034">
                <ele>3696.000000</ele>
                <time>2012-08-04T09:45:24Z</time>
            </trkpt>
            <trkpt lat="45.505121397" lon="6.998997861">
                <ele>3698.000000</ele>
                <time>2012-08-04T09:45:38Z</time>
            </trkpt>
            <trkpt lat="45.505094826" lon="6.999030216">
                <ele>3700.000000</ele>
                <time>2012-08-04T09:45:50Z</time>
            </trkpt>
            <trkpt lat="45.505081667" lon="6.999051757">
                <ele>3703.000000</ele>
                <time>2012-08-04T09:45:59Z</time>
            </trkpt>
            <trkpt lat="45.505079739" lon="6.999055613">
                <ele>3705.000000</ele>
                <time>2012-08-04T09:46:02Z</time>
            </trkpt>
            <trkpt lat="45.505107315" lon="6.999112107">
                <ele>3704.000000</ele>
                <time>2012-08-04T09:46:16Z</time>
            </trkpt>
            <trkpt lat="45.505123828" lon="6.999132140">
                <ele>3705.000000</ele>
                <time>2012-08-04T09:46:37Z</time>
            </trkpt>
            <trkpt lat="45.505127013" lon="6.999142617">
                <ele>3706.000000</ele>
                <time>2012-08-04T09:46:50Z</time>
            </trkpt>
            <trkpt lat="45.505120223" lon="6.999158291">
                <ele>3706.000000</ele>
                <time>2012-08-04T09:47:05Z</time>
            </trkpt>
            <trkpt lat="45.505108070" lon="6.999175893">
                <ele>3708.000000</ele>
                <time>2012-08-04T09:47:18Z</time>
            </trkpt>
            <trkpt lat="45.505077560" lon="6.999215037">
                <ele>3709.000000</ele>
                <time>2012-08-04T09:47:30Z</time>
            </trkpt>
            <trkpt lat="45.505066831" lon="6.999225766">
                <ele>3712.000000</ele>
                <time>2012-08-04T09:47:39Z</time>
            </trkpt>
            <trkpt lat="45.505078984" lon="6.999279661">
                <ele>3714.000000</ele>
                <time>2012-08-04T09:47:52Z</time>
            </trkpt>
            <trkpt lat="45.505091054" lon="6.999317128">
                <ele>3714.000000</ele>
                <time>2012-08-04T09:48:05Z</time>
            </trkpt>
            <trkpt lat="45.505088540" lon="6.999338418">
                <ele>3714.000000</ele>
                <time>2012-08-04T09:48:16Z</time>
            </trkpt>
            <trkpt lat="45.505075296" lon="6.999359876">
                <ele>3715.000000</ele>
                <time>2012-08-04T09:48:27Z</time>
            </trkpt>
            <trkpt lat="45.505055683" lon="6.999373455">
                <ele>3718.000000</ele>
                <time>2012-08-04T09:48:39Z</time>
            </trkpt>
            <trkpt lat="45.505042858" lon="6.999387788">
                <ele>3719.000000</ele>
                <time>2012-08-04T09:48:54Z</time>
            </trkpt>
            <trkpt lat="45.505044032" lon="6.999422824">
                <ele>3719.000000</ele>
                <time>2012-08-04T09:49:07Z</time>
            </trkpt>
            <trkpt lat="45.505072195" lon="6.999464650">
                <ele>3720.000000</ele>
                <time>2012-08-04T09:49:19Z</time>
            </trkpt>
            <trkpt lat="45.505092815" lon="6.999510918">
                <ele>3722.000000</ele>
                <time>2012-08-04T09:49:33Z</time>
            </trkpt>
            <trkpt lat="45.505107986" lon="6.999544445">
                <ele>3723.000000</ele>
                <time>2012-08-04T09:49:48Z</time>
            </trkpt>
            <trkpt lat="45.505122067" lon="6.999581577">
                <ele>3725.000000</ele>
                <time>2012-08-04T09:50:02Z</time>
            </trkpt>
            <trkpt lat="45.505123828" lon="6.999629103">
                <ele>3726.000000</ele>
                <time>2012-08-04T09:50:17Z</time>
            </trkpt>
            <trkpt lat="45.505130366" lon="6.999662463">
                <ele>3728.000000</ele>
                <time>2012-08-04T09:50:29Z</time>
            </trkpt>
            <trkpt lat="45.505143525" lon="6.999719208">
                <ele>3730.000000</ele>
                <time>2012-08-04T09:50:40Z</time>
            </trkpt>
            <trkpt lat="45.505147046" lon="6.999745527">
                <ele>3731.000000</ele>
                <time>2012-08-04T09:50:54Z</time>
            </trkpt>
            <trkpt lat="45.505129108" lon="6.999748210">
                <ele>3732.000000</ele>
                <time>2012-08-04T09:51:08Z</time>
            </trkpt>
            <trkpt lat="45.505095832" lon="6.999768913">
                <ele>3734.000000</ele>
                <time>2012-08-04T09:51:19Z</time>
            </trkpt>
            <trkpt lat="45.505079990" lon="6.999750389">
                <ele>3736.000000</ele>
                <time>2012-08-04T09:51:38Z</time>
            </trkpt>
            <trkpt lat="45.505044786" lon="6.999748461">
                <ele>3737.000000</ele>
                <time>2012-08-04T09:51:52Z</time>
            </trkpt>
            <trkpt lat="45.505021149" lon="6.999746785">
                <ele>3738.000000</ele>
                <time>2012-08-04T09:52:05Z</time>
            </trkpt>
            <trkpt lat="45.505013941" lon="6.999778384">
                <ele>3740.000000</ele>
                <time>2012-08-04T09:52:18Z</time>
            </trkpt>
            <trkpt lat="45.505005140" lon="6.999789532">
                <ele>3741.000000</ele>
                <time>2012-08-04T09:52:30Z</time>
            </trkpt>
            <trkpt lat="45.504950490" lon="6.999806128">
                <ele>3742.000000</ele>
                <time>2012-08-04T09:52:45Z</time>
            </trkpt>
            <trkpt lat="45.504957531" lon="6.999854576">
                <ele>3744.000000</ele>
                <time>2012-08-04T09:52:59Z</time>
            </trkpt>
            <trkpt lat="45.504956609" lon="6.999861030">
                <ele>3745.000000</ele>
                <time>2012-08-04T09:53:16Z</time>
            </trkpt>
            <trkpt lat="45.504934313" lon="6.999851307">
                <ele>3745.000000</ele>
                <time>2012-08-04T09:53:30Z</time>
            </trkpt>
            <trkpt lat="45.504928948" lon="6.999852313">
                <ele>3745.000000</ele>
                <time>2012-08-04T09:53:43Z</time>
            </trkpt>
            <trkpt lat="45.504927859" lon="6.999856755">
                <ele>3744.000000</ele>
                <time>2012-08-04T09:54:14Z</time>
            </trkpt>
            <trkpt lat="45.504923081" lon="6.999851726">
                <ele>3744.000000</ele>
                <time>2012-08-04T09:54:32Z</time>
            </trkpt>
            <trkpt lat="45.504919477" lon="6.999846781">
                <ele>3744.000000</ele>
                <time>2012-08-04T09:55:04Z</time>
            </trkpt>
            <trkpt lat="45.504917298" lon="6.999840997">
                <ele>3744.000000</ele>
                <time>2012-08-04T09:55:40Z</time>
            </trkpt>
            <trkpt lat="45.504917130" lon="6.999840746">
                <ele>3744.000000</ele>
                <time>2012-08-04T09:56:12Z</time>
            </trkpt>
            <trkpt lat="45.504916208" lon="6.999840159">
                <ele>3744.000000</ele>
                <time>2012-08-04T09:56:42Z</time>
            </trkpt>
            <trkpt lat="45.504912352" lon="6.999842003">
                <ele>3744.000000</ele>
                <time>2012-08-04T09:57:18Z</time>
            </trkpt>
            <trkpt lat="45.504912855" lon="6.999837980">
                <ele>3744.000000</ele>
                <time>2012-08-04T09:57:58Z</time>
            </trkpt>
            <trkpt lat="45.504915956" lon="6.999838734">
                <ele>3744.000000</ele>
                <time>2012-08-04T09:58:23Z</time>
            </trkpt>
            <trkpt lat="45.504918220" lon="6.999840997">
                <ele>3745.000000</ele>
                <time>2012-08-04T09:58:46Z</time>
            </trkpt>
            <trkpt lat="45.504920902" lon="6.999839824">
                <ele>3743.000000</ele>
                <time>2012-08-04T09:59:13Z</time>
            </trkpt>
            <trkpt lat="45.504921572" lon="6.999840578">
                <ele>3744.000000</ele>
                <time>2012-08-04T09:59:45Z</time>
            </trkpt>
            <trkpt lat="45.504920231" lon="6.999847535">
                <ele>3744.000000</ele>
                <time>2012-08-04T10:00:12Z</time>
            </trkpt>
            <trkpt lat="45.504918471" lon="6.999852900">
                <ele>3746.000000</ele>
                <time>2012-08-04T10:00:39Z</time>
            </trkpt>
            <trkpt lat="45.504921656" lon="6.999856923">
                <ele>3746.000000</ele>
                <time>2012-08-04T10:01:01Z</time>
            </trkpt>
            <trkpt lat="45.504917633" lon="6.999862958">
                <ele>3746.000000</ele>
                <time>2012-08-04T10:01:36Z</time>
            </trkpt>
            <trkpt lat="45.504918303" lon="6.999864466">
                <ele>3746.000000</ele>
                <time>2012-08-04T10:02:22Z</time>
            </trkpt>
            <trkpt lat="45.504918387" lon="6.999862623">
                <ele>3745.000000</ele>
                <time>2012-08-04T10:03:00Z</time>
            </trkpt>
            <trkpt lat="45.504918303" lon="6.999866478">
                <ele>3746.000000</ele>
                <time>2012-08-04T10:03:36Z</time>
            </trkpt>
            <trkpt lat="45.504923835" lon="6.999866478">
                <ele>3746.000000</ele>
                <time>2012-08-04T10:04:17Z</time>
            </trkpt>
            <trkpt lat="45.504922494" lon="6.999864131">
                <ele>3745.000000</ele>
                <time>2012-08-04T10:04:35Z</time>
            </trkpt>
            <trkpt lat="45.504920902" lon="6.999865388">
                <ele>3746.000000</ele>
                <time>2012-08-04T10:05:02Z</time>
            </trkpt>
            <trkpt lat="45.504920315" lon="6.999864550">
                <ele>3746.000000</ele>
                <time>2012-08-04T10:05:28Z</time>
            </trkpt>
            <trkpt lat="45.504919812" lon="6.999864215">
                <ele>3746.000000</ele>
                <time>2012-08-04T10:05:57Z</time>
            </trkpt>
            <trkpt lat="45.504920063" lon="6.999864299">
                <ele>3746.000000</ele>
                <time>2012-08-04T10:06:22Z</time>
            </trkpt>
            <trkpt lat="45.504921824" lon="6.999862874">
                <ele>3744.000000</ele>
                <time>2012-08-04T10:06:41Z</time>
            </trkpt>
            <trkpt lat="45.504923081" lon="6.999863042">
                <ele>3747.000000</ele>
                <time>2012-08-04T10:06:47Z</time>
            </trkpt>
            <trkpt lat="45.504926434" lon="6.999865388">
                <ele>3746.000000</ele>
                <time>2012-08-04T10:07:25Z</time>
            </trkpt>
            <trkpt lat="45.504927607" lon="6.999866646">
                <ele>3746.000000</ele>
                <time>2012-08-04T10:08:01Z</time>
            </trkpt>
            <trkpt lat="45.504931798" lon="6.999869077">
                <ele>3746.000000</ele>
                <time>2012-08-04T10:08:36Z</time>
            </trkpt>
            <trkpt lat="45.504931798" lon="6.999868238">
                <ele>3746.000000</ele>
                <time>2012-08-04T10:09:06Z</time>
            </trkpt>
            <trkpt lat="45.504930709" lon="6.999867903">
                <ele>3746.000000</ele>
                <time>2012-08-04T10:09:39Z</time>
            </trkpt>
            <trkpt lat="45.504931882" lon="6.999867903">
                <ele>3746.000000</ele>
                <time>2012-08-04T10:10:14Z</time>
            </trkpt>
            <trkpt lat="45.504932804" lon="6.999868825">
                <ele>3746.000000</ele>
                <time>2012-08-04T10:10:43Z</time>
            </trkpt>
            <trkpt lat="45.504931379" lon="6.999869915">
                <ele>3747.000000</ele>
                <time>2012-08-04T10:11:08Z</time>
            </trkpt>
            <trkpt lat="45.504932469" lon="6.999868657">
                <ele>3747.000000</ele>
                <time>2012-08-04T10:11:48Z</time>
            </trkpt>
            <trkpt lat="45.504934229" lon="6.999868406">
                <ele>3747.000000</ele>
                <time>2012-08-04T10:12:28Z</time>
            </trkpt>
            <trkpt lat="45.504934313" lon="6.999869412">
                <ele>3747.000000</ele>
                <time>2012-08-04T10:13:01Z</time>
            </trkpt>
            <trkpt lat="45.504932888" lon="6.999868909">
                <ele>3748.000000</ele>
                <time>2012-08-04T10:13:33Z</time>
            </trkpt>
            <trkpt lat="45.504933726" lon="6.999866478">
                <ele>3748.000000</ele>
                <time>2012-08-04T10:14:13Z</time>
            </trkpt>
            <trkpt lat="45.504935738" lon="6.999864718">
                <ele>3748.000000</ele>
                <time>2012-08-04T10:14:52Z</time>
            </trkpt>
            <trkpt lat="45.504938671" lon="6.999865221">
                <ele>3748.000000</ele>
                <time>2012-08-04T10:15:29Z</time>
            </trkpt>
            <trkpt lat="45.504939091" lon="6.999863377">
                <ele>3748.000000</ele>
                <time>2012-08-04T10:16:11Z</time>
            </trkpt>
            <trkpt lat="45.504939677" lon="6.999864466">
                <ele>3748.000000</ele>
                <time>2012-08-04T10:16:41Z</time>
            </trkpt>
            <trkpt lat="45.504940515" lon="6.999864634">
                <ele>3748.000000</ele>
                <time>2012-08-04T10:17:16Z</time>
            </trkpt>
            <trkpt lat="45.504940096" lon="6.999863796">
                <ele>3748.000000</ele>
                <time>2012-08-04T10:17:56Z</time>
            </trkpt>
            <trkpt lat="45.504940432" lon="6.999862958">
                <ele>3748.000000</ele>
                <time>2012-08-04T10:18:33Z</time>
            </trkpt>
            <trkpt lat="45.504939510" lon="6.999860192">
                <ele>3748.000000</ele>
                <time>2012-08-04T10:19:14Z</time>
            </trkpt>
            <trkpt lat="45.504939677" lon="6.999863293">
                <ele>3747.000000</ele>
                <time>2012-08-04T10:19:38Z</time>
            </trkpt>
            <trkpt lat="45.504942611" lon="6.999862874">
                <ele>3747.000000</ele>
                <time>2012-08-04T10:20:15Z</time>
            </trkpt>
            <trkpt lat="45.504940432" lon="6.999862539">
                <ele>3747.000000</ele>
                <time>2012-08-04T10:20:53Z</time>
            </trkpt>
            <trkpt lat="45.504938671" lon="6.999860024">
                <ele>3747.000000</ele>
                <time>2012-08-04T10:21:22Z</time>
            </trkpt>
            <trkpt lat="45.504933558" lon="6.999860108">
                <ele>3747.000000</ele>
                <time>2012-08-04T10:22:00Z</time>
            </trkpt>
            <trkpt lat="45.504931798" lon="6.999859270">
                <ele>3747.000000</ele>
                <time>2012-08-04T10:22:34Z</time>
            </trkpt>
            <trkpt lat="45.504930792" lon="6.999859102">
                <ele>3747.000000</ele>
                <time>2012-08-04T10:23:04Z</time>
            </trkpt>
            <trkpt lat="45.504937582" lon="6.999860695">
                <ele>3748.000000</ele>
                <time>2012-08-04T10:23:38Z</time>
            </trkpt>
            <trkpt lat="45.504939174" lon="6.999858851">
                <ele>3747.000000</ele>
                <time>2012-08-04T10:24:13Z</time>
            </trkpt>
            <trkpt lat="45.504942359" lon="6.999860192">
                <ele>3747.000000</ele>
                <time>2012-08-04T10:24:50Z</time>
            </trkpt>
            <trkpt lat="45.504943700" lon="6.999864131">
                <ele>3747.000000</ele>
                <time>2012-08-04T10:25:18Z</time>
            </trkpt>
            <trkpt lat="45.504945125" lon="6.999865053">
                <ele>3747.000000</ele>
                <time>2012-08-04T10:25:42Z</time>
            </trkpt>
            <trkpt lat="45.504946047" lon="6.999868238">
                <ele>3747.000000</ele>
                <time>2012-08-04T10:26:22Z</time>
            </trkpt>
            <trkpt lat="45.504942862" lon="6.999861700">
                <ele>3747.000000</ele>
                <time>2012-08-04T10:27:01Z</time>
            </trkpt>
            <trkpt lat="45.504942527" lon="6.999856923">
                <ele>3747.000000</ele>
                <time>2012-08-04T10:27:35Z</time>
            </trkpt>
            <trkpt lat="45.504941605" lon="6.999855666">
                <ele>3747.000000</ele>
                <time>2012-08-04T10:28:15Z</time>
            </trkpt>
            <trkpt lat="45.504939510" lon="6.999854157">
                <ele>3747.000000</ele>
                <time>2012-08-04T10:28:55Z</time>
            </trkpt>
            <trkpt lat="45.504939929" lon="6.999854911">
                <ele>3747.000000</ele>
                <time>2012-08-04T10:29:29Z</time>
            </trkpt>
            <trkpt lat="45.504939426" lon="6.999859605">
                <ele>3747.000000</ele>
                <time>2012-08-04T10:30:17Z</time>
            </trkpt>
            <trkpt lat="45.504941940" lon="6.999858012">
                <ele>3747.000000</ele>
                <time>2012-08-04T10:30:46Z</time>
            </trkpt>
            <trkpt lat="45.504941186" lon="6.999861197">
                <ele>3749.000000</ele>
                <time>2012-08-04T10:31:14Z</time>
            </trkpt>
            <trkpt lat="45.504942527" lon="6.999861533">
                <ele>3749.000000</ele>
                <time>2012-08-04T10:31:40Z</time>
            </trkpt>
            <trkpt lat="45.504943365" lon="6.999861533">
                <ele>3749.000000</ele>
                <time>2012-08-04T10:32:07Z</time>
            </trkpt>
            <trkpt lat="45.504941102" lon="6.999861952">
                <ele>3749.000000</ele>
                <time>2012-08-04T10:32:27Z</time>
            </trkpt>
            <trkpt lat="45.504940934" lon="6.999860443">
                <ele>3749.000000</ele>
                <time>2012-08-04T10:32:49Z</time>
            </trkpt>
            <trkpt lat="45.504942359" lon="6.999863712">
                <ele>3749.000000</ele>
                <time>2012-08-04T10:33:15Z</time>
            </trkpt>
            <trkpt lat="45.504940599" lon="6.999862706">
                <ele>3749.000000</ele>
                <time>2012-08-04T10:33:43Z</time>
            </trkpt>
            <trkpt lat="45.504941354" lon="6.999860779">
                <ele>3749.000000</ele>
                <time>2012-08-04T10:34:08Z</time>
            </trkpt>
            <trkpt lat="45.504939342" lon="6.999856168">
                <ele>3747.000000</ele>
                <time>2012-08-04T10:34:31Z</time>
            </trkpt>
            <trkpt lat="45.504938839" lon="6.999856168">
                <ele>3749.000000</ele>
                <time>2012-08-04T10:34:41Z</time>
            </trkpt>
            <trkpt lat="45.504945545" lon="6.999854408">
                <ele>3750.000000</ele>
                <time>2012-08-04T10:34:52Z</time>
            </trkpt>
            <trkpt lat="45.504939426" lon="6.999861700">
                <ele>3750.000000</ele>
                <time>2012-08-04T10:35:12Z</time>
            </trkpt>
            <trkpt lat="45.504933726" lon="6.999854576">
                <ele>3750.000000</ele>
                <time>2012-08-04T10:35:40Z</time>
            </trkpt>
            <trkpt lat="45.504933894" lon="6.999853486">
                <ele>3750.000000</ele>
                <time>2012-08-04T10:35:53Z</time>
            </trkpt>
            <trkpt lat="45.504928948" lon="6.999848289">
                <ele>3750.000000</ele>
                <time>2012-08-04T10:36:21Z</time>
            </trkpt>
            <trkpt lat="45.504921153" lon="6.999858599">
                <ele>3750.000000</ele>
                <time>2012-08-04T10:36:41Z</time>
            </trkpt>
            <trkpt lat="45.504898019" lon="6.999876201">
                <ele>3750.000000</ele>
                <time>2012-08-04T10:36:55Z</time>
            </trkpt>
            <trkpt lat="45.504893744" lon="6.999872513">
                <ele>3750.000000</ele>
                <time>2012-08-04T10:37:08Z</time>
            </trkpt>
            <trkpt lat="45.504893409" lon="6.999867232">
                <ele>3750.000000</ele>
                <time>2012-08-04T10:37:22Z</time>
            </trkpt>
            <trkpt lat="45.504892990" lon="6.999869663">
                <ele>3750.000000</ele>
                <time>2012-08-04T10:37:49Z</time>
            </trkpt>
            <trkpt lat="45.504892655" lon="6.999869579">
                <ele>3750.000000</ele>
                <time>2012-08-04T10:37:50Z</time>
            </trkpt>
            <trkpt lat="45.504969936" lon="6.999819875">
                <ele>3750.000000</ele>
                <time>2012-08-04T10:38:00Z</time>
            </trkpt>
            <trkpt lat="45.504973205" lon="6.999824150">
                <ele>3749.000000</ele>
                <time>2012-08-04T10:38:02Z</time>
            </trkpt>
            <trkpt lat="45.504961219" lon="6.999820881">
                <ele>3748.000000</ele>
                <time>2012-08-04T10:38:10Z</time>
            </trkpt>
            <trkpt lat="45.504910592" lon="6.999858264">
                <ele>3748.000000</ele>
                <time>2012-08-04T10:38:24Z</time>
            </trkpt>
            <trkpt lat="45.504900282" lon="6.999866311">
                <ele>3749.000000</ele>
                <time>2012-08-04T10:38:38Z</time>
            </trkpt>
            <trkpt lat="45.504897516" lon="6.999868741">
                <ele>3749.000000</ele>
                <time>2012-08-04T10:39:10Z</time>
            </trkpt>
            <trkpt lat="45.504902797" lon="6.999862371">
                <ele>3749.000000</ele>
                <time>2012-08-04T10:39:12Z</time>
            </trkpt>
            <trkpt lat="45.505006816" lon="6.999820964">
                <ele>3748.000000</ele>
                <time>2012-08-04T10:39:26Z</time>
            </trkpt>
            <trkpt lat="45.505004972" lon="6.999781234">
                <ele>3745.000000</ele>
                <time>2012-08-04T10:39:39Z</time>
            </trkpt>
            <trkpt lat="45.505017210" lon="6.999778217">
                <ele>3745.000000</ele>
                <time>2012-08-04T10:39:55Z</time>
            </trkpt>
            <trkpt lat="45.505052917" lon="6.999768913">
                <ele>3744.000000</ele>
                <time>2012-08-04T10:40:05Z</time>
            </trkpt>
            <trkpt lat="45.505095162" lon="6.999798920">
                <ele>3741.000000</ele>
                <time>2012-08-04T10:40:13Z</time>
            </trkpt>
            <trkpt lat="45.505119385" lon="6.999776540">
                <ele>3740.000000</ele>
                <time>2012-08-04T10:40:29Z</time>
            </trkpt>
            <trkpt lat="45.505138496" lon="6.999771763">
                <ele>3739.000000</ele>
                <time>2012-08-04T10:40:40Z</time>
            </trkpt>
            <trkpt lat="45.505156769" lon="6.999747790">
                <ele>3737.000000</ele>
                <time>2012-08-04T10:40:57Z</time>
            </trkpt>
            <trkpt lat="45.505150147" lon="6.999702612">
                <ele>3733.000000</ele>
                <time>2012-08-04T10:41:04Z</time>
            </trkpt>
            <trkpt lat="45.505143190" lon="6.999667911">
                <ele>3733.000000</ele>
                <time>2012-08-04T10:41:17Z</time>
            </trkpt>
            <trkpt lat="45.505145034" lon="6.999636982">
                <ele>3732.000000</ele>
                <time>2012-08-04T10:41:32Z</time>
            </trkpt>
            <trkpt lat="45.505129276" lon="6.999574536">
                <ele>3731.000000</ele>
                <time>2012-08-04T10:41:48Z</time>
            </trkpt>
            <trkpt lat="45.505114188" lon="6.999542518">
                <ele>3729.000000</ele>
                <time>2012-08-04T10:42:01Z</time>
            </trkpt>
            <trkpt lat="45.505095245" lon="6.999501111">
                <ele>3728.000000</ele>
                <time>2012-08-04T10:42:15Z</time>
            </trkpt>
            <trkpt lat="45.505068256" lon="6.999452412">
                <ele>3727.000000</ele>
                <time>2012-08-04T10:42:32Z</time>
            </trkpt>
            <trkpt lat="45.505045876" lon="6.999411257">
                <ele>3726.000000</ele>
                <time>2012-08-04T10:42:44Z</time>
            </trkpt>
            <trkpt lat="45.505071692" lon="6.999386111">
                <ele>3724.000000</ele>
                <time>2012-08-04T10:42:59Z</time>
            </trkpt>
            <trkpt lat="45.505097928" lon="6.999354009">
                <ele>3723.000000</ele>
                <time>2012-08-04T10:43:11Z</time>
            </trkpt>
            <trkpt lat="45.505079068" lon="6.999284020">
                <ele>3719.000000</ele>
                <time>2012-08-04T10:43:22Z</time>
            </trkpt>
            <trkpt lat="45.505080577" lon="6.999264490">
                <ele>3716.000000</ele>
                <time>2012-08-04T10:43:27Z</time>
            </trkpt>
            <trkpt lat="45.505102621" lon="6.999243954">
                <ele>3715.000000</ele>
                <time>2012-08-04T10:43:39Z</time>
            </trkpt>
            <trkpt lat="45.505137658" lon="6.999192908">
                <ele>3714.000000</ele>
                <time>2012-08-04T10:43:54Z</time>
            </trkpt>
            <trkpt lat="45.505139418" lon="6.999183940">
                <ele>3712.000000</ele>
                <time>2012-08-04T10:44:03Z</time>
            </trkpt>
            <trkpt lat="45.505151739" lon="6.999169104">
                <ele>3710.000000</ele>
                <time>2012-08-04T10:44:31Z</time>
            </trkpt>
            <trkpt lat="45.505153835" lon="6.999164578">
                <ele>3710.000000</ele>
                <time>2012-08-04T10:44:58Z</time>
            </trkpt>
            <trkpt lat="45.505133718" lon="6.999114035">
                <ele>3710.000000</ele>
                <time>2012-08-04T10:45:12Z</time>
            </trkpt>
            <trkpt lat="45.505108321" lon="6.999080172">
                <ele>3706.000000</ele>
                <time>2012-08-04T10:45:23Z</time>
            </trkpt>
            <trkpt lat="45.505141513" lon="6.999020325">
                <ele>3704.000000</ele>
                <time>2012-08-04T10:45:30Z</time>
            </trkpt>
            <trkpt lat="45.505176047" lon="6.998983696">
                <ele>3702.000000</ele>
                <time>2012-08-04T10:45:43Z</time>
            </trkpt>
            <trkpt lat="45.505134556" lon="6.998919658">
                <ele>3702.000000</ele>
                <time>2012-08-04T10:45:52Z</time>
            </trkpt>
            <trkpt lat="45.505105052" lon="6.998894345">
                <ele>3699.000000</ele>
                <time>2012-08-04T10:46:07Z</time>
            </trkpt>
            <trkpt lat="45.505106309" lon="6.998885963">
                <ele>3699.000000</ele>
                <time>2012-08-04T10:46:27Z</time>
            </trkpt>
            <trkpt lat="45.505146962" lon="6.998852771">
                <ele>3698.000000</ele>
                <time>2012-08-04T10:46:41Z</time>
            </trkpt>
            <trkpt lat="45.505126175" lon="6.998792924">
                <ele>3697.000000</ele>
                <time>2012-08-04T10:46:51Z</time>
            </trkpt>
            <trkpt lat="45.505124163" lon="6.998777250">
                <ele>3696.000000</ele>
                <time>2012-08-04T10:46:53Z</time>
            </trkpt>
            <trkpt lat="45.505098179" lon="6.998724276">
                <ele>3694.000000</ele>
                <time>2012-08-04T10:46:59Z</time>
            </trkpt>
            <trkpt lat="45.505071692" lon="6.998696281">
                <ele>3690.000000</ele>
                <time>2012-08-04T10:47:04Z</time>
            </trkpt>
            <trkpt lat="45.505090635" lon="6.998693682">
                <ele>3689.000000</ele>
                <time>2012-08-04T10:47:14Z</time>
            </trkpt>
            <trkpt lat="45.505131371" lon="6.998638026">
                <ele>3687.000000</ele>
                <time>2012-08-04T10:47:27Z</time>
            </trkpt>
            <trkpt lat="45.505116535" lon="6.998617491">
                <ele>3686.000000</ele>
                <time>2012-08-04T10:47:33Z</time>
            </trkpt>
            <trkpt lat="45.505126761" lon="6.998582790">
                <ele>3684.000000</ele>
                <time>2012-08-04T10:47:44Z</time>
            </trkpt>
            <trkpt lat="45.505150985" lon="6.998538785">
                <ele>3683.000000</ele>
                <time>2012-08-04T10:48:00Z</time>
            </trkpt>
            <trkpt lat="45.505190128" lon="6.998478770">
                <ele>3679.000000</ele>
                <time>2012-08-04T10:48:05Z</time>
            </trkpt>
            <trkpt lat="45.505200773" lon="6.998463599">
                <ele>3676.000000</ele>
                <time>2012-08-04T10:48:08Z</time>
            </trkpt>
            <trkpt lat="45.505213765" lon="6.998431245">
                <ele>3672.000000</ele>
                <time>2012-08-04T10:48:13Z</time>
            </trkpt>
            <trkpt lat="45.505220220" lon="6.998419175">
                <ele>3672.000000</ele>
                <time>2012-08-04T10:48:14Z</time>
            </trkpt>
            <trkpt lat="45.505252741" lon="6.998399394">
                <ele>3672.000000</ele>
                <time>2012-08-04T10:48:25Z</time>
            </trkpt>
            <trkpt lat="45.505212089" lon="6.998297302">
                <ele>3669.000000</ele>
                <time>2012-08-04T10:48:35Z</time>
            </trkpt>
            <trkpt lat="45.505214017" lon="6.998289004">
                <ele>3667.000000</ele>
                <time>2012-08-04T10:48:37Z</time>
            </trkpt>
            <trkpt lat="45.505241677" lon="6.998280035">
                <ele>3663.000000</ele>
                <time>2012-08-04T10:48:44Z</time>
            </trkpt>
            <trkpt lat="45.505234636" lon="6.998267463">
                <ele>3663.000000</ele>
                <time>2012-08-04T10:48:46Z</time>
            </trkpt>
            <trkpt lat="45.505183507" lon="6.998200743">
                <ele>3663.000000</ele>
                <time>2012-08-04T10:48:58Z</time>
            </trkpt>
            <trkpt lat="45.505177388" lon="6.998192947">
                <ele>3663.000000</ele>
                <time>2012-08-04T10:49:11Z</time>
            </trkpt>
            <trkpt lat="45.505174957" lon="6.998187499">
                <ele>3663.000000</ele>
                <time>2012-08-04T10:49:39Z</time>
            </trkpt>
            <trkpt lat="45.505171521" lon="6.998181129">
                <ele>3663.000000</ele>
                <time>2012-08-04T10:50:12Z</time>
            </trkpt>
            <trkpt lat="45.505186189" lon="6.998161934">
                <ele>3662.000000</ele>
                <time>2012-08-04T10:50:28Z</time>
            </trkpt>
            <trkpt lat="45.505210245" lon="6.998117343">
                <ele>3660.000000</ele>
                <time>2012-08-04T10:50:43Z</time>
            </trkpt>
            <trkpt lat="45.505221812" lon="6.998090101">
                <ele>3660.000000</ele>
                <time>2012-08-04T10:50:47Z</time>
            </trkpt>
            <trkpt lat="45.505260788" lon="6.998049114">
                <ele>3656.000000</ele>
                <time>2012-08-04T10:50:51Z</time>
            </trkpt>
            <trkpt lat="45.505268248" lon="6.998041822">
                <ele>3653.000000</ele>
                <time>2012-08-04T10:50:54Z</time>
            </trkpt>
            <trkpt lat="45.505273947" lon="6.998042995">
                <ele>3652.000000</ele>
                <time>2012-08-04T10:51:08Z</time>
            </trkpt>
            <trkpt lat="45.505297668" lon="6.998012820">
                <ele>3652.000000</ele>
                <time>2012-08-04T10:51:23Z</time>
            </trkpt>
            <trkpt lat="45.505362460" lon="6.997976024">
                <ele>3649.000000</ele>
                <time>2012-08-04T10:51:37Z</time>
            </trkpt>
            <trkpt lat="45.505391713" lon="6.997954063">
                <ele>3645.000000</ele>
                <time>2012-08-04T10:51:41Z</time>
            </trkpt>
            <trkpt lat="45.505407639" lon="6.997943753">
                <ele>3644.000000</ele>
                <time>2012-08-04T10:51:52Z</time>
            </trkpt>
            <trkpt lat="45.505410740" lon="6.997945430">
                <ele>3644.000000</ele>
                <time>2012-08-04T10:52:13Z</time>
            </trkpt>
            <trkpt lat="45.505374363" lon="6.997879548">
                <ele>3644.000000</ele>
                <time>2012-08-04T10:52:18Z</time>
            </trkpt>
            <trkpt lat="45.505375536" lon="6.997837219">
                <ele>3642.000000</ele>
                <time>2012-08-04T10:52:33Z</time>
            </trkpt>
            <trkpt lat="45.505418787" lon="6.997813415">
                <ele>3640.000000</ele>
                <time>2012-08-04T10:52:45Z</time>
            </trkpt>
            <trkpt lat="45.505430773" lon="6.997800842">
                <ele>3636.000000</ele>
                <time>2012-08-04T10:52:50Z</time>
            </trkpt>
            <trkpt lat="45.505432785" lon="6.997800004">
                <ele>3635.000000</ele>
                <time>2012-08-04T10:52:52Z</time>
            </trkpt>
            <trkpt lat="45.505427755" lon="6.997711575">
                <ele>3634.000000</ele>
                <time>2012-08-04T10:53:06Z</time>
            </trkpt>
            <trkpt lat="45.505388696" lon="6.997603364">
                <ele>3631.000000</ele>
                <time>2012-08-04T10:53:12Z</time>
            </trkpt>
            <trkpt lat="45.505371010" lon="6.997567657">
                <ele>3628.000000</ele>
                <time>2012-08-04T10:53:15Z</time>
            </trkpt>
            <trkpt lat="45.505365143" lon="6.997553408">
                <ele>3627.000000</ele>
                <time>2012-08-04T10:53:29Z</time>
            </trkpt>
            <trkpt lat="45.505366567" lon="6.997550307">
                <ele>3627.000000</ele>
                <time>2012-08-04T10:53:43Z</time>
            </trkpt>
            <trkpt lat="45.505373776" lon="6.997527508">
                <ele>3628.000000</ele>
                <time>2012-08-04T10:54:02Z</time>
            </trkpt>
            <trkpt lat="45.505433036" lon="6.997452322">
                <ele>3624.000000</ele>
                <time>2012-08-04T10:54:09Z</time>
            </trkpt>
            <trkpt lat="45.505464971" lon="6.997454753">
                <ele>3619.000000</ele>
                <time>2012-08-04T10:54:13Z</time>
            </trkpt>
            <trkpt lat="45.505462121" lon="6.997428099">
                <ele>3617.000000</ele>
                <time>2012-08-04T10:54:19Z</time>
            </trkpt>
            <trkpt lat="45.505386517" lon="6.997261634">
                <ele>3618.000000</ele>
                <time>2012-08-04T10:54:31Z</time>
            </trkpt>
            <trkpt lat="45.505371848" lon="6.997227939">
                <ele>3615.000000</ele>
                <time>2012-08-04T10:54:35Z</time>
            </trkpt>
            <trkpt lat="45.505386936" lon="6.997219641">
                <ele>3611.000000</ele>
                <time>2012-08-04T10:54:39Z</time>
            </trkpt>
            <trkpt lat="45.505414764" lon="6.997182677">
                <ele>3609.000000</ele>
                <time>2012-08-04T10:54:46Z</time>
            </trkpt>
            <trkpt lat="45.505463211" lon="6.997137498">
                <ele>3609.000000</ele>
                <time>2012-08-04T10:54:51Z</time>
            </trkpt>
            <trkpt lat="45.505492128" lon="6.997125847">
                <ele>3606.000000</ele>
                <time>2012-08-04T10:54:58Z</time>
            </trkpt>
            <trkpt lat="45.505499169" lon="6.997120315">
                <ele>3604.000000</ele>
                <time>2012-08-04T10:55:13Z</time>
            </trkpt>
            <trkpt lat="45.505477376" lon="6.997084441">
                <ele>3604.000000</ele>
                <time>2012-08-04T10:55:29Z</time>
            </trkpt>
            <trkpt lat="45.505463211" lon="6.997035993">
                <ele>3601.000000</ele>
                <time>2012-08-04T10:55:38Z</time>
            </trkpt>
            <trkpt lat="45.505455248" lon="6.997017553">
                <ele>3597.000000</ele>
                <time>2012-08-04T10:55:43Z</time>
            </trkpt>
            <trkpt lat="45.505442508" lon="6.996966843">
                <ele>3596.000000</ele>
                <time>2012-08-04T10:55:57Z</time>
            </trkpt>
            <trkpt lat="45.505441250" lon="6.996934405">
                <ele>3596.000000</ele>
                <time>2012-08-04T10:56:07Z</time>
            </trkpt>
            <trkpt lat="45.505384002" lon="6.996829966">
                <ele>3595.000000</ele>
                <time>2012-08-04T10:56:20Z</time>
            </trkpt>
            <trkpt lat="45.505380230" lon="6.996817645">
                <ele>3594.000000</ele>
                <time>2012-08-04T10:56:46Z</time>
            </trkpt>
            <trkpt lat="45.505378889" lon="6.996809347">
                <ele>3594.000000</ele>
                <time>2012-08-04T10:57:21Z</time>
            </trkpt>
            <trkpt lat="45.505383583" lon="6.996807754">
                <ele>3594.000000</ele>
                <time>2012-08-04T10:57:38Z</time>
            </trkpt>
            <trkpt lat="45.505389534" lon="6.996803563">
                <ele>3593.000000</ele>
                <time>2012-08-04T10:58:14Z</time>
            </trkpt>
            <trkpt lat="45.505395066" lon="6.996802809">
                <ele>3593.000000</ele>
                <time>2012-08-04T10:58:46Z</time>
            </trkpt>
            <trkpt lat="45.505398670" lon="6.996796858">
                <ele>3593.000000</ele>
                <time>2012-08-04T10:59:11Z</time>
            </trkpt>
            <trkpt lat="45.505417446" lon="6.996764168">
                <ele>3593.000000</ele>
                <time>2012-08-04T10:59:25Z</time>
            </trkpt>
            <trkpt lat="45.505428007" lon="6.996749667">
                <ele>3592.000000</ele>
                <time>2012-08-04T10:59:38Z</time>
            </trkpt>
            <trkpt lat="45.505422391" lon="6.996713709">
                <ele>3591.000000</ele>
                <time>2012-08-04T10:59:53Z</time>
            </trkpt>
            <trkpt lat="45.505429013" lon="6.996700969">
                <ele>3589.000000</ele>
                <time>2012-08-04T11:00:04Z</time>
            </trkpt>
            <trkpt lat="45.505467569" lon="6.996677164">
                <ele>3587.000000</ele>
                <time>2012-08-04T11:00:19Z</time>
            </trkpt>
            <trkpt lat="45.505468072" lon="6.996642379">
                <ele>3586.000000</ele>
                <time>2012-08-04T11:00:32Z</time>
            </trkpt>
            <trkpt lat="45.505442424" lon="6.996542718">
                <ele>3585.000000</ele>
                <time>2012-08-04T11:00:44Z</time>
            </trkpt>
            <trkpt lat="45.505417530" lon="6.996488739">
                <ele>3581.000000</ele>
                <time>2012-08-04T11:00:50Z</time>
            </trkpt>
            <trkpt lat="45.505419038" lon="6.996485051">
                <ele>3579.000000</ele>
                <time>2012-08-04T11:00:54Z</time>
            </trkpt>
            <trkpt lat="45.505411243" lon="6.996455379">
                <ele>3582.000000</ele>
                <time>2012-08-04T11:01:04Z</time>
            </trkpt>
            <trkpt lat="45.505408142" lon="6.996393353">
                <ele>3580.000000</ele>
                <time>2012-08-04T11:01:15Z</time>
            </trkpt>
            <trkpt lat="45.505442256" lon="6.996398549">
                <ele>3578.000000</ele>
                <time>2012-08-04T11:01:27Z</time>
            </trkpt>
            <trkpt lat="45.505460445" lon="6.996370470">
                <ele>3576.000000</ele>
                <time>2012-08-04T11:01:40Z</time>
            </trkpt>
            <trkpt lat="45.505434629" lon="6.996320598">
                <ele>3574.000000</ele>
                <time>2012-08-04T11:01:54Z</time>
            </trkpt>
            <trkpt lat="45.505425995" lon="6.996306265">
                <ele>3571.000000</ele>
                <time>2012-08-04T11:02:01Z</time>
            </trkpt>
            <trkpt lat="45.505411578" lon="6.996242059">
                <ele>3569.000000</ele>
                <time>2012-08-04T11:02:14Z</time>
            </trkpt>
            <trkpt lat="45.505455332" lon="6.996254045">
                <ele>3569.000000</ele>
                <time>2012-08-04T11:02:29Z</time>
            </trkpt>
            <trkpt lat="45.505498499" lon="6.996227559">
                <ele>3568.000000</ele>
                <time>2012-08-04T11:02:45Z</time>
            </trkpt>
            <trkpt lat="45.505447285" lon="6.996163772">
                <ele>3566.000000</ele>
                <time>2012-08-04T11:02:59Z</time>
            </trkpt>
            <trkpt lat="45.505420631" lon="6.996114068">
                <ele>3562.000000</ele>
                <time>2012-08-04T11:03:10Z</time>
            </trkpt>
            <trkpt lat="45.505462373" lon="6.996104177">
                <ele>3562.000000</ele>
                <time>2012-08-04T11:03:29Z</time>
            </trkpt>
            <trkpt lat="45.505495397" lon="6.996078864">
                <ele>3559.000000</ele>
                <time>2012-08-04T11:03:40Z</time>
            </trkpt>
            <trkpt lat="45.505523058" lon="6.996070230">
                <ele>3556.000000</ele>
                <time>2012-08-04T11:03:47Z</time>
            </trkpt>
            <trkpt lat="45.505540743" lon="6.996050868">
                <ele>3553.000000</ele>
                <time>2012-08-04T11:03:52Z</time>
            </trkpt>
            <trkpt lat="45.505563710" lon="6.996020861">
                <ele>3551.000000</ele>
                <time>2012-08-04T11:04:07Z</time>
            </trkpt>
            <trkpt lat="45.505550550" lon="6.995979790">
                <ele>3550.000000</ele>
                <time>2012-08-04T11:04:27Z</time>
            </trkpt>
            <trkpt lat="45.505472263" lon="6.995816845">
                <ele>3547.000000</ele>
                <time>2012-08-04T11:04:35Z</time>
            </trkpt>
            <trkpt lat="45.505474862" lon="6.995716263">
                <ele>3544.000000</ele>
                <time>2012-08-04T11:04:39Z</time>
            </trkpt>
            <trkpt lat="45.505539319" lon="6.995554911">
                <ele>3540.000000</ele>
                <time>2012-08-04T11:04:46Z</time>
            </trkpt>
            <trkpt lat="45.505625652" lon="6.995250732">
                <ele>3539.000000</ele>
                <time>2012-08-04T11:04:59Z</time>
            </trkpt>
            <trkpt lat="45.505652474" lon="6.995208152">
                <ele>3536.000000</ele>
                <time>2012-08-04T11:05:01Z</time>
            </trkpt>
            <trkpt lat="45.505692456" lon="6.995103965">
                <ele>3532.000000</ele>
                <time>2012-08-04T11:05:05Z</time>
            </trkpt>
            <trkpt lat="45.505688516" lon="6.995111089">
                <ele>3532.000000</ele>
                <time>2012-08-04T11:05:20Z</time>
            </trkpt>
            <trkpt lat="45.505679045" lon="6.995110586">
                <ele>3532.000000</ele>
                <time>2012-08-04T11:05:31Z</time>
            </trkpt>
            <trkpt lat="45.505677201" lon="6.995114526">
                <ele>3533.000000</ele>
                <time>2012-08-04T11:05:59Z</time>
            </trkpt>
            <trkpt lat="45.505676111" lon="6.995118046">
                <ele>3533.000000</ele>
                <time>2012-08-04T11:06:22Z</time>
            </trkpt>
            <trkpt lat="45.505677536" lon="6.995116202">
                <ele>3533.000000</ele>
                <time>2012-08-04T11:06:49Z</time>
            </trkpt>
            <trkpt lat="45.505678207" lon="6.995116286">
                <ele>3533.000000</ele>
                <time>2012-08-04T11:07:13Z</time>
            </trkpt>
            <trkpt lat="45.505679883" lon="6.995113855">
                <ele>3533.000000</ele>
                <time>2012-08-04T11:07:43Z</time>
            </trkpt>
            <trkpt lat="45.505677704" lon="6.995111425">
                <ele>3532.000000</ele>
                <time>2012-08-04T11:08:06Z</time>
            </trkpt>
            <trkpt lat="45.505678039" lon="6.995110251">
                <ele>3532.000000</ele>
                <time>2012-08-04T11:08:23Z</time>
            </trkpt>
            <trkpt lat="45.505678710" lon="6.995103210">
                <ele>3532.000000</ele>
                <time>2012-08-04T11:08:40Z</time>
            </trkpt>
            <trkpt lat="45.505682398" lon="6.995015871">
                <ele>3533.000000</ele>
                <time>2012-08-04T11:09:00Z</time>
            </trkpt>
            <trkpt lat="45.505688852" lon="6.994949067">
                <ele>3533.000000</ele>
                <time>2012-08-04T11:09:13Z</time>
            </trkpt>
            <trkpt lat="45.505687594" lon="6.994950324">
                <ele>3533.000000</ele>
                <time>2012-08-04T11:09:35Z</time>
            </trkpt>
            <trkpt lat="45.505684577" lon="6.994953258">
                <ele>3532.000000</ele>
                <time>2012-08-04T11:10:00Z</time>
            </trkpt>
            <trkpt lat="45.505682062" lon="6.994929956">
                <ele>3532.000000</ele>
                <time>2012-08-04T11:10:14Z</time>
            </trkpt>
            <trkpt lat="45.505684074" lon="6.994918054">
                <ele>3531.000000</ele>
                <time>2012-08-04T11:10:29Z</time>
            </trkpt>
            <trkpt lat="45.505688600" lon="6.994906152">
                <ele>3529.000000</ele>
                <time>2012-08-04T11:10:42Z</time>
            </trkpt>
            <trkpt lat="45.505691953" lon="6.994887041">
                <ele>3528.000000</ele>
                <time>2012-08-04T11:10:57Z</time>
            </trkpt>
            <trkpt lat="45.505692456" lon="6.994863069">
                <ele>3526.000000</ele>
                <time>2012-08-04T11:11:15Z</time>
            </trkpt>
            <trkpt lat="45.505691031" lon="6.994845383">
                <ele>3525.000000</ele>
                <time>2012-08-04T11:11:28Z</time>
            </trkpt>
            <trkpt lat="45.505686672" lon="6.994817890">
                <ele>3524.000000</ele>
                <time>2012-08-04T11:11:43Z</time>
            </trkpt>
            <trkpt lat="45.505682984" lon="6.994795427">
                <ele>3522.000000</ele>
                <time>2012-08-04T11:12:01Z</time>
            </trkpt>
            <trkpt lat="45.505691199" lon="6.994755194">
                <ele>3522.000000</ele>
                <time>2012-08-04T11:12:29Z</time>
            </trkpt>
            <trkpt lat="45.505695557" lon="6.994733736">
                <ele>3520.000000</ele>
                <time>2012-08-04T11:12:42Z</time>
            </trkpt>
            <trkpt lat="45.505718691" lon="6.994709847">
                <ele>3520.000000</ele>
                <time>2012-08-04T11:12:54Z</time>
            </trkpt>
            <trkpt lat="45.505727241" lon="6.994618066">
                <ele>3517.000000</ele>
                <time>2012-08-04T11:13:07Z</time>
            </trkpt>
            <trkpt lat="45.505719362" lon="6.994564589">
                <ele>3516.000000</ele>
                <time>2012-08-04T11:13:20Z</time>
            </trkpt>
            <trkpt lat="45.505715422" lon="6.994506251">
                <ele>3515.000000</ele>
                <time>2012-08-04T11:13:34Z</time>
            </trkpt>
            <trkpt lat="45.505712656" lon="6.994482614">
                <ele>3512.000000</ele>
                <time>2012-08-04T11:13:47Z</time>
            </trkpt>
            <trkpt lat="45.505710980" lon="6.994460653">
                <ele>3509.000000</ele>
                <time>2012-08-04T11:14:00Z</time>
            </trkpt>
            <trkpt lat="45.505709304" lon="6.994430143">
                <ele>3508.000000</ele>
                <time>2012-08-04T11:14:15Z</time>
            </trkpt>
            <trkpt lat="45.505708214" lon="6.994409021">
                <ele>3505.000000</ele>
                <time>2012-08-04T11:14:26Z</time>
            </trkpt>
            <trkpt lat="45.505724894" lon="6.994354706">
                <ele>3504.000000</ele>
                <time>2012-08-04T11:14:49Z</time>
            </trkpt>
            <trkpt lat="45.505726319" lon="6.994320927">
                <ele>3504.000000</ele>
                <time>2012-08-04T11:15:04Z</time>
            </trkpt>
            <trkpt lat="45.505705532" lon="6.994196288">
                <ele>3504.000000</ele>
                <time>2012-08-04T11:15:11Z</time>
            </trkpt>
            <trkpt lat="45.505697569" lon="6.994024208">
                <ele>3502.000000</ele>
                <time>2012-08-04T11:15:17Z</time>
            </trkpt>
            <trkpt lat="45.505723050" lon="6.993899988">
                <ele>3500.000000</ele>
                <time>2012-08-04T11:15:32Z</time>
            </trkpt>
            <trkpt lat="45.505716680" lon="6.993796388">
                <ele>3498.000000</ele>
                <time>2012-08-04T11:15:46Z</time>
            </trkpt>
            <trkpt lat="45.505716596" lon="6.993735535">
                <ele>3497.000000</ele>
                <time>2012-08-04T11:15:56Z</time>
            </trkpt>
            <trkpt lat="45.505716009" lon="6.993683819">
                <ele>3495.000000</ele>
                <time>2012-08-04T11:16:10Z</time>
            </trkpt>
            <trkpt lat="45.505739395" lon="6.993691111">
                <ele>3494.000000</ele>
                <time>2012-08-04T11:16:25Z</time>
            </trkpt>
            <trkpt lat="45.505734365" lon="6.993644759">
                <ele>3493.000000</ele>
                <time>2012-08-04T11:16:41Z</time>
            </trkpt>
            <trkpt lat="45.505719697" lon="6.993583152">
                <ele>3491.000000</ele>
                <time>2012-08-04T11:16:54Z</time>
            </trkpt>
            <trkpt lat="45.505714416" lon="6.993552139">
                <ele>3490.000000</ele>
                <time>2012-08-04T11:17:09Z</time>
            </trkpt>
            <trkpt lat="45.505712489" lon="6.993513918">
                <ele>3489.000000</ele>
                <time>2012-08-04T11:17:22Z</time>
            </trkpt>
            <trkpt lat="45.505705280" lon="6.993474439">
                <ele>3487.000000</ele>
                <time>2012-08-04T11:17:33Z</time>
            </trkpt>
            <trkpt lat="45.505699916" lon="6.993450299">
                <ele>3486.000000</ele>
                <time>2012-08-04T11:17:44Z</time>
            </trkpt>
            <trkpt lat="45.505718775" lon="6.993434792">
                <ele>3484.000000</ele>
                <time>2012-08-04T11:17:58Z</time>
            </trkpt>
            <trkpt lat="45.505699748" lon="6.993392380">
                <ele>3483.000000</ele>
                <time>2012-08-04T11:18:10Z</time>
            </trkpt>
            <trkpt lat="45.505673345" lon="6.993317613">
                <ele>3481.000000</ele>
                <time>2012-08-04T11:18:22Z</time>
            </trkpt>
            <trkpt lat="45.505672339" lon="6.993294228">
                <ele>3480.000000</ele>
                <time>2012-08-04T11:18:34Z</time>
            </trkpt>
            <trkpt lat="45.505586844" lon="6.993199009">
                <ele>3476.000000</ele>
                <time>2012-08-04T11:18:42Z</time>
            </trkpt>
            <trkpt lat="45.505555579" lon="6.993152071">
                <ele>3472.000000</ele>
                <time>2012-08-04T11:18:46Z</time>
            </trkpt>
            <trkpt lat="45.505537810" lon="6.993128098">
                <ele>3471.000000</ele>
                <time>2012-08-04T11:18:48Z</time>
            </trkpt>
            <trkpt lat="45.505474359" lon="6.993061882">
                <ele>3470.000000</ele>
                <time>2012-08-04T11:19:02Z</time>
            </trkpt>
            <trkpt lat="45.505474526" lon="6.993058445">
                <ele>3470.000000</ele>
                <time>2012-08-04T11:19:20Z</time>
            </trkpt>
            <trkpt lat="45.505495816" lon="6.993033383">
                <ele>3469.000000</ele>
                <time>2012-08-04T11:19:27Z</time>
            </trkpt>
            <trkpt lat="45.505499253" lon="6.992979320">
                <ele>3466.000000</ele>
                <time>2012-08-04T11:19:35Z</time>
            </trkpt>
            <trkpt lat="45.505495984" lon="6.992978230">
                <ele>3465.000000</ele>
                <time>2012-08-04T11:19:37Z</time>
            </trkpt>
            <trkpt lat="45.505506964" lon="6.992980996">
                <ele>3464.000000</ele>
                <time>2012-08-04T11:19:58Z</time>
            </trkpt>
            <trkpt lat="45.505509730" lon="6.992978482">
                <ele>3464.000000</ele>
                <time>2012-08-04T11:20:21Z</time>
            </trkpt>
            <trkpt lat="45.505534876" lon="6.992930370">
                <ele>3463.000000</ele>
                <time>2012-08-04T11:20:37Z</time>
            </trkpt>
            <trkpt lat="45.505520795" lon="6.992907990">
                <ele>3461.000000</ele>
                <time>2012-08-04T11:20:43Z</time>
            </trkpt>
            <trkpt lat="45.505506210" lon="6.992858536">
                <ele>3460.000000</ele>
                <time>2012-08-04T11:20:51Z</time>
            </trkpt>
            <trkpt lat="45.505513418" lon="6.992794834">
                <ele>3458.000000</ele>
                <time>2012-08-04T11:21:06Z</time>
            </trkpt>
            <trkpt lat="45.505502438" lon="6.992775891">
                <ele>3455.000000</ele>
                <time>2012-08-04T11:21:11Z</time>
            </trkpt>
            <trkpt lat="45.505501935" lon="6.992766252">
                <ele>3454.000000</ele>
                <time>2012-08-04T11:21:23Z</time>
            </trkpt>
            <trkpt lat="45.505436389" lon="6.992679918">
                <ele>3454.000000</ele>
                <time>2012-08-04T11:21:30Z</time>
            </trkpt>
            <trkpt lat="45.505458601" lon="6.992600877">
                <ele>3451.000000</ele>
                <time>2012-08-04T11:21:36Z</time>
            </trkpt>
            <trkpt lat="45.505465306" lon="6.992593836">
                <ele>3447.000000</ele>
                <time>2012-08-04T11:21:40Z</time>
            </trkpt>
            <trkpt lat="45.505445693" lon="6.992566260">
                <ele>3449.000000</ele>
                <time>2012-08-04T11:21:49Z</time>
            </trkpt>
            <trkpt lat="45.505470419" lon="6.992524769">
                <ele>3445.000000</ele>
                <time>2012-08-04T11:21:59Z</time>
            </trkpt>
            <trkpt lat="45.505486010" lon="6.992485039">
                <ele>3443.000000</ele>
                <time>2012-08-04T11:22:09Z</time>
            </trkpt>
            <trkpt lat="45.505482741" lon="6.992474478">
                <ele>3443.000000</ele>
                <time>2012-08-04T11:22:23Z</time>
            </trkpt>
            <trkpt lat="45.505477544" lon="6.992467102">
                <ele>3443.000000</ele>
                <time>2012-08-04T11:22:46Z</time>
            </trkpt>
            <trkpt lat="45.505477209" lon="6.992467688">
                <ele>3443.000000</ele>
                <time>2012-08-04T11:23:04Z</time>
            </trkpt>
            <trkpt lat="45.505470587" lon="6.992459306">
                <ele>3443.000000</ele>
                <time>2012-08-04T11:23:10Z</time>
            </trkpt>
            <trkpt lat="45.505438987" lon="6.992417313">
                <ele>3443.000000</ele>
                <time>2012-08-04T11:23:14Z</time>
            </trkpt>
            <trkpt lat="45.505445190" lon="6.992390323">
                <ele>3442.000000</ele>
                <time>2012-08-04T11:23:16Z</time>
            </trkpt>
            <trkpt lat="45.505494895" lon="6.992350929">
                <ele>3440.000000</ele>
                <time>2012-08-04T11:23:23Z</time>
            </trkpt>
            <trkpt lat="45.505488273" lon="6.992285717">
                <ele>3435.000000</ele>
                <time>2012-08-04T11:23:27Z</time>
            </trkpt>
            <trkpt lat="45.505477125" lon="6.992254201">
                <ele>3432.000000</ele>
                <time>2012-08-04T11:23:30Z</time>
            </trkpt>
            <trkpt lat="45.505476622" lon="6.992258141">
                <ele>3433.000000</ele>
                <time>2012-08-04T11:23:45Z</time>
            </trkpt>
            <trkpt lat="45.505475784" lon="6.992247244">
                <ele>3433.000000</ele>
                <time>2012-08-04T11:23:55Z</time>
            </trkpt>
            <trkpt lat="45.505417027" lon="6.992127886">
                <ele>3430.000000</ele>
                <time>2012-08-04T11:24:03Z</time>
            </trkpt>
            <trkpt lat="45.505396826" lon="6.992079606">
                <ele>3427.000000</ele>
                <time>2012-08-04T11:24:06Z</time>
            </trkpt>
            <trkpt lat="45.505386936" lon="6.992017580">
                <ele>3423.000000</ele>
                <time>2012-08-04T11:24:09Z</time>
            </trkpt>
            <trkpt lat="45.505386768" lon="6.991993524">
                <ele>3423.000000</ele>
                <time>2012-08-04T11:24:10Z</time>
            </trkpt>
            <trkpt lat="45.505377129" lon="6.991889086">
                <ele>3420.000000</ele>
                <time>2012-08-04T11:24:14Z</time>
            </trkpt>
            <trkpt lat="45.505422307" lon="6.991870981">
                <ele>3418.000000</ele>
                <time>2012-08-04T11:24:18Z</time>
            </trkpt>
            <trkpt lat="45.505468072" lon="6.991908699">
                <ele>3417.000000</ele>
                <time>2012-08-04T11:24:24Z</time>
            </trkpt>
            <trkpt lat="45.505529763" lon="6.991882213">
                <ele>3417.000000</ele>
                <time>2012-08-04T11:24:33Z</time>
            </trkpt>
            <trkpt lat="45.505604446" lon="6.991825718">
                <ele>3416.000000</ele>
                <time>2012-08-04T11:24:37Z</time>
            </trkpt>
            <trkpt lat="45.505694216" lon="6.991697978">
                <ele>3413.000000</ele>
                <time>2012-08-04T11:24:44Z</time>
            </trkpt>
            <trkpt lat="45.505723301" lon="6.991631091">
                <ele>3409.000000</ele>
                <time>2012-08-04T11:24:47Z</time>
            </trkpt>
            <trkpt lat="45.505743250" lon="6.991537046">
                <ele>3405.000000</ele>
                <time>2012-08-04T11:24:50Z</time>
            </trkpt>
            <trkpt lat="45.505770240" lon="6.991433194">
                <ele>3402.000000</ele>
                <time>2012-08-04T11:24:53Z</time>
            </trkpt>
            <trkpt lat="45.505837211" lon="6.991248457">
                <ele>3398.000000</ele>
                <time>2012-08-04T11:24:59Z</time>
            </trkpt>
            <trkpt lat="45.505846515" lon="6.990982415">
                <ele>3395.000000</ele>
                <time>2012-08-04T11:25:06Z</time>
            </trkpt>
            <trkpt lat="45.505836038" lon="6.990806982">
                <ele>3391.000000</ele>
                <time>2012-08-04T11:25:10Z</time>
            </trkpt>
            <trkpt lat="45.505849952" lon="6.990615455">
                <ele>3387.000000</ele>
                <time>2012-08-04T11:25:14Z</time>
            </trkpt>
            <trkpt lat="45.505874343" lon="6.990465252">
                <ele>3384.000000</ele>
                <time>2012-08-04T11:25:18Z</time>
            </trkpt>
            <trkpt lat="45.505863028" lon="6.990149254">
                <ele>3381.000000</ele>
                <time>2012-08-04T11:25:28Z</time>
            </trkpt>
            <trkpt lat="45.505800247" lon="6.989924535">
                <ele>3377.000000</ele>
                <time>2012-08-04T11:25:38Z</time>
            </trkpt>
            <trkpt lat="45.505735287" lon="6.989706103">
                <ele>3373.000000</ele>
                <time>2012-08-04T11:25:47Z</time>
            </trkpt>
            <trkpt lat="45.505695138" lon="6.989581045">
                <ele>3373.000000</ele>
                <time>2012-08-04T11:25:52Z</time>
            </trkpt>
            <trkpt lat="45.505653061" lon="6.989533519">
                <ele>3371.000000</ele>
                <time>2012-08-04T11:25:58Z</time>
            </trkpt>
            <trkpt lat="45.505633112" lon="6.989454478">
                <ele>3371.000000</ele>
                <time>2012-08-04T11:26:02Z</time>
            </trkpt>
            <trkpt lat="45.505521800" lon="6.989256581">
                <ele>3371.000000</ele>
                <time>2012-08-04T11:26:14Z</time>
            </trkpt>
            <trkpt lat="45.505524734" lon="6.989260186">
                <ele>3369.000000</ele>
                <time>2012-08-04T11:26:31Z</time>
            </trkpt>
            <trkpt lat="45.505526746" lon="6.989263790">
                <ele>3369.000000</ele>
                <time>2012-08-04T11:27:00Z</time>
            </trkpt>
            <trkpt lat="45.505525321" lon="6.989257252">
                <ele>3369.000000</ele>
                <time>2012-08-04T11:27:21Z</time>
            </trkpt>
            <trkpt lat="45.505524566" lon="6.989253983">
                <ele>3368.000000</ele>
                <time>2012-08-04T11:27:39Z</time>
            </trkpt>
            <trkpt lat="45.505522387" lon="6.989253648">
                <ele>3368.000000</ele>
                <time>2012-08-04T11:28:03Z</time>
            </trkpt>
            <trkpt lat="45.505523142" lon="6.989257839">
                <ele>3368.000000</ele>
                <time>2012-08-04T11:28:28Z</time>
            </trkpt>
            <trkpt lat="45.505525740" lon="6.989261024">
                <ele>3367.000000</ele>
                <time>2012-08-04T11:28:57Z</time>
            </trkpt>
            <trkpt lat="45.505522890" lon="6.989262113">
                <ele>3367.000000</ele>
                <time>2012-08-04T11:29:32Z</time>
            </trkpt>
            <trkpt lat="45.505520040" lon="6.989259599">
                <ele>3367.000000</ele>
                <time>2012-08-04T11:30:09Z</time>
            </trkpt>
            <trkpt lat="45.505522387" lon="6.989260940">
                <ele>3367.000000</ele>
                <time>2012-08-04T11:30:20Z</time>
            </trkpt>
            <trkpt lat="45.505527081" lon="6.989246272">
                <ele>3367.000000</ele>
                <time>2012-08-04T11:30:22Z</time>
            </trkpt>
            <trkpt lat="45.505530601" lon="6.989147281">
                <ele>3367.000000</ele>
                <time>2012-08-04T11:30:28Z</time>
            </trkpt>
            <trkpt lat="45.505524734" lon="6.988698347">
                <ele>3366.000000</ele>
                <time>2012-08-04T11:30:39Z</time>
            </trkpt>
            <trkpt lat="45.505505707" lon="6.988526266">
                <ele>3362.000000</ele>
                <time>2012-08-04T11:30:43Z</time>
            </trkpt>
            <trkpt lat="45.505468994" lon="6.988397855">
                <ele>3358.000000</ele>
                <time>2012-08-04T11:30:47Z</time>
            </trkpt>
            <trkpt lat="45.505446112" lon="6.988372626">
                <ele>3356.000000</ele>
                <time>2012-08-04T11:30:50Z</time>
            </trkpt>
            <trkpt lat="45.505418284" lon="6.988270534">
                <ele>3357.000000</ele>
                <time>2012-08-04T11:31:00Z</time>
            </trkpt>
            <trkpt lat="45.505375620" lon="6.988164671">
                <ele>3358.000000</ele>
                <time>2012-08-04T11:31:13Z</time>
            </trkpt>
            <trkpt lat="45.505348966" lon="6.988054449">
                <ele>3358.000000</ele>
                <time>2012-08-04T11:31:25Z</time>
            </trkpt>
            <trkpt lat="45.505308732" lon="6.987928553">
                <ele>3359.000000</ele>
                <time>2012-08-04T11:31:40Z</time>
            </trkpt>
            <trkpt lat="45.505290376" lon="6.987847583">
                <ele>3360.000000</ele>
                <time>2012-08-04T11:31:54Z</time>
            </trkpt>
            <trkpt lat="45.505301775" lon="6.987842973">
                <ele>3360.000000</ele>
                <time>2012-08-04T11:32:04Z</time>
            </trkpt>
            <trkpt lat="45.505342763" lon="6.987618254">
                <ele>3360.000000</ele>
                <time>2012-08-04T11:32:14Z</time>
            </trkpt>
            <trkpt lat="45.505343769" lon="6.987577770">
                <ele>3360.000000</ele>
                <time>2012-08-04T11:32:15Z</time>
            </trkpt>
            <trkpt lat="45.505429516" lon="6.987062450">
                <ele>3357.000000</ele>
                <time>2012-08-04T11:32:22Z</time>
            </trkpt>
            <trkpt lat="45.505466228" lon="6.986884000">
                <ele>3355.000000</ele>
                <time>2012-08-04T11:32:25Z</time>
            </trkpt>
            <trkpt lat="45.505473521" lon="6.986767910">
                <ele>3353.000000</ele>
                <time>2012-08-04T11:32:27Z</time>
            </trkpt>
            <trkpt lat="45.505541163" lon="6.986390306">
                <ele>3349.000000</ele>
                <time>2012-08-04T11:32:32Z</time>
            </trkpt>
            <trkpt lat="45.505532445" lon="6.986262565">
                <ele>3347.000000</ele>
                <time>2012-08-04T11:32:34Z</time>
            </trkpt>
            <trkpt lat="45.505507803" lon="6.986211101">
                <ele>3344.000000</ele>
                <time>2012-08-04T11:32:39Z</time>
            </trkpt>
            <trkpt lat="45.505509395" lon="6.986225769">
                <ele>3345.000000</ele>
                <time>2012-08-04T11:33:08Z</time>
            </trkpt>
            <trkpt lat="45.505508808" lon="6.986227864">
                <ele>3346.000000</ele>
                <time>2012-08-04T11:33:25Z</time>
            </trkpt>
            <trkpt lat="45.505508976" lon="6.986198863">
                <ele>3346.000000</ele>
                <time>2012-08-04T11:33:29Z</time>
            </trkpt>
            <trkpt lat="45.505504031" lon="6.986110434">
                <ele>3347.000000</ele>
                <time>2012-08-04T11:33:43Z</time>
            </trkpt>
            <trkpt lat="45.505484920" lon="6.986043714">
                <ele>3347.000000</ele>
                <time>2012-08-04T11:33:54Z</time>
            </trkpt>
            <trkpt lat="45.505481735" lon="6.986009264">
                <ele>3348.000000</ele>
                <time>2012-08-04T11:34:09Z</time>
            </trkpt>
            <trkpt lat="45.505476622" lon="6.985978838">
                <ele>3349.000000</ele>
                <time>2012-08-04T11:34:35Z</time>
            </trkpt>
            <trkpt lat="45.505471677" lon="6.985962074">
                <ele>3349.000000</ele>
                <time>2012-08-04T11:35:16Z</time>
            </trkpt>
            <trkpt lat="45.505467569" lon="6.985953860">
                <ele>3347.000000</ele>
                <time>2012-08-04T11:35:48Z</time>
            </trkpt>
            <trkpt lat="45.505466731" lon="6.985954363">
                <ele>3348.000000</ele>
                <time>2012-08-04T11:35:59Z</time>
            </trkpt>
            <trkpt lat="45.505464300" lon="6.985955369">
                <ele>3348.000000</ele>
                <time>2012-08-04T11:36:18Z</time>
            </trkpt>
            <trkpt lat="45.505465390" lon="6.985958135">
                <ele>3348.000000</ele>
                <time>2012-08-04T11:36:31Z</time>
            </trkpt>
            <trkpt lat="45.505461115" lon="6.985961990">
                <ele>3348.000000</ele>
                <time>2012-08-04T11:36:49Z</time>
            </trkpt>
            <trkpt lat="45.505457092" lon="6.985945478">
                <ele>3348.000000</ele>
                <time>2012-08-04T11:37:01Z</time>
            </trkpt>
            <trkpt lat="45.505460613" lon="6.985947909">
                <ele>3348.000000</ele>
                <time>2012-08-04T11:37:29Z</time>
            </trkpt>
            <trkpt lat="45.505459942" lon="6.985960482">
                <ele>3348.000000</ele>
                <time>2012-08-04T11:37:51Z</time>
            </trkpt>
            <trkpt lat="45.505456170" lon="6.985943802">
                <ele>3347.000000</ele>
                <time>2012-08-04T11:38:23Z</time>
            </trkpt>
            <trkpt lat="45.505463798" lon="6.985951597">
                <ele>3347.000000</ele>
                <time>2012-08-04T11:38:56Z</time>
            </trkpt>
            <trkpt lat="45.505463295" lon="6.985956710">
                <ele>3346.000000</ele>
                <time>2012-08-04T11:39:27Z</time>
            </trkpt>
            <trkpt lat="45.505458098" lon="6.985954950">
                <ele>3346.000000</ele>
                <time>2012-08-04T11:39:56Z</time>
            </trkpt>
            <trkpt lat="45.505463462" lon="6.985956375">
                <ele>3346.000000</ele>
                <time>2012-08-04T11:40:16Z</time>
            </trkpt>
            <trkpt lat="45.505455416" lon="6.985940784">
                <ele>3347.000000</ele>
                <time>2012-08-04T11:40:50Z</time>
            </trkpt>
            <trkpt lat="45.505458936" lon="6.985901725">
                <ele>3347.000000</ele>
                <time>2012-08-04T11:41:09Z</time>
            </trkpt>
            <trkpt lat="45.505459271" lon="6.985893594">
                <ele>3347.000000</ele>
                <time>2012-08-04T11:41:15Z</time>
            </trkpt>
            <trkpt lat="45.505450470" lon="6.985682119">
                <ele>3348.000000</ele>
                <time>2012-08-04T11:41:31Z</time>
            </trkpt>
            <trkpt lat="45.505485171" lon="6.985612884">
                <ele>3348.000000</ele>
                <time>2012-08-04T11:41:45Z</time>
            </trkpt>
            <trkpt lat="45.505514927" lon="6.985523533">
                <ele>3348.000000</ele>
                <time>2012-08-04T11:41:59Z</time>
            </trkpt>
            <trkpt lat="45.505531440" lon="6.985434266">
                <ele>3348.000000</ele>
                <time>2012-08-04T11:42:08Z</time>
            </trkpt>
            <trkpt lat="45.505593466" lon="6.985059092">
                <ele>3348.000000</ele>
                <time>2012-08-04T11:42:19Z</time>
            </trkpt>
            <trkpt lat="45.505645182" lon="6.984765139">
                <ele>3350.000000</ele>
                <time>2012-08-04T11:42:32Z</time>
            </trkpt>
            <trkpt lat="45.505653732" lon="6.984504461">
                <ele>3349.000000</ele>
                <time>2012-08-04T11:42:41Z</time>
            </trkpt>
            <trkpt lat="45.505617522" lon="6.984385774">
                <ele>3347.000000</ele>
                <time>2012-08-04T11:42:54Z</time>
            </trkpt>
            <trkpt lat="45.505604027" lon="6.984370351">
                <ele>3347.000000</ele>
                <time>2012-08-04T11:43:20Z</time>
            </trkpt>
            <trkpt lat="45.505609307" lon="6.984374374">
                <ele>3347.000000</ele>
                <time>2012-08-04T11:43:41Z</time>
            </trkpt>
            <trkpt lat="45.505628251" lon="6.984381247">
                <ele>3347.000000</ele>
                <time>2012-08-04T11:43:52Z</time>
            </trkpt>
            <trkpt lat="45.505642332" lon="6.984332884">
                <ele>3347.000000</ele>
                <time>2012-08-04T11:44:04Z</time>
            </trkpt>
            <trkpt lat="45.505649289" lon="6.984308157">
                <ele>3347.000000</ele>
                <time>2012-08-04T11:44:06Z</time>
            </trkpt>
            <trkpt lat="45.505656917" lon="6.984145548">
                <ele>3347.000000</ele>
                <time>2012-08-04T11:44:12Z</time>
            </trkpt>
            <trkpt lat="45.505647948" lon="6.984026441">
                <ele>3347.000000</ele>
                <time>2012-08-04T11:44:14Z</time>
            </trkpt>
            <trkpt lat="45.505651468" lon="6.983795185">
                <ele>3347.000000</ele>
                <time>2012-08-04T11:44:17Z</time>
            </trkpt>
            <trkpt lat="45.505619366" lon="6.983514391">
                <ele>3345.000000</ele>
                <time>2012-08-04T11:44:21Z</time>
            </trkpt>
            <trkpt lat="45.505570415" lon="6.983300569">
                <ele>3340.000000</ele>
                <time>2012-08-04T11:44:25Z</time>
            </trkpt>
            <trkpt lat="45.505540324" lon="6.983162519">
                <ele>3337.000000</ele>
                <time>2012-08-04T11:44:29Z</time>
            </trkpt>
            <trkpt lat="45.505507132" lon="6.983052213">
                <ele>3340.000000</ele>
                <time>2012-08-04T11:44:33Z</time>
            </trkpt>
            <trkpt lat="45.505478131" lon="6.982926652">
                <ele>3342.000000</ele>
                <time>2012-08-04T11:44:38Z</time>
            </trkpt>
            <trkpt lat="45.505464300" lon="6.982736718">
                <ele>3338.000000</ele>
                <time>2012-08-04T11:44:44Z</time>
            </trkpt>
            <trkpt lat="45.505452398" lon="6.982661951">
                <ele>3335.000000</ele>
                <time>2012-08-04T11:44:46Z</time>
            </trkpt>
            <trkpt lat="45.505407220" lon="6.982514765">
                <ele>3330.000000</ele>
                <time>2012-08-04T11:44:50Z</time>
            </trkpt>
            <trkpt lat="45.505412081" lon="6.982326005">
                <ele>3327.000000</ele>
                <time>2012-08-04T11:44:56Z</time>
            </trkpt>
            <trkpt lat="45.505394395" lon="6.982171191">
                <ele>3327.000000</ele>
                <time>2012-08-04T11:45:06Z</time>
            </trkpt>
            <trkpt lat="45.505378218" lon="6.982123414">
                <ele>3326.000000</ele>
                <time>2012-08-04T11:45:17Z</time>
            </trkpt>
            <trkpt lat="45.505356593" lon="6.982048312">
                <ele>3324.000000</ele>
                <time>2012-08-04T11:45:30Z</time>
            </trkpt>
            <trkpt lat="45.505352821" lon="6.982040685">
                <ele>3321.000000</ele>
                <time>2012-08-04T11:45:35Z</time>
            </trkpt>
            <trkpt lat="45.505359778" lon="6.982035739">
                <ele>3320.000000</ele>
                <time>2012-08-04T11:46:05Z</time>
            </trkpt>
            <trkpt lat="45.505374530" lon="6.981995171">
                <ele>3320.000000</ele>
                <time>2012-08-04T11:46:08Z</time>
            </trkpt>
            <trkpt lat="45.505365646" lon="6.981861480">
                <ele>3320.000000</ele>
                <time>2012-08-04T11:46:14Z</time>
            </trkpt>
            <trkpt lat="45.505309906" lon="6.981786294">
                <ele>3316.000000</ele>
                <time>2012-08-04T11:46:19Z</time>
            </trkpt>
            <trkpt lat="45.505279061" lon="6.981745725">
                <ele>3315.000000</ele>
                <time>2012-08-04T11:46:24Z</time>
            </trkpt>
            <trkpt lat="45.505267913" lon="6.981563419">
                <ele>3315.000000</ele>
                <time>2012-08-04T11:46:37Z</time>
            </trkpt>
            <trkpt lat="45.505266152" lon="6.981529891">
                <ele>3315.000000</ele>
                <time>2012-08-04T11:46:49Z</time>
            </trkpt>
            <trkpt lat="45.505244779" lon="6.981461244">
                <ele>3315.000000</ele>
                <time>2012-08-04T11:47:00Z</time>
            </trkpt>
            <trkpt lat="45.505255172" lon="6.981212217">
                <ele>3313.000000</ele>
                <time>2012-08-04T11:47:10Z</time>
            </trkpt>
            <trkpt lat="45.505259698" lon="6.981078778">
                <ele>3313.000000</ele>
                <time>2012-08-04T11:47:15Z</time>
            </trkpt>
            <trkpt lat="45.505266152" lon="6.980959587">
                <ele>3310.000000</ele>
                <time>2012-08-04T11:47:22Z</time>
            </trkpt>
            <trkpt lat="45.505251316" lon="6.980865039">
                <ele>3308.000000</ele>
                <time>2012-08-04T11:47:36Z</time>
            </trkpt>
            <trkpt lat="45.505253663" lon="6.980857328">
                <ele>3308.000000</ele>
                <time>2012-08-04T11:47:39Z</time>
            </trkpt>
            <trkpt lat="45.505214604" lon="6.980524398">
                <ele>3306.000000</ele>
                <time>2012-08-04T11:47:51Z</time>
            </trkpt>
            <trkpt lat="45.505208485" lon="6.980519705">
                <ele>3306.000000</ele>
                <time>2012-08-04T11:47:52Z</time>
            </trkpt>
            <trkpt lat="45.505196080" lon="6.980467234">
                <ele>3306.000000</ele>
                <time>2012-08-04T11:47:58Z</time>
            </trkpt>
            <trkpt lat="45.505169844" lon="6.980405543">
                <ele>3306.000000</ele>
                <time>2012-08-04T11:48:02Z</time>
            </trkpt>
            <trkpt lat="45.505135814" lon="6.980331028">
                <ele>3306.000000</ele>
                <time>2012-08-04T11:48:17Z</time>
            </trkpt>
            <trkpt lat="45.505146878" lon="6.980342679">
                <ele>3305.000000</ele>
                <time>2012-08-04T11:48:41Z</time>
            </trkpt>
            <trkpt lat="45.505154673" lon="6.980242683">
                <ele>3305.000000</ele>
                <time>2012-08-04T11:49:04Z</time>
            </trkpt>
            <trkpt lat="45.505101448" lon="6.980092060">
                <ele>3303.000000</ele>
                <time>2012-08-04T11:49:09Z</time>
            </trkpt>
            <trkpt lat="45.505071525" lon="6.979942946">
                <ele>3299.000000</ele>
                <time>2012-08-04T11:49:14Z</time>
            </trkpt>
            <trkpt lat="45.505000362" lon="6.979728034">
                <ele>3295.000000</ele>
                <time>2012-08-04T11:49:19Z</time>
            </trkpt>
            <trkpt lat="45.504985191" lon="6.979653770">
                <ele>3292.000000</ele>
                <time>2012-08-04T11:49:25Z</time>
            </trkpt>
            <trkpt lat="45.504964236" lon="6.979518235">
                <ele>3291.000000</ele>
                <time>2012-08-04T11:49:31Z</time>
            </trkpt>
            <trkpt lat="45.504956525" lon="6.979317320">
                <ele>3285.000000</ele>
                <time>2012-08-04T11:49:37Z</time>
            </trkpt>
            <trkpt lat="45.504953759" lon="6.979293767">
                <ele>3284.000000</ele>
                <time>2012-08-04T11:49:38Z</time>
            </trkpt>
            <trkpt lat="45.504934983" lon="6.979230987">
                <ele>3283.000000</ele>
                <time>2012-08-04T11:49:41Z</time>
            </trkpt>
            <trkpt lat="45.504946299" lon="6.979184551">
                <ele>3281.000000</ele>
                <time>2012-08-04T11:49:45Z</time>
            </trkpt>
            <trkpt lat="45.504988627" lon="6.979159405">
                <ele>3279.000000</ele>
                <time>2012-08-04T11:49:49Z</time>
            </trkpt>
            <trkpt lat="45.504996171" lon="6.979117161">
                <ele>3277.000000</ele>
                <time>2012-08-04T11:49:53Z</time>
            </trkpt>
            <trkpt lat="45.505052414" lon="6.979124537">
                <ele>3274.000000</ele>
                <time>2012-08-04T11:50:00Z</time>
            </trkpt>
            <trkpt lat="45.505047217" lon="6.979128644">
                <ele>3274.000000</ele>
                <time>2012-08-04T11:50:25Z</time>
            </trkpt>
            <trkpt lat="45.505125001" lon="6.979092853">
                <ele>3273.000000</ele>
                <time>2012-08-04T11:50:44Z</time>
            </trkpt>
            <trkpt lat="45.505122403" lon="6.979058320">
                <ele>3270.000000</ele>
                <time>2012-08-04T11:50:47Z</time>
            </trkpt>
            <trkpt lat="45.505119469" lon="6.979048261">
                <ele>3267.000000</ele>
                <time>2012-08-04T11:50:50Z</time>
            </trkpt>
            <trkpt lat="45.505092647" lon="6.979008950">
                <ele>3266.000000</ele>
                <time>2012-08-04T11:50:54Z</time>
            </trkpt>
            <trkpt lat="45.505007235" lon="6.978882803">
                <ele>3268.000000</ele>
                <time>2012-08-04T11:51:10Z</time>
            </trkpt>
            <trkpt lat="45.505006146" lon="6.978880875">
                <ele>3268.000000</ele>
                <time>2012-08-04T11:51:26Z</time>
            </trkpt>
            <trkpt lat="45.505013857" lon="6.978871487">
                <ele>3268.000000</ele>
                <time>2012-08-04T11:51:33Z</time>
            </trkpt>
            <trkpt lat="45.505035985" lon="6.978831841">
                <ele>3268.000000</ele>
                <time>2012-08-04T11:51:36Z</time>
            </trkpt>
            <trkpt lat="45.505037578" lon="6.978749614">
                <ele>3265.000000</ele>
                <time>2012-08-04T11:51:45Z</time>
            </trkpt>
            <trkpt lat="45.505038332" lon="6.978740310">
                <ele>3263.000000</ele>
                <time>2012-08-04T11:52:01Z</time>
            </trkpt>
            <trkpt lat="45.505030956" lon="6.978737377">
                <ele>3264.000000</ele>
                <time>2012-08-04T11:52:34Z</time>
            </trkpt>
            <trkpt lat="45.505003380" lon="6.978801163">
                <ele>3263.000000</ele>
                <time>2012-08-04T11:52:51Z</time>
            </trkpt>
            <trkpt lat="45.504955351" lon="6.978829578">
                <ele>3261.000000</ele>
                <time>2012-08-04T11:53:03Z</time>
            </trkpt>
            <trkpt lat="45.504896930" lon="6.978852544">
                <ele>3260.000000</ele>
                <time>2012-08-04T11:53:17Z</time>
            </trkpt>
            <trkpt lat="45.504892236" lon="6.978854304">
                <ele>3259.000000</ele>
                <time>2012-08-04T11:53:35Z</time>
            </trkpt>
            <trkpt lat="45.504847057" lon="6.978851287">
                <ele>3259.000000</ele>
                <time>2012-08-04T11:53:50Z</time>
            </trkpt>
            <trkpt lat="45.504824594" lon="6.978850868">
                <ele>3259.000000</ele>
                <time>2012-08-04T11:54:05Z</time>
            </trkpt>
            <trkpt lat="45.504820403" lon="6.978851622">
                <ele>3257.000000</ele>
                <time>2012-08-04T11:54:23Z</time>
            </trkpt>
            <trkpt lat="45.504822750" lon="6.978842737">
                <ele>3257.000000</ele>
                <time>2012-08-04T11:54:39Z</time>
            </trkpt>
            <trkpt lat="45.504798694" lon="6.978856232">
                <ele>3256.000000</ele>
                <time>2012-08-04T11:54:55Z</time>
            </trkpt>
            <trkpt lat="45.504718395" lon="6.978862351">
                <ele>3256.000000</ele>
                <time>2012-08-04T11:55:08Z</time>
            </trkpt>
            <trkpt lat="45.504711438" lon="6.978860758">
                <ele>3256.000000</ele>
                <time>2012-08-04T11:55:22Z</time>
            </trkpt>
            <trkpt lat="45.504709510" lon="6.978857741">
                <ele>3255.000000</ele>
                <time>2012-08-04T11:55:52Z</time>
            </trkpt>
            <trkpt lat="45.504710935" lon="6.978860591">
                <ele>3255.000000</ele>
                <time>2012-08-04T11:56:20Z</time>
            </trkpt>
            <trkpt lat="45.504700709" lon="6.978878696">
                <ele>3255.000000</ele>
                <time>2012-08-04T11:56:38Z</time>
            </trkpt>
            <trkpt lat="45.504645808" lon="6.978887832">
                <ele>3255.000000</ele>
                <time>2012-08-04T11:56:54Z</time>
            </trkpt>
            <trkpt lat="45.504605742" lon="6.978889424">
                <ele>3255.000000</ele>
                <time>2012-08-04T11:57:00Z</time>
            </trkpt>
            <trkpt lat="45.504498538" lon="6.978897555">
                <ele>3252.000000</ele>
                <time>2012-08-04T11:57:16Z</time>
            </trkpt>
            <trkpt lat="45.504501052" lon="6.978848185">
                <ele>3251.000000</ele>
                <time>2012-08-04T11:57:29Z</time>
            </trkpt>
            <trkpt lat="45.504441708" lon="6.978824213">
                <ele>3248.000000</ele>
                <time>2012-08-04T11:57:43Z</time>
            </trkpt>
            <trkpt lat="45.504415641" lon="6.978819687">
                <ele>3248.000000</ele>
                <time>2012-08-04T11:57:47Z</time>
            </trkpt>
            <trkpt lat="45.504358560" lon="6.978801247">
                <ele>3243.000000</ele>
                <time>2012-08-04T11:57:53Z</time>
            </trkpt>
            <trkpt lat="45.504313549" lon="6.978778364">
                <ele>3240.000000</ele>
                <time>2012-08-04T11:57:57Z</time>
            </trkpt>
            <trkpt lat="45.504232412" lon="6.978742909">
                <ele>3239.000000</ele>
                <time>2012-08-04T11:58:10Z</time>
            </trkpt>
            <trkpt lat="45.504222186" lon="6.978749363">
                <ele>3239.000000</ele>
                <time>2012-08-04T11:58:12Z</time>
            </trkpt>
            <trkpt lat="45.504157729" lon="6.978708459">
                <ele>3238.000000</ele>
                <time>2012-08-04T11:58:25Z</time>
            </trkpt>
            <trkpt lat="45.504152030" lon="6.978698317">
                <ele>3238.000000</ele>
                <time>2012-08-04T11:58:27Z</time>
            </trkpt>
            <trkpt lat="45.504085980" lon="6.978635620">
                <ele>3236.000000</ele>
                <time>2012-08-04T11:58:39Z</time>
            </trkpt>
            <trkpt lat="45.504015405" lon="6.978552053">
                <ele>3233.000000</ele>
                <time>2012-08-04T11:58:53Z</time>
            </trkpt>
            <trkpt lat="45.503989924" lon="6.978493379">
                <ele>3231.000000</ele>
                <time>2012-08-04T11:59:05Z</time>
            </trkpt>
            <trkpt lat="45.503983637" lon="6.978460020">
                <ele>3228.000000</ele>
                <time>2012-08-04T11:59:18Z</time>
            </trkpt>
            <trkpt lat="45.503983218" lon="6.978453063">
                <ele>3226.000000</ele>
                <time>2012-08-04T11:59:34Z</time>
            </trkpt>
            <trkpt lat="45.503968382" lon="6.978416098">
                <ele>3224.000000</ele>
                <time>2012-08-04T11:59:47Z</time>
            </trkpt>
            <trkpt lat="45.503942901" lon="6.978415176">
                <ele>3222.000000</ele>
                <time>2012-08-04T12:00:03Z</time>
            </trkpt>
            <trkpt lat="45.503968466" lon="6.978339823">
                <ele>3221.000000</ele>
                <time>2012-08-04T12:00:16Z</time>
            </trkpt>
            <trkpt lat="45.503959497" lon="6.978339320">
                <ele>3219.000000</ele>
                <time>2012-08-04T12:00:34Z</time>
            </trkpt>
            <trkpt lat="45.503951451" lon="6.978336805">
                <ele>3219.000000</ele>
                <time>2012-08-04T12:00:39Z</time>
            </trkpt>
            <trkpt lat="45.503887748" lon="6.978351725">
                <ele>3218.000000</ele>
                <time>2012-08-04T12:00:46Z</time>
            </trkpt>
            <trkpt lat="45.503837122" lon="6.978342505">
                <ele>3217.000000</ele>
                <time>2012-08-04T12:00:52Z</time>
            </trkpt>
            <trkpt lat="45.503816418" lon="6.978347953">
                <ele>3216.000000</ele>
                <time>2012-08-04T12:00:54Z</time>
            </trkpt>
            <trkpt lat="45.503788758" lon="6.978330268">
                <ele>3214.000000</ele>
                <time>2012-08-04T12:00:57Z</time>
            </trkpt>
            <trkpt lat="45.503782555" lon="6.978290118">
                <ele>3212.000000</ele>
                <time>2012-08-04T12:01:00Z</time>
            </trkpt>
            <trkpt lat="45.503722290" lon="6.978247622">
                <ele>3208.000000</ele>
                <time>2012-08-04T12:01:07Z</time>
            </trkpt>
            <trkpt lat="45.503689768" lon="6.978211496">
                <ele>3208.000000</ele>
                <time>2012-08-04T12:01:18Z</time>
            </trkpt>
            <trkpt lat="45.503665628" lon="6.978148716">
                <ele>3207.000000</ele>
                <time>2012-08-04T12:01:31Z</time>
            </trkpt>
            <trkpt lat="45.503681553" lon="6.978112925">
                <ele>3203.000000</ele>
                <time>2012-08-04T12:01:36Z</time>
            </trkpt>
            <trkpt lat="45.503668813" lon="6.978085013">
                <ele>3201.000000</ele>
                <time>2012-08-04T12:01:46Z</time>
            </trkpt>
            <trkpt lat="45.503657078" lon="6.978049390">
                <ele>3201.000000</ele>
                <time>2012-08-04T12:01:57Z</time>
            </trkpt>
            <trkpt lat="45.503583401" lon="6.978051821">
                <ele>3198.000000</ele>
                <time>2012-08-04T12:02:14Z</time>
            </trkpt>
            <trkpt lat="45.503548114" lon="6.978145698">
                <ele>3196.000000</ele>
                <time>2012-08-04T12:02:28Z</time>
            </trkpt>
            <trkpt lat="45.503546856" lon="6.978158020">
                <ele>3195.000000</ele>
                <time>2012-08-04T12:02:42Z</time>
            </trkpt>
            <trkpt lat="45.503532607" lon="6.978166401">
                <ele>3194.000000</ele>
                <time>2012-08-04T12:02:54Z</time>
            </trkpt>
            <trkpt lat="45.503541827" lon="6.978193810">
                <ele>3194.000000</ele>
                <time>2012-08-04T12:03:10Z</time>
            </trkpt>
            <trkpt lat="45.503544761" lon="6.978209149">
                <ele>3192.000000</ele>
                <time>2012-08-04T12:03:24Z</time>
            </trkpt>
            <trkpt lat="45.503518106" lon="6.978217028">
                <ele>3191.000000</ele>
                <time>2012-08-04T12:03:36Z</time>
            </trkpt>
            <trkpt lat="45.503478795" lon="6.978202192">
                <ele>3189.000000</ele>
                <time>2012-08-04T12:03:49Z</time>
            </trkpt>
            <trkpt lat="45.503457002" lon="6.978154331">
                <ele>3187.000000</ele>
                <time>2012-08-04T12:04:03Z</time>
            </trkpt>
            <trkpt lat="45.503456164" lon="6.978144189">
                <ele>3186.000000</ele>
                <time>2012-08-04T12:04:18Z</time>
            </trkpt>
            <trkpt lat="45.503458343" lon="6.978146117">
                <ele>3186.000000</ele>
                <time>2012-08-04T12:04:28Z</time>
            </trkpt>
            <trkpt lat="45.503369160" lon="6.977965152">
                <ele>3183.000000</ele>
                <time>2012-08-04T12:04:40Z</time>
            </trkpt>
            <trkpt lat="45.503344350" lon="6.977908574">
                <ele>3179.000000</ele>
                <time>2012-08-04T12:04:43Z</time>
            </trkpt>
            <trkpt lat="45.503338063" lon="6.977834394">
                <ele>3176.000000</ele>
                <time>2012-08-04T12:04:46Z</time>
            </trkpt>
            <trkpt lat="45.503285844" lon="6.977734063">
                <ele>3174.000000</ele>
                <time>2012-08-04T12:04:58Z</time>
            </trkpt>
            <trkpt lat="45.503262542" lon="6.977727106">
                <ele>3173.000000</ele>
                <time>2012-08-04T12:05:11Z</time>
            </trkpt>
            <trkpt lat="45.503252652" lon="6.977697434">
                <ele>3172.000000</ele>
                <time>2012-08-04T12:05:26Z</time>
            </trkpt>
            <trkpt lat="45.503236139" lon="6.977686956">
                <ele>3171.000000</ele>
                <time>2012-08-04T12:05:30Z</time>
            </trkpt>
            <trkpt lat="45.503194314" lon="6.977683269">
                <ele>3171.000000</ele>
                <time>2012-08-04T12:05:34Z</time>
            </trkpt>
            <trkpt lat="45.503146872" lon="6.977656195">
                <ele>3170.000000</ele>
                <time>2012-08-04T12:05:39Z</time>
            </trkpt>
            <trkpt lat="45.503114518" lon="6.977670276">
                <ele>3169.000000</ele>
                <time>2012-08-04T12:05:41Z</time>
            </trkpt>
            <trkpt lat="45.503082834" lon="6.977628702">
                <ele>3167.000000</ele>
                <time>2012-08-04T12:05:44Z</time>
            </trkpt>
            <trkpt lat="45.503078308" lon="6.977601964">
                <ele>3163.000000</ele>
                <time>2012-08-04T12:05:46Z</time>
            </trkpt>
            <trkpt lat="45.503074201" lon="6.977571873">
                <ele>3160.000000</ele>
                <time>2012-08-04T12:05:48Z</time>
            </trkpt>
            <trkpt lat="45.503058359" lon="6.977465758">
                <ele>3156.000000</ele>
                <time>2012-08-04T12:05:53Z</time>
            </trkpt>
            <trkpt lat="45.503007816" lon="6.977419238">
                <ele>3155.000000</ele>
                <time>2012-08-04T12:05:57Z</time>
            </trkpt>
            <trkpt lat="45.502973869" lon="6.977230310">
                <ele>3155.000000</ele>
                <time>2012-08-04T12:06:03Z</time>
            </trkpt>
            <trkpt lat="45.502927518" lon="6.977101983">
                <ele>3151.000000</ele>
                <time>2012-08-04T12:06:08Z</time>
            </trkpt>
            <trkpt lat="45.502873789" lon="6.977040125">
                <ele>3149.000000</ele>
                <time>2012-08-04T12:06:10Z</time>
            </trkpt>
            <trkpt lat="45.502699362" lon="6.976852203">
                <ele>3144.000000</ele>
                <time>2012-08-04T12:06:14Z</time>
            </trkpt>
            <trkpt lat="45.502649741" lon="6.976801241">
                <ele>3142.000000</ele>
                <time>2012-08-04T12:06:15Z</time>
            </trkpt>
            <trkpt lat="45.502486713" lon="6.976581383">
                <ele>3137.000000</ele>
                <time>2012-08-04T12:06:20Z</time>
            </trkpt>
            <trkpt lat="45.502469447" lon="6.976554478">
                <ele>3136.000000</ele>
                <time>2012-08-04T12:06:21Z</time>
            </trkpt>
            <trkpt lat="45.502369618" lon="6.976304697">
                <ele>3133.000000</ele>
                <time>2012-08-04T12:06:26Z</time>
            </trkpt>
            <trkpt lat="45.502153449" lon="6.975931199">
                <ele>3132.000000</ele>
                <time>2012-08-04T12:06:31Z</time>
            </trkpt>
            <trkpt lat="45.502011459" lon="6.975616878">
                <ele>3132.000000</ele>
                <time>2012-08-04T12:06:34Z</time>
            </trkpt>
            <trkpt lat="45.501849186" lon="6.974973735">
                <ele>3131.000000</ele>
                <time>2012-08-04T12:06:41Z</time>
            </trkpt>
            <trkpt lat="45.501791015" lon="6.974767540">
                <ele>3133.000000</ele>
                <time>2012-08-04T12:06:53Z</time>
            </trkpt>
            <trkpt lat="45.501728319" lon="6.974667292">
                <ele>3134.000000</ele>
                <time>2012-08-04T12:07:03Z</time>
            </trkpt>
            <trkpt lat="45.501661012" lon="6.974474005">
                <ele>3136.000000</ele>
                <time>2012-08-04T12:07:19Z</time>
            </trkpt>
            <trkpt lat="45.501653887" lon="6.974452296">
                <ele>3137.000000</ele>
                <time>2012-08-04T12:07:21Z</time>
            </trkpt>
            <trkpt lat="45.501631089" lon="6.974360598">
                <ele>3139.000000</ele>
                <time>2012-08-04T12:07:34Z</time>
            </trkpt>
            <trkpt lat="45.501552718" lon="6.974115092">
                <ele>3141.000000</ele>
                <time>2012-08-04T12:07:51Z</time>
            </trkpt>
            <trkpt lat="45.501375860" lon="6.973825079">
                <ele>3143.000000</ele>
                <time>2012-08-04T12:08:10Z</time>
            </trkpt>
            <trkpt lat="45.501182238" lon="6.973575214">
                <ele>3143.000000</ele>
                <time>2012-08-04T12:08:27Z</time>
            </trkpt>
            <trkpt lat="45.500824833" lon="6.973265251">
                <ele>3144.000000</ele>
                <time>2012-08-04T12:08:43Z</time>
            </trkpt>
            <trkpt lat="45.500814272" lon="6.973272627">
                <ele>3144.000000</ele>
                <time>2012-08-04T12:08:55Z</time>
            </trkpt>
            <trkpt lat="45.500815027" lon="6.973270364">
                <ele>3143.000000</ele>
                <time>2012-08-04T12:09:19Z</time>
            </trkpt>
            <trkpt lat="45.500818128" lon="6.973274304">
                <ele>3143.000000</ele>
                <time>2012-08-04T12:09:56Z</time>
            </trkpt>
            <trkpt lat="45.500816787" lon="6.973273549">
                <ele>3143.000000</ele>
                <time>2012-08-04T12:10:21Z</time>
            </trkpt>
            <trkpt lat="45.500819888" lon="6.973272460">
                <ele>3143.000000</ele>
                <time>2012-08-04T12:10:49Z</time>
            </trkpt>
            <trkpt lat="45.500820139" lon="6.973274806">
                <ele>3143.000000</ele>
                <time>2012-08-04T12:11:24Z</time>
            </trkpt>
            <trkpt lat="45.500825755" lon="6.973279919">
                <ele>3142.000000</ele>
                <time>2012-08-04T12:12:08Z</time>
            </trkpt>
            <trkpt lat="45.500825001" lon="6.973286290">
                <ele>3142.000000</ele>
                <time>2012-08-04T12:12:49Z</time>
            </trkpt>
            <trkpt lat="45.500826258" lon="6.973281512">
                <ele>3142.000000</ele>
                <time>2012-08-04T12:13:23Z</time>
            </trkpt>
            <trkpt lat="45.500826091" lon="6.973277908">
                <ele>3142.000000</ele>
                <time>2012-08-04T12:13:51Z</time>
            </trkpt>
            <trkpt lat="45.500824582" lon="6.973276231">
                <ele>3141.000000</ele>
                <time>2012-08-04T12:14:12Z</time>
            </trkpt>
            <trkpt lat="45.500824498" lon="6.973274639">
                <ele>3141.000000</ele>
                <time>2012-08-04T12:14:15Z</time>
            </trkpt>
            <trkpt lat="45.500646718" lon="6.973044975">
                <ele>3140.000000</ele>
                <time>2012-08-04T12:14:26Z</time>
            </trkpt>
            <trkpt lat="45.500596594" lon="6.972994348">
                <ele>3140.000000</ele>
                <time>2012-08-04T12:14:28Z</time>
            </trkpt>
            <trkpt lat="45.500154700" lon="6.972617414">
                <ele>3136.000000</ele>
                <time>2012-08-04T12:14:38Z</time>
            </trkpt>
            <trkpt lat="45.500080185" lon="6.972479699">
                <ele>3132.000000</ele>
                <time>2012-08-04T12:14:42Z</time>
            </trkpt>
            <trkpt lat="45.500028636" lon="6.972421361">
                <ele>3129.000000</ele>
                <time>2012-08-04T12:14:44Z</time>
            </trkpt>
            <trkpt lat="45.499948422" lon="6.972261183">
                <ele>3123.000000</ele>
                <time>2012-08-04T12:14:48Z</time>
            </trkpt>
            <trkpt lat="45.499845324" lon="6.972069321">
                <ele>3119.000000</ele>
                <time>2012-08-04T12:14:52Z</time>
            </trkpt>
            <trkpt lat="45.499792015" lon="6.971923560">
                <ele>3118.000000</ele>
                <time>2012-08-04T12:14:54Z</time>
            </trkpt>
            <trkpt lat="45.499643320" lon="6.971654585">
                <ele>3113.000000</ele>
                <time>2012-08-04T12:14:59Z</time>
            </trkpt>
            <trkpt lat="45.499583473" lon="6.971479403">
                <ele>3110.000000</ele>
                <time>2012-08-04T12:15:03Z</time>
            </trkpt>
            <trkpt lat="45.499512395" lon="6.971372031">
                <ele>3104.000000</ele>
                <time>2012-08-04T12:15:07Z</time>
            </trkpt>
            <trkpt lat="45.499481801" lon="6.971322074">
                <ele>3101.000000</ele>
                <time>2012-08-04T12:15:11Z</time>
            </trkpt>
            <trkpt lat="45.499458835" lon="6.971277399">
                <ele>3101.000000</ele>
                <time>2012-08-04T12:15:21Z</time>
            </trkpt>
            <trkpt lat="45.499454141" lon="6.971261976">
                <ele>3101.000000</ele>
                <time>2012-08-04T12:15:28Z</time>
            </trkpt>
            <trkpt lat="45.499432096" lon="6.971228113">
                <ele>3101.000000</ele>
                <time>2012-08-04T12:15:38Z</time>
            </trkpt>
            <trkpt lat="45.499386331" lon="6.971152341">
                <ele>3098.000000</ele>
                <time>2012-08-04T12:15:48Z</time>
            </trkpt>
            <trkpt lat="45.499329334" lon="6.971091153">
                <ele>3094.000000</ele>
                <time>2012-08-04T12:15:53Z</time>
            </trkpt>
            <trkpt lat="45.499304607" lon="6.971039437">
                <ele>3092.000000</ele>
                <time>2012-08-04T12:15:56Z</time>
            </trkpt>
            <trkpt lat="45.499288347" lon="6.971008591">
                <ele>3091.000000</ele>
                <time>2012-08-04T12:15:58Z</time>
            </trkpt>
            <trkpt lat="45.499259848" lon="6.970905578">
                <ele>3087.000000</ele>
                <time>2012-08-04T12:16:07Z</time>
            </trkpt>
            <trkpt lat="45.499251466" lon="6.970847826">
                <ele>3087.000000</ele>
                <time>2012-08-04T12:16:15Z</time>
            </trkpt>
            <trkpt lat="45.499222968" lon="6.970758894">
                <ele>3085.000000</ele>
                <time>2012-08-04T12:16:28Z</time>
            </trkpt>
            <trkpt lat="45.499220453" lon="6.970733413">
                <ele>3082.000000</ele>
                <time>2012-08-04T12:16:32Z</time>
            </trkpt>
            <trkpt lat="45.499212239" lon="6.970694438">
                <ele>3078.000000</ele>
                <time>2012-08-04T12:16:37Z</time>
            </trkpt>
            <trkpt lat="45.499180052" lon="6.970633166">
                <ele>3077.000000</ele>
                <time>2012-08-04T12:16:50Z</time>
            </trkpt>
            <trkpt lat="45.499169324" lon="6.970585305">
                <ele>3076.000000</ele>
                <time>2012-08-04T12:17:00Z</time>
            </trkpt>
            <trkpt lat="45.499156248" lon="6.970543647">
                <ele>3073.000000</ele>
                <time>2012-08-04T12:17:13Z</time>
            </trkpt>
            <trkpt lat="45.499115931" lon="6.970542893">
                <ele>3072.000000</ele>
                <time>2012-08-04T12:17:25Z</time>
            </trkpt>
            <trkpt lat="45.499087600" lon="6.970534092">
                <ele>3071.000000</ele>
                <time>2012-08-04T12:17:37Z</time>
            </trkpt>
            <trkpt lat="45.499049295" lon="6.970522944">
                <ele>3069.000000</ele>
                <time>2012-08-04T12:17:48Z</time>
            </trkpt>
            <trkpt lat="45.499059940" lon="6.970473491">
                <ele>3067.000000</ele>
                <time>2012-08-04T12:18:01Z</time>
            </trkpt>
            <trkpt lat="45.499055833" lon="6.970419427">
                <ele>3065.000000</ele>
                <time>2012-08-04T12:18:13Z</time>
            </trkpt>
            <trkpt lat="45.499032615" lon="6.970411465">
                <ele>3062.000000</ele>
                <time>2012-08-04T12:18:26Z</time>
            </trkpt>
            <trkpt lat="45.498987017" lon="6.970355222">
                <ele>3060.000000</ele>
                <time>2012-08-04T12:18:40Z</time>
            </trkpt>
            <trkpt lat="45.498925410" lon="6.970355390">
                <ele>3059.000000</ele>
                <time>2012-08-04T12:18:51Z</time>
            </trkpt>
            <trkpt lat="45.498889955" lon="6.970315073">
                <ele>3057.000000</ele>
                <time>2012-08-04T12:19:05Z</time>
            </trkpt>
            <trkpt lat="45.498886770" lon="6.970310798">
                <ele>3056.000000</ele>
                <time>2012-08-04T12:19:06Z</time>
            </trkpt>
            <trkpt lat="45.498870928" lon="6.970289089">
                <ele>3053.000000</ele>
                <time>2012-08-04T12:19:12Z</time>
            </trkpt>
            <trkpt lat="45.498873359" lon="6.970286407">
                <ele>3052.000000</ele>
                <time>2012-08-04T12:19:13Z</time>
            </trkpt>
            <trkpt lat="45.498872604" lon="6.970285066">
                <ele>3052.000000</ele>
                <time>2012-08-04T12:19:16Z</time>
            </trkpt>
            <trkpt lat="45.498898756" lon="6.970194457">
                <ele>3052.000000</ele>
                <time>2012-08-04T12:19:25Z</time>
            </trkpt>
            <trkpt lat="45.498913676" lon="6.970139975">
                <ele>3051.000000</ele>
                <time>2012-08-04T12:19:37Z</time>
            </trkpt>
            <trkpt lat="45.498915603" lon="6.970139388">
                <ele>3051.000000</ele>
                <time>2012-08-04T12:19:39Z</time>
            </trkpt>
            <trkpt lat="45.498881657" lon="6.970029585">
                <ele>3047.000000</ele>
                <time>2012-08-04T12:19:52Z</time>
            </trkpt>
            <trkpt lat="45.498915268" lon="6.970018437">
                <ele>3045.000000</ele>
                <time>2012-08-04T12:20:06Z</time>
            </trkpt>
            <trkpt lat="45.498914095" lon="6.969972001">
                <ele>3043.000000</ele>
                <time>2012-08-04T12:20:20Z</time>
            </trkpt>
            <trkpt lat="45.498927422" lon="6.969917854">
                <ele>3041.000000</ele>
                <time>2012-08-04T12:20:31Z</time>
            </trkpt>
            <trkpt lat="45.498942258" lon="6.969908718">
                <ele>3037.000000</ele>
                <time>2012-08-04T12:20:37Z</time>
            </trkpt>
            <trkpt lat="45.498919543" lon="6.969871922">
                <ele>3036.000000</ele>
                <time>2012-08-04T12:20:54Z</time>
            </trkpt>
            <trkpt lat="45.498910155" lon="6.969841076">
                <ele>3036.000000</ele>
                <time>2012-08-04T12:21:00Z</time>
            </trkpt>
            <trkpt lat="45.498921806" lon="6.969809393">
                <ele>3034.000000</ele>
                <time>2012-08-04T12:21:11Z</time>
            </trkpt>
            <trkpt lat="45.498904874" lon="6.969766645">
                <ele>3032.000000</ele>
                <time>2012-08-04T12:21:22Z</time>
            </trkpt>
            <trkpt lat="45.498892805" lon="6.969724735">
                <ele>3031.000000</ele>
                <time>2012-08-04T12:21:33Z</time>
            </trkpt>
            <trkpt lat="45.498881740" lon="6.969658518">
                <ele>3028.000000</ele>
                <time>2012-08-04T12:21:47Z</time>
            </trkpt>
            <trkpt lat="45.498850308" lon="6.969608478">
                <ele>3027.000000</ele>
                <time>2012-08-04T12:21:59Z</time>
            </trkpt>
            <trkpt lat="45.498839244" lon="6.969575789">
                <ele>3026.000000</ele>
                <time>2012-08-04T12:22:05Z</time>
            </trkpt>
            <trkpt lat="45.498814685" lon="6.969475960">
                <ele>3023.000000</ele>
                <time>2012-08-04T12:22:14Z</time>
            </trkpt>
            <trkpt lat="45.498804040" lon="6.969457101">
                <ele>3020.000000</ele>
                <time>2012-08-04T12:22:18Z</time>
            </trkpt>
            <trkpt lat="45.498802783" lon="6.969383843">
                <ele>3019.000000</ele>
                <time>2012-08-04T12:22:31Z</time>
            </trkpt>
            <trkpt lat="45.498795407" lon="6.969330618">
                <ele>3017.000000</ele>
                <time>2012-08-04T12:22:44Z</time>
            </trkpt>
            <trkpt lat="45.498801358" lon="6.969295582">
                <ele>3015.000000</ele>
                <time>2012-08-04T12:22:57Z</time>
            </trkpt>
            <trkpt lat="45.498771016" lon="6.969152251">
                <ele>3013.000000</ele>
                <time>2012-08-04T12:23:10Z</time>
            </trkpt>
            <trkpt lat="45.498704798" lon="6.968980422">
                <ele>3012.000000</ele>
                <time>2012-08-04T12:23:20Z</time>
            </trkpt>
            <trkpt lat="45.498678731" lon="6.968957121">
                <ele>3012.000000</ele>
                <time>2012-08-04T12:23:24Z</time>
            </trkpt>
            <trkpt lat="45.498642521" lon="6.968897693">
                <ele>3008.000000</ele>
                <time>2012-08-04T12:23:30Z</time>
            </trkpt>
            <trkpt lat="45.498604719" lon="6.968856202">
                <ele>3006.000000</ele>
                <time>2012-08-04T12:23:41Z</time>
            </trkpt>
            <trkpt lat="45.498581752" lon="6.968840528">
                <ele>3006.000000</ele>
                <time>2012-08-04T12:23:48Z</time>
            </trkpt>
            <trkpt lat="45.498525091" lon="6.968791662">
                <ele>3005.000000</ele>
                <time>2012-08-04T12:24:00Z</time>
            </trkpt>
            <trkpt lat="45.498485947" lon="6.968737682">
                <ele>3005.000000</ele>
                <time>2012-08-04T12:24:05Z</time>
            </trkpt>
            <trkpt lat="45.498403469" lon="6.968620168">
                <ele>3003.000000</ele>
                <time>2012-08-04T12:24:16Z</time>
            </trkpt>
            <trkpt lat="45.498359967" lon="6.968546324">
                <ele>2999.000000</ele>
                <time>2012-08-04T12:24:24Z</time>
            </trkpt>
            <trkpt lat="45.498347478" lon="6.968524447">
                <ele>2996.000000</ele>
                <time>2012-08-04T12:24:30Z</time>
            </trkpt>
            <trkpt lat="45.498311436" lon="6.968474155">
                <ele>2996.000000</ele>
                <time>2012-08-04T12:24:43Z</time>
            </trkpt>
            <trkpt lat="45.498309005" lon="6.968479352">
                <ele>2996.000000</ele>
                <time>2012-08-04T12:24:58Z</time>
            </trkpt>
            <trkpt lat="45.498258630" lon="6.968444399">
                <ele>2996.000000</ele>
                <time>2012-08-04T12:25:02Z</time>
            </trkpt>
            <trkpt lat="45.498194089" lon="6.968358317">
                <ele>2996.000000</ele>
                <time>2012-08-04T12:25:14Z</time>
            </trkpt>
            <trkpt lat="45.498125609" lon="6.968267877">
                <ele>2992.000000</ele>
                <time>2012-08-04T12:25:26Z</time>
            </trkpt>
            <trkpt lat="45.498051262" lon="6.968179364">
                <ele>2990.000000</ele>
                <time>2012-08-04T12:25:39Z</time>
            </trkpt>
            <trkpt lat="45.498012705" lon="6.968100909">
                <ele>2988.000000</ele>
                <time>2012-08-04T12:25:43Z</time>
            </trkpt>
            <trkpt lat="45.497983871" lon="6.968085486">
                <ele>2986.000000</ele>
                <time>2012-08-04T12:25:46Z</time>
            </trkpt>
            <trkpt lat="45.497937687" lon="6.968003008">
                <ele>2983.000000</ele>
                <time>2012-08-04T12:25:51Z</time>
            </trkpt>
            <trkpt lat="45.497722104" lon="6.967826821">
                <ele>2982.000000</ele>
                <time>2012-08-04T12:26:01Z</time>
            </trkpt>
            <trkpt lat="45.497702155" lon="6.967815421">
                <ele>2982.000000</ele>
                <time>2012-08-04T12:26:02Z</time>
            </trkpt>
            <trkpt lat="45.497531248" lon="6.967564635">
                <ele>2982.000000</ele>
                <time>2012-08-04T12:26:14Z</time>
            </trkpt>
            <trkpt lat="45.497487411" lon="6.967494478">
                <ele>2978.000000</ele>
                <time>2012-08-04T12:26:18Z</time>
            </trkpt>
            <trkpt lat="45.497438544" lon="6.967402110">
                <ele>2975.000000</ele>
                <time>2012-08-04T12:26:22Z</time>
            </trkpt>
            <trkpt lat="45.497338716" lon="6.967183845">
                <ele>2972.000000</ele>
                <time>2012-08-04T12:26:29Z</time>
            </trkpt>
            <trkpt lat="45.497035459" lon="6.966786291">
                <ele>2970.000000</ele>
                <time>2012-08-04T12:26:40Z</time>
            </trkpt>
            <trkpt lat="45.496988855" lon="6.966741532">
                <ele>2969.000000</ele>
                <time>2012-08-04T12:26:43Z</time>
            </trkpt>
            <trkpt lat="45.496942839" lon="6.966635333">
                <ele>2964.000000</ele>
                <time>2012-08-04T12:26:49Z</time>
            </trkpt>
            <trkpt lat="45.496941581" lon="6.966634914">
                <ele>2961.000000</ele>
                <time>2012-08-04T12:26:52Z</time>
            </trkpt>
            <trkpt lat="45.496940492" lon="6.966637848">
                <ele>2961.000000</ele>
                <time>2012-08-04T12:26:53Z</time>
            </trkpt>
            <trkpt lat="45.496942168" lon="6.966646314">
                <ele>2965.000000</ele>
                <time>2012-08-04T12:27:05Z</time>
            </trkpt>
            <trkpt lat="45.496942336" lon="6.966644805">
                <ele>2963.000000</ele>
                <time>2012-08-04T12:27:36Z</time>
            </trkpt>
            <trkpt lat="45.496938648" lon="6.966645308">
                <ele>2963.000000</ele>
                <time>2012-08-04T12:28:10Z</time>
            </trkpt>
            <trkpt lat="45.496936468" lon="6.966648912">
                <ele>2963.000000</ele>
                <time>2012-08-04T12:28:38Z</time>
            </trkpt>
            <trkpt lat="45.496942503" lon="6.966646146">
                <ele>2962.000000</ele>
                <time>2012-08-04T12:28:53Z</time>
            </trkpt>
            <trkpt lat="45.496935965" lon="6.966637848">
                <ele>2962.000000</ele>
                <time>2012-08-04T12:29:03Z</time>
            </trkpt>
            <trkpt lat="45.496859187" lon="6.966554783">
                <ele>2961.000000</ele>
                <time>2012-08-04T12:29:11Z</time>
            </trkpt>
            <trkpt lat="45.496834209" lon="6.966523267">
                <ele>2961.000000</ele>
                <time>2012-08-04T12:29:13Z</time>
            </trkpt>
            <trkpt lat="45.496795820" lon="6.966469707">
                <ele>2956.000000</ele>
                <time>2012-08-04T12:29:17Z</time>
            </trkpt>
            <trkpt lat="45.496766651" lon="6.966425283">
                <ele>2952.000000</ele>
                <time>2012-08-04T12:29:20Z</time>
            </trkpt>
            <trkpt lat="45.496746199" lon="6.966317324">
                <ele>2949.000000</ele>
                <time>2012-08-04T12:29:24Z</time>
            </trkpt>
            <trkpt lat="45.496717030" lon="6.966114398">
                <ele>2947.000000</ele>
                <time>2012-08-04T12:29:31Z</time>
            </trkpt>
            <trkpt lat="45.496725496" lon="6.966003338">
                <ele>2943.000000</ele>
                <time>2012-08-04T12:29:35Z</time>
            </trkpt>
            <trkpt lat="45.496764556" lon="6.965822540">
                <ele>2940.000000</ele>
                <time>2012-08-04T12:29:40Z</time>
            </trkpt>
            <trkpt lat="45.496759694" lon="6.965748696">
                <ele>2936.000000</ele>
                <time>2012-08-04T12:29:43Z</time>
            </trkpt>
            <trkpt lat="45.496757012" lon="6.965739392">
                <ele>2936.000000</ele>
                <time>2012-08-04T12:29:44Z</time>
            </trkpt>
            <trkpt lat="45.496688196" lon="6.965767303">
                <ele>2932.000000</ele>
                <time>2012-08-04T12:29:49Z</time>
            </trkpt>
            <trkpt lat="45.496673780" lon="6.965622548">
                <ele>2931.000000</ele>
                <time>2012-08-04T12:29:56Z</time>
            </trkpt>
            <trkpt lat="45.496627511" lon="6.965553984">
                <ele>2928.000000</ele>
                <time>2012-08-04T12:30:02Z</time>
            </trkpt>
            <trkpt lat="45.496585602" lon="6.965562785">
                <ele>2924.000000</ele>
                <time>2012-08-04T12:30:06Z</time>
            </trkpt>
            <trkpt lat="45.496523743" lon="6.965583321">
                <ele>2921.000000</ele>
                <time>2012-08-04T12:30:10Z</time>
            </trkpt>
            <trkpt lat="45.496437326" lon="6.965644425">
                <ele>2918.000000</ele>
                <time>2012-08-04T12:30:14Z</time>
            </trkpt>
            <trkpt lat="45.496410839" lon="6.965427166">
                <ele>2914.000000</ele>
                <time>2012-08-04T12:30:23Z</time>
            </trkpt>
            <trkpt lat="45.496374546" lon="6.965428256">
                <ele>2911.000000</ele>
                <time>2012-08-04T12:30:26Z</time>
            </trkpt>
            <trkpt lat="45.496344203" lon="6.965455916">
                <ele>2909.000000</ele>
                <time>2012-08-04T12:30:28Z</time>
            </trkpt>
            <trkpt lat="45.496287961" lon="6.965390872">
                <ele>2906.000000</ele>
                <time>2012-08-04T12:30:34Z</time>
            </trkpt>
            <trkpt lat="45.496296091" lon="6.965356925">
                <ele>2905.000000</ele>
                <time>2012-08-04T12:30:49Z</time>
            </trkpt>
            <trkpt lat="45.496295588" lon="6.965354159">
                <ele>2904.000000</ele>
                <time>2012-08-04T12:31:29Z</time>
            </trkpt>
            <trkpt lat="45.496293995" lon="6.965355920">
                <ele>2904.000000</ele>
                <time>2012-08-04T12:32:00Z</time>
            </trkpt>
            <trkpt lat="45.496289721" lon="6.965356842">
                <ele>2905.000000</ele>
                <time>2012-08-04T12:32:40Z</time>
            </trkpt>
            <trkpt lat="45.496285697" lon="6.965357764">
                <ele>2905.000000</ele>
                <time>2012-08-04T12:33:08Z</time>
            </trkpt>
            <trkpt lat="45.496276477" lon="6.965363380">
                <ele>2905.000000</ele>
                <time>2012-08-04T12:33:19Z</time>
            </trkpt>
            <trkpt lat="45.496135242" lon="6.965450048">
                <ele>2902.000000</ele>
                <time>2012-08-04T12:33:29Z</time>
            </trkpt>
            <trkpt lat="45.496109342" lon="6.965451390">
                <ele>2899.000000</ele>
                <time>2012-08-04T12:33:32Z</time>
            </trkpt>
            <trkpt lat="45.496044215" lon="6.965460526">
                <ele>2895.000000</ele>
                <time>2012-08-04T12:33:36Z</time>
            </trkpt>
            <trkpt lat="45.495959558" lon="6.965472680">
                <ele>2891.000000</ele>
                <time>2012-08-04T12:33:42Z</time>
            </trkpt>
            <trkpt lat="45.495948158" lon="6.965401098">
                <ele>2891.000000</ele>
                <time>2012-08-04T12:33:44Z</time>
            </trkpt>
            <trkpt lat="45.495938687" lon="6.965046795">
                <ele>2886.000000</ele>
                <time>2012-08-04T12:33:50Z</time>
            </trkpt>
            <trkpt lat="45.495921755" lon="6.964806570">
                <ele>2882.000000</ele>
                <time>2012-08-04T12:33:54Z</time>
            </trkpt>
            <trkpt lat="45.495915050" lon="6.964691067">
                <ele>2880.000000</ele>
                <time>2012-08-04T12:33:56Z</time>
            </trkpt>
            <trkpt lat="45.495944135" lon="6.964516221">
                <ele>2874.000000</ele>
                <time>2012-08-04T12:33:59Z</time>
            </trkpt>
            <trkpt lat="45.495981937" lon="6.964407843">
                <ele>2871.000000</ele>
                <time>2012-08-04T12:34:01Z</time>
            </trkpt>
            <trkpt lat="45.496018482" lon="6.964275073">
                <ele>2868.000000</ele>
                <time>2012-08-04T12:34:03Z</time>
            </trkpt>
            <trkpt lat="45.496020075" lon="6.964042727">
                <ele>2866.000000</ele>
                <time>2012-08-04T12:34:07Z</time>
            </trkpt>
            <trkpt lat="45.496114036" lon="6.963801999">
                <ele>2862.000000</ele>
                <time>2012-08-04T12:34:14Z</time>
            </trkpt>
            <trkpt lat="45.496156449" lon="6.963665038">
                <ele>2860.000000</ele>
                <time>2012-08-04T12:34:17Z</time>
            </trkpt>
            <trkpt lat="45.496169357" lon="6.963589014">
                <ele>2857.000000</ele>
                <time>2012-08-04T12:34:19Z</time>
            </trkpt>
            <trkpt lat="45.496206405" lon="6.963415425">
                <ele>2849.000000</ele>
                <time>2012-08-04T12:34:24Z</time>
            </trkpt>
            <trkpt lat="45.496218307" lon="6.963382233">
                <ele>2849.000000</ele>
                <time>2012-08-04T12:34:25Z</time>
            </trkpt>
            <trkpt lat="45.496402960" lon="6.963095153">
                <ele>2843.000000</ele>
                <time>2012-08-04T12:34:34Z</time>
            </trkpt>
            <trkpt lat="45.496459873" lon="6.962981326">
                <ele>2840.000000</ele>
                <time>2012-08-04T12:34:37Z</time>
            </trkpt>
            <trkpt lat="45.496453419" lon="6.962924330">
                <ele>2836.000000</ele>
                <time>2012-08-04T12:34:40Z</time>
            </trkpt>
            <trkpt lat="45.496471440" lon="6.962837661">
                <ele>2831.000000</ele>
                <time>2012-08-04T12:34:44Z</time>
            </trkpt>
            <trkpt lat="45.496492311" lon="6.962655187">
                <ele>2828.000000</ele>
                <time>2012-08-04T12:34:50Z</time>
            </trkpt>
            <trkpt lat="45.496489713" lon="6.962635992">
                <ele>2828.000000</ele>
                <time>2012-08-04T12:34:51Z</time>
            </trkpt>
            <trkpt lat="45.496457023" lon="6.962601375">
                <ele>2826.000000</ele>
                <time>2012-08-04T12:34:54Z</time>
            </trkpt>
            <trkpt lat="45.496463058" lon="6.962476485">
                <ele>2823.000000</ele>
                <time>2012-08-04T12:35:02Z</time>
            </trkpt>
            <trkpt lat="45.496461214" lon="6.962453518">
                <ele>2822.000000</ele>
                <time>2012-08-04T12:35:04Z</time>
            </trkpt>
            <trkpt lat="45.496419221" lon="6.962412195">
                <ele>2819.000000</ele>
                <time>2012-08-04T12:35:08Z</time>
            </trkpt>
            <trkpt lat="45.496388963" lon="6.962387553">
                <ele>2818.000000</ele>
                <time>2012-08-04T12:35:11Z</time>
            </trkpt>
            <trkpt lat="45.496382089" lon="6.962301722">
                <ele>2815.000000</ele>
                <time>2012-08-04T12:35:17Z</time>
            </trkpt>
            <trkpt lat="45.496374965" lon="6.962250341">
                <ele>2813.000000</ele>
                <time>2012-08-04T12:35:19Z</time>
            </trkpt>
            <trkpt lat="45.496373875" lon="6.962206923">
                <ele>2812.000000</ele>
                <time>2012-08-04T12:35:21Z</time>
            </trkpt>
            <trkpt lat="45.496373707" lon="6.962172305">
                <ele>2810.000000</ele>
                <time>2012-08-04T12:35:23Z</time>
            </trkpt>
            <trkpt lat="45.496323751" lon="6.962135928">
                <ele>2807.000000</ele>
                <time>2012-08-04T12:35:28Z</time>
            </trkpt>
            <trkpt lat="45.496287961" lon="6.962090246">
                <ele>2805.000000</ele>
                <time>2012-08-04T12:35:33Z</time>
            </trkpt>
            <trkpt lat="45.496318638" lon="6.961962003">
                <ele>2802.000000</ele>
                <time>2012-08-04T12:35:39Z</time>
            </trkpt>
            <trkpt lat="45.496327858" lon="6.961871898">
                <ele>2798.000000</ele>
                <time>2012-08-04T12:35:44Z</time>
            </trkpt>
            <trkpt lat="45.496330708" lon="6.961873826">
                <ele>2795.000000</ele>
                <time>2012-08-04T12:35:48Z</time>
            </trkpt>
            <trkpt lat="45.496333810" lon="6.961882291">
                <ele>2797.000000</ele>
                <time>2012-08-04T12:36:15Z</time>
            </trkpt>
            <trkpt lat="45.496337079" lon="6.961879693">
                <ele>2797.000000</ele>
                <time>2012-08-04T12:36:37Z</time>
            </trkpt>
            <trkpt lat="45.496336995" lon="6.961879777">
                <ele>2797.000000</ele>
                <time>2012-08-04T12:37:07Z</time>
            </trkpt>
            <trkpt lat="45.496338922" lon="6.961873993">
                <ele>2798.000000</ele>
                <time>2012-08-04T12:37:39Z</time>
            </trkpt>
            <trkpt lat="45.496339174" lon="6.961872233">
                <ele>2797.000000</ele>
                <time>2012-08-04T12:37:48Z</time>
            </trkpt>
            <trkpt lat="45.496190814" lon="6.961848596">
                <ele>2794.000000</ele>
                <time>2012-08-04T12:37:58Z</time>
            </trkpt>
            <trkpt lat="45.496155610" lon="6.961845327">
                <ele>2788.000000</ele>
                <time>2012-08-04T12:38:02Z</time>
            </trkpt>
            <trkpt lat="45.496142367" lon="6.961843567">
                <ele>2786.000000</ele>
                <time>2012-08-04T12:38:04Z</time>
            </trkpt>
            <trkpt lat="45.496113533" lon="6.961833425">
                <ele>2787.000000</ele>
                <time>2012-08-04T12:38:07Z</time>
            </trkpt>
            <trkpt lat="45.496123759" lon="6.961747007">
                <ele>2786.000000</ele>
                <time>2012-08-04T12:38:12Z</time>
            </trkpt>
            <trkpt lat="45.496140271" lon="6.961685484">
                <ele>2784.000000</ele>
                <time>2012-08-04T12:38:20Z</time>
            </trkpt>
            <trkpt lat="45.496134320" lon="6.961634941">
                <ele>2784.000000</ele>
                <time>2012-08-04T12:38:23Z</time>
            </trkpt>
            <trkpt lat="45.496096183" lon="6.961606694">
                <ele>2781.000000</ele>
                <time>2012-08-04T12:38:27Z</time>
            </trkpt>
            <trkpt lat="45.496079000" lon="6.961562187">
                <ele>2777.000000</ele>
                <time>2012-08-04T12:38:30Z</time>
            </trkpt>
            <trkpt lat="45.496040862" lon="6.961505944">
                <ele>2772.000000</ele>
                <time>2012-08-04T12:38:35Z</time>
            </trkpt>
            <trkpt lat="45.496057374" lon="6.961458586">
                <ele>2771.000000</ele>
                <time>2012-08-04T12:38:45Z</time>
            </trkpt>
            <trkpt lat="45.496062571" lon="6.961464621">
                <ele>2771.000000</ele>
                <time>2012-08-04T12:39:14Z</time>
            </trkpt>
            <trkpt lat="45.496069277" lon="6.961467303">
                <ele>2772.000000</ele>
                <time>2012-08-04T12:39:52Z</time>
            </trkpt>
            <trkpt lat="45.496074893" lon="6.961367978">
                <ele>2772.000000</ele>
                <time>2012-08-04T12:40:22Z</time>
            </trkpt>
            <trkpt lat="45.496102888" lon="6.961215930">
                <ele>2768.000000</ele>
                <time>2012-08-04T12:40:27Z</time>
            </trkpt>
            <trkpt lat="45.496115210" lon="6.961156167">
                <ele>2763.000000</ele>
                <time>2012-08-04T12:40:30Z</time>
            </trkpt>
            <trkpt lat="45.496126693" lon="6.961065140">
                <ele>2760.000000</ele>
                <time>2012-08-04T12:40:33Z</time>
            </trkpt>
            <trkpt lat="45.496108336" lon="6.960961120">
                <ele>2756.000000</ele>
                <time>2012-08-04T12:40:38Z</time>
            </trkpt>
            <trkpt lat="45.496138679" lon="6.960769175">
                <ele>2753.000000</ele>
                <time>2012-08-04T12:40:45Z</time>
            </trkpt>
            <trkpt lat="45.496137086" lon="6.960746544">
                <ele>2753.000000</ele>
                <time>2012-08-04T12:40:46Z</time>
            </trkpt>
            <trkpt lat="45.496166758" lon="6.960633052">
                <ele>2747.000000</ele>
                <time>2012-08-04T12:40:51Z</time>
            </trkpt>
            <trkpt lat="45.496179750" lon="6.960612684">
                <ele>2747.000000</ele>
                <time>2012-08-04T12:40:52Z</time>
            </trkpt>
            <trkpt lat="45.496198190" lon="6.960498439">
                <ele>2744.000000</ele>
                <time>2012-08-04T12:40:57Z</time>
            </trkpt>
            <trkpt lat="45.496207327" lon="6.960352426">
                <ele>2741.000000</ele>
                <time>2012-08-04T12:41:01Z</time>
            </trkpt>
            <trkpt lat="45.496236328" lon="6.960166767">
                <ele>2737.000000</ele>
                <time>2012-08-04T12:41:07Z</time>
            </trkpt>
            <trkpt lat="45.496252673" lon="6.960131144">
                <ele>2736.000000</ele>
                <time>2012-08-04T12:41:09Z</time>
            </trkpt>
            <trkpt lat="45.496287374" lon="6.959974486">
                <ele>2732.000000</ele>
                <time>2012-08-04T12:41:16Z</time>
            </trkpt>
            <trkpt lat="45.496326098" lon="6.959917992">
                <ele>2730.000000</ele>
                <time>2012-08-04T12:41:19Z</time>
            </trkpt>
            <trkpt lat="45.496361638" lon="6.959840711">
                <ele>2727.000000</ele>
                <time>2012-08-04T12:41:24Z</time>
            </trkpt>
            <trkpt lat="45.496371528" lon="6.959791677">
                <ele>2725.000000</ele>
                <time>2012-08-04T12:41:27Z</time>
            </trkpt>
            <trkpt lat="45.496411510" lon="6.959680785">
                <ele>2722.000000</ele>
                <time>2012-08-04T12:41:33Z</time>
            </trkpt>
            <trkpt lat="45.496422909" lon="6.959696878">
                <ele>2720.000000</ele>
                <time>2012-08-04T12:41:46Z</time>
            </trkpt>
            <trkpt lat="45.496427435" lon="6.959700147">
                <ele>2720.000000</ele>
                <time>2012-08-04T12:41:59Z</time>
            </trkpt>
            <trkpt lat="45.496431207" lon="6.959693860">
                <ele>2720.000000</ele>
                <time>2012-08-04T12:42:18Z</time>
            </trkpt>
            <trkpt lat="45.496411510" lon="6.959685730">
                <ele>2721.000000</ele>
                <time>2012-08-04T12:42:31Z</time>
            </trkpt>
            <trkpt lat="45.496407235" lon="6.959645078">
                <ele>2719.000000</ele>
                <time>2012-08-04T12:42:39Z</time>
            </trkpt>
            <trkpt lat="45.496422155" lon="6.959545081">
                <ele>2717.000000</ele>
                <time>2012-08-04T12:42:55Z</time>
            </trkpt>
            <trkpt lat="45.496408325" lon="6.959532425">
                <ele>2715.000000</ele>
                <time>2012-08-04T12:43:08Z</time>
            </trkpt>
            <trkpt lat="45.496368762" lon="6.959564863">
                <ele>2713.000000</ele>
                <time>2012-08-04T12:43:22Z</time>
            </trkpt>
            <trkpt lat="45.496350825" lon="6.959584309">
                <ele>2713.000000</ele>
                <time>2012-08-04T12:43:41Z</time>
            </trkpt>
            <trkpt lat="45.496333726" lon="6.959577184">
                <ele>2712.000000</ele>
                <time>2012-08-04T12:43:51Z</time>
            </trkpt>
            <trkpt lat="45.496338755" lon="6.959590595">
                <ele>2711.000000</ele>
                <time>2012-08-04T12:44:09Z</time>
            </trkpt>
            <trkpt lat="45.496326098" lon="6.959594786">
                <ele>2711.000000</ele>
                <time>2012-08-04T12:44:27Z</time>
            </trkpt>
            <trkpt lat="45.496319393" lon="6.959595708">
                <ele>2711.000000</ele>
                <time>2012-08-04T12:44:28Z</time>
            </trkpt>
            <trkpt lat="45.496238256" lon="6.959614987">
                <ele>2708.000000</ele>
                <time>2012-08-04T12:44:45Z</time>
            </trkpt>
            <trkpt lat="45.496210344" lon="6.959589841">
                <ele>2707.000000</ele>
                <time>2012-08-04T12:44:55Z</time>
            </trkpt>
            <trkpt lat="45.496183606" lon="6.959596965">
                <ele>2703.000000</ele>
                <time>2012-08-04T12:45:01Z</time>
            </trkpt>
            <trkpt lat="45.496157371" lon="6.959599564">
                <ele>2700.000000</ele>
                <time>2012-08-04T12:45:06Z</time>
            </trkpt>
            <trkpt lat="45.496142535" lon="6.959575340">
                <ele>2698.000000</ele>
                <time>2012-08-04T12:45:19Z</time>
            </trkpt>
            <trkpt lat="45.496132392" lon="6.959572071">
                <ele>2698.000000</ele>
                <time>2012-08-04T12:45:33Z</time>
            </trkpt>
            <trkpt lat="45.496069025" lon="6.959567377">
                <ele>2698.000000</ele>
                <time>2012-08-04T12:45:38Z</time>
            </trkpt>
            <trkpt lat="45.496031642" lon="6.959560840">
                <ele>2694.000000</ele>
                <time>2012-08-04T12:45:42Z</time>
            </trkpt>
            <trkpt lat="45.496030636" lon="6.959551871">
                <ele>2691.000000</ele>
                <time>2012-08-04T12:45:45Z</time>
            </trkpt>
            <trkpt lat="45.496030301" lon="6.959552374">
                <ele>2690.000000</ele>
                <time>2012-08-04T12:45:46Z</time>
            </trkpt>
            <trkpt lat="45.496029295" lon="6.959534939">
                <ele>2689.000000</ele>
                <time>2012-08-04T12:45:50Z</time>
            </trkpt>
            <trkpt lat="45.495972298" lon="6.959408876">
                <ele>2689.000000</ele>
                <time>2012-08-04T12:46:00Z</time>
            </trkpt>
            <trkpt lat="45.495897112" lon="6.959426142">
                <ele>2685.000000</ele>
                <time>2012-08-04T12:46:04Z</time>
            </trkpt>
            <trkpt lat="45.495857466" lon="6.959390435">
                <ele>2680.000000</ele>
                <time>2012-08-04T12:46:07Z</time>
            </trkpt>
            <trkpt lat="45.495831398" lon="6.959377946">
                <ele>2676.000000</ele>
                <time>2012-08-04T12:46:09Z</time>
            </trkpt>
            <trkpt lat="45.495792674" lon="6.959346011">
                <ele>2673.000000</ele>
                <time>2012-08-04T12:46:12Z</time>
            </trkpt>
            <trkpt lat="45.495703826" lon="6.959234867">
                <ele>2670.000000</ele>
                <time>2012-08-04T12:46:20Z</time>
            </trkpt>
            <trkpt lat="45.495623611" lon="6.959220115">
                <ele>2667.000000</ele>
                <time>2012-08-04T12:46:24Z</time>
            </trkpt>
            <trkpt lat="45.495538618" lon="6.959182648">
                <ele>2663.000000</ele>
                <time>2012-08-04T12:46:27Z</time>
            </trkpt>
            <trkpt lat="45.495425379" lon="6.959153144">
                <ele>2659.000000</ele>
                <time>2012-08-04T12:46:30Z</time>
            </trkpt>
            <trkpt lat="45.495343571" lon="6.959120706">
                <ele>2656.000000</ele>
                <time>2012-08-04T12:46:32Z</time>
            </trkpt>
            <trkpt lat="45.495297722" lon="6.959090279">
                <ele>2654.000000</ele>
                <time>2012-08-04T12:46:33Z</time>
            </trkpt>
            <trkpt lat="45.495256065" lon="6.959047783">
                <ele>2653.000000</ele>
                <time>2012-08-04T12:46:34Z</time>
            </trkpt>
            <trkpt lat="45.495177275" lon="6.958968826">
                <ele>2651.000000</ele>
                <time>2012-08-04T12:46:36Z</time>
            </trkpt>
            <trkpt lat="45.495139891" lon="6.958963797">
                <ele>2651.000000</ele>
                <time>2012-08-04T12:46:37Z</time>
            </trkpt>
            <trkpt lat="45.495107789" lon="6.958965054">
                <ele>2652.000000</ele>
                <time>2012-08-04T12:46:38Z</time>
            </trkpt>
            <trkpt lat="45.495087337" lon="6.958973603">
                <ele>2651.000000</ele>
                <time>2012-08-04T12:46:39Z</time>
            </trkpt>
            <trkpt lat="45.495081386" lon="6.958978465">
                <ele>2654.000000</ele>
                <time>2012-08-04T12:46:44Z</time>
            </trkpt>
            <trkpt lat="45.495105274" lon="6.958965138">
                <ele>2654.000000</ele>
                <time>2012-08-04T12:47:19Z</time>
            </trkpt>
            <trkpt lat="45.495099826" lon="6.958990451">
                <ele>2654.000000</ele>
                <time>2012-08-04T12:47:37Z</time>
            </trkpt>
            <trkpt lat="45.495092617" lon="6.958998833">
                <ele>2653.000000</ele>
                <time>2012-08-04T12:47:50Z</time>
            </trkpt>
            <trkpt lat="45.495093623" lon="6.958998665">
                <ele>2653.000000</ele>
                <time>2012-08-04T12:48:15Z</time>
            </trkpt>
            <trkpt lat="45.495097814" lon="6.958991541">
                <ele>2653.000000</ele>
                <time>2012-08-04T12:48:47Z</time>
            </trkpt>
            <trkpt lat="45.495092869" lon="6.958993217">
                <ele>2653.000000</ele>
                <time>2012-08-04T12:49:17Z</time>
            </trkpt>
            <trkpt lat="45.495103765" lon="6.958992295">
                <ele>2652.000000</ele>
                <time>2012-08-04T12:50:01Z</time>
            </trkpt>
            <trkpt lat="45.495103933" lon="6.958992379">
                <ele>2652.000000</ele>
                <time>2012-08-04T12:50:41Z</time>
            </trkpt>
            <trkpt lat="45.495100748" lon="6.959007718">
                <ele>2652.000000</ele>
                <time>2012-08-04T12:51:21Z</time>
            </trkpt>
            <trkpt lat="45.495097563" lon="6.958996989">
                <ele>2651.000000</ele>
                <time>2012-08-04T12:51:45Z</time>
            </trkpt>
            <trkpt lat="45.495097814" lon="6.959004533">
                <ele>2651.000000</ele>
                <time>2012-08-04T12:52:18Z</time>
            </trkpt>
            <trkpt lat="45.495095132" lon="6.958984835">
                <ele>2651.000000</ele>
                <time>2012-08-04T12:52:56Z</time>
            </trkpt>
            <trkpt lat="45.495101167" lon="6.958997240">
                <ele>2650.000000</ele>
                <time>2012-08-04T12:53:39Z</time>
            </trkpt>
            <trkpt lat="45.495103095" lon="6.958986008">
                <ele>2651.000000</ele>
                <time>2012-08-04T12:54:12Z</time>
            </trkpt>
            <trkpt lat="45.495098652" lon="6.958990702">
                <ele>2651.000000</ele>
                <time>2012-08-04T12:54:48Z</time>
            </trkpt>
            <trkpt lat="45.495088594" lon="6.958973184">
                <ele>2651.000000</ele>
                <time>2012-08-04T12:55:29Z</time>
            </trkpt>
            <trkpt lat="45.495088594" lon="6.958964132">
                <ele>2650.000000</ele>
                <time>2012-08-04T12:56:05Z</time>
            </trkpt>
            <trkpt lat="45.495084655" lon="6.958964886">
                <ele>2650.000000</ele>
                <time>2012-08-04T12:56:38Z</time>
            </trkpt>
            <trkpt lat="45.495020617" lon="6.959001683">
                <ele>2650.000000</ele>
                <time>2012-08-04T12:56:47Z</time>
            </trkpt>
            <trkpt lat="45.494855661" lon="6.959110731">
                <ele>2649.000000</ele>
                <time>2012-08-04T12:56:51Z</time>
            </trkpt>
            <trkpt lat="45.494782068" lon="6.959183738">
                <ele>2647.000000</ele>
                <time>2012-08-04T12:56:53Z</time>
            </trkpt>
            <trkpt lat="45.494678635" lon="6.959261941">
                <ele>2643.000000</ele>
                <time>2012-08-04T12:56:56Z</time>
            </trkpt>
            <trkpt lat="45.494604036" lon="6.959331594">
                <ele>2639.000000</ele>
                <time>2012-08-04T12:56:59Z</time>
            </trkpt>
            <trkpt lat="45.494529940" lon="6.959450617">
                <ele>2637.000000</ele>
                <time>2012-08-04T12:57:03Z</time>
            </trkpt>
            <trkpt lat="45.494331624" lon="6.959646754">
                <ele>2637.000000</ele>
                <time>2012-08-04T12:57:14Z</time>
            </trkpt>
            <trkpt lat="45.494171949" lon="6.959776087">
                <ele>2634.000000</ele>
                <time>2012-08-04T12:57:22Z</time>
            </trkpt>
            <trkpt lat="45.494141271" lon="6.959814392">
                <ele>2631.000000</ele>
                <time>2012-08-04T12:57:24Z</time>
            </trkpt>
            <trkpt lat="45.494130710" lon="6.959839286">
                <ele>2630.000000</ele>
                <time>2012-08-04T12:57:25Z</time>
            </trkpt>
            <trkpt lat="45.494115204" lon="6.959859822">
                <ele>2629.000000</ele>
                <time>2012-08-04T12:57:26Z</time>
            </trkpt>
            <trkpt lat="45.494094584" lon="6.959878178">
                <ele>2628.000000</ele>
                <time>2012-08-04T12:57:27Z</time>
            </trkpt>
            <trkpt lat="45.494070528" lon="6.959897624">
                <ele>2628.000000</ele>
                <time>2012-08-04T12:57:28Z</time>
            </trkpt>
            <trkpt lat="45.494038928" lon="6.959915059">
                <ele>2627.000000</ele>
                <time>2012-08-04T12:57:29Z</time>
            </trkpt>
            <trkpt lat="45.493996516" lon="6.959920926">
                <ele>2628.000000</ele>
                <time>2012-08-04T12:57:30Z</time>
            </trkpt>
            <trkpt lat="45.493955444" lon="6.959916819">
                <ele>2627.000000</ele>
                <time>2012-08-04T12:57:31Z</time>
            </trkpt>
            <trkpt lat="45.493656211" lon="6.960123433">
                <ele>2627.000000</ele>
                <time>2012-08-04T12:57:41Z</time>
            </trkpt>
            <trkpt lat="45.493557807" lon="6.960211862">
                <ele>2625.000000</ele>
                <time>2012-08-04T12:57:48Z</time>
            </trkpt>
            <trkpt lat="45.493478598" lon="6.960318815">
                <ele>2621.000000</ele>
                <time>2012-08-04T12:57:52Z</time>
            </trkpt>
            <trkpt lat="45.493299309" lon="6.960528698">
                <ele>2617.000000</ele>
                <time>2012-08-04T12:57:59Z</time>
            </trkpt>
            <trkpt lat="45.493253041" lon="6.960625928">
                <ele>2617.000000</ele>
                <time>2012-08-04T12:58:01Z</time>
            </trkpt>
            <trkpt lat="45.493163019" lon="6.960753584">
                <ele>2615.000000</ele>
                <time>2012-08-04T12:58:04Z</time>
            </trkpt>
            <trkpt lat="45.493012061" lon="6.960866656">
                <ele>2612.000000</ele>
                <time>2012-08-04T12:58:10Z</time>
            </trkpt>
            <trkpt lat="45.492856409" lon="6.960960282">
                <ele>2609.000000</ele>
                <time>2012-08-04T12:58:15Z</time>
            </trkpt>
            <trkpt lat="45.492687933" lon="6.960998084">
                <ele>2606.000000</ele>
                <time>2012-08-04T12:58:21Z</time>
            </trkpt>
            <trkpt lat="45.492542591" lon="6.961101433">
                <ele>2605.000000</ele>
                <time>2012-08-04T12:58:31Z</time>
            </trkpt>
            <trkpt lat="45.492528593" lon="6.961101266">
                <ele>2603.000000</ele>
                <time>2012-08-04T12:58:32Z</time>
            </trkpt>
            <trkpt lat="45.492517110" lon="6.961094560">
                <ele>2603.000000</ele>
                <time>2012-08-04T12:58:33Z</time>
            </trkpt>
            <trkpt lat="45.492510321" lon="6.961082658">
                <ele>2602.000000</ele>
                <time>2012-08-04T12:58:34Z</time>
            </trkpt>
            <trkpt lat="45.492509482" lon="6.961066145">
                <ele>2601.000000</ele>
                <time>2012-08-04T12:58:35Z</time>
            </trkpt>
            <trkpt lat="45.492503699" lon="6.961052148">
                <ele>2600.000000</ele>
                <time>2012-08-04T12:58:36Z</time>
            </trkpt>
            <trkpt lat="45.492493305" lon="6.961040748">
                <ele>2599.000000</ele>
                <time>2012-08-04T12:58:37Z</time>
            </trkpt>
            <trkpt lat="45.492479475" lon="6.961036306">
                <ele>2598.000000</ele>
                <time>2012-08-04T12:58:38Z</time>
            </trkpt>
            <trkpt lat="45.492465477" lon="6.961042006">
                <ele>2597.000000</ele>
                <time>2012-08-04T12:58:39Z</time>
            </trkpt>
            <trkpt lat="45.492454078" lon="6.961054243">
                <ele>2596.000000</ele>
                <time>2012-08-04T12:58:40Z</time>
            </trkpt>
            <trkpt lat="45.492441757" lon="6.961074611">
                <ele>2595.000000</ele>
                <time>2012-08-04T12:58:41Z</time>
            </trkpt>
            <trkpt lat="45.492426418" lon="6.961097326">
                <ele>2594.000000</ele>
                <time>2012-08-04T12:58:42Z</time>
            </trkpt>
            <trkpt lat="45.492409402" lon="6.961131189">
                <ele>2593.000000</ele>
                <time>2012-08-04T12:58:43Z</time>
            </trkpt>
            <trkpt lat="45.492391549" lon="6.961172344">
                <ele>2592.000000</ele>
                <time>2012-08-04T12:58:44Z</time>
            </trkpt>
            <trkpt lat="45.492365984" lon="6.961216349">
                <ele>2592.000000</ele>
                <time>2012-08-04T12:58:45Z</time>
            </trkpt>
            <trkpt lat="45.492328685" lon="6.961245351">
                <ele>2591.000000</ele>
                <time>2012-08-04T12:58:46Z</time>
            </trkpt>
            <trkpt lat="45.492290799" lon="6.961249793">
                <ele>2591.000000</ele>
                <time>2012-08-04T12:58:47Z</time>
            </trkpt>
            <trkpt lat="45.492255343" lon="6.961245854">
                <ele>2590.000000</ele>
                <time>2012-08-04T12:58:48Z</time>
            </trkpt>
            <trkpt lat="45.492220307" lon="6.961250212">
                <ele>2591.000000</ele>
                <time>2012-08-04T12:58:49Z</time>
            </trkpt>
            <trkpt lat="45.492187282" lon="6.961258594">
                <ele>2589.000000</ele>
                <time>2012-08-04T12:58:50Z</time>
            </trkpt>
            <trkpt lat="45.492099188" lon="6.961349370">
                <ele>2586.000000</ele>
                <time>2012-08-04T12:58:54Z</time>
            </trkpt>
            <trkpt lat="45.492057195" lon="6.961472668">
                <ele>2583.000000</ele>
                <time>2012-08-04T12:58:58Z</time>
            </trkpt>
            <trkpt lat="45.491985111" lon="6.961594038">
                <ele>2579.000000</ele>
                <time>2012-08-04T12:59:03Z</time>
            </trkpt>
            <trkpt lat="45.491945380" lon="6.961641563">
                <ele>2578.000000</ele>
                <time>2012-08-04T12:59:06Z</time>
            </trkpt>
            <trkpt lat="45.491873296" lon="6.961782211">
                <ele>2574.000000</ele>
                <time>2012-08-04T12:59:13Z</time>
            </trkpt>
            <trkpt lat="45.491807666" lon="6.961795371">
                <ele>2570.000000</ele>
                <time>2012-08-04T12:59:18Z</time>
            </trkpt>
            <trkpt lat="45.491753351" lon="6.961756479">
                <ele>2567.000000</ele>
                <time>2012-08-04T12:59:22Z</time>
            </trkpt>
            <trkpt lat="45.491724517" lon="6.961685652">
                <ele>2565.000000</ele>
                <time>2012-08-04T12:59:25Z</time>
            </trkpt>
            <trkpt lat="45.491617480" lon="6.961650616">
                <ele>2561.000000</ele>
                <time>2012-08-04T12:59:31Z</time>
            </trkpt>
            <trkpt lat="45.491539109" lon="6.961476523">
                <ele>2556.000000</ele>
                <time>2012-08-04T12:59:37Z</time>
            </trkpt>
            <trkpt lat="45.491493763" lon="6.961393710">
                <ele>2555.000000</ele>
                <time>2012-08-04T12:59:41Z</time>
            </trkpt>
            <trkpt lat="45.491297040" lon="6.961231856">
                <ele>2551.000000</ele>
                <time>2012-08-04T12:59:47Z</time>
            </trkpt>
            <trkpt lat="45.491187489" lon="6.961117946">
                <ele>2548.000000</ele>
                <time>2012-08-04T12:59:52Z</time>
            </trkpt>
            <trkpt lat="45.491029238" lon="6.961099003">
                <ele>2544.000000</ele>
                <time>2012-08-04T12:59:57Z</time>
            </trkpt>
            <trkpt lat="45.490938630" lon="6.961095482">
                <ele>2542.000000</ele>
                <time>2012-08-04T13:00:00Z</time>
            </trkpt>
            <trkpt lat="45.490908958" lon="6.961119287">
                <ele>2541.000000</ele>
                <time>2012-08-04T13:00:01Z</time>
            </trkpt>
            <trkpt lat="45.490815248" lon="6.961193383">
                <ele>2539.000000</ele>
                <time>2012-08-04T13:00:04Z</time>
            </trkpt>
            <trkpt lat="45.490771579" lon="6.961193131">
                <ele>2538.000000</ele>
                <time>2012-08-04T13:00:05Z</time>
            </trkpt>
            <trkpt lat="45.490733441" lon="6.961188102">
                <ele>2537.000000</ele>
                <time>2012-08-04T13:00:06Z</time>
            </trkpt>
            <trkpt lat="45.490711648" lon="6.961202603">
                <ele>2536.000000</ele>
                <time>2012-08-04T13:00:07Z</time>
            </trkpt>
            <trkpt lat="45.490699997" lon="6.961239399">
                <ele>2535.000000</ele>
                <time>2012-08-04T13:00:08Z</time>
            </trkpt>
            <trkpt lat="45.490679545" lon="6.961283404">
                <ele>2534.000000</ele>
                <time>2012-08-04T13:00:09Z</time>
            </trkpt>
            <trkpt lat="45.490648365" lon="6.961318860">
                <ele>2533.000000</ele>
                <time>2012-08-04T13:00:10Z</time>
            </trkpt>
            <trkpt lat="45.490612071" lon="6.961347777">
                <ele>2531.000000</ele>
                <time>2012-08-04T13:00:11Z</time>
            </trkpt>
            <trkpt lat="45.490574688" lon="6.961371582">
                <ele>2530.000000</ele>
                <time>2012-08-04T13:00:12Z</time>
            </trkpt>
            <trkpt lat="45.490537388" lon="6.961390693">
                <ele>2530.000000</ele>
                <time>2012-08-04T13:00:13Z</time>
            </trkpt>
            <trkpt lat="45.490302863" lon="6.961567802">
                <ele>2527.000000</ele>
                <time>2012-08-04T13:00:21Z</time>
            </trkpt>
            <trkpt lat="45.490227677" lon="6.961808614">
                <ele>2524.000000</ele>
                <time>2012-08-04T13:00:27Z</time>
            </trkpt>
            <trkpt lat="45.490178140" lon="6.961977342">
                <ele>2521.000000</ele>
                <time>2012-08-04T13:00:31Z</time>
            </trkpt>
            <trkpt lat="45.490171099" lon="6.962157721">
                <ele>2517.000000</ele>
                <time>2012-08-04T13:00:35Z</time>
            </trkpt>
            <trkpt lat="45.490169171" lon="6.962360060">
                <ele>2514.000000</ele>
                <time>2012-08-04T13:00:39Z</time>
            </trkpt>
            <trkpt lat="45.490161711" lon="6.962408088">
                <ele>2513.000000</ele>
                <time>2012-08-04T13:00:40Z</time>
            </trkpt>
            <trkpt lat="45.490145786" lon="6.962454691">
                <ele>2513.000000</ele>
                <time>2012-08-04T13:00:41Z</time>
            </trkpt>
            <trkpt lat="45.490136901" lon="6.962508587">
                <ele>2512.000000</ele>
                <time>2012-08-04T13:00:42Z</time>
            </trkpt>
            <trkpt lat="45.490132375" lon="6.962606655">
                <ele>2511.000000</ele>
                <time>2012-08-04T13:00:44Z</time>
            </trkpt>
            <trkpt lat="45.490137991" lon="6.962896418">
                <ele>2508.000000</ele>
                <time>2012-08-04T13:00:50Z</time>
            </trkpt>
            <trkpt lat="45.490138745" lon="6.962987278">
                <ele>2506.000000</ele>
                <time>2012-08-04T13:00:52Z</time>
            </trkpt>
            <trkpt lat="45.490154168" lon="6.963044778">
                <ele>2505.000000</ele>
                <time>2012-08-04T13:00:53Z</time>
            </trkpt>
            <trkpt lat="45.490164394" lon="6.963101691">
                <ele>2504.000000</ele>
                <time>2012-08-04T13:00:54Z</time>
            </trkpt>
            <trkpt lat="45.490157772" lon="6.963157095">
                <ele>2503.000000</ele>
                <time>2012-08-04T13:00:55Z</time>
            </trkpt>
            <trkpt lat="45.490145283" lon="6.963211913">
                <ele>2502.000000</ele>
                <time>2012-08-04T13:00:56Z</time>
            </trkpt>
            <trkpt lat="45.490113432" lon="6.963304868">
                <ele>2501.000000</ele>
                <time>2012-08-04T13:00:58Z</time>
            </trkpt>
            <trkpt lat="45.490075126" lon="6.963373516">
                <ele>2499.000000</ele>
                <time>2012-08-04T13:01:00Z</time>
            </trkpt>
            <trkpt lat="45.490062386" lon="6.963432189">
                <ele>2498.000000</ele>
                <time>2012-08-04T13:01:01Z</time>
            </trkpt>
            <trkpt lat="45.490055177" lon="6.963494131">
                <ele>2498.000000</ele>
                <time>2012-08-04T13:01:02Z</time>
            </trkpt>
            <trkpt lat="45.490050064" lon="6.963541657">
                <ele>2497.000000</ele>
                <time>2012-08-04T13:01:03Z</time>
            </trkpt>
            <trkpt lat="45.490043862" lon="6.963585326">
                <ele>2497.000000</ele>
                <time>2012-08-04T13:01:04Z</time>
            </trkpt>
            <trkpt lat="45.490023242" lon="6.963823456">
                <ele>2493.000000</ele>
                <time>2012-08-04T13:01:09Z</time>
            </trkpt>
            <trkpt lat="45.490052495" lon="6.964027137">
                <ele>2490.000000</ele>
                <time>2012-08-04T13:01:14Z</time>
            </trkpt>
            <trkpt lat="45.490100607" lon="6.964214305">
                <ele>2486.000000</ele>
                <time>2012-08-04T13:01:19Z</time>
            </trkpt>
            <trkpt lat="45.490111671" lon="6.964273229">
                <ele>2485.000000</ele>
                <time>2012-08-04T13:01:21Z</time>
            </trkpt>
            <trkpt lat="45.490103709" lon="6.964297202">
                <ele>2484.000000</ele>
                <time>2012-08-04T13:01:22Z</time>
            </trkpt>
            <trkpt lat="45.490090633" lon="6.964323353">
                <ele>2483.000000</ele>
                <time>2012-08-04T13:01:23Z</time>
            </trkpt>
            <trkpt lat="45.490077557" lon="6.964365430">
                <ele>2482.000000</ele>
                <time>2012-08-04T13:01:24Z</time>
            </trkpt>
            <trkpt lat="45.490060123" lon="6.964420583">
                <ele>2481.000000</ele>
                <time>2012-08-04T13:01:25Z</time>
            </trkpt>
            <trkpt lat="45.490030367" lon="6.964630047">
                <ele>2477.000000</ele>
                <time>2012-08-04T13:01:29Z</time>
            </trkpt>
            <trkpt lat="45.490014944" lon="6.964740688">
                <ele>2474.000000</ele>
                <time>2012-08-04T13:01:32Z</time>
            </trkpt>
            <trkpt lat="45.490003964" lon="6.964757536">
                <ele>2473.000000</ele>
                <time>2012-08-04T13:01:33Z</time>
            </trkpt>
            <trkpt lat="45.489997426" lon="6.964776395">
                <ele>2472.000000</ele>
                <time>2012-08-04T13:01:34Z</time>
            </trkpt>
            <trkpt lat="45.490000360" lon="6.964821741">
                <ele>2470.000000</ele>
                <time>2012-08-04T13:01:43Z</time>
            </trkpt>
            <trkpt lat="45.490002204" lon="6.964821406">
                <ele>2471.000000</ele>
                <time>2012-08-04T13:02:09Z</time>
            </trkpt>
            <trkpt lat="45.489997929" lon="6.964813443">
                <ele>2472.000000</ele>
                <time>2012-08-04T13:02:43Z</time>
            </trkpt>
            <trkpt lat="45.489997929" lon="6.964809755">
                <ele>2471.000000</ele>
                <time>2012-08-04T13:03:17Z</time>
            </trkpt>
            <trkpt lat="45.489991223" lon="6.964821070">
                <ele>2471.000000</ele>
                <time>2012-08-04T13:03:27Z</time>
            </trkpt>
            <trkpt lat="45.489976555" lon="6.964847641">
                <ele>2471.000000</ele>
                <time>2012-08-04T13:03:28Z</time>
            </trkpt>
            <trkpt lat="45.489962222" lon="6.964886868">
                <ele>2471.000000</ele>
                <time>2012-08-04T13:03:29Z</time>
            </trkpt>
            <trkpt lat="45.489938753" lon="6.965069175">
                <ele>2468.000000</ele>
                <time>2012-08-04T13:03:34Z</time>
            </trkpt>
            <trkpt lat="45.489955097" lon="6.965187108">
                <ele>2464.000000</ele>
                <time>2012-08-04T13:03:37Z</time>
            </trkpt>
            <trkpt lat="45.489953672" lon="6.965281824">
                <ele>2461.000000</ele>
                <time>2012-08-04T13:03:39Z</time>
            </trkpt>
            <trkpt lat="45.489955014" lon="6.965439487">
                <ele>2457.000000</ele>
                <time>2012-08-04T13:03:42Z</time>
            </trkpt>
            <trkpt lat="45.489945039" lon="6.965567730">
                <ele>2454.000000</ele>
                <time>2012-08-04T13:03:46Z</time>
            </trkpt>
            <trkpt lat="45.489914110" lon="6.965566808">
                <ele>2453.000000</ele>
                <time>2012-08-04T13:03:49Z</time>
            </trkpt>
            <trkpt lat="45.489849402" lon="6.965503106">
                <ele>2453.000000</ele>
                <time>2012-08-04T13:03:53Z</time>
            </trkpt>
            <trkpt lat="45.489755440" lon="6.965589188">
                <ele>2450.000000</ele>
                <time>2012-08-04T13:04:01Z</time>
            </trkpt>
            <trkpt lat="45.489689391" lon="6.965648867">
                <ele>2446.000000</ele>
                <time>2012-08-04T13:04:04Z</time>
            </trkpt>
            <trkpt lat="45.489632981" lon="6.965667978">
                <ele>2442.000000</ele>
                <time>2012-08-04T13:04:06Z</time>
            </trkpt>
            <trkpt lat="45.489593251" lon="6.965624727">
                <ele>2439.000000</ele>
                <time>2012-08-04T13:04:08Z</time>
            </trkpt>
            <trkpt lat="45.489553772" lon="6.965550631">
                <ele>2435.000000</ele>
                <time>2012-08-04T13:04:11Z</time>
            </trkpt>
            <trkpt lat="45.489511611" lon="6.965445941">
                <ele>2433.000000</ele>
                <time>2012-08-04T13:04:16Z</time>
            </trkpt>
            <trkpt lat="45.489417398" lon="6.965387938">
                <ele>2432.000000</ele>
                <time>2012-08-04T13:04:24Z</time>
            </trkpt>
            <trkpt lat="45.489323856" lon="6.965470333">
                <ele>2428.000000</ele>
                <time>2012-08-04T13:04:31Z</time>
            </trkpt>
            <trkpt lat="45.489246575" lon="6.965484749">
                <ele>2423.000000</ele>
                <time>2012-08-04T13:04:35Z</time>
            </trkpt>
            <trkpt lat="45.489210701" lon="6.965504782">
                <ele>2418.000000</ele>
                <time>2012-08-04T13:04:38Z</time>
            </trkpt>
            <trkpt lat="45.489143813" lon="6.965521546">
                <ele>2415.000000</ele>
                <time>2012-08-04T13:04:42Z</time>
            </trkpt>
            <trkpt lat="45.489100898" lon="6.965498747">
                <ele>2415.000000</ele>
                <time>2012-08-04T13:04:46Z</time>
            </trkpt>
            <trkpt lat="45.489030490" lon="6.965519451">
                <ele>2414.000000</ele>
                <time>2012-08-04T13:04:52Z</time>
            </trkpt>
            <trkpt lat="45.488993525" lon="6.965514254">
                <ele>2412.000000</ele>
                <time>2012-08-04T13:04:55Z</time>
            </trkpt>
            <trkpt lat="45.489000147" lon="6.965516601">
                <ele>2408.000000</ele>
                <time>2012-08-04T13:04:59Z</time>
            </trkpt>
            <trkpt lat="45.488996962" lon="6.965513080">
                <ele>2406.000000</ele>
                <time>2012-08-04T13:05:02Z</time>
            </trkpt>
            <trkpt lat="45.488992687" lon="6.965517439">
                <ele>2409.000000</ele>
                <time>2012-08-04T13:05:12Z</time>
            </trkpt>
            <trkpt lat="45.488993274" lon="6.965542669">
                <ele>2409.000000</ele>
                <time>2012-08-04T13:05:27Z</time>
            </trkpt>
            <trkpt lat="45.488988412" lon="6.965557588">
                <ele>2408.000000</ele>
                <time>2012-08-04T13:05:43Z</time>
            </trkpt>
            <trkpt lat="45.488860002" lon="6.965785073">
                <ele>2403.000000</ele>
                <time>2012-08-04T13:05:52Z</time>
            </trkpt>
            <trkpt lat="45.488794204" lon="6.965837963">
                <ele>2400.000000</ele>
                <time>2012-08-04T13:05:54Z</time>
            </trkpt>
            <trkpt lat="45.488762353" lon="6.965856822">
                <ele>2398.000000</ele>
                <time>2012-08-04T13:05:55Z</time>
            </trkpt>
            <trkpt lat="45.488708625" lon="6.965878448">
                <ele>2394.000000</ele>
                <time>2012-08-04T13:05:57Z</time>
            </trkpt>
            <trkpt lat="45.488659590" lon="6.965863695">
                <ele>2389.000000</ele>
                <time>2012-08-04T13:06:00Z</time>
            </trkpt>
            <trkpt lat="45.488601085" lon="6.965886075">
                <ele>2387.000000</ele>
                <time>2012-08-04T13:06:04Z</time>
            </trkpt>
            <trkpt lat="45.488464627" lon="6.965917843">
                <ele>2386.000000</ele>
                <time>2012-08-04T13:06:12Z</time>
            </trkpt>
            <trkpt lat="45.488430094" lon="6.965983305">
                <ele>2384.000000</ele>
                <time>2012-08-04T13:06:15Z</time>
            </trkpt>
            <trkpt lat="45.488421377" lon="6.966057653">
                <ele>2381.000000</ele>
                <time>2012-08-04T13:06:17Z</time>
            </trkpt>
            <trkpt lat="45.488365805" lon="6.966099311">
                <ele>2376.000000</ele>
                <time>2012-08-04T13:06:20Z</time>
            </trkpt>
            <trkpt lat="45.488323560" lon="6.966143819">
                <ele>2370.000000</ele>
                <time>2012-08-04T13:06:24Z</time>
            </trkpt>
            <trkpt lat="45.488182996" lon="6.966251107">
                <ele>2368.000000</ele>
                <time>2012-08-04T13:06:34Z</time>
            </trkpt>
            <trkpt lat="45.488166399" lon="6.966280360">
                <ele>2368.000000</ele>
                <time>2012-08-04T13:06:35Z</time>
            </trkpt>
            <trkpt lat="45.488096997" lon="6.966387900">
                <ele>2364.000000</ele>
                <time>2012-08-04T13:06:39Z</time>
            </trkpt>
            <trkpt lat="45.488053830" lon="6.966416230">
                <ele>2360.000000</ele>
                <time>2012-08-04T13:06:41Z</time>
            </trkpt>
            <trkpt lat="45.488020470" lon="6.966450764">
                <ele>2356.000000</ele>
                <time>2012-08-04T13:06:43Z</time>
            </trkpt>
            <trkpt lat="45.487970095" lon="6.966505749">
                <ele>2353.000000</ele>
                <time>2012-08-04T13:06:45Z</time>
            </trkpt>
            <trkpt lat="45.487910081" lon="6.966629298">
                <ele>2348.000000</ele>
                <time>2012-08-04T13:06:49Z</time>
            </trkpt>
            <trkpt lat="45.487763230" lon="6.966742957">
                <ele>2346.000000</ele>
                <time>2012-08-04T13:06:54Z</time>
            </trkpt>
            <trkpt lat="45.487660468" lon="6.966829291">
                <ele>2344.000000</ele>
                <time>2012-08-04T13:06:57Z</time>
            </trkpt>
            <trkpt lat="45.487653343" lon="6.966856280">
                <ele>2339.000000</ele>
                <time>2012-08-04T13:07:02Z</time>
            </trkpt>
            <trkpt lat="45.487655690" lon="6.966857202">
                <ele>2339.000000</ele>
                <time>2012-08-04T13:07:03Z</time>
            </trkpt>
            <trkpt lat="45.487655941" lon="6.966842618">
                <ele>2340.000000</ele>
                <time>2012-08-04T13:07:12Z</time>
            </trkpt>
            <trkpt lat="45.487651331" lon="6.966821663">
                <ele>2342.000000</ele>
                <time>2012-08-04T13:07:20Z</time>
            </trkpt>
            <trkpt lat="45.487479670" lon="6.966927778">
                <ele>2342.000000</ele>
                <time>2012-08-04T13:07:25Z</time>
            </trkpt>
            <trkpt lat="45.487299794" lon="6.967077646">
                <ele>2336.000000</ele>
                <time>2012-08-04T13:07:29Z</time>
            </trkpt>
            <trkpt lat="45.487245396" lon="6.967169847">
                <ele>2331.000000</ele>
                <time>2012-08-04T13:07:31Z</time>
            </trkpt>
            <trkpt lat="45.487052947" lon="6.967408061">
                <ele>2323.000000</ele>
                <time>2012-08-04T13:07:35Z</time>
            </trkpt>
            <trkpt lat="45.486960998" lon="6.967548206">
                <ele>2320.000000</ele>
                <time>2012-08-04T13:07:37Z</time>
            </trkpt>
            <trkpt lat="45.486764945" lon="6.967808213">
                <ele>2315.000000</ele>
                <time>2012-08-04T13:07:41Z</time>
            </trkpt>
            <trkpt lat="45.486729993" lon="6.967873341">
                <ele>2315.000000</ele>
                <time>2012-08-04T13:07:42Z</time>
            </trkpt>
            <trkpt lat="45.486696381" lon="6.967935367">
                <ele>2314.000000</ele>
                <time>2012-08-04T13:07:43Z</time>
            </trkpt>
            <trkpt lat="45.486666709" lon="6.967991274">
                <ele>2314.000000</ele>
                <time>2012-08-04T13:07:44Z</time>
            </trkpt>
            <trkpt lat="45.486647263" lon="6.968038045">
                <ele>2314.000000</ele>
                <time>2012-08-04T13:07:45Z</time>
            </trkpt>
            <trkpt lat="45.486637792" lon="6.968075512">
                <ele>2313.000000</ele>
                <time>2012-08-04T13:07:46Z</time>
            </trkpt>
            <trkpt lat="45.486631589" lon="6.968109291">
                <ele>2314.000000</ele>
                <time>2012-08-04T13:07:47Z</time>
            </trkpt>
            <trkpt lat="45.486622704" lon="6.968134102">
                <ele>2314.000000</ele>
                <time>2012-08-04T13:07:48Z</time>
            </trkpt>
            <trkpt lat="45.486615244" lon="6.968132257">
                <ele>2313.000000</ele>
                <time>2012-08-04T13:07:58Z</time>
            </trkpt>
            <trkpt lat="45.486619435" lon="6.968127480">
                <ele>2313.000000</ele>
                <time>2012-08-04T13:08:11Z</time>
            </trkpt>
            <trkpt lat="45.486626979" lon="6.968121109">
                <ele>2313.000000</ele>
                <time>2012-08-04T13:08:27Z</time>
            </trkpt>
            <trkpt lat="45.486617507" lon="6.968138544">
                <ele>2313.000000</ele>
                <time>2012-08-04T13:08:42Z</time>
            </trkpt>
            <trkpt lat="45.486607449" lon="6.968149524">
                <ele>2313.000000</ele>
                <time>2012-08-04T13:08:58Z</time>
            </trkpt>
            <trkpt lat="45.486610383" lon="6.968136616">
                <ele>2314.000000</ele>
                <time>2012-08-04T13:09:12Z</time>
            </trkpt>
            <trkpt lat="45.486612813" lon="6.968133934">
                <ele>2312.000000</ele>
                <time>2012-08-04T13:09:15Z</time>
            </trkpt>
            <trkpt lat="45.486619854" lon="6.968128066">
                <ele>2311.000000</ele>
                <time>2012-08-04T13:09:42Z</time>
            </trkpt>
            <trkpt lat="45.486619770" lon="6.968123457">
                <ele>2311.000000</ele>
                <time>2012-08-04T13:10:07Z</time>
            </trkpt>
            <trkpt lat="45.486618010" lon="6.968124295">
                <ele>2311.000000</ele>
                <time>2012-08-04T13:10:20Z</time>
            </trkpt>
            <trkpt lat="45.486611892" lon="6.968125636">
                <ele>2310.000000</ele>
                <time>2012-08-04T13:10:43Z</time>
            </trkpt>
            <trkpt lat="45.486617759" lon="6.968127396">
                <ele>2311.000000</ele>
                <time>2012-08-04T13:11:11Z</time>
            </trkpt>
            <trkpt lat="45.486625554" lon="6.968135945">
                <ele>2311.000000</ele>
                <time>2012-08-04T13:11:32Z</time>
            </trkpt>
            <trkpt lat="45.486628739" lon="6.968135610">
                <ele>2310.000000</ele>
                <time>2012-08-04T13:12:05Z</time>
            </trkpt>
            <trkpt lat="45.486626057" lon="6.968131754">
                <ele>2310.000000</ele>
                <time>2012-08-04T13:12:27Z</time>
            </trkpt>
            <trkpt lat="45.486625135" lon="6.968131252">
                <ele>2313.000000</ele>
                <time>2012-08-04T13:12:39Z</time>
            </trkpt>
            <trkpt lat="45.486625219" lon="6.968129659">
                <ele>2309.000000</ele>
                <time>2012-08-04T13:12:46Z</time>
            </trkpt>
            <trkpt lat="45.486627230" lon="6.968127228">
                <ele>2309.000000</ele>
                <time>2012-08-04T13:13:17Z</time>
            </trkpt>
            <trkpt lat="45.486633685" lon="6.968127312">
                <ele>2308.000000</ele>
                <time>2012-08-04T13:13:44Z</time>
            </trkpt>
            <trkpt lat="45.486637792" lon="6.968126390">
                <ele>2308.000000</ele>
                <time>2012-08-04T13:14:11Z</time>
            </trkpt>
            <trkpt lat="45.486625722" lon="6.968121193">
                <ele>2309.000000</ele>
                <time>2012-08-04T13:14:38Z</time>
            </trkpt>
            <trkpt lat="45.486628739" lon="6.968118846">
                <ele>2309.000000</ele>
                <time>2012-08-04T13:14:58Z</time>
            </trkpt>
            <trkpt lat="45.486631505" lon="6.968120858">
                <ele>2309.000000</ele>
                <time>2012-08-04T13:15:12Z</time>
            </trkpt>
            <trkpt lat="45.486642485" lon="6.968161175">
                <ele>2299.000000</ele>
                <time>2012-08-04T13:51:18Z</time>
            </trkpt>
            <trkpt lat="45.486623291" lon="6.968138292">
                <ele>2297.000000</ele>
                <time>2012-08-04T13:51:30Z</time>
            </trkpt>
            <trkpt lat="45.486625386" lon="6.968136700">
                <ele>2296.000000</ele>
                <time>2012-08-04T13:51:33Z</time>
            </trkpt>
            <trkpt lat="45.486620609" lon="6.968132174">
                <ele>2293.000000</ele>
                <time>2012-08-04T13:51:42Z</time>
            </trkpt>
            <trkpt lat="45.486620860" lon="6.968133766">
                <ele>2292.000000</ele>
                <time>2012-08-04T13:51:43Z</time>
            </trkpt>
            <trkpt lat="45.486622872" lon="6.968130330">
                <ele>2290.000000</ele>
                <time>2012-08-04T13:51:56Z</time>
            </trkpt>
            <trkpt lat="45.486636451" lon="6.968131419">
                <ele>2287.000000</ele>
                <time>2012-08-04T13:52:12Z</time>
            </trkpt>
            <trkpt lat="45.486638378" lon="6.968123959">
                <ele>2287.000000</ele>
                <time>2012-08-04T13:52:15Z</time>
            </trkpt>
            <trkpt lat="45.486639552" lon="6.968131838">
                <ele>2286.000000</ele>
                <time>2012-08-04T13:52:26Z</time>
            </trkpt>
            <trkpt lat="45.486634942" lon="6.968121361">
                <ele>2283.000000</ele>
                <time>2012-08-04T13:52:33Z</time>
            </trkpt>
            <trkpt lat="45.486627147" lon="6.968122870">
                <ele>2287.000000</ele>
                <time>2012-08-04T13:52:38Z</time>
            </trkpt>
            <trkpt lat="45.486626476" lon="6.968128402">
                <ele>2288.000000</ele>
                <time>2012-08-04T13:52:51Z</time>
            </trkpt>
            <trkpt lat="45.486633182" lon="6.968136700">
                <ele>2287.000000</ele>
                <time>2012-08-04T13:53:07Z</time>
            </trkpt>
            <trkpt lat="45.486641480" lon="6.968131671">
                <ele>2287.000000</ele>
                <time>2012-08-04T13:53:17Z</time>
            </trkpt>
            <trkpt lat="45.486638294" lon="6.968138544">
                <ele>2287.000000</ele>
                <time>2012-08-04T13:53:28Z</time>
            </trkpt>
            <trkpt lat="45.486636534" lon="6.968134269">
                <ele>2287.000000</ele>
                <time>2012-08-04T13:53:32Z</time>
            </trkpt>
            <trkpt lat="45.486661680" lon="6.968145249">
                <ele>2287.000000</ele>
                <time>2012-08-04T13:53:43Z</time>
            </trkpt>
            <trkpt lat="45.486666458" lon="6.968132677">
                <ele>2287.000000</ele>
                <time>2012-08-04T13:53:55Z</time>
            </trkpt>
            <trkpt lat="45.486681378" lon="6.968140639">
                <ele>2287.000000</ele>
                <time>2012-08-04T13:53:57Z</time>
            </trkpt>
            <trkpt lat="45.486663524" lon="6.968151284">
                <ele>2287.000000</ele>
                <time>2012-08-04T13:54:06Z</time>
            </trkpt>
            <trkpt lat="45.486656483" lon="6.968053803">
                <ele>2287.000000</ele>
                <time>2012-08-04T13:54:10Z</time>
            </trkpt>
            <trkpt lat="45.486643240" lon="6.967939977">
                <ele>2287.000000</ele>
                <time>2012-08-04T13:54:14Z</time>
            </trkpt>
            <trkpt lat="45.486566294" lon="6.967826234">
                <ele>2287.000000</ele>
                <time>2012-08-04T13:54:17Z</time>
            </trkpt>
            <trkpt lat="45.486490941" lon="6.967742583">
                <ele>2287.000000</ele>
                <time>2012-08-04T13:54:19Z</time>
            </trkpt>
            <trkpt lat="45.486460933" lon="6.967694638">
                <ele>2287.000000</ele>
                <time>2012-08-04T13:54:20Z</time>
            </trkpt>
            <trkpt lat="45.486442577" lon="6.967643844">
                <ele>2287.000000</ele>
                <time>2012-08-04T13:54:21Z</time>
            </trkpt>
            <trkpt lat="45.486436123" lon="6.967598833">
                <ele>2287.000000</ele>
                <time>2012-08-04T13:54:22Z</time>
            </trkpt>
            <trkpt lat="45.486437296" lon="6.967566982">
                <ele>2287.000000</ele>
                <time>2012-08-04T13:54:23Z</time>
            </trkpt>
            <trkpt lat="45.486404858" lon="6.967094410">
                <ele>2287.000000</ele>
                <time>2012-08-04T13:54:35Z</time>
            </trkpt>
            <trkpt lat="45.486423885" lon="6.966518406">
                <ele>2287.000000</ele>
                <time>2012-08-04T13:54:47Z</time>
            </trkpt>
            <trkpt lat="45.486378539" lon="6.965917256">
                <ele>2288.000000</ele>
                <time>2012-08-04T13:55:00Z</time>
            </trkpt>
            <trkpt lat="45.486353058" lon="6.965418030">
                <ele>2288.000000</ele>
                <time>2012-08-04T13:55:13Z</time>
            </trkpt>
            <trkpt lat="45.486363368" lon="6.965211332">
                <ele>2290.000000</ele>
                <time>2012-08-04T13:55:27Z</time>
            </trkpt>
            <trkpt lat="45.486336127" lon="6.965029025">
                <ele>2291.000000</ele>
                <time>2012-08-04T13:55:39Z</time>
            </trkpt>
            <trkpt lat="45.486332271" lon="6.964878738">
                <ele>2293.000000</ele>
                <time>2012-08-04T13:55:49Z</time>
            </trkpt>
            <trkpt lat="45.486320537" lon="6.964866919">
                <ele>2294.000000</ele>
                <time>2012-08-04T13:55:51Z</time>
            </trkpt>
            <trkpt lat="45.486318609" lon="6.964857699">
                <ele>2293.000000</ele>
                <time>2012-08-04T13:55:52Z</time>
            </trkpt>
            <trkpt lat="45.486340821" lon="6.964768684">
                <ele>2294.000000</ele>
                <time>2012-08-04T13:56:01Z</time>
            </trkpt>
            <trkpt lat="45.486353813" lon="6.964602638">
                <ele>2296.000000</ele>
                <time>2012-08-04T13:56:11Z</time>
            </trkpt>
            <trkpt lat="45.486351131" lon="6.964582773">
                <ele>2296.000000</ele>
                <time>2012-08-04T13:56:12Z</time>
            </trkpt>
            <trkpt lat="45.486349957" lon="6.964563411">
                <ele>2296.000000</ele>
                <time>2012-08-04T13:56:13Z</time>
            </trkpt>
            <trkpt lat="45.486349538" lon="6.964540612">
                <ele>2296.000000</ele>
                <time>2012-08-04T13:56:14Z</time>
            </trkpt>
            <trkpt lat="45.486348365" lon="6.964516891">
                <ele>2296.000000</ele>
                <time>2012-08-04T13:56:15Z</time>
            </trkpt>
            <trkpt lat="45.486349035" lon="6.964498451">
                <ele>2296.000000</ele>
                <time>2012-08-04T13:56:16Z</time>
            </trkpt>
            <trkpt lat="45.486310059" lon="6.964185052">
                <ele>2299.000000</ele>
                <time>2012-08-04T13:56:33Z</time>
            </trkpt>
            <trkpt lat="45.486275777" lon="6.963909958">
                <ele>2301.000000</ele>
                <time>2012-08-04T13:56:48Z</time>
            </trkpt>
            <trkpt lat="45.486253565" lon="6.963490695">
                <ele>2303.000000</ele>
                <time>2012-08-04T13:57:06Z</time>
            </trkpt>
            <trkpt lat="45.486262199" lon="6.962999431">
                <ele>2304.000000</ele>
                <time>2012-08-04T13:57:21Z</time>
            </trkpt>
            <trkpt lat="45.486231353" lon="6.962624760">
                <ele>2306.000000</ele>
                <time>2012-08-04T13:57:37Z</time>
            </trkpt>
            <trkpt lat="45.486361859" lon="6.962347319">
                <ele>2307.000000</ele>
                <time>2012-08-04T13:57:48Z</time>
            </trkpt>
            <trkpt lat="45.486364542" lon="6.962294010">
                <ele>2307.000000</ele>
                <time>2012-08-04T13:57:49Z</time>
            </trkpt>
            <trkpt lat="45.486363620" lon="6.962238774">
                <ele>2307.000000</ele>
                <time>2012-08-04T13:57:50Z</time>
            </trkpt>
            <trkpt lat="45.486357417" lon="6.962191919">
                <ele>2307.000000</ele>
                <time>2012-08-04T13:57:51Z</time>
            </trkpt>
            <trkpt lat="45.486347359" lon="6.962150009">
                <ele>2307.000000</ele>
                <time>2012-08-04T13:57:52Z</time>
            </trkpt>
            <trkpt lat="45.486361105" lon="6.961771315">
                <ele>2308.000000</ele>
                <time>2012-08-04T13:58:04Z</time>
            </trkpt>
            <trkpt lat="45.486381808" lon="6.961405193">
                <ele>2310.000000</ele>
                <time>2012-08-04T13:58:19Z</time>
            </trkpt>
            <trkpt lat="45.486393040" lon="6.960945781">
                <ele>2310.000000</ele>
                <time>2012-08-04T13:58:31Z</time>
            </trkpt>
            <trkpt lat="45.486395303" lon="6.960891131">
                <ele>2310.000000</ele>
                <time>2012-08-04T13:58:32Z</time>
            </trkpt>
            <trkpt lat="45.486425562" lon="6.960414788">
                <ele>2306.000000</ele>
                <time>2012-08-04T13:58:39Z</time>
            </trkpt>
            <trkpt lat="45.486441990" lon="6.960235080">
                <ele>2302.000000</ele>
                <time>2012-08-04T13:58:42Z</time>
            </trkpt>
            <trkpt lat="45.486441068" lon="6.960128881">
                <ele>2299.000000</ele>
                <time>2012-08-04T13:58:44Z</time>
            </trkpt>
            <trkpt lat="45.486424891" lon="6.959987981">
                <ele>2295.000000</ele>
                <time>2012-08-04T13:58:47Z</time>
            </trkpt>
            <trkpt lat="45.486414917" lon="6.959842639">
                <ele>2291.000000</ele>
                <time>2012-08-04T13:58:51Z</time>
            </trkpt>
            <trkpt lat="45.486408044" lon="6.959805759">
                <ele>2291.000000</ele>
                <time>2012-08-04T13:58:52Z</time>
            </trkpt>
            <trkpt lat="45.486459425" lon="6.959486324">
                <ele>2291.000000</ele>
                <time>2012-08-04T13:59:00Z</time>
            </trkpt>
            <trkpt lat="45.486462526" lon="6.959319189">
                <ele>2289.000000</ele>
                <time>2012-08-04T13:59:03Z</time>
            </trkpt>
            <trkpt lat="45.486436794" lon="6.959163034">
                <ele>2286.000000</ele>
                <time>2012-08-04T13:59:05Z</time>
            </trkpt>
            <trkpt lat="45.486398153" lon="6.959019704">
                <ele>2281.000000</ele>
                <time>2012-08-04T13:59:07Z</time>
            </trkpt>
            <trkpt lat="45.486365715" lon="6.958891042">
                <ele>2276.000000</ele>
                <time>2012-08-04T13:59:09Z</time>
            </trkpt>
            <trkpt lat="45.486367810" lon="6.958834715">
                <ele>2273.000000</ele>
                <time>2012-08-04T13:59:10Z</time>
            </trkpt>
            <trkpt lat="45.486379461" lon="6.958670597">
                <ele>2269.000000</ele>
                <time>2012-08-04T13:59:12Z</time>
            </trkpt>
            <trkpt lat="45.486395974" lon="6.958472701">
                <ele>2267.000000</ele>
                <time>2012-08-04T13:59:14Z</time>
            </trkpt>
            <trkpt lat="45.486407960" lon="6.958383182">
                <ele>2266.000000</ele>
                <time>2012-08-04T13:59:15Z</time>
            </trkpt>
            <trkpt lat="45.486410474" lon="6.958298692">
                <ele>2265.000000</ele>
                <time>2012-08-04T13:59:16Z</time>
            </trkpt>
            <trkpt lat="45.486407792" lon="6.958210766">
                <ele>2265.000000</ele>
                <time>2012-08-04T13:59:17Z</time>
            </trkpt>
            <trkpt lat="45.486407206" lon="6.958117476">
                <ele>2266.000000</ele>
                <time>2012-08-04T13:59:18Z</time>
            </trkpt>
            <trkpt lat="45.486407541" lon="6.958020832">
                <ele>2266.000000</ele>
                <time>2012-08-04T13:59:19Z</time>
            </trkpt>
            <trkpt lat="45.486404020" lon="6.957842549">
                <ele>2266.000000</ele>
                <time>2012-08-04T13:59:21Z</time>
            </trkpt>
            <trkpt lat="45.486411648" lon="6.957769124">
                <ele>2266.000000</ele>
                <time>2012-08-04T13:59:22Z</time>
            </trkpt>
            <trkpt lat="45.486436710" lon="6.957616657">
                <ele>2265.000000</ele>
                <time>2012-08-04T13:59:24Z</time>
            </trkpt>
            <trkpt lat="45.486439811" lon="6.957533425">
                <ele>2265.000000</ele>
                <time>2012-08-04T13:59:25Z</time>
            </trkpt>
            <trkpt lat="45.486433944" lon="6.957452623">
                <ele>2265.000000</ele>
                <time>2012-08-04T13:59:26Z</time>
            </trkpt>
            <trkpt lat="45.486398656" lon="6.957252379">
                <ele>2262.000000</ele>
                <time>2012-08-04T13:59:29Z</time>
            </trkpt>
            <trkpt lat="45.486376695" lon="6.957155401">
                <ele>2259.000000</ele>
                <time>2012-08-04T13:59:31Z</time>
            </trkpt>
            <trkpt lat="45.486376695" lon="6.957120113">
                <ele>2257.000000</ele>
                <time>2012-08-04T13:59:32Z</time>
            </trkpt>
            <trkpt lat="45.486378791" lon="6.957087508">
                <ele>2255.000000</ele>
                <time>2012-08-04T13:59:33Z</time>
            </trkpt>
            <trkpt lat="45.486376779" lon="6.957026152">
                <ele>2252.000000</ele>
                <time>2012-08-04T13:59:35Z</time>
            </trkpt>
            <trkpt lat="45.486364039" lon="6.956888689">
                <ele>2248.000000</ele>
                <time>2012-08-04T13:59:38Z</time>
            </trkpt>
            <trkpt lat="45.486370912" lon="6.956829261">
                <ele>2248.000000</ele>
                <time>2012-08-04T13:59:39Z</time>
            </trkpt>
            <trkpt lat="45.486377450" lon="6.956762373">
                <ele>2247.000000</ele>
                <time>2012-08-04T13:59:40Z</time>
            </trkpt>
            <trkpt lat="45.486375857" lon="6.956691127">
                <ele>2248.000000</ele>
                <time>2012-08-04T13:59:41Z</time>
            </trkpt>
            <trkpt lat="45.486372672" lon="6.956615439">
                <ele>2247.000000</ele>
                <time>2012-08-04T13:59:42Z</time>
            </trkpt>
            <trkpt lat="45.486365631" lon="6.956532877">
                <ele>2247.000000</ele>
                <time>2012-08-04T13:59:43Z</time>
            </trkpt>
            <trkpt lat="45.486356914" lon="6.956444783">
                <ele>2247.000000</ele>
                <time>2012-08-04T13:59:44Z</time>
            </trkpt>
            <trkpt lat="45.486351801" lon="6.956348224">
                <ele>2246.000000</ele>
                <time>2012-08-04T13:59:45Z</time>
            </trkpt>
            <trkpt lat="45.486346101" lon="6.956253173">
                <ele>2247.000000</ele>
                <time>2012-08-04T13:59:46Z</time>
            </trkpt>
            <trkpt lat="45.486333445" lon="6.956162481">
                <ele>2247.000000</ele>
                <time>2012-08-04T13:59:47Z</time>
            </trkpt>
            <trkpt lat="45.486314502" lon="6.956065837">
                <ele>2247.000000</ele>
                <time>2012-08-04T13:59:48Z</time>
            </trkpt>
            <trkpt lat="45.486304276" lon="6.955970367">
                <ele>2246.000000</ele>
                <time>2012-08-04T13:59:49Z</time>
            </trkpt>
            <trkpt lat="45.486307880" lon="6.955884118">
                <ele>2245.000000</ele>
                <time>2012-08-04T13:59:50Z</time>
            </trkpt>
            <trkpt lat="45.486318609" lon="6.955801807">
                <ele>2244.000000</ele>
                <time>2012-08-04T13:59:51Z</time>
            </trkpt>
            <trkpt lat="45.486341240" lon="6.955727292">
                <ele>2244.000000</ele>
                <time>2012-08-04T13:59:52Z</time>
            </trkpt>
            <trkpt lat="45.486367643" lon="6.955665350">
                <ele>2243.000000</ele>
                <time>2012-08-04T13:59:53Z</time>
            </trkpt>
            <trkpt lat="45.486377869" lon="6.955605336">
                <ele>2242.000000</ele>
                <time>2012-08-04T13:59:54Z</time>
            </trkpt>
            <trkpt lat="45.486358926" lon="6.955377515">
                <ele>2239.000000</ele>
                <time>2012-08-04T13:59:57Z</time>
            </trkpt>
            <trkpt lat="45.486355405" lon="6.955299564">
                <ele>2238.000000</ele>
                <time>2012-08-04T13:59:58Z</time>
            </trkpt>
            <trkpt lat="45.486359596" lon="6.955221444">
                <ele>2237.000000</ele>
                <time>2012-08-04T13:59:59Z</time>
            </trkpt>
            <trkpt lat="45.486386167" lon="6.954982141">
                <ele>2234.000000</ele>
                <time>2012-08-04T14:00:02Z</time>
            </trkpt>
            <trkpt lat="45.486406116" lon="6.954841660">
                <ele>2232.000000</ele>
                <time>2012-08-04T14:00:04Z</time>
            </trkpt>
            <trkpt lat="45.486409720" lon="6.954773599">
                <ele>2231.000000</ele>
                <time>2012-08-04T14:00:05Z</time>
            </trkpt>
            <trkpt lat="45.486424640" lon="6.954705873">
                <ele>2230.000000</ele>
                <time>2012-08-04T14:00:06Z</time>
            </trkpt>
            <trkpt lat="45.486485241" lon="6.954536056">
                <ele>2227.000000</ele>
                <time>2012-08-04T14:00:10Z</time>
            </trkpt>
            <trkpt lat="45.486490857" lon="6.954361210">
                <ele>2226.000000</ele>
                <time>2012-08-04T14:00:14Z</time>
            </trkpt>
            <trkpt lat="45.486493371" lon="6.954302788">
                <ele>2225.000000</ele>
                <time>2012-08-04T14:00:15Z</time>
            </trkpt>
            <trkpt lat="45.486568222" lon="6.953925602">
                <ele>2225.000000</ele>
                <time>2012-08-04T14:00:24Z</time>
            </trkpt>
            <trkpt lat="45.486567551" lon="6.953925183">
                <ele>2225.000000</ele>
                <time>2012-08-04T14:00:39Z</time>
            </trkpt>
            <trkpt lat="45.486629661" lon="6.953688646">
                <ele>2224.000000</ele>
                <time>2012-08-04T14:00:52Z</time>
            </trkpt>
            <trkpt lat="45.486726305" lon="6.953235520">
                <ele>2222.000000</ele>
                <time>2012-08-04T14:01:03Z</time>
            </trkpt>
            <trkpt lat="45.486723958" lon="6.953165196">
                <ele>2222.000000</ele>
                <time>2012-08-04T14:01:04Z</time>
            </trkpt>
            <trkpt lat="45.486734267" lon="6.952945758">
                <ele>2220.000000</ele>
                <time>2012-08-04T14:01:07Z</time>
            </trkpt>
            <trkpt lat="45.486743404" lon="6.952885408">
                <ele>2218.000000</ele>
                <time>2012-08-04T14:01:08Z</time>
            </trkpt>
            <trkpt lat="45.486745164" lon="6.952838218">
                <ele>2218.000000</ele>
                <time>2012-08-04T14:01:09Z</time>
            </trkpt>
            <trkpt lat="45.486769136" lon="6.952655660">
                <ele>2215.000000</ele>
                <time>2012-08-04T14:01:13Z</time>
            </trkpt>
            <trkpt lat="45.486770812" lon="6.952624647">
                <ele>2214.000000</ele>
                <time>2012-08-04T14:01:14Z</time>
            </trkpt>
            <trkpt lat="45.486762766" lon="6.952587767">
                <ele>2214.000000</ele>
                <time>2012-08-04T14:01:15Z</time>
            </trkpt>
            <trkpt lat="45.486749941" lon="6.952533871">
                <ele>2214.000000</ele>
                <time>2012-08-04T14:01:16Z</time>
            </trkpt>
            <trkpt lat="45.486741392" lon="6.952476790">
                <ele>2214.000000</ele>
                <time>2012-08-04T14:01:17Z</time>
            </trkpt>
            <trkpt lat="45.486736530" lon="6.952419626">
                <ele>2214.000000</ele>
                <time>2012-08-04T14:01:18Z</time>
            </trkpt>
            <trkpt lat="45.486735105" lon="6.952359863">
                <ele>2214.000000</ele>
                <time>2012-08-04T14:01:19Z</time>
            </trkpt>
            <trkpt lat="45.486732759" lon="6.952299681">
                <ele>2214.000000</ele>
                <time>2012-08-04T14:01:20Z</time>
            </trkpt>
            <trkpt lat="45.486728400" lon="6.952241678">
                <ele>2214.000000</ele>
                <time>2012-08-04T14:01:21Z</time>
            </trkpt>
            <trkpt lat="45.486725718" lon="6.952191470">
                <ele>2214.000000</ele>
                <time>2012-08-04T14:01:22Z</time>
            </trkpt>
            <trkpt lat="45.486712726" lon="6.952143358">
                <ele>2212.000000</ele>
                <time>2012-08-04T14:01:30Z</time>
            </trkpt>
            <trkpt lat="45.486704512" lon="6.952161212">
                <ele>2212.000000</ele>
                <time>2012-08-04T14:01:31Z</time>
            </trkpt>
            <trkpt lat="45.486695627" lon="6.952196416">
                <ele>2211.000000</ele>
                <time>2012-08-04T14:01:32Z</time>
            </trkpt>
            <trkpt lat="45.486687748" lon="6.952219801">
                <ele>2210.000000</ele>
                <time>2012-08-04T14:01:33Z</time>
            </trkpt>
            <trkpt lat="45.486678025" lon="6.952234637">
                <ele>2209.000000</ele>
                <time>2012-08-04T14:01:34Z</time>
            </trkpt>
            <trkpt lat="45.486666374" lon="6.952241762">
                <ele>2209.000000</ele>
                <time>2012-08-04T14:01:35Z</time>
            </trkpt>
            <trkpt lat="45.486653633" lon="6.952247629">
                <ele>2208.000000</ele>
                <time>2012-08-04T14:01:36Z</time>
            </trkpt>
            <trkpt lat="45.486640809" lon="6.952261627">
                <ele>2208.000000</ele>
                <time>2012-08-04T14:01:37Z</time>
            </trkpt>
            <trkpt lat="45.486619687" lon="6.952294316">
                <ele>2208.000000</ele>
                <time>2012-08-04T14:01:38Z</time>
            </trkpt>
            <trkpt lat="45.486583142" lon="6.952342177">
                <ele>2207.000000</ele>
                <time>2012-08-04T14:01:39Z</time>
            </trkpt>
            <trkpt lat="45.486530503" lon="6.952388277">
                <ele>2206.000000</ele>
                <time>2012-08-04T14:01:40Z</time>
            </trkpt>
            <trkpt lat="45.486468477" lon="6.952436892">
                <ele>2205.000000</ele>
                <time>2012-08-04T14:01:41Z</time>
            </trkpt>
            <trkpt lat="45.486403685" lon="6.952489195">
                <ele>2204.000000</ele>
                <time>2012-08-04T14:01:42Z</time>
            </trkpt>
            <trkpt lat="45.486351717" lon="6.952528674">
                <ele>2203.000000</ele>
                <time>2012-08-04T14:01:43Z</time>
            </trkpt>
            <trkpt lat="45.486325147" lon="6.952562788">
                <ele>2202.000000</ele>
                <time>2012-08-04T14:01:44Z</time>
            </trkpt>
            <trkpt lat="45.486310311" lon="6.952606961">
                <ele>2202.000000</ele>
                <time>2012-08-04T14:01:45Z</time>
            </trkpt>
            <trkpt lat="45.486300672" lon="6.952660941">
                <ele>2201.000000</ele>
                <time>2012-08-04T14:01:46Z</time>
            </trkpt>
            <trkpt lat="45.486295475" lon="6.952715004">
                <ele>2202.000000</ele>
                <time>2012-08-04T14:01:47Z</time>
            </trkpt>
            <trkpt lat="45.486292541" lon="6.952767642">
                <ele>2201.000000</ele>
                <time>2012-08-04T14:01:48Z</time>
            </trkpt>
            <trkpt lat="45.486279800" lon="6.952995043">
                <ele>2203.000000</ele>
                <time>2012-08-04T14:01:52Z</time>
            </trkpt>
            <trkpt lat="45.486264043" lon="6.953047849">
                <ele>2203.000000</ele>
                <time>2012-08-04T14:01:53Z</time>
            </trkpt>
            <trkpt lat="45.486239316" lon="6.953091100">
                <ele>2204.000000</ele>
                <time>2012-08-04T14:01:54Z</time>
            </trkpt>
            <trkpt lat="45.486209560" lon="6.953124292">
                <ele>2205.000000</ele>
                <time>2012-08-04T14:01:55Z</time>
            </trkpt>
            <trkpt lat="45.486175027" lon="6.953143403">
                <ele>2205.000000</ele>
                <time>2012-08-04T14:01:56Z</time>
            </trkpt>
            <trkpt lat="45.486138314" lon="6.953159664">
                <ele>2206.000000</ele>
                <time>2012-08-04T14:01:57Z</time>
            </trkpt>
            <trkpt lat="45.486095315" lon="6.953179697">
                <ele>2206.000000</ele>
                <time>2012-08-04T14:01:58Z</time>
            </trkpt>
            <trkpt lat="45.486046029" lon="6.953194784">
                <ele>2206.000000</ele>
                <time>2012-08-04T14:01:59Z</time>
            </trkpt>
            <trkpt lat="45.486000013" lon="6.953215403">
                <ele>2205.000000</ele>
                <time>2012-08-04T14:02:00Z</time>
            </trkpt>
            <trkpt lat="45.485964809" lon="6.953243902">
                <ele>2205.000000</ele>
                <time>2012-08-04T14:02:01Z</time>
            </trkpt>
            <trkpt lat="45.485937400" lon="6.953271562">
                <ele>2204.000000</ele>
                <time>2012-08-04T14:02:02Z</time>
            </trkpt>
            <trkpt lat="45.485917032" lon="6.953301066">
                <ele>2203.000000</ele>
                <time>2012-08-04T14:02:03Z</time>
            </trkpt>
            <trkpt lat="45.485898424" lon="6.953334594">
                <ele>2202.000000</ele>
                <time>2012-08-04T14:02:04Z</time>
            </trkpt>
            <trkpt lat="45.485872524" lon="6.953372732">
                <ele>2201.000000</ele>
                <time>2012-08-04T14:02:05Z</time>
            </trkpt>
            <trkpt lat="45.485842433" lon="6.953409612">
                <ele>2200.000000</ele>
                <time>2012-08-04T14:02:06Z</time>
            </trkpt>
            <trkpt lat="45.485775881" lon="6.953523355">
                <ele>2195.000000</ele>
                <time>2012-08-04T14:02:09Z</time>
            </trkpt>
            <trkpt lat="45.485718632" lon="6.953614466">
                <ele>2191.000000</ele>
                <time>2012-08-04T14:02:12Z</time>
            </trkpt>
            <trkpt lat="45.485688122" lon="6.953650843">
                <ele>2190.000000</ele>
                <time>2012-08-04T14:02:14Z</time>
            </trkpt>
            <trkpt lat="45.485677980" lon="6.953675905">
                <ele>2190.000000</ele>
                <time>2012-08-04T14:02:15Z</time>
            </trkpt>
            <trkpt lat="45.485639842" lon="6.953757461">
                <ele>2190.000000</ele>
                <time>2012-08-04T14:02:19Z</time>
            </trkpt>
            <trkpt lat="45.485621653" lon="6.953811105">
                <ele>2190.000000</ele>
                <time>2012-08-04T14:02:22Z</time>
            </trkpt>
            <trkpt lat="45.485572871" lon="6.953867516">
                <ele>2190.000000</ele>
                <time>2012-08-04T14:02:25Z</time>
            </trkpt>
            <trkpt lat="45.485566165" lon="6.953901043">
                <ele>2190.000000</ele>
                <time>2012-08-04T14:02:26Z</time>
            </trkpt>
            <trkpt lat="45.485563399" lon="6.953987880">
                <ele>2190.000000</ele>
                <time>2012-08-04T14:02:29Z</time>
            </trkpt>
            <trkpt lat="45.485547893" lon="6.954009589">
                <ele>2190.000000</ele>
                <time>2012-08-04T14:02:30Z</time>
            </trkpt>
            <trkpt lat="45.485530458" lon="6.954043200">
                <ele>2190.000000</ele>
                <time>2012-08-04T14:02:31Z</time>
            </trkpt>
            <trkpt lat="45.485516796" lon="6.954094917">
                <ele>2189.000000</ele>
                <time>2012-08-04T14:02:32Z</time>
            </trkpt>
            <trkpt lat="45.485500367" lon="6.954154428">
                <ele>2188.000000</ele>
                <time>2012-08-04T14:02:33Z</time>
            </trkpt>
            <trkpt lat="45.485481843" lon="6.954212179">
                <ele>2188.000000</ele>
                <time>2012-08-04T14:02:34Z</time>
            </trkpt>
            <trkpt lat="45.485430965" lon="6.954375962">
                <ele>2184.000000</ele>
                <time>2012-08-04T14:02:37Z</time>
            </trkpt>
            <trkpt lat="45.485386541" lon="6.954515688">
                <ele>2180.000000</ele>
                <time>2012-08-04T14:02:40Z</time>
            </trkpt>
            <trkpt lat="45.485373549" lon="6.954581318">
                <ele>2179.000000</ele>
                <time>2012-08-04T14:02:41Z</time>
            </trkpt>
            <trkpt lat="45.485359887" lon="6.954649380">
                <ele>2178.000000</ele>
                <time>2012-08-04T14:02:42Z</time>
            </trkpt>
            <trkpt lat="45.485313451" lon="6.954985913">
                <ele>2180.000000</ele>
                <time>2012-08-04T14:02:50Z</time>
            </trkpt>
            <trkpt lat="45.485305404" lon="6.955006365">
                <ele>2180.000000</ele>
                <time>2012-08-04T14:02:51Z</time>
            </trkpt>
            <trkpt lat="45.485293753" lon="6.955030169">
                <ele>2180.000000</ele>
                <time>2012-08-04T14:02:52Z</time>
            </trkpt>
            <trkpt lat="45.485284785" lon="6.955068391">
                <ele>2181.000000</ele>
                <time>2012-08-04T14:02:53Z</time>
            </trkpt>
            <trkpt lat="45.485271877" lon="6.955113234">
                <ele>2180.000000</ele>
                <time>2012-08-04T14:02:54Z</time>
            </trkpt>
            <trkpt lat="45.485253269" lon="6.955153048">
                <ele>2180.000000</ele>
                <time>2012-08-04T14:02:55Z</time>
            </trkpt>
            <trkpt lat="45.485228375" lon="6.955181379">
                <ele>2180.000000</ele>
                <time>2012-08-04T14:02:56Z</time>
            </trkpt>
            <trkpt lat="45.485203061" lon="6.955205016">
                <ele>2179.000000</ele>
                <time>2012-08-04T14:02:57Z</time>
            </trkpt>
            <trkpt lat="45.485185124" lon="6.955235777">
                <ele>2178.000000</ele>
                <time>2012-08-04T14:02:58Z</time>
            </trkpt>
            <trkpt lat="45.485177245" lon="6.955269640">
                <ele>2177.000000</ele>
                <time>2012-08-04T14:02:59Z</time>
            </trkpt>
            <trkpt lat="45.485175401" lon="6.955301240">
                <ele>2176.000000</ele>
                <time>2012-08-04T14:03:00Z</time>
            </trkpt>
            <trkpt lat="45.485177580" lon="6.955332756">
                <ele>2175.000000</ele>
                <time>2012-08-04T14:03:01Z</time>
            </trkpt>
            <trkpt lat="45.485182945" lon="6.955365613">
                <ele>2175.000000</ele>
                <time>2012-08-04T14:03:02Z</time>
            </trkpt>
            <trkpt lat="45.485183699" lon="6.955403415">
                <ele>2175.000000</ele>
                <time>2012-08-04T14:03:03Z</time>
            </trkpt>
            <trkpt lat="45.485178838" lon="6.955440044">
                <ele>2174.000000</ele>
                <time>2012-08-04T14:03:04Z</time>
            </trkpt>
            <trkpt lat="45.485170623" lon="6.955476003">
                <ele>2175.000000</ele>
                <time>2012-08-04T14:03:05Z</time>
            </trkpt>
            <trkpt lat="45.485165846" lon="6.955512883">
                <ele>2175.000000</ele>
                <time>2012-08-04T14:03:06Z</time>
            </trkpt>
            <trkpt lat="45.485118907" lon="6.955872718">
                <ele>2174.000000</ele>
                <time>2012-08-04T14:03:16Z</time>
            </trkpt>
            <trkpt lat="45.485086553" lon="6.955979085">
                <ele>2173.000000</ele>
                <time>2012-08-04T14:03:21Z</time>
            </trkpt>
            <trkpt lat="45.485094013" lon="6.956021916">
                <ele>2173.000000</ele>
                <time>2012-08-04T14:03:22Z</time>
            </trkpt>
            <trkpt lat="45.485102311" lon="6.956062568">
                <ele>2172.000000</ele>
                <time>2012-08-04T14:03:23Z</time>
            </trkpt>
            <trkpt lat="45.485101975" lon="6.956093246">
                <ele>2172.000000</ele>
                <time>2012-08-04T14:03:24Z</time>
            </trkpt>
            <trkpt lat="45.485091163" lon="6.956124259">
                <ele>2171.000000</ele>
                <time>2012-08-04T14:03:25Z</time>
            </trkpt>
            <trkpt lat="45.485076914" lon="6.956162984">
                <ele>2171.000000</ele>
                <time>2012-08-04T14:03:26Z</time>
            </trkpt>
            <trkpt lat="45.485063083" lon="6.956200451">
                <ele>2170.000000</ele>
                <time>2012-08-04T14:03:27Z</time>
            </trkpt>
            <trkpt lat="45.485030310" lon="6.956252838">
                <ele>2170.000000</ele>
                <time>2012-08-04T14:03:29Z</time>
            </trkpt>
            <trkpt lat="45.485007260" lon="6.956271026">
                <ele>2170.000000</ele>
                <time>2012-08-04T14:03:30Z</time>
            </trkpt>
            <trkpt lat="45.484943725" lon="6.956338082">
                <ele>2170.000000</ele>
                <time>2012-08-04T14:03:32Z</time>
            </trkpt>
            <trkpt lat="45.484911036" lon="6.956385272">
                <ele>2170.000000</ele>
                <time>2012-08-04T14:03:33Z</time>
            </trkpt>
            <trkpt lat="45.484812465" lon="6.956672519">
                <ele>2170.000000</ele>
                <time>2012-08-04T14:03:42Z</time>
            </trkpt>
            <trkpt lat="45.484803831" lon="6.956758937">
                <ele>2169.000000</ele>
                <time>2012-08-04T14:03:45Z</time>
            </trkpt>
            <trkpt lat="45.484794024" lon="6.956794811">
                <ele>2169.000000</ele>
                <time>2012-08-04T14:03:46Z</time>
            </trkpt>
            <trkpt lat="45.484756976" lon="6.956897657">
                <ele>2168.000000</ele>
                <time>2012-08-04T14:03:49Z</time>
            </trkpt>
            <trkpt lat="45.484740296" lon="6.956917355">
                <ele>2168.000000</ele>
                <time>2012-08-04T14:03:50Z</time>
            </trkpt>
            <trkpt lat="45.484721270" lon="6.956947027">
                <ele>2168.000000</ele>
                <time>2012-08-04T14:03:51Z</time>
            </trkpt>
            <trkpt lat="45.484701153" lon="6.956989439">
                <ele>2167.000000</ele>
                <time>2012-08-04T14:03:52Z</time>
            </trkpt>
            <trkpt lat="45.484682126" lon="6.957042161">
                <ele>2167.000000</ele>
                <time>2012-08-04T14:03:53Z</time>
            </trkpt>
            <trkpt lat="45.484665865" lon="6.957094297">
                <ele>2167.000000</ele>
                <time>2012-08-04T14:03:54Z</time>
            </trkpt>
            <trkpt lat="45.484653041" lon="6.957134278">
                <ele>2167.000000</ele>
                <time>2012-08-04T14:03:55Z</time>
            </trkpt>
            <trkpt lat="45.484646084" lon="6.957168141">
                <ele>2167.000000</ele>
                <time>2012-08-04T14:03:56Z</time>
            </trkpt>
            <trkpt lat="45.484642563" lon="6.957200747">
                <ele>2166.000000</ele>
                <time>2012-08-04T14:03:57Z</time>
            </trkpt>
            <trkpt lat="45.484633343" lon="6.957231257">
                <ele>2166.000000</ele>
                <time>2012-08-04T14:03:58Z</time>
            </trkpt>
            <trkpt lat="45.484613478" lon="6.957250033">
                <ele>2166.000000</ele>
                <time>2012-08-04T14:03:59Z</time>
            </trkpt>
            <trkpt lat="45.484476183" lon="6.957336115">
                <ele>2163.000000</ele>
                <time>2012-08-04T14:04:04Z</time>
            </trkpt>
            <trkpt lat="45.484403931" lon="6.957414318">
                <ele>2159.000000</ele>
                <time>2012-08-04T14:04:07Z</time>
            </trkpt>
            <trkpt lat="45.484324470" lon="6.957496125">
                <ele>2155.000000</ele>
                <time>2012-08-04T14:04:10Z</time>
            </trkpt>
            <trkpt lat="45.484214919" lon="6.957593020">
                <ele>2152.000000</ele>
                <time>2012-08-04T14:04:14Z</time>
            </trkpt>
            <trkpt lat="45.484200334" lon="6.957628224">
                <ele>2152.000000</ele>
                <time>2012-08-04T14:04:15Z</time>
            </trkpt>
            <trkpt lat="45.484182984" lon="6.957654627">
                <ele>2152.000000</ele>
                <time>2012-08-04T14:04:16Z</time>
            </trkpt>
            <trkpt lat="45.484020878" lon="6.957841627">
                <ele>2148.000000</ele>
                <time>2012-08-04T14:04:23Z</time>
            </trkpt>
            <trkpt lat="45.483930185" lon="6.957991915">
                <ele>2145.000000</ele>
                <time>2012-08-04T14:04:29Z</time>
            </trkpt>
            <trkpt lat="45.483923396" lon="6.958008008">
                <ele>2145.000000</ele>
                <time>2012-08-04T14:04:30Z</time>
            </trkpt>
            <trkpt lat="45.483910656" lon="6.958019324">
                <ele>2144.000000</ele>
                <time>2012-08-04T14:04:31Z</time>
            </trkpt>
            <trkpt lat="45.483895149" lon="6.958035501">
                <ele>2145.000000</ele>
                <time>2012-08-04T14:04:32Z</time>
            </trkpt>
            <trkpt lat="45.483881822" lon="6.958054192">
                <ele>2144.000000</ele>
                <time>2012-08-04T14:04:33Z</time>
            </trkpt>
            <trkpt lat="45.483866567" lon="6.958073471">
                <ele>2144.000000</ele>
                <time>2012-08-04T14:04:34Z</time>
            </trkpt>
            <trkpt lat="45.483853659" lon="6.958099539">
                <ele>2143.000000</ele>
                <time>2012-08-04T14:04:35Z</time>
            </trkpt>
            <trkpt lat="45.483843349" lon="6.958126863">
                <ele>2143.000000</ele>
                <time>2012-08-04T14:04:36Z</time>
            </trkpt>
            <trkpt lat="45.483827088" lon="6.958151842">
                <ele>2142.000000</ele>
                <time>2012-08-04T14:04:37Z</time>
            </trkpt>
            <trkpt lat="45.483807558" lon="6.958186040">
                <ele>2143.000000</ele>
                <time>2012-08-04T14:04:38Z</time>
            </trkpt>
            <trkpt lat="45.483788699" lon="6.958230967">
                <ele>2142.000000</ele>
                <time>2012-08-04T14:04:39Z</time>
            </trkpt>
            <trkpt lat="45.483774869" lon="6.958275726">
                <ele>2142.000000</ele>
                <time>2012-08-04T14:04:40Z</time>
            </trkpt>
            <trkpt lat="45.483766906" lon="6.958311265">
                <ele>2141.000000</ele>
                <time>2012-08-04T14:04:41Z</time>
            </trkpt>
            <trkpt lat="45.483743101" lon="6.958393156">
                <ele>2140.000000</ele>
                <time>2012-08-04T14:04:46Z</time>
            </trkpt>
            <trkpt lat="45.483725164" lon="6.958387792">
                <ele>2138.000000</ele>
                <time>2012-08-04T14:04:52Z</time>
            </trkpt>
            <trkpt lat="45.483717118" lon="6.958393324">
                <ele>2138.000000</ele>
                <time>2012-08-04T14:04:53Z</time>
            </trkpt>
            <trkpt lat="45.483694402" lon="6.958414698">
                <ele>2138.000000</ele>
                <time>2012-08-04T14:04:54Z</time>
            </trkpt>
            <trkpt lat="45.483665150" lon="6.958452081">
                <ele>2138.000000</ele>
                <time>2012-08-04T14:04:56Z</time>
            </trkpt>
            <trkpt lat="45.483651487" lon="6.958499774">
                <ele>2138.000000</ele>
                <time>2012-08-04T14:05:04Z</time>
            </trkpt>
            <trkpt lat="45.483651403" lon="6.958536236">
                <ele>2138.000000</ele>
                <time>2012-08-04T14:05:07Z</time>
            </trkpt>
            <trkpt lat="45.483651571" lon="6.958550066">
                <ele>2138.000000</ele>
                <time>2012-08-04T14:05:08Z</time>
            </trkpt>
            <trkpt lat="45.483649978" lon="6.958569847">
                <ele>2137.000000</ele>
                <time>2012-08-04T14:05:09Z</time>
            </trkpt>
            <trkpt lat="45.483645452" lon="6.958629610">
                <ele>2137.000000</ele>
                <time>2012-08-04T14:05:17Z</time>
            </trkpt>
            <trkpt lat="45.483641345" lon="6.958648218">
                <ele>2137.000000</ele>
                <time>2012-08-04T14:05:18Z</time>
            </trkpt>
            <trkpt lat="45.483624414" lon="6.958667580">
                <ele>2137.000000</ele>
                <time>2012-08-04T14:05:21Z</time>
            </trkpt>
            <trkpt lat="45.483611925" lon="6.958672106">
                <ele>2137.000000</ele>
                <time>2012-08-04T14:05:22Z</time>
            </trkpt>
            <trkpt lat="45.483596418" lon="6.958682668">
                <ele>2136.000000</ele>
                <time>2012-08-04T14:05:23Z</time>
            </trkpt>
            <trkpt lat="45.483577726" lon="6.958697336">
                <ele>2136.000000</ele>
                <time>2012-08-04T14:05:24Z</time>
            </trkpt>
            <trkpt lat="45.483554006" lon="6.958715692">
                <ele>2136.000000</ele>
                <time>2012-08-04T14:05:25Z</time>
            </trkpt>
            <trkpt lat="45.483530201" lon="6.958737401">
                <ele>2135.000000</ele>
                <time>2012-08-04T14:05:26Z</time>
            </trkpt>
            <trkpt lat="45.483511090" lon="6.958760200">
                <ele>2136.000000</ele>
                <time>2012-08-04T14:05:27Z</time>
            </trkpt>
            <trkpt lat="45.483396761" lon="6.958900178">
                <ele>2132.000000</ele>
                <time>2012-08-04T14:05:36Z</time>
            </trkpt>
            <trkpt lat="45.483361725" lon="6.958968071">
                <ele>2129.000000</ele>
                <time>2012-08-04T14:05:41Z</time>
            </trkpt>
            <trkpt lat="45.483336160" lon="6.959012495">
                <ele>2129.000000</ele>
                <time>2012-08-04T14:05:46Z</time>
            </trkpt>
            <trkpt lat="45.483327275" lon="6.959030013">
                <ele>2129.000000</ele>
                <time>2012-08-04T14:05:47Z</time>
            </trkpt>
            <trkpt lat="45.483320486" lon="6.959046107">
                <ele>2129.000000</ele>
                <time>2012-08-04T14:05:48Z</time>
            </trkpt>
            <trkpt lat="45.483315205" lon="6.959061697">
                <ele>2129.000000</ele>
                <time>2012-08-04T14:05:49Z</time>
            </trkpt>
            <trkpt lat="45.483291736" lon="6.959103271">
                <ele>2129.000000</ele>
                <time>2012-08-04T14:05:58Z</time>
            </trkpt>
            <trkpt lat="45.483247647" lon="6.959136045">
                <ele>2128.000000</ele>
                <time>2012-08-04T14:06:06Z</time>
            </trkpt>
            <trkpt lat="45.483205486" lon="6.959163370">
                <ele>2128.000000</ele>
                <time>2012-08-04T14:06:08Z</time>
            </trkpt>
            <trkpt lat="45.483182939" lon="6.959160520">
                <ele>2128.000000</ele>
                <time>2012-08-04T14:06:09Z</time>
            </trkpt>
            <trkpt lat="45.483166343" lon="6.959147696">
                <ele>2128.000000</ele>
                <time>2012-08-04T14:06:10Z</time>
            </trkpt>
            <trkpt lat="45.483154524" lon="6.959128501">
                <ele>2128.000000</ele>
                <time>2012-08-04T14:06:11Z</time>
            </trkpt>
            <trkpt lat="45.483145807" lon="6.959108384">
                <ele>2128.000000</ele>
                <time>2012-08-04T14:06:12Z</time>
            </trkpt>
            <trkpt lat="45.483136922" lon="6.959089693">
                <ele>2128.000000</ele>
                <time>2012-08-04T14:06:13Z</time>
            </trkpt>
            <trkpt lat="45.483110519" lon="6.959043341">
                <ele>2127.000000</ele>
                <time>2012-08-04T14:06:19Z</time>
            </trkpt>
            <trkpt lat="45.483084787" lon="6.958973184">
                <ele>2127.000000</ele>
                <time>2012-08-04T14:06:26Z</time>
            </trkpt>
            <trkpt lat="45.483045811" lon="6.958692474">
                <ele>2127.000000</ele>
                <time>2012-08-04T14:06:37Z</time>
            </trkpt>
            <trkpt lat="45.482952772" lon="6.958322832">
                <ele>2127.000000</ele>
                <time>2012-08-04T14:06:47Z</time>
            </trkpt>
            <trkpt lat="45.482934499" lon="6.958272541">
                <ele>2127.000000</ele>
                <time>2012-08-04T14:06:48Z</time>
            </trkpt>
            <trkpt lat="45.482918909" lon="6.958220322">
                <ele>2127.000000</ele>
                <time>2012-08-04T14:06:49Z</time>
            </trkpt>
            <trkpt lat="45.482904660" lon="6.958170617">
                <ele>2127.000000</ele>
                <time>2012-08-04T14:06:50Z</time>
            </trkpt>
            <trkpt lat="45.482899044" lon="6.958119571">
                <ele>2127.000000</ele>
                <time>2012-08-04T14:06:51Z</time>
            </trkpt>
            <trkpt lat="45.482866606" lon="6.957722856">
                <ele>2127.000000</ele>
                <time>2012-08-04T14:07:00Z</time>
            </trkpt>
            <trkpt lat="45.482766107" lon="6.957260007">
                <ele>2127.000000</ele>
                <time>2012-08-04T14:07:11Z</time>
            </trkpt>
            <trkpt lat="45.482648090" lon="6.957071582">
                <ele>2127.000000</ele>
                <time>2012-08-04T14:07:20Z</time>
            </trkpt>
            <trkpt lat="45.482652951" lon="6.957080383">
                <ele>2126.000000</ele>
                <time>2012-08-04T14:07:41Z</time>
            </trkpt>
            <trkpt lat="45.482656471" lon="6.957073845">
                <ele>2125.000000</ele>
                <time>2012-08-04T14:08:02Z</time>
            </trkpt>
            <trkpt lat="45.482647838" lon="6.957058255">
                <ele>2125.000000</ele>
                <time>2012-08-04T14:08:17Z</time>
            </trkpt>
            <trkpt lat="45.482637445" lon="6.957036043">
                <ele>2125.000000</ele>
                <time>2012-08-04T14:08:18Z</time>
            </trkpt>
            <trkpt lat="45.482623363" lon="6.957001174">
                <ele>2125.000000</ele>
                <time>2012-08-04T14:08:19Z</time>
            </trkpt>
            <trkpt lat="45.482541388" lon="6.956812246">
                <ele>2125.000000</ele>
                <time>2012-08-04T14:08:23Z</time>
            </trkpt>
            <trkpt lat="45.482377857" lon="6.956362138">
                <ele>2121.000000</ele>
                <time>2012-08-04T14:08:33Z</time>
            </trkpt>
            <trkpt lat="45.482326560" lon="6.956279324">
                <ele>2119.000000</ele>
                <time>2012-08-04T14:08:36Z</time>
            </trkpt>
            <trkpt lat="45.482256906" lon="6.956160385">
                <ele>2116.000000</ele>
                <time>2012-08-04T14:08:40Z</time>
            </trkpt>
            <trkpt lat="45.482169064" lon="6.955982940">
                <ele>2113.000000</ele>
                <time>2012-08-04T14:08:45Z</time>
            </trkpt>
            <trkpt lat="45.482065799" lon="6.955676163">
                <ele>2109.000000</ele>
                <time>2012-08-04T14:08:53Z</time>
            </trkpt>
            <trkpt lat="45.481960271" lon="6.955485307">
                <ele>2106.000000</ele>
                <time>2012-08-04T14:08:59Z</time>
            </trkpt>
            <trkpt lat="45.481862873" lon="6.955337031">
                <ele>2103.000000</ele>
                <time>2012-08-04T14:09:04Z</time>
            </trkpt>
            <trkpt lat="45.481741168" lon="6.955215074">
                <ele>2100.000000</ele>
                <time>2012-08-04T14:09:08Z</time>
            </trkpt>
            <trkpt lat="45.481702611" lon="6.955173165">
                <ele>2099.000000</ele>
                <time>2012-08-04T14:09:09Z</time>
            </trkpt>
            <trkpt lat="45.481661037" lon="6.955125388">
                <ele>2098.000000</ele>
                <time>2012-08-04T14:09:10Z</time>
            </trkpt>
            <trkpt lat="45.481547797" lon="6.954958755">
                <ele>2095.000000</ele>
                <time>2012-08-04T14:09:13Z</time>
            </trkpt>
            <trkpt lat="45.481502870" lon="6.954909638">
                <ele>2094.000000</ele>
                <time>2012-08-04T14:09:14Z</time>
            </trkpt>
            <trkpt lat="45.481458195" lon="6.954871584">
                <ele>2093.000000</ele>
                <time>2012-08-04T14:09:15Z</time>
            </trkpt>
            <trkpt lat="45.481417375" lon="6.954850880">
                <ele>2092.000000</ele>
                <time>2012-08-04T14:09:16Z</time>
            </trkpt>
            <trkpt lat="45.481326012" lon="6.954860855">
                <ele>2089.000000</ele>
                <time>2012-08-04T14:09:19Z</time>
            </trkpt>
            <trkpt lat="45.481334310" lon="6.954844762">
                <ele>2088.000000</ele>
                <time>2012-08-04T14:09:29Z</time>
            </trkpt>
            <trkpt lat="45.481347051" lon="6.954817604">
                <ele>2090.000000</ele>
                <time>2012-08-04T14:09:58Z</time>
            </trkpt>
            <trkpt lat="45.481355349" lon="6.954789944">
                <ele>2090.000000</ele>
                <time>2012-08-04T14:09:59Z</time>
            </trkpt>
            <trkpt lat="45.481369095" lon="6.954762954">
                <ele>2090.000000</ele>
                <time>2012-08-04T14:10:00Z</time>
            </trkpt>
            <trkpt lat="45.481448723" lon="6.954674860">
                <ele>2090.000000</ele>
                <time>2012-08-04T14:10:05Z</time>
            </trkpt>
            <trkpt lat="45.481447466" lon="6.954652732">
                <ele>2090.000000</ele>
                <time>2012-08-04T14:10:06Z</time>
            </trkpt>
            <trkpt lat="45.481433300" lon="6.954641752">
                <ele>2089.000000</ele>
                <time>2012-08-04T14:10:07Z</time>
            </trkpt>
            <trkpt lat="45.481411759" lon="6.954641584">
                <ele>2088.000000</ele>
                <time>2012-08-04T14:10:08Z</time>
            </trkpt>
            <trkpt lat="45.481394241" lon="6.954639154">
                <ele>2087.000000</ele>
                <time>2012-08-04T14:10:09Z</time>
            </trkpt>
            <trkpt lat="45.481387787" lon="6.954623396">
                <ele>2086.000000</ele>
                <time>2012-08-04T14:10:10Z</time>
            </trkpt>
            <trkpt lat="45.481399102" lon="6.954608476">
                <ele>2084.000000</ele>
                <time>2012-08-04T14:10:12Z</time>
            </trkpt>
            <trkpt lat="45.481416285" lon="6.954591880">
                <ele>2083.000000</ele>
                <time>2012-08-04T14:10:13Z</time>
            </trkpt>
            <trkpt lat="45.481438581" lon="6.954565393">
                <ele>2082.000000</ele>
                <time>2012-08-04T14:10:14Z</time>
            </trkpt>
            <trkpt lat="45.481494991" lon="6.954497667">
                <ele>2081.000000</ele>
                <time>2012-08-04T14:10:16Z</time>
            </trkpt>
            <trkpt lat="45.481532542" lon="6.954470845">
                <ele>2081.000000</ele>
                <time>2012-08-04T14:10:17Z</time>
            </trkpt>
            <trkpt lat="45.481564309" lon="6.954458607">
                <ele>2080.000000</ele>
                <time>2012-08-04T14:10:18Z</time>
            </trkpt>
            <trkpt lat="45.481582582" lon="6.954446789">
                <ele>2080.000000</ele>
                <time>2012-08-04T14:10:19Z</time>
            </trkpt>
            <trkpt lat="45.481581492" lon="6.954427091">
                <ele>2079.000000</ele>
                <time>2012-08-04T14:10:20Z</time>
            </trkpt>
            <trkpt lat="45.481568333" lon="6.954402449">
                <ele>2079.000000</ele>
                <time>2012-08-04T14:10:21Z</time>
            </trkpt>
            <trkpt lat="45.481549054" lon="6.954378979">
                <ele>2078.000000</ele>
                <time>2012-08-04T14:10:22Z</time>
            </trkpt>
            <trkpt lat="45.481528183" lon="6.954357689">
                <ele>2078.000000</ele>
                <time>2012-08-04T14:10:23Z</time>
            </trkpt>
            <trkpt lat="45.481480239" lon="6.954331538">
                <ele>2076.000000</ele>
                <time>2012-08-04T14:10:25Z</time>
            </trkpt>
            <trkpt lat="45.481462637" lon="6.954334807">
                <ele>2076.000000</ele>
                <time>2012-08-04T14:10:26Z</time>
            </trkpt>
            <trkpt lat="45.481449561" lon="6.954331789">
                <ele>2075.000000</ele>
                <time>2012-08-04T14:10:27Z</time>
            </trkpt>
            <trkpt lat="45.481443359" lon="6.954303374">
                <ele>2075.000000</ele>
                <time>2012-08-04T14:10:29Z</time>
            </trkpt>
            <trkpt lat="45.481451824" lon="6.954283006">
                <ele>2074.000000</ele>
                <time>2012-08-04T14:10:30Z</time>
            </trkpt>
            <trkpt lat="45.481464062" lon="6.954280240">
                <ele>2074.000000</ele>
                <time>2012-08-04T14:10:43Z</time>
            </trkpt>
            <trkpt lat="45.481466912" lon="6.954271272">
                <ele>2074.000000</ele>
                <time>2012-08-04T14:10:51Z</time>
            </trkpt>
            <trkpt lat="45.481487028" lon="6.954267500">
                <ele>2074.000000</ele>
                <time>2012-08-04T14:10:52Z</time>
            </trkpt>
            <trkpt lat="45.481506726" lon="6.954264650">
                <ele>2074.000000</ele>
                <time>2012-08-04T14:10:53Z</time>
            </trkpt>
            <trkpt lat="45.481519299" lon="6.954247467">
                <ele>2074.000000</ele>
                <time>2012-08-04T14:10:54Z</time>
            </trkpt>
            <trkpt lat="45.481523657" lon="6.954219136">
                <ele>2074.000000</ele>
                <time>2012-08-04T14:10:55Z</time>
            </trkpt>
            <trkpt lat="45.481519215" lon="6.954187453">
                <ele>2074.000000</ele>
                <time>2012-08-04T14:10:56Z</time>
            </trkpt>
            <trkpt lat="45.481505636" lon="6.954162894">
                <ele>2074.000000</ele>
                <time>2012-08-04T14:10:57Z</time>
            </trkpt>
            <trkpt lat="45.481485352" lon="6.954153087">
                <ele>2074.000000</ele>
                <time>2012-08-04T14:10:58Z</time>
            </trkpt>
            <trkpt lat="45.481462637" lon="6.954159625">
                <ele>2074.000000</ele>
                <time>2012-08-04T14:10:59Z</time>
            </trkpt>
            <trkpt lat="45.481443526" lon="6.954157110">
                <ele>2074.000000</ele>
                <time>2012-08-04T14:11:00Z</time>
            </trkpt>
            <trkpt lat="45.481435899" lon="6.954139676">
                <ele>2073.000000</ele>
                <time>2012-08-04T14:11:01Z</time>
            </trkpt>
            <trkpt lat="45.481443945" lon="6.954113860">
                <ele>2072.000000</ele>
                <time>2012-08-04T14:11:02Z</time>
            </trkpt>
            <trkpt lat="45.481505301" lon="6.954012020">
                <ele>2069.000000</ele>
                <time>2012-08-04T14:11:05Z</time>
            </trkpt>
            <trkpt lat="45.481539415" lon="6.953993663">
                <ele>2068.000000</ele>
                <time>2012-08-04T14:11:06Z</time>
            </trkpt>
            <trkpt lat="45.481559029" lon="6.953965919">
                <ele>2067.000000</ele>
                <time>2012-08-04T14:11:07Z</time>
            </trkpt>
            <trkpt lat="45.481554838" lon="6.953943623">
                <ele>2066.000000</ele>
                <time>2012-08-04T14:11:08Z</time>
            </trkpt>
            <trkpt lat="45.481519299" lon="6.953893332">
                <ele>2063.000000</ele>
                <time>2012-08-04T14:11:10Z</time>
            </trkpt>
            <trkpt lat="45.481529944" lon="6.953855781">
                <ele>2062.000000</ele>
                <time>2012-08-04T14:11:11Z</time>
            </trkpt>
            <trkpt lat="45.481560789" lon="6.953831557">
                <ele>2061.000000</ele>
                <time>2012-08-04T14:11:12Z</time>
            </trkpt>
            <trkpt lat="45.481594652" lon="6.953833904">
                <ele>2061.000000</ele>
                <time>2012-08-04T14:11:13Z</time>
            </trkpt>
            <trkpt lat="45.481625330" lon="6.953847986">
                <ele>2061.000000</ele>
                <time>2012-08-04T14:11:14Z</time>
            </trkpt>
            <trkpt lat="45.481644860" lon="6.953839855">
                <ele>2061.000000</ele>
                <time>2012-08-04T14:11:15Z</time>
            </trkpt>
            <trkpt lat="45.481646117" lon="6.953813285">
                <ele>2061.000000</ele>
                <time>2012-08-04T14:11:16Z</time>
            </trkpt>
            <trkpt lat="45.481628012" lon="6.953781433">
                <ele>2060.000000</ele>
                <time>2012-08-04T14:11:17Z</time>
            </trkpt>
            <trkpt lat="45.481612757" lon="6.953742541">
                <ele>2060.000000</ele>
                <time>2012-08-04T14:11:18Z</time>
            </trkpt>
            <trkpt lat="45.481603704" lon="6.953703985">
                <ele>2059.000000</ele>
                <time>2012-08-04T14:11:19Z</time>
            </trkpt>
            <trkpt lat="45.481587108" lon="6.953675067">
                <ele>2059.000000</ele>
                <time>2012-08-04T14:11:20Z</time>
            </trkpt>
            <trkpt lat="45.481581408" lon="6.953644641">
                <ele>2058.000000</ele>
                <time>2012-08-04T14:11:21Z</time>
            </trkpt>
            <trkpt lat="45.481588449" lon="6.953620166">
                <ele>2058.000000</ele>
                <time>2012-08-04T14:11:22Z</time>
            </trkpt>
            <trkpt lat="45.481631532" lon="6.953636175">
                <ele>2058.000000</ele>
                <time>2012-08-04T14:11:23Z</time>
            </trkpt>
            <trkpt lat="45.481661288" lon="6.953656543">
                <ele>2058.000000</ele>
                <time>2012-08-04T14:11:24Z</time>
            </trkpt>
            <trkpt lat="45.481685260" lon="6.953659225">
                <ele>2057.000000</ele>
                <time>2012-08-04T14:11:25Z</time>
            </trkpt>
            <trkpt lat="45.481694899" lon="6.953643467">
                <ele>2056.000000</ele>
                <time>2012-08-04T14:11:26Z</time>
            </trkpt>
            <trkpt lat="45.481686266" lon="6.953614047">
                <ele>2055.000000</ele>
                <time>2012-08-04T14:11:27Z</time>
            </trkpt>
            <trkpt lat="45.481674448" lon="6.953568198">
                <ele>2055.000000</ele>
                <time>2012-08-04T14:11:28Z</time>
            </trkpt>
            <trkpt lat="45.481670508" lon="6.953517655">
                <ele>2054.000000</ele>
                <time>2012-08-04T14:11:29Z</time>
            </trkpt>
            <trkpt lat="45.481662462" lon="6.953467615">
                <ele>2054.000000</ele>
                <time>2012-08-04T14:11:30Z</time>
            </trkpt>
            <trkpt lat="45.481653828" lon="6.953422353">
                <ele>2053.000000</ele>
                <time>2012-08-04T14:11:31Z</time>
            </trkpt>
            <trkpt lat="45.481659360" lon="6.953382874">
                <ele>2052.000000</ele>
                <time>2012-08-04T14:11:32Z</time>
            </trkpt>
            <trkpt lat="45.481679477" lon="6.953354543">
                <ele>2051.000000</ele>
                <time>2012-08-04T14:11:33Z</time>
            </trkpt>
            <trkpt lat="45.481697833" lon="6.953315400">
                <ele>2050.000000</ele>
                <time>2012-08-04T14:11:34Z</time>
            </trkpt>
            <trkpt lat="45.481710406" lon="6.953256894">
                <ele>2049.000000</ele>
                <time>2012-08-04T14:11:35Z</time>
            </trkpt>
            <trkpt lat="45.481726164" lon="6.953196293">
                <ele>2048.000000</ele>
                <time>2012-08-04T14:11:36Z</time>
            </trkpt>
            <trkpt lat="45.481741503" lon="6.953137871">
                <ele>2047.000000</ele>
                <time>2012-08-04T14:11:37Z</time>
            </trkpt>
            <trkpt lat="45.481770839" lon="6.953005353">
                <ele>2045.000000</ele>
                <time>2012-08-04T14:11:39Z</time>
            </trkpt>
            <trkpt lat="45.481788190" lon="6.952938801">
                <ele>2045.000000</ele>
                <time>2012-08-04T14:11:40Z</time>
            </trkpt>
            <trkpt lat="45.481805708" lon="6.952884235">
                <ele>2043.000000</ele>
                <time>2012-08-04T14:11:41Z</time>
            </trkpt>
            <trkpt lat="45.481811743" lon="6.952840649">
                <ele>2042.000000</ele>
                <time>2012-08-04T14:11:42Z</time>
            </trkpt>
            <trkpt lat="45.481811576" lon="6.952797733">
                <ele>2041.000000</ele>
                <time>2012-08-04T14:11:43Z</time>
            </trkpt>
            <trkpt lat="45.481820460" lon="6.952752974">
                <ele>2040.000000</ele>
                <time>2012-08-04T14:11:44Z</time>
            </trkpt>
            <trkpt lat="45.481860107" lon="6.952621294">
                <ele>2036.000000</ele>
                <time>2012-08-04T14:11:47Z</time>
            </trkpt>
            <trkpt lat="45.481860526" lon="6.952572428">
                <ele>2035.000000</ele>
                <time>2012-08-04T14:11:48Z</time>
            </trkpt>
            <trkpt lat="45.481866309" lon="6.952524064">
                <ele>2034.000000</ele>
                <time>2012-08-04T14:11:49Z</time>
            </trkpt>
            <trkpt lat="45.481872009" lon="6.952477712">
                <ele>2033.000000</ele>
                <time>2012-08-04T14:11:50Z</time>
            </trkpt>
            <trkpt lat="45.481879301" lon="6.952431025">
                <ele>2032.000000</ele>
                <time>2012-08-04T14:11:51Z</time>
            </trkpt>
            <trkpt lat="45.481889444" lon="6.952381320">
                <ele>2031.000000</ele>
                <time>2012-08-04T14:11:52Z</time>
            </trkpt>
            <trkpt lat="45.481897490" lon="6.952319881">
                <ele>2031.000000</ele>
                <time>2012-08-04T14:11:54Z</time>
            </trkpt>
            <trkpt lat="45.481919367" lon="6.952169007">
                <ele>2029.000000</ele>
                <time>2012-08-04T14:11:57Z</time>
            </trkpt>
            <trkpt lat="45.481940824" lon="6.952060377">
                <ele>2025.000000</ele>
                <time>2012-08-04T14:12:01Z</time>
            </trkpt>
            <trkpt lat="45.481962785" lon="6.951950155">
                <ele>2023.000000</ele>
                <time>2012-08-04T14:12:04Z</time>
            </trkpt>
            <trkpt lat="45.481984410" lon="6.951922076">
                <ele>2022.000000</ele>
                <time>2012-08-04T14:12:05Z</time>
            </trkpt>
            <trkpt lat="45.482009137" lon="6.951903468">
                <ele>2022.000000</ele>
                <time>2012-08-04T14:12:06Z</time>
            </trkpt>
            <trkpt lat="45.482036043" lon="6.951879160">
                <ele>2022.000000</ele>
                <time>2012-08-04T14:12:07Z</time>
            </trkpt>
            <trkpt lat="45.482059848" lon="6.951849572">
                <ele>2021.000000</ele>
                <time>2012-08-04T14:12:08Z</time>
            </trkpt>
            <trkpt lat="45.482080383" lon="6.951813949">
                <ele>2020.000000</ele>
                <time>2012-08-04T14:12:09Z</time>
            </trkpt>
            <trkpt lat="45.482099745" lon="6.951773046">
                <ele>2019.000000</ele>
                <time>2012-08-04T14:12:10Z</time>
            </trkpt>
            <trkpt lat="45.482145175" lon="6.951706326">
                <ele>2017.000000</ele>
                <time>2012-08-04T14:12:12Z</time>
            </trkpt>
            <trkpt lat="45.482169986" lon="6.951696184">
                <ele>2016.000000</ele>
                <time>2012-08-04T14:12:13Z</time>
            </trkpt>
            <trkpt lat="45.482190521" lon="6.951688975">
                <ele>2016.000000</ele>
                <time>2012-08-04T14:12:14Z</time>
            </trkpt>
            <trkpt lat="45.482202759" lon="6.951673133">
                <ele>2015.000000</ele>
                <time>2012-08-04T14:12:15Z</time>
            </trkpt>
            <trkpt lat="45.482211309" lon="6.951640863">
                <ele>2014.000000</ele>
                <time>2012-08-04T14:12:16Z</time>
            </trkpt>
            <trkpt lat="45.482222792" lon="6.951601636">
                <ele>2013.000000</ele>
                <time>2012-08-04T14:12:17Z</time>
            </trkpt>
            <trkpt lat="45.482238634" lon="6.951578585">
                <ele>2012.000000</ele>
                <time>2012-08-04T14:12:18Z</time>
            </trkpt>
            <trkpt lat="45.482259253" lon="6.951567940">
                <ele>2012.000000</ele>
                <time>2012-08-04T14:12:19Z</time>
            </trkpt>
            <trkpt lat="45.482278615" lon="6.951552518">
                <ele>2011.000000</ele>
                <time>2012-08-04T14:12:20Z</time>
            </trkpt>
            <trkpt lat="45.482293367" lon="6.951527037">
                <ele>2010.000000</ele>
                <time>2012-08-04T14:12:21Z</time>
            </trkpt>
            <trkpt lat="45.482299821" lon="6.951494850">
                <ele>2010.000000</ele>
                <time>2012-08-04T14:12:22Z</time>
            </trkpt>
            <trkpt lat="45.482298732" lon="6.951458221">
                <ele>2009.000000</ele>
                <time>2012-08-04T14:12:23Z</time>
            </trkpt>
            <trkpt lat="45.482303007" lon="6.951417234">
                <ele>2009.000000</ele>
                <time>2012-08-04T14:12:24Z</time>
            </trkpt>
            <trkpt lat="45.482317591" lon="6.951383287">
                <ele>2009.000000</ele>
                <time>2012-08-04T14:12:25Z</time>
            </trkpt>
            <trkpt lat="45.482336618" lon="6.951347412">
                <ele>2008.000000</ele>
                <time>2012-08-04T14:12:26Z</time>
            </trkpt>
            <trkpt lat="45.482381797" lon="6.951191677">
                <ele>2004.000000</ele>
                <time>2012-08-04T14:12:30Z</time>
            </trkpt>
            <trkpt lat="45.482396884" lon="6.951151360">
                <ele>2004.000000</ele>
                <time>2012-08-04T14:12:31Z</time>
            </trkpt>
            <trkpt lat="45.482406104" lon="6.951107858">
                <ele>2002.000000</ele>
                <time>2012-08-04T14:12:32Z</time>
            </trkpt>
            <trkpt lat="45.482402919" lon="6.951072486">
                <ele>2002.000000</ele>
                <time>2012-08-04T14:12:33Z</time>
            </trkpt>
            <trkpt lat="45.482383641" lon="6.951057818">
                <ele>1999.000000</ele>
                <time>2012-08-04T14:12:36Z</time>
            </trkpt>
            <trkpt lat="45.482386574" lon="6.951052034">
                <ele>2002.000000</ele>
                <time>2012-08-04T14:12:49Z</time>
            </trkpt>
            <trkpt lat="45.482374504" lon="6.951064439">
                <ele>2001.000000</ele>
                <time>2012-08-04T14:13:00Z</time>
            </trkpt>
            <trkpt lat="45.482356902" lon="6.951057482">
                <ele>2001.000000</ele>
                <time>2012-08-04T14:13:01Z</time>
            </trkpt>
            <trkpt lat="45.482293451" lon="6.951031582">
                <ele>2000.000000</ele>
                <time>2012-08-04T14:13:03Z</time>
            </trkpt>
            <trkpt lat="45.482160766" lon="6.951015154">
                <ele>1997.000000</ele>
                <time>2012-08-04T14:13:07Z</time>
            </trkpt>
            <trkpt lat="45.482096141" lon="6.951040216">
                <ele>1994.000000</ele>
                <time>2012-08-04T14:13:10Z</time>
            </trkpt>
            <trkpt lat="45.482116928" lon="6.950900573">
                <ele>1991.000000</ele>
                <time>2012-08-04T14:13:14Z</time>
            </trkpt>
            <trkpt lat="45.482129501" lon="6.950832596">
                <ele>1991.000000</ele>
                <time>2012-08-04T14:13:17Z</time>
            </trkpt>
            <trkpt lat="45.482100500" lon="6.950823627">
                <ele>1990.000000</ele>
                <time>2012-08-04T14:13:19Z</time>
            </trkpt>
            <trkpt lat="45.482065799" lon="6.950750789">
                <ele>1990.000000</ele>
                <time>2012-08-04T14:13:24Z</time>
            </trkpt>
            <trkpt lat="45.482243830" lon="6.950458512">
                <ele>1986.000000</ele>
                <time>2012-08-04T14:13:32Z</time>
            </trkpt>
            <trkpt lat="45.482331505" lon="6.950301519">
                <ele>1981.000000</ele>
                <time>2012-08-04T14:13:35Z</time>
            </trkpt>
            <trkpt lat="45.482385568" lon="6.950191213">
                <ele>1979.000000</ele>
                <time>2012-08-04T14:13:37Z</time>
            </trkpt>
            <trkpt lat="45.482414654" lon="6.950145196">
                <ele>1977.000000</ele>
                <time>2012-08-04T14:13:38Z</time>
            </trkpt>
            <trkpt lat="45.482451701" lon="6.950110579">
                <ele>1976.000000</ele>
                <time>2012-08-04T14:13:39Z</time>
            </trkpt>
            <trkpt lat="45.482498976" lon="6.950076213">
                <ele>1974.000000</ele>
                <time>2012-08-04T14:13:43Z</time>
            </trkpt>
            <trkpt lat="45.482502496" lon="6.950072525">
                <ele>1975.000000</ele>
                <time>2012-08-04T14:13:47Z</time>
            </trkpt>
            <trkpt lat="45.482517248" lon="6.950058276">
                <ele>1975.000000</ele>
                <time>2012-08-04T14:13:48Z</time>
            </trkpt>
            <trkpt lat="45.482592015" lon="6.949965572">
                <ele>1977.000000</ele>
                <time>2012-08-04T14:13:52Z</time>
            </trkpt>
            <trkpt lat="45.482599475" lon="6.949937241">
                <ele>1977.000000</ele>
                <time>2012-08-04T14:13:53Z</time>
            </trkpt>
            <trkpt lat="45.482613724" lon="6.949898098">
                <ele>1977.000000</ele>
                <time>2012-08-04T14:13:54Z</time>
            </trkpt>
            <trkpt lat="45.482631661" lon="6.949856607">
                <ele>1977.000000</ele>
                <time>2012-08-04T14:13:55Z</time>
            </trkpt>
            <trkpt lat="45.482646581" lon="6.949813273">
                <ele>1977.000000</ele>
                <time>2012-08-04T14:13:56Z</time>
            </trkpt>
            <trkpt lat="45.482690670" lon="6.949720234">
                <ele>1974.000000</ele>
                <time>2012-08-04T14:13:58Z</time>
            </trkpt>
            <trkpt lat="45.482750935" lon="6.949630547">
                <ele>1971.000000</ele>
                <time>2012-08-04T14:14:00Z</time>
            </trkpt>
            <trkpt lat="45.482829809" lon="6.949506327">
                <ele>1968.000000</ele>
                <time>2012-08-04T14:14:03Z</time>
            </trkpt>
            <trkpt lat="45.482874233" lon="6.949396692">
                <ele>1965.000000</ele>
                <time>2012-08-04T14:14:06Z</time>
            </trkpt>
            <trkpt lat="45.482894015" lon="6.949304910">
                <ele>1963.000000</ele>
                <time>2012-08-04T14:14:16Z</time>
            </trkpt>
            <trkpt lat="45.482924609" lon="6.949020345">
                <ele>1962.000000</ele>
                <time>2012-08-04T14:14:26Z</time>
            </trkpt>
            <trkpt lat="45.482959896" lon="6.948956642">
                <ele>1959.000000</ele>
                <time>2012-08-04T14:14:30Z</time>
            </trkpt>
            <trkpt lat="45.482985042" lon="6.948945411">
                <ele>1957.000000</ele>
                <time>2012-08-04T14:14:32Z</time>
            </trkpt>
            <trkpt lat="45.482996609" lon="6.948930156">
                <ele>1955.000000</ele>
                <time>2012-08-04T14:14:33Z</time>
            </trkpt>
            <trkpt lat="45.483010188" lon="6.948908446">
                <ele>1954.000000</ele>
                <time>2012-08-04T14:14:34Z</time>
            </trkpt>
            <trkpt lat="45.483019911" lon="6.948885312">
                <ele>1954.000000</ele>
                <time>2012-08-04T14:14:35Z</time>
            </trkpt>
            <trkpt lat="45.483024772" lon="6.948863603">
                <ele>1953.000000</ele>
                <time>2012-08-04T14:14:36Z</time>
            </trkpt>
            <trkpt lat="45.483027371" lon="6.948840972">
                <ele>1952.000000</ele>
                <time>2012-08-04T14:14:37Z</time>
            </trkpt>
            <trkpt lat="45.483033322" lon="6.948821023">
                <ele>1951.000000</ele>
                <time>2012-08-04T14:14:38Z</time>
            </trkpt>
            <trkpt lat="45.483031645" lon="6.948786993">
                <ele>1950.000000</ele>
                <time>2012-08-04T14:14:40Z</time>
            </trkpt>
            <trkpt lat="45.483004404" lon="6.948700491">
                <ele>1950.000000</ele>
                <time>2012-08-04T14:14:45Z</time>
            </trkpt>
            <trkpt lat="45.483008847" lon="6.948609548">
                <ele>1949.000000</ele>
                <time>2012-08-04T14:14:55Z</time>
            </trkpt>
            <trkpt lat="45.483018821" lon="6.948559675">
                <ele>1946.000000</ele>
                <time>2012-08-04T14:14:59Z</time>
            </trkpt>
            <trkpt lat="45.483008511" lon="6.948549030">
                <ele>1942.000000</ele>
                <time>2012-08-04T14:15:03Z</time>
            </trkpt>
            <trkpt lat="45.483004656" lon="6.948550204">
                <ele>1942.000000</ele>
                <time>2012-08-04T14:15:04Z</time>
            </trkpt>
            <trkpt lat="45.482997699" lon="6.948549868">
                <ele>1943.000000</ele>
                <time>2012-08-04T14:15:23Z</time>
            </trkpt>
            <trkpt lat="45.482985880" lon="6.948512485">
                <ele>1943.000000</ele>
                <time>2012-08-04T14:15:35Z</time>
            </trkpt>
            <trkpt lat="45.483039944" lon="6.948367646">
                <ele>1940.000000</ele>
                <time>2012-08-04T14:15:49Z</time>
            </trkpt>
            <trkpt lat="45.483063078" lon="6.948338142">
                <ele>1937.000000</ele>
                <time>2012-08-04T14:15:55Z</time>
            </trkpt>
            <trkpt lat="45.483072046" lon="6.948319366">
                <ele>1935.000000</ele>
                <time>2012-08-04T14:15:59Z</time>
            </trkpt>
            <trkpt lat="45.483065173" lon="6.948305620">
                <ele>1936.000000</ele>
                <time>2012-08-04T14:16:00Z</time>
            </trkpt>
            <trkpt lat="45.483064754" lon="6.948287850">
                <ele>1934.000000</ele>
                <time>2012-08-04T14:16:01Z</time>
            </trkpt>
            <trkpt lat="45.483070118" lon="6.948269578">
                <ele>1935.000000</ele>
                <time>2012-08-04T14:16:02Z</time>
            </trkpt>
            <trkpt lat="45.483079590" lon="6.948249461">
                <ele>1934.000000</ele>
                <time>2012-08-04T14:16:03Z</time>
            </trkpt>
            <trkpt lat="45.483093169" lon="6.948225824">
                <ele>1934.000000</ele>
                <time>2012-08-04T14:16:04Z</time>
            </trkpt>
            <trkpt lat="45.483201211" lon="6.948019462">
                <ele>1930.000000</ele>
                <time>2012-08-04T14:16:13Z</time>
            </trkpt>
            <trkpt lat="45.483209342" lon="6.947940756">
                <ele>1929.000000</ele>
                <time>2012-08-04T14:16:19Z</time>
            </trkpt>
            <trkpt lat="45.483206241" lon="6.947912676">
                <ele>1928.000000</ele>
                <time>2012-08-04T14:16:22Z</time>
            </trkpt>
            <trkpt lat="45.483217305" lon="6.947886525">
                <ele>1928.000000</ele>
                <time>2012-08-04T14:16:24Z</time>
            </trkpt>
            <trkpt lat="45.483227950" lon="6.947868085">
                <ele>1928.000000</ele>
                <time>2012-08-04T14:16:25Z</time>
            </trkpt>
            <trkpt lat="45.483259717" lon="6.947850902">
                <ele>1928.000000</ele>
                <time>2012-08-04T14:16:27Z</time>
            </trkpt>
            <trkpt lat="45.483264830" lon="6.947770100">
                <ele>1927.000000</ele>
                <time>2012-08-04T14:16:32Z</time>
            </trkpt>
            <trkpt lat="45.483257119" lon="6.947746212">
                <ele>1927.000000</ele>
                <time>2012-08-04T14:16:33Z</time>
            </trkpt>
            <trkpt lat="45.483264579" lon="6.947722742">
                <ele>1927.000000</ele>
                <time>2012-08-04T14:16:34Z</time>
            </trkpt>
            <trkpt lat="45.483280504" lon="6.947696088">
                <ele>1926.000000</ele>
                <time>2012-08-04T14:16:35Z</time>
            </trkpt>
            <trkpt lat="45.483344123" lon="6.947599109">
                <ele>1922.000000</ele>
                <time>2012-08-04T14:16:40Z</time>
            </trkpt>
            <trkpt lat="45.483340686" lon="6.947571449">
                <ele>1919.000000</ele>
                <time>2012-08-04T14:16:43Z</time>
            </trkpt>
            <trkpt lat="45.483323000" lon="6.947573712">
                <ele>1918.000000</ele>
                <time>2012-08-04T14:16:44Z</time>
            </trkpt>
            <trkpt lat="45.483298274" lon="6.947577568">
                <ele>1917.000000</ele>
                <time>2012-08-04T14:16:45Z</time>
            </trkpt>
            <trkpt lat="45.483270530" lon="6.947576562">
                <ele>1917.000000</ele>
                <time>2012-08-04T14:16:46Z</time>
            </trkpt>
            <trkpt lat="45.483243372" lon="6.947573461">
                <ele>1918.000000</ele>
                <time>2012-08-04T14:16:47Z</time>
            </trkpt>
            <trkpt lat="45.483217472" lon="6.947569689">
                <ele>1917.000000</ele>
                <time>2012-08-04T14:16:48Z</time>
            </trkpt>
            <trkpt lat="45.483190063" lon="6.947563151">
                <ele>1917.000000</ele>
                <time>2012-08-04T14:16:49Z</time>
            </trkpt>
            <trkpt lat="45.482959393" lon="6.947452175">
                <ele>1916.000000</ele>
                <time>2012-08-04T14:17:00Z</time>
            </trkpt>
            <trkpt lat="45.482964087" lon="6.947438344">
                <ele>1916.000000</ele>
                <time>2012-08-04T14:17:01Z</time>
            </trkpt>
            <trkpt lat="45.482975319" lon="6.947426023">
                <ele>1916.000000</ele>
                <time>2012-08-04T14:17:02Z</time>
            </trkpt>
            <trkpt lat="45.482991831" lon="6.947418898">
                <ele>1915.000000</ele>
                <time>2012-08-04T14:17:03Z</time>
            </trkpt>
            <trkpt lat="45.483007254" lon="6.947412025">
                <ele>1915.000000</ele>
                <time>2012-08-04T14:17:04Z</time>
            </trkpt>
            <trkpt lat="45.483018067" lon="6.947402470">
                <ele>1915.000000</ele>
                <time>2012-08-04T14:17:05Z</time>
            </trkpt>
            <trkpt lat="45.483028376" lon="6.947388891">
                <ele>1914.000000</ele>
                <time>2012-08-04T14:17:06Z</time>
            </trkpt>
            <trkpt lat="45.483041117" lon="6.947373636">
                <ele>1914.000000</ele>
                <time>2012-08-04T14:17:07Z</time>
            </trkpt>
            <trkpt lat="45.483055701" lon="6.947365170">
                <ele>1914.000000</ele>
                <time>2012-08-04T14:17:08Z</time>
            </trkpt>
            <trkpt lat="45.483067269" lon="6.947357040">
                <ele>1914.000000</ele>
                <time>2012-08-04T14:17:09Z</time>
            </trkpt>
            <trkpt lat="45.483076237" lon="6.947344802">
                <ele>1912.000000</ele>
                <time>2012-08-04T14:17:10Z</time>
            </trkpt>
            <trkpt lat="45.483086882" lon="6.947305827">
                <ele>1909.000000</ele>
                <time>2012-08-04T14:17:13Z</time>
            </trkpt>
            <trkpt lat="45.483091408" lon="6.947298283">
                <ele>1907.000000</ele>
                <time>2012-08-04T14:17:16Z</time>
            </trkpt>
            <trkpt lat="45.483110184" lon="6.947288644">
                <ele>1906.000000</ele>
                <time>2012-08-04T14:17:24Z</time>
            </trkpt>
            <trkpt lat="45.483258124" lon="6.947190911">
                <ele>1906.000000</ele>
                <time>2012-08-04T14:17:35Z</time>
            </trkpt>
            <trkpt lat="45.483264495" lon="6.947179511">
                <ele>1906.000000</ele>
                <time>2012-08-04T14:17:36Z</time>
            </trkpt>
            <trkpt lat="45.483256951" lon="6.947165513">
                <ele>1906.000000</ele>
                <time>2012-08-04T14:17:37Z</time>
            </trkpt>
            <trkpt lat="45.483241947" lon="6.947159478">
                <ele>1905.000000</ele>
                <time>2012-08-04T14:17:38Z</time>
            </trkpt>
            <trkpt lat="45.483223172" lon="6.947153695">
                <ele>1905.000000</ele>
                <time>2012-08-04T14:17:39Z</time>
            </trkpt>
            <trkpt lat="45.483206911" lon="6.947138943">
                <ele>1904.000000</ele>
                <time>2012-08-04T14:17:40Z</time>
            </trkpt>
            <trkpt lat="45.483203055" lon="6.947114971">
                <ele>1904.000000</ele>
                <time>2012-08-04T14:17:41Z</time>
            </trkpt>
            <trkpt lat="45.483209007" lon="6.947090831">
                <ele>1903.000000</ele>
                <time>2012-08-04T14:17:42Z</time>
            </trkpt>
            <trkpt lat="45.483211689" lon="6.947070798">
                <ele>1901.000000</ele>
                <time>2012-08-04T14:17:43Z</time>
            </trkpt>
            <trkpt lat="45.483211605" lon="6.947054202">
                <ele>1900.000000</ele>
                <time>2012-08-04T14:17:44Z</time>
            </trkpt>
            <trkpt lat="45.483210515" lon="6.947037354">
                <ele>1899.000000</ele>
                <time>2012-08-04T14:17:45Z</time>
            </trkpt>
            <trkpt lat="45.483236248" lon="6.947008436">
                <ele>1896.000000</ele>
                <time>2012-08-04T14:17:48Z</time>
            </trkpt>
            <trkpt lat="45.483283605" lon="6.946997624">
                <ele>1896.000000</ele>
                <time>2012-08-04T14:17:50Z</time>
            </trkpt>
            <trkpt lat="45.483283941" lon="6.946979268">
                <ele>1896.000000</ele>
                <time>2012-08-04T14:17:51Z</time>
            </trkpt>
            <trkpt lat="45.483264998" lon="6.946961330">
                <ele>1895.000000</ele>
                <time>2012-08-04T14:17:52Z</time>
            </trkpt>
            <trkpt lat="45.483180340" lon="6.946919002">
                <ele>1895.000000</ele>
                <time>2012-08-04T14:17:55Z</time>
            </trkpt>
            <trkpt lat="45.482998621" lon="6.946899304">
                <ele>1894.000000</ele>
                <time>2012-08-04T14:18:01Z</time>
            </trkpt>
            <trkpt lat="45.482952520" lon="6.946903663">
                <ele>1893.000000</ele>
                <time>2012-08-04T14:18:02Z</time>
            </trkpt>
            <trkpt lat="45.482835257" lon="6.946939956">
                <ele>1889.000000</ele>
                <time>2012-08-04T14:18:05Z</time>
            </trkpt>
            <trkpt lat="45.482771555" lon="6.946988068">
                <ele>1887.000000</ele>
                <time>2012-08-04T14:18:07Z</time>
            </trkpt>
            <trkpt lat="45.482752025" lon="6.946991673">
                <ele>1885.000000</ele>
                <time>2012-08-04T14:18:08Z</time>
            </trkpt>
            <trkpt lat="45.482717156" lon="6.946986811">
                <ele>1884.000000</ele>
                <time>2012-08-04T14:18:09Z</time>
            </trkpt>
            <trkpt lat="45.482681869" lon="6.946983626">
                <ele>1883.000000</ele>
                <time>2012-08-04T14:18:10Z</time>
            </trkpt>
            <trkpt lat="45.482662255" lon="6.946968958">
                <ele>1882.000000</ele>
                <time>2012-08-04T14:18:11Z</time>
            </trkpt>
            <trkpt lat="45.482669044" lon="6.946944315">
                <ele>1881.000000</ele>
                <time>2012-08-04T14:18:12Z</time>
            </trkpt>
            <trkpt lat="45.482694525" lon="6.946927132">
                <ele>1882.000000</ele>
                <time>2012-08-04T14:18:13Z</time>
            </trkpt>
            <trkpt lat="45.482721683" lon="6.946912464">
                <ele>1882.000000</ele>
                <time>2012-08-04T14:18:14Z</time>
            </trkpt>
            <trkpt lat="45.482753869" lon="6.946890252">
                <ele>1882.000000</ele>
                <time>2012-08-04T14:18:15Z</time>
            </trkpt>
            <trkpt lat="45.482789744" lon="6.946858652">
                <ele>1882.000000</ele>
                <time>2012-08-04T14:18:16Z</time>
            </trkpt>
            <trkpt lat="45.482827378" lon="6.946821688">
                <ele>1882.000000</ele>
                <time>2012-08-04T14:18:17Z</time>
            </trkpt>
            <trkpt lat="45.483121080" lon="6.946448442">
                <ele>1883.000000</ele>
                <time>2012-08-04T14:18:24Z</time>
            </trkpt>
            <trkpt lat="45.483178580" lon="6.946336292">
                <ele>1883.000000</ele>
                <time>2012-08-04T14:18:27Z</time>
            </trkpt>
            <trkpt lat="45.483197439" lon="6.946336711">
                <ele>1880.000000</ele>
                <time>2012-08-04T14:18:31Z</time>
            </trkpt>
            <trkpt lat="45.483183358" lon="6.946309302">
                <ele>1879.000000</ele>
                <time>2012-08-04T14:18:41Z</time>
            </trkpt>
            <trkpt lat="45.483167516" lon="6.946315505">
                <ele>1879.000000</ele>
                <time>2012-08-04T14:18:59Z</time>
            </trkpt>
            <trkpt lat="45.483188974" lon="6.946325814">
                <ele>1879.000000</ele>
                <time>2012-08-04T14:19:11Z</time>
            </trkpt>
            <trkpt lat="45.483198864" lon="6.946328329">
                <ele>1880.000000</ele>
                <time>2012-08-04T14:19:15Z</time>
            </trkpt>
            <trkpt lat="45.483204396" lon="6.946331263">
                <ele>1880.000000</ele>
                <time>2012-08-04T14:19:33Z</time>
            </trkpt>
            <trkpt lat="45.483204313" lon="6.946331095">
                <ele>1878.000000</ele>
                <time>2012-08-04T14:19:37Z</time>
            </trkpt>
            <trkpt lat="45.483204983" lon="6.946325060">
                <ele>1878.000000</ele>
                <time>2012-08-04T14:20:15Z</time>
            </trkpt>
            <trkpt lat="45.483204732" lon="6.946325479">
                <ele>1877.000000</ele>
                <time>2012-08-04T14:20:55Z</time>
            </trkpt>
            <trkpt lat="45.483202888" lon="6.946323384">
                <ele>1877.000000</ele>
                <time>2012-08-04T14:21:34Z</time>
            </trkpt>
            <trkpt lat="45.483204145" lon="6.946332604">
                <ele>1877.000000</ele>
                <time>2012-08-04T14:22:13Z</time>
            </trkpt>
            <trkpt lat="45.483202217" lon="6.946334364">
                <ele>1876.000000</ele>
                <time>2012-08-04T14:22:50Z</time>
            </trkpt>
            <trkpt lat="45.483202050" lon="6.946332436">
                <ele>1876.000000</ele>
                <time>2012-08-04T14:23:22Z</time>
            </trkpt>
            <trkpt lat="45.483203307" lon="6.946338555">
                <ele>1876.000000</ele>
                <time>2012-08-04T14:23:57Z</time>
            </trkpt>
            <trkpt lat="45.483199451" lon="6.946339561">
                <ele>1876.000000</ele>
                <time>2012-08-04T14:24:33Z</time>
            </trkpt>
            <trkpt lat="45.483196769" lon="6.946344925">
                <ele>1875.000000</ele>
                <time>2012-08-04T14:25:11Z</time>
            </trkpt>
            <trkpt lat="45.483198445" lon="6.946344422">
                <ele>1875.000000</ele>
                <time>2012-08-04T14:25:48Z</time>
            </trkpt>
            <trkpt lat="45.483193751" lon="6.946339058">
                <ele>1875.000000</ele>
                <time>2012-08-04T14:26:29Z</time>
            </trkpt>
            <trkpt lat="45.483191907" lon="6.946342830">
                <ele>1874.000000</ele>
                <time>2012-08-04T14:27:07Z</time>
            </trkpt>
            <trkpt lat="45.483192327" lon="6.946346266">
                <ele>1874.000000</ele>
                <time>2012-08-04T14:27:38Z</time>
            </trkpt>
            <trkpt lat="45.483189896" lon="6.946350709">
                <ele>1874.000000</ele>
                <time>2012-08-04T14:28:15Z</time>
            </trkpt>
            <trkpt lat="45.483190734" lon="6.946346350">
                <ele>1873.000000</ele>
                <time>2012-08-04T14:28:51Z</time>
            </trkpt>
            <trkpt lat="45.483178161" lon="6.946325060">
                <ele>1875.000000</ele>
                <time>2012-08-04T14:29:23Z</time>
            </trkpt>
            <trkpt lat="45.483172294" lon="6.946334448">
                <ele>1873.000000</ele>
                <time>2012-08-04T14:29:46Z</time>
            </trkpt>
            <trkpt lat="45.483173635" lon="6.946324389">
                <ele>1871.000000</ele>
                <time>2012-08-04T14:30:02Z</time>
            </trkpt>
            <trkpt lat="45.483178664" lon="6.946306955">
                <ele>1874.000000</ele>
                <time>2012-08-04T14:30:30Z</time>
            </trkpt>
            <trkpt lat="45.483180005" lon="6.946306201">
                <ele>1873.000000</ele>
                <time>2012-08-04T14:30:58Z</time>
            </trkpt>
            <trkpt lat="45.483182855" lon="6.946292203">
                <ele>1873.000000</ele>
                <time>2012-08-04T14:31:24Z</time>
            </trkpt>
            <trkpt lat="45.483178664" lon="6.946296226">
                <ele>1873.000000</ele>
                <time>2012-08-04T14:31:51Z</time>
            </trkpt>
            <trkpt lat="45.483187884" lon="6.946304524">
                <ele>1873.000000</ele>
                <time>2012-08-04T14:32:19Z</time>
            </trkpt>
        </trkseg>
    </trk>
</gpx>
